<?xml version="1.0" encoding="UTF-8"?>
<gpx version="1.1" creator="Endomondo.com" xsi:schemaLocation="http://www.topografix.com/GPX/1/1 http://www.topografix.com/GPX/1/1/gpx.xsd http://www.garmin.com/xmlschemas/GpxExtensions/v3 http://www.garmin.com/xmlschemas/GpxExtensionsv3.xsd http://www.garmin.com/xmlschemas/TrackPointExtension/v1 http://www.garmin.com/xmlschemas/TrackPointExtensionv1.xsd" xmlns="http://www.topografix.com/GPX/1/1" xmlns:gpxtpx="http://www.garmin.com/xmlschemas/TrackPointExtension/v1" xmlns:gpxx="http://www.garmin.com/xmlschemas/GpxExtensions/v3" xmlns:xsi="http://www.w3.org/2001/XMLSchema-instance">
  <metadata>
    <author>
      <name>Pablo Pravia Fernadez</name>
      <email id="praporvertesonreir" domain="gmail.com"/>
    </author>
    <link href="http://www.endomondo.com">
      <text>Endomondo</text>
    </link>
    <time>2012-03-01T18:35:52Z</time>
    <bounds minlat="43.391222" minlon="-6.068045" maxlat="43.403223" maxlon="-6.042888"/>
  </metadata>
  <trk>
    <src>http://www.endomondo.com/</src>
    <link href="http://www.endomondo.com/workouts/gCt98mhV8KI">
      <text>endomondo</text>
    </link>
    <type>CYCLING_SPORT</type>
    <trkseg>
      <trkpt lat="43.391222" lon="-6.068045">
        <time>2012-03-01T14:40:45Z</time>
      </trkpt>
      <trkpt lat="43.391222" lon="-6.068045">
        <ele>126.0</ele>
        <time>2012-03-01T14:40:48Z</time>
      </trkpt>
      <trkpt lat="43.391304" lon="-6.068037">
        <ele>125.0</ele>
        <time>2012-03-01T14:40:50Z</time>
      </trkpt>
      <trkpt lat="43.391672" lon="-6.067774">
        <ele>125.0</ele>
        <time>2012-03-01T14:40:57Z</time>
      </trkpt>
      <trkpt lat="43.391911" lon="-6.067625">
        <ele>125.0</ele>
        <time>2012-03-01T14:41:01Z</time>
      </trkpt>
      <trkpt lat="43.392089" lon="-6.067508">
        <ele>125.0</ele>
        <time>2012-03-01T14:41:04Z</time>
      </trkpt>
      <trkpt lat="43.392337" lon="-6.067359">
        <ele>126.0</ele>
        <time>2012-03-01T14:41:08Z</time>
      </trkpt>
      <trkpt lat="43.392669" lon="-6.067152">
        <ele>126.0</ele>
        <time>2012-03-01T14:41:13Z</time>
      </trkpt>
      <trkpt lat="43.392934" lon="-6.066995">
        <ele>126.0</ele>
        <time>2012-03-01T14:41:17Z</time>
      </trkpt>
      <trkpt lat="43.393128" lon="-6.066902">
        <ele>126.0</ele>
        <time>2012-03-01T14:41:20Z</time>
      </trkpt>
      <trkpt lat="43.393365" lon="-6.066575">
        <ele>126.0</ele>
        <time>2012-03-01T14:41:25Z</time>
      </trkpt>
      <trkpt lat="43.393525" lon="-6.066238">
        <ele>126.0</ele>
        <time>2012-03-01T14:41:29Z</time>
      </trkpt>
      <trkpt lat="43.393625" lon="-6.065939">
        <ele>127.0</ele>
        <time>2012-03-01T14:41:32Z</time>
      </trkpt>
      <trkpt lat="43.393675" lon="-6.065427">
        <ele>127.0</ele>
        <time>2012-03-01T14:41:37Z</time>
      </trkpt>
      <trkpt lat="43.393636" lon="-6.065014">
        <ele>127.0</ele>
        <time>2012-03-01T14:41:41Z</time>
      </trkpt>
      <trkpt lat="43.393612" lon="-6.064618">
        <ele>126.0</ele>
        <time>2012-03-01T14:41:45Z</time>
      </trkpt>
      <trkpt lat="43.393587" lon="-6.064218">
        <ele>126.0</ele>
        <time>2012-03-01T14:41:49Z</time>
      </trkpt>
      <trkpt lat="43.393552" lon="-6.063815">
        <ele>126.0</ele>
        <time>2012-03-01T14:41:53Z</time>
      </trkpt>
      <trkpt lat="43.393542" lon="-6.063386">
        <ele>126.0</ele>
        <time>2012-03-01T14:41:57Z</time>
      </trkpt>
      <trkpt lat="43.39352" lon="-6.062969">
        <ele>125.0</ele>
        <time>2012-03-01T14:42:01Z</time>
      </trkpt>
      <trkpt lat="43.393463" lon="-6.062578">
        <ele>125.0</ele>
        <time>2012-03-01T14:42:05Z</time>
      </trkpt>
      <trkpt lat="43.393417" lon="-6.062295">
        <ele>124.0</ele>
        <time>2012-03-01T14:42:08Z</time>
      </trkpt>
      <trkpt lat="43.393387" lon="-6.061828">
        <ele>124.0</ele>
        <time>2012-03-01T14:42:13Z</time>
      </trkpt>
      <trkpt lat="43.393404" lon="-6.061453">
        <ele>124.0</ele>
        <time>2012-03-01T14:42:17Z</time>
      </trkpt>
      <trkpt lat="43.39343" lon="-6.061091">
        <ele>124.0</ele>
        <time>2012-03-01T14:42:21Z</time>
      </trkpt>
      <trkpt lat="43.393476" lon="-6.060739">
        <ele>125.0</ele>
        <time>2012-03-01T14:42:25Z</time>
      </trkpt>
      <trkpt lat="43.393547" lon="-6.060381">
        <ele>125.0</ele>
        <time>2012-03-01T14:42:29Z</time>
      </trkpt>
      <trkpt lat="43.39367" lon="-6.060053">
        <ele>126.0</ele>
        <time>2012-03-01T14:42:33Z</time>
      </trkpt>
      <trkpt lat="43.393789" lon="-6.059824">
        <ele>126.0</ele>
        <time>2012-03-01T14:42:36Z</time>
      </trkpt>
      <trkpt lat="43.393983" lon="-6.059467">
        <ele>126.0</ele>
        <time>2012-03-01T14:42:41Z</time>
      </trkpt>
      <trkpt lat="43.394098" lon="-6.059263">
        <ele>126.0</ele>
        <time>2012-03-01T14:42:44Z</time>
      </trkpt>
      <trkpt lat="43.394277" lon="-6.05892">
        <ele>126.0</ele>
        <time>2012-03-01T14:42:49Z</time>
      </trkpt>
      <trkpt lat="43.394434" lon="-6.058638">
        <ele>126.0</ele>
        <time>2012-03-01T14:42:53Z</time>
      </trkpt>
      <trkpt lat="43.394531" lon="-6.058305">
        <ele>126.0</ele>
        <time>2012-03-01T14:42:57Z</time>
      </trkpt>
      <trkpt lat="43.394646" lon="-6.058095">
        <ele>125.0</ele>
        <time>2012-03-01T14:43:00Z</time>
      </trkpt>
      <trkpt lat="43.394876" lon="-6.057797">
        <ele>125.0</ele>
        <time>2012-03-01T14:43:05Z</time>
      </trkpt>
      <trkpt lat="43.395034" lon="-6.057497">
        <ele>125.0</ele>
        <time>2012-03-01T14:43:09Z</time>
      </trkpt>
      <trkpt lat="43.395185" lon="-6.05719">
        <ele>125.0</ele>
        <time>2012-03-01T14:43:13Z</time>
      </trkpt>
      <trkpt lat="43.395331" lon="-6.05689">
        <ele>125.0</ele>
        <time>2012-03-01T14:43:17Z</time>
      </trkpt>
      <trkpt lat="43.39547" lon="-6.056598">
        <ele>125.0</ele>
        <time>2012-03-01T14:43:21Z</time>
      </trkpt>
      <trkpt lat="43.395609" lon="-6.056295">
        <ele>125.0</ele>
        <time>2012-03-01T14:43:25Z</time>
      </trkpt>
      <trkpt lat="43.395761" lon="-6.055985">
        <ele>126.0</ele>
        <time>2012-03-01T14:43:29Z</time>
      </trkpt>
      <trkpt lat="43.395909" lon="-6.055677">
        <ele>126.0</ele>
        <time>2012-03-01T14:43:33Z</time>
      </trkpt>
      <trkpt lat="43.396054" lon="-6.055378">
        <ele>127.0</ele>
        <time>2012-03-01T14:43:37Z</time>
      </trkpt>
      <trkpt lat="43.39619" lon="-6.055092">
        <ele>127.0</ele>
        <time>2012-03-01T14:43:41Z</time>
      </trkpt>
      <trkpt lat="43.396327" lon="-6.054807">
        <ele>127.0</ele>
        <time>2012-03-01T14:43:45Z</time>
      </trkpt>
      <trkpt lat="43.396467" lon="-6.054524">
        <ele>127.0</ele>
        <time>2012-03-01T14:43:49Z</time>
      </trkpt>
      <trkpt lat="43.396611" lon="-6.054234">
        <ele>127.0</ele>
        <time>2012-03-01T14:43:53Z</time>
      </trkpt>
      <trkpt lat="43.396752" lon="-6.053949">
        <ele>127.0</ele>
        <time>2012-03-01T14:43:57Z</time>
      </trkpt>
      <trkpt lat="43.396886" lon="-6.053675">
        <ele>126.0</ele>
        <time>2012-03-01T14:44:01Z</time>
      </trkpt>
      <trkpt lat="43.397022" lon="-6.053393">
        <ele>126.0</ele>
        <time>2012-03-01T14:44:05Z</time>
      </trkpt>
      <trkpt lat="43.397164" lon="-6.053099">
        <ele>126.0</ele>
        <time>2012-03-01T14:44:09Z</time>
      </trkpt>
      <trkpt lat="43.397271" lon="-6.052879">
        <ele>126.0</ele>
        <time>2012-03-01T14:44:12Z</time>
      </trkpt>
      <trkpt lat="43.39741" lon="-6.052579">
        <ele>126.0</ele>
        <time>2012-03-01T14:44:16Z</time>
      </trkpt>
      <trkpt lat="43.3976" lon="-6.052196">
        <ele>127.0</ele>
        <time>2012-03-01T14:44:21Z</time>
      </trkpt>
      <trkpt lat="43.397747" lon="-6.051877">
        <ele>127.0</ele>
        <time>2012-03-01T14:44:25Z</time>
      </trkpt>
      <trkpt lat="43.397876" lon="-6.051547">
        <ele>127.0</ele>
        <time>2012-03-01T14:44:29Z</time>
      </trkpt>
      <trkpt lat="43.397959" lon="-6.051187">
        <ele>128.0</ele>
        <time>2012-03-01T14:44:33Z</time>
      </trkpt>
      <trkpt lat="43.397939" lon="-6.050941">
        <ele>128.0</ele>
        <time>2012-03-01T14:44:36Z</time>
      </trkpt>
      <trkpt lat="43.398208" lon="-6.050583">
        <ele>128.0</ele>
        <time>2012-03-01T14:44:44Z</time>
      </trkpt>
      <trkpt lat="43.398478" lon="-6.050388">
        <ele>129.0</ele>
        <time>2012-03-01T14:44:49Z</time>
      </trkpt>
      <trkpt lat="43.398654" lon="-6.050092">
        <ele>129.0</ele>
        <time>2012-03-01T14:44:53Z</time>
      </trkpt>
      <trkpt lat="43.398807" lon="-6.04977">
        <ele>129.0</ele>
        <time>2012-03-01T14:44:57Z</time>
      </trkpt>
      <trkpt lat="43.398963" lon="-6.049453">
        <ele>129.0</ele>
        <time>2012-03-01T14:45:01Z</time>
      </trkpt>
      <trkpt lat="43.399121" lon="-6.049145">
        <ele>129.0</ele>
        <time>2012-03-01T14:45:05Z</time>
      </trkpt>
      <trkpt lat="43.399269" lon="-6.048862">
        <ele>128.0</ele>
        <time>2012-03-01T14:45:09Z</time>
      </trkpt>
      <trkpt lat="43.399377" lon="-6.048653">
        <ele>128.0</ele>
        <time>2012-03-01T14:45:12Z</time>
      </trkpt>
      <trkpt lat="43.39953" lon="-6.048405">
        <ele>128.0</ele>
        <time>2012-03-01T14:45:16Z</time>
      </trkpt>
      <trkpt lat="43.399688" lon="-6.04817">
        <ele>128.0</ele>
        <time>2012-03-01T14:45:20Z</time>
      </trkpt>
      <trkpt lat="43.400047" lon="-6.047722">
        <ele>127.0</ele>
        <time>2012-03-01T14:45:28Z</time>
      </trkpt>
      <trkpt lat="43.400291" lon="-6.047451">
        <ele>128.0</ele>
        <time>2012-03-01T14:45:33Z</time>
      </trkpt>
      <trkpt lat="43.4005" lon="-6.047242">
        <ele>128.0</ele>
        <time>2012-03-01T14:45:37Z</time>
      </trkpt>
      <trkpt lat="43.400716" lon="-6.047023">
        <ele>128.0</ele>
        <time>2012-03-01T14:45:41Z</time>
      </trkpt>
      <trkpt lat="43.400941" lon="-6.04679">
        <ele>128.0</ele>
        <time>2012-03-01T14:45:45Z</time>
      </trkpt>
      <trkpt lat="43.401181" lon="-6.046555">
        <ele>127.0</ele>
        <time>2012-03-01T14:45:49Z</time>
      </trkpt>
      <trkpt lat="43.401421" lon="-6.046325">
        <ele>126.0</ele>
        <time>2012-03-01T14:45:53Z</time>
      </trkpt>
      <trkpt lat="43.401657" lon="-6.046101">
        <ele>126.0</ele>
        <time>2012-03-01T14:45:57Z</time>
      </trkpt>
      <trkpt lat="43.401888" lon="-6.045887">
        <ele>125.0</ele>
        <time>2012-03-01T14:46:01Z</time>
      </trkpt>
      <trkpt lat="43.402106" lon="-6.045654">
        <ele>125.0</ele>
        <time>2012-03-01T14:46:05Z</time>
      </trkpt>
      <trkpt lat="43.402227" lon="-6.045426">
        <ele>124.0</ele>
        <time>2012-03-01T14:46:08Z</time>
      </trkpt>
      <trkpt lat="43.402404" lon="-6.044997">
        <ele>125.0</ele>
        <time>2012-03-01T14:46:13Z</time>
      </trkpt>
      <trkpt lat="43.402563" lon="-6.044637">
        <ele>125.0</ele>
        <time>2012-03-01T14:46:17Z</time>
      </trkpt>
      <trkpt lat="43.402799" lon="-6.044354">
        <ele>125.0</ele>
        <time>2012-03-01T14:46:21Z</time>
      </trkpt>
      <trkpt lat="43.402953" lon="-6.043967">
        <ele>126.0</ele>
        <time>2012-03-01T14:46:25Z</time>
      </trkpt>
      <trkpt lat="43.403067" lon="-6.043567">
        <ele>127.0</ele>
        <time>2012-03-01T14:46:29Z</time>
      </trkpt>
      <trkpt lat="43.403166" lon="-6.043184">
        <ele>127.0</ele>
        <time>2012-03-01T14:46:33Z</time>
      </trkpt>
      <trkpt lat="43.403228" lon="-6.042824">
        <ele>127.0</ele>
        <time>2012-03-01T14:46:37Z</time>
      </trkpt>
      <trkpt lat="43.403222" lon="-6.042449">
        <ele>127.0</ele>
        <time>2012-03-01T14:46:41Z</time>
      </trkpt>
      <trkpt lat="43.403191" lon="-6.042098">
        <ele>127.0</ele>
        <time>2012-03-01T14:46:45Z</time>
      </trkpt>
      <trkpt lat="43.403076" lon="-6.041504">
        <ele>128.0</ele>
        <time>2012-03-01T14:46:53Z</time>
      </trkpt>
      <trkpt lat="43.403044" lon="-6.041232">
        <ele>128.0</ele>
        <time>2012-03-01T14:46:57Z</time>
      </trkpt>
      <trkpt lat="43.403025" lon="-6.040964">
        <ele>128.0</ele>
        <time>2012-03-01T14:47:01Z</time>
      </trkpt>
      <trkpt lat="43.403023" lon="-6.040691">
        <ele>128.0</ele>
        <time>2012-03-01T14:47:05Z</time>
      </trkpt>
      <trkpt lat="43.403003" lon="-6.040377">
        <ele>128.0</ele>
        <time>2012-03-01T14:47:09Z</time>
      </trkpt>
      <trkpt lat="43.402986" lon="-6.040211">
        <ele>128.0</ele>
        <time>2012-03-01T14:47:11Z</time>
      </trkpt>
      <trkpt lat="43.402922" lon="-6.039794">
        <ele>129.0</ele>
        <time>2012-03-01T14:47:16Z</time>
      </trkpt>
      <trkpt lat="43.402797" lon="-6.039392">
        <ele>130.0</ele>
        <time>2012-03-01T14:47:21Z</time>
      </trkpt>
      <trkpt lat="43.402716" lon="-6.03915">
        <ele>130.0</ele>
        <time>2012-03-01T14:47:24Z</time>
      </trkpt>
      <trkpt lat="43.402597" lon="-6.038742">
        <ele>130.0</ele>
        <time>2012-03-01T14:47:29Z</time>
      </trkpt>
      <trkpt lat="43.402487" lon="-6.038401">
        <ele>130.0</ele>
        <time>2012-03-01T14:47:33Z</time>
      </trkpt>
      <trkpt lat="43.402358" lon="-6.03805">
        <ele>132.0</ele>
        <time>2012-03-01T14:47:37Z</time>
      </trkpt>
      <trkpt lat="43.402247" lon="-6.0377">
        <ele>132.0</ele>
        <time>2012-03-01T14:47:41Z</time>
      </trkpt>
      <trkpt lat="43.402133" lon="-6.037359">
        <ele>132.0</ele>
        <time>2012-03-01T14:47:45Z</time>
      </trkpt>
      <trkpt lat="43.401999" lon="-6.037019">
        <ele>132.0</ele>
        <time>2012-03-01T14:47:49Z</time>
      </trkpt>
      <trkpt lat="43.401874" lon="-6.036682">
        <ele>133.0</ele>
        <time>2012-03-01T14:47:53Z</time>
      </trkpt>
      <trkpt lat="43.401796" lon="-6.036431">
        <ele>133.0</ele>
        <time>2012-03-01T14:47:56Z</time>
      </trkpt>
      <trkpt lat="43.40175" lon="-6.036274">
        <ele>134.0</ele>
        <time>2012-03-01T14:47:58Z</time>
      </trkpt>
      <trkpt lat="43.401619" lon="-6.035715">
        <ele>136.0</ele>
        <time>2012-03-01T14:48:05Z</time>
      </trkpt>
      <trkpt lat="43.401565" lon="-6.035464">
        <ele>137.0</ele>
        <time>2012-03-01T14:48:08Z</time>
      </trkpt>
      <trkpt lat="43.401474" lon="-6.035055">
        <ele>142.0</ele>
        <time>2012-03-01T14:48:13Z</time>
      </trkpt>
      <trkpt lat="43.401408" lon="-6.03472">
        <ele>144.0</ele>
        <time>2012-03-01T14:48:17Z</time>
      </trkpt>
      <trkpt lat="43.401306" lon="-6.034411">
        <ele>144.0</ele>
        <time>2012-03-01T14:48:21Z</time>
      </trkpt>
      <trkpt lat="43.401125" lon="-6.034132">
        <ele>145.0</ele>
        <time>2012-03-01T14:48:25Z</time>
      </trkpt>
      <trkpt lat="43.400957" lon="-6.033866">
        <ele>146.0</ele>
        <time>2012-03-01T14:48:29Z</time>
      </trkpt>
      <trkpt lat="43.400822" lon="-6.033682">
        <ele>146.0</ele>
        <time>2012-03-01T14:48:32Z</time>
      </trkpt>
      <trkpt lat="43.400593" lon="-6.033363">
        <ele>146.0</ele>
        <time>2012-03-01T14:48:37Z</time>
      </trkpt>
      <trkpt lat="43.400387" lon="-6.033131">
        <ele>147.0</ele>
        <time>2012-03-01T14:48:41Z</time>
      </trkpt>
      <trkpt lat="43.400182" lon="-6.032915">
        <ele>146.0</ele>
        <time>2012-03-01T14:48:45Z</time>
      </trkpt>
      <trkpt lat="43.399968" lon="-6.032715">
        <ele>144.0</ele>
        <time>2012-03-01T14:48:49Z</time>
      </trkpt>
      <trkpt lat="43.399858" lon="-6.032624">
        <ele>143.0</ele>
        <time>2012-03-01T14:48:51Z</time>
      </trkpt>
      <trkpt lat="43.399548" lon="-6.032295">
        <ele>141.0</ele>
        <time>2012-03-01T14:48:57Z</time>
      </trkpt>
      <trkpt lat="43.39939" lon="-6.031995">
        <ele>140.0</ele>
        <time>2012-03-01T14:49:01Z</time>
      </trkpt>
      <trkpt lat="43.399242" lon="-6.031722">
        <ele>140.0</ele>
        <time>2012-03-01T14:49:05Z</time>
      </trkpt>
      <trkpt lat="43.39909" lon="-6.031483">
        <ele>140.0</ele>
        <time>2012-03-01T14:49:09Z</time>
      </trkpt>
      <trkpt lat="43.398929" lon="-6.031259">
        <ele>140.0</ele>
        <time>2012-03-01T14:49:13Z</time>
      </trkpt>
      <trkpt lat="43.398771" lon="-6.031023">
        <ele>139.0</ele>
        <time>2012-03-01T14:49:17Z</time>
      </trkpt>
      <trkpt lat="43.398596" lon="-6.030795">
        <ele>139.0</ele>
        <time>2012-03-01T14:49:21Z</time>
      </trkpt>
      <trkpt lat="43.398401" lon="-6.030606">
        <ele>139.0</ele>
        <time>2012-03-01T14:49:25Z</time>
      </trkpt>
      <trkpt lat="43.398206" lon="-6.030416">
        <ele>140.0</ele>
        <time>2012-03-01T14:49:29Z</time>
      </trkpt>
      <trkpt lat="43.397784" lon="-6.030074">
        <ele>141.0</ele>
        <time>2012-03-01T14:49:37Z</time>
      </trkpt>
      <trkpt lat="43.397573" lon="-6.0299">
        <ele>141.0</ele>
        <time>2012-03-01T14:49:41Z</time>
      </trkpt>
      <trkpt lat="43.39736" lon="-6.029729">
        <ele>137.0</ele>
        <time>2012-03-01T14:49:45Z</time>
      </trkpt>
      <trkpt lat="43.397136" lon="-6.029539">
        <ele>137.0</ele>
        <time>2012-03-01T14:49:49Z</time>
      </trkpt>
      <trkpt lat="43.396916" lon="-6.029313">
        <ele>138.0</ele>
        <time>2012-03-01T14:49:53Z</time>
      </trkpt>
      <trkpt lat="43.396735" lon="-6.029054">
        <ele>139.0</ele>
        <time>2012-03-01T14:49:57Z</time>
      </trkpt>
      <trkpt lat="43.396583" lon="-6.028755">
        <ele>140.0</ele>
        <time>2012-03-01T14:50:01Z</time>
      </trkpt>
      <trkpt lat="43.396488" lon="-6.028523">
        <ele>140.0</ele>
        <time>2012-03-01T14:50:04Z</time>
      </trkpt>
      <trkpt lat="43.396423" lon="-6.028253">
        <ele>138.0</ele>
        <time>2012-03-01T14:50:08Z</time>
      </trkpt>
      <trkpt lat="43.396413" lon="-6.02815">
        <ele>138.0</ele>
        <time>2012-03-01T14:50:10Z</time>
      </trkpt>
      <trkpt lat="43.396382" lon="-6.027835">
        <ele>137.0</ele>
        <time>2012-03-01T14:50:16Z</time>
      </trkpt>
      <trkpt lat="43.396328" lon="-6.027537">
        <ele>138.0</ele>
        <time>2012-03-01T14:50:22Z</time>
      </trkpt>
      <trkpt lat="43.396265" lon="-6.027229">
        <ele>138.0</ele>
        <time>2012-03-01T14:50:28Z</time>
      </trkpt>
      <trkpt lat="43.396225" lon="-6.027002">
        <ele>139.0</ele>
        <time>2012-03-01T14:50:32Z</time>
      </trkpt>
      <trkpt lat="43.396185" lon="-6.026795">
        <ele>138.0</ele>
        <time>2012-03-01T14:50:36Z</time>
      </trkpt>
      <trkpt lat="43.396093" lon="-6.026333">
        <ele>137.0</ele>
        <time>2012-03-01T14:50:44Z</time>
      </trkpt>
      <trkpt lat="43.396039" lon="-6.026044">
        <ele>137.0</ele>
        <time>2012-03-01T14:50:48Z</time>
      </trkpt>
      <trkpt lat="43.395898" lon="-6.02579">
        <ele>137.0</ele>
        <time>2012-03-01T14:50:52Z</time>
      </trkpt>
      <trkpt lat="43.395609" lon="-6.025626">
        <ele>136.0</ele>
        <time>2012-03-01T14:50:57Z</time>
      </trkpt>
      <trkpt lat="43.395337" lon="-6.025621">
        <ele>136.0</ele>
        <time>2012-03-01T14:51:01Z</time>
      </trkpt>
      <trkpt lat="43.395065" lon="-6.025627">
        <ele>137.0</ele>
        <time>2012-03-01T14:51:05Z</time>
      </trkpt>
      <trkpt lat="43.394811" lon="-6.025614">
        <ele>138.0</ele>
        <time>2012-03-01T14:51:09Z</time>
      </trkpt>
      <trkpt lat="43.394567" lon="-6.025534">
        <ele>139.0</ele>
        <time>2012-03-01T14:51:13Z</time>
      </trkpt>
      <trkpt lat="43.394334" lon="-6.025398">
        <ele>139.0</ele>
        <time>2012-03-01T14:51:17Z</time>
      </trkpt>
      <trkpt lat="43.394112" lon="-6.025239">
        <ele>140.0</ele>
        <time>2012-03-01T14:51:21Z</time>
      </trkpt>
      <trkpt lat="43.393907" lon="-6.025064">
        <ele>141.0</ele>
        <time>2012-03-01T14:51:25Z</time>
      </trkpt>
      <trkpt lat="43.393702" lon="-6.024862">
        <ele>142.0</ele>
        <time>2012-03-01T14:51:29Z</time>
      </trkpt>
      <trkpt lat="43.39355" lon="-6.024694">
        <ele>142.0</ele>
        <time>2012-03-01T14:51:32Z</time>
      </trkpt>
      <trkpt lat="43.393413" lon="-6.02451">
        <ele>142.0</ele>
        <time>2012-03-01T14:51:35Z</time>
      </trkpt>
      <trkpt lat="43.393238" lon="-6.024035">
        <ele>144.0</ele>
        <time>2012-03-01T14:51:41Z</time>
      </trkpt>
      <trkpt lat="43.393151" lon="-6.023674">
        <ele>144.0</ele>
        <time>2012-03-01T14:51:45Z</time>
      </trkpt>
      <trkpt lat="43.393099" lon="-6.023301">
        <ele>144.0</ele>
        <time>2012-03-01T14:51:49Z</time>
      </trkpt>
      <trkpt lat="43.393055" lon="-6.022939">
        <ele>144.0</ele>
        <time>2012-03-01T14:51:53Z</time>
      </trkpt>
      <trkpt lat="43.39304" lon="-6.02259">
        <ele>145.0</ele>
        <time>2012-03-01T14:51:57Z</time>
      </trkpt>
      <trkpt lat="43.392998" lon="-6.02226">
        <ele>146.0</ele>
        <time>2012-03-01T14:52:01Z</time>
      </trkpt>
      <trkpt lat="43.392924" lon="-6.022027">
        <ele>147.0</ele>
        <time>2012-03-01T14:52:04Z</time>
      </trkpt>
      <trkpt lat="43.392834" lon="-6.021709">
        <ele>149.0</ele>
        <time>2012-03-01T14:52:08Z</time>
      </trkpt>
      <trkpt lat="43.392844" lon="-6.021388">
        <ele>150.0</ele>
        <time>2012-03-01T14:52:12Z</time>
      </trkpt>
      <trkpt lat="43.393124" lon="-6.021154">
        <ele>149.0</ele>
        <time>2012-03-01T14:52:17Z</time>
      </trkpt>
      <trkpt lat="43.393355" lon="-6.020997">
        <ele>148.0</ele>
        <time>2012-03-01T14:52:21Z</time>
      </trkpt>
      <trkpt lat="43.393574" lon="-6.020804">
        <ele>148.0</ele>
        <time>2012-03-01T14:52:25Z</time>
      </trkpt>
      <trkpt lat="43.393778" lon="-6.020585">
        <ele>148.0</ele>
        <time>2012-03-01T14:52:29Z</time>
      </trkpt>
      <trkpt lat="43.393737" lon="-6.020134">
        <ele>149.0</ele>
        <time>2012-03-01T14:52:33Z</time>
      </trkpt>
      <trkpt lat="43.393611" lon="-6.019694">
        <ele>149.0</ele>
        <time>2012-03-01T14:52:37Z</time>
      </trkpt>
      <trkpt lat="43.39345" lon="-6.01931">
        <ele>149.0</ele>
        <time>2012-03-01T14:52:41Z</time>
      </trkpt>
      <trkpt lat="43.393228" lon="-6.01903">
        <ele>148.0</ele>
        <time>2012-03-01T14:52:45Z</time>
      </trkpt>
      <trkpt lat="43.392977" lon="-6.018837">
        <ele>148.0</ele>
        <time>2012-03-01T14:52:49Z</time>
      </trkpt>
      <trkpt lat="43.392739" lon="-6.018667">
        <ele>148.0</ele>
        <time>2012-03-01T14:52:53Z</time>
      </trkpt>
      <trkpt lat="43.392598" lon="-6.018476">
        <ele>147.0</ele>
        <time>2012-03-01T14:52:56Z</time>
      </trkpt>
      <trkpt lat="43.392499" lon="-6.018032">
        <ele>147.0</ele>
        <time>2012-03-01T14:53:01Z</time>
      </trkpt>
      <trkpt lat="43.392482" lon="-6.017786">
        <ele>147.0</ele>
        <time>2012-03-01T14:53:04Z</time>
      </trkpt>
      <trkpt lat="43.392475" lon="-6.017458">
        <ele>147.0</ele>
        <time>2012-03-01T14:53:08Z</time>
      </trkpt>
      <trkpt lat="43.392472" lon="-6.017295">
        <ele>147.0</ele>
        <time>2012-03-01T14:53:10Z</time>
      </trkpt>
      <trkpt lat="43.392465" lon="-6.016987">
        <ele>147.0</ele>
        <time>2012-03-01T14:53:14Z</time>
      </trkpt>
      <trkpt lat="43.392463" lon="-6.01669">
        <ele>147.0</ele>
        <time>2012-03-01T14:53:18Z</time>
      </trkpt>
      <trkpt lat="43.39246" lon="-6.016233">
        <ele>148.0</ele>
        <time>2012-03-01T14:53:24Z</time>
      </trkpt>
      <trkpt lat="43.392456" lon="-6.016082">
        <ele>149.0</ele>
        <time>2012-03-01T14:53:26Z</time>
      </trkpt>
      <trkpt lat="43.392448" lon="-6.015786">
        <ele>150.0</ele>
        <time>2012-03-01T14:53:30Z</time>
      </trkpt>
      <trkpt lat="43.392438" lon="-6.015356">
        <ele>151.0</ele>
        <time>2012-03-01T14:53:36Z</time>
      </trkpt>
      <trkpt lat="43.392459" lon="-6.015078">
        <ele>151.0</ele>
        <time>2012-03-01T14:53:40Z</time>
      </trkpt>
      <trkpt lat="43.392515" lon="-6.01481">
        <ele>151.0</ele>
        <time>2012-03-01T14:53:44Z</time>
      </trkpt>
      <trkpt lat="43.392561" lon="-6.014541">
        <ele>151.0</ele>
        <time>2012-03-01T14:53:48Z</time>
      </trkpt>
      <trkpt lat="43.392586" lon="-6.014281">
        <ele>152.0</ele>
        <time>2012-03-01T14:53:52Z</time>
      </trkpt>
      <trkpt lat="43.392596" lon="-6.01402">
        <ele>152.0</ele>
        <time>2012-03-01T14:53:56Z</time>
      </trkpt>
      <trkpt lat="43.392591" lon="-6.013765">
        <ele>154.0</ele>
        <time>2012-03-01T14:54:00Z</time>
      </trkpt>
      <trkpt lat="43.392502" lon="-6.013516">
        <ele>155.0</ele>
        <time>2012-03-01T14:54:04Z</time>
      </trkpt>
      <trkpt lat="43.39238" lon="-6.013275">
        <ele>157.0</ele>
        <time>2012-03-01T14:54:08Z</time>
      </trkpt>
      <trkpt lat="43.392124" lon="-6.012988">
        <ele>160.0</ele>
        <time>2012-03-01T14:54:13Z</time>
      </trkpt>
      <trkpt lat="43.391922" lon="-6.012764">
        <ele>162.0</ele>
        <time>2012-03-01T14:54:17Z</time>
      </trkpt>
      <trkpt lat="43.39181" lon="-6.012656">
        <ele>162.0</ele>
        <time>2012-03-01T14:54:19Z</time>
      </trkpt>
      <trkpt lat="43.391529" lon="-6.01242">
        <ele>164.0</ele>
        <time>2012-03-01T14:54:24Z</time>
      </trkpt>
      <trkpt lat="43.391232" lon="-6.012248">
        <ele>164.0</ele>
        <time>2012-03-01T14:54:29Z</time>
      </trkpt>
      <trkpt lat="43.390998" lon="-6.012114">
        <ele>164.0</ele>
        <time>2012-03-01T14:54:33Z</time>
      </trkpt>
      <trkpt lat="43.390798" lon="-6.01195">
        <ele>165.0</ele>
        <time>2012-03-01T14:54:37Z</time>
      </trkpt>
      <trkpt lat="43.390716" lon="-6.011836">
        <ele>165.0</ele>
        <time>2012-03-01T14:54:39Z</time>
      </trkpt>
      <trkpt lat="43.390508" lon="-6.011453">
        <ele>166.0</ele>
        <time>2012-03-01T14:54:45Z</time>
      </trkpt>
      <trkpt lat="43.390386" lon="-6.011177">
        <ele>166.0</ele>
        <time>2012-03-01T14:54:49Z</time>
      </trkpt>
      <trkpt lat="43.390267" lon="-6.010911">
        <ele>166.0</ele>
        <time>2012-03-01T14:54:53Z</time>
      </trkpt>
      <trkpt lat="43.390152" lon="-6.010645">
        <ele>166.0</ele>
        <time>2012-03-01T14:54:57Z</time>
      </trkpt>
      <trkpt lat="43.390092" lon="-6.010515">
        <ele>166.0</ele>
        <time>2012-03-01T14:54:59Z</time>
      </trkpt>
      <trkpt lat="43.389912" lon="-6.010122">
        <ele>166.0</ele>
        <time>2012-03-01T14:55:05Z</time>
      </trkpt>
      <trkpt lat="43.38979" lon="-6.009862">
        <ele>166.0</ele>
        <time>2012-03-01T14:55:09Z</time>
      </trkpt>
      <trkpt lat="43.38967" lon="-6.009609">
        <ele>166.0</ele>
        <time>2012-03-01T14:55:13Z</time>
      </trkpt>
      <trkpt lat="43.389552" lon="-6.009355">
        <ele>168.0</ele>
        <time>2012-03-01T14:55:17Z</time>
      </trkpt>
      <trkpt lat="43.389439" lon="-6.009102">
        <ele>169.0</ele>
        <time>2012-03-01T14:55:21Z</time>
      </trkpt>
      <trkpt lat="43.389322" lon="-6.008865">
        <ele>170.0</ele>
        <time>2012-03-01T14:55:25Z</time>
      </trkpt>
      <trkpt lat="43.389265" lon="-6.008746">
        <ele>170.0</ele>
        <time>2012-03-01T14:55:27Z</time>
      </trkpt>
      <trkpt lat="43.389089" lon="-6.008387">
        <ele>171.0</ele>
        <time>2012-03-01T14:55:33Z</time>
      </trkpt>
      <trkpt lat="43.388985" lon="-6.008173">
        <ele>173.0</ele>
        <time>2012-03-01T14:55:37Z</time>
      </trkpt>
      <trkpt lat="43.388817" lon="-6.007756">
        <ele>174.0</ele>
        <time>2012-03-01T14:55:45Z</time>
      </trkpt>
      <trkpt lat="43.388741" lon="-6.007548">
        <ele>176.0</ele>
        <time>2012-03-01T14:55:49Z</time>
      </trkpt>
      <trkpt lat="43.388665" lon="-6.007336">
        <ele>176.0</ele>
        <time>2012-03-01T14:55:53Z</time>
      </trkpt>
      <trkpt lat="43.388632" lon="-6.007225">
        <ele>177.0</ele>
        <time>2012-03-01T14:55:55Z</time>
      </trkpt>
      <trkpt lat="43.38853" lon="-6.006893">
        <ele>178.0</ele>
        <time>2012-03-01T14:56:01Z</time>
      </trkpt>
      <trkpt lat="43.388462" lon="-6.006657">
        <ele>178.0</ele>
        <time>2012-03-01T14:56:05Z</time>
      </trkpt>
      <trkpt lat="43.388428" lon="-6.006532">
        <ele>179.0</ele>
        <time>2012-03-01T14:56:07Z</time>
      </trkpt>
      <trkpt lat="43.388337" lon="-6.006149">
        <ele>181.0</ele>
        <time>2012-03-01T14:56:13Z</time>
      </trkpt>
      <trkpt lat="43.38828" lon="-6.00588">
        <ele>182.0</ele>
        <time>2012-03-01T14:56:17Z</time>
      </trkpt>
      <trkpt lat="43.388303" lon="-6.005344">
        <ele>183.0</ele>
        <time>2012-03-01T14:56:25Z</time>
      </trkpt>
      <trkpt lat="43.388372" lon="-6.005116">
        <ele>182.0</ele>
        <time>2012-03-01T14:56:29Z</time>
      </trkpt>
      <trkpt lat="43.38844" lon="-6.004861">
        <ele>182.0</ele>
        <time>2012-03-01T14:56:33Z</time>
      </trkpt>
      <trkpt lat="43.388444" lon="-6.004435">
        <ele>180.0</ele>
        <time>2012-03-01T14:56:37Z</time>
      </trkpt>
      <trkpt lat="43.388425" lon="-6.003931">
        <ele>179.0</ele>
        <time>2012-03-01T14:56:41Z</time>
      </trkpt>
      <trkpt lat="43.38836" lon="-6.00341">
        <ele>179.0</ele>
        <time>2012-03-01T14:56:45Z</time>
      </trkpt>
      <trkpt lat="43.388181" lon="-6.002914">
        <ele>177.0</ele>
        <time>2012-03-01T14:56:49Z</time>
      </trkpt>
      <trkpt lat="43.388016" lon="-6.002412">
        <ele>175.0</ele>
        <time>2012-03-01T14:56:53Z</time>
      </trkpt>
      <trkpt lat="43.387911" lon="-6.001887">
        <ele>174.0</ele>
        <time>2012-03-01T14:56:57Z</time>
      </trkpt>
      <trkpt lat="43.387824" lon="-6.001389">
        <ele>173.0</ele>
        <time>2012-03-01T14:57:01Z</time>
      </trkpt>
      <trkpt lat="43.38764" lon="-6.00102">
        <ele>173.0</ele>
        <time>2012-03-01T14:57:05Z</time>
      </trkpt>
      <trkpt lat="43.387404" lon="-6.000765">
        <ele>173.0</ele>
        <time>2012-03-01T14:57:09Z</time>
      </trkpt>
      <trkpt lat="43.387157" lon="-6.000538">
        <ele>173.0</ele>
        <time>2012-03-01T14:57:13Z</time>
      </trkpt>
      <trkpt lat="43.386964" lon="-6.000384">
        <ele>173.0</ele>
        <time>2012-03-01T14:57:16Z</time>
      </trkpt>
      <trkpt lat="43.386603" lon="-6.000385">
        <ele>172.0</ele>
        <time>2012-03-01T14:57:21Z</time>
      </trkpt>
      <trkpt lat="43.386347" lon="-6.000516">
        <ele>172.0</ele>
        <time>2012-03-01T14:57:25Z</time>
      </trkpt>
      <trkpt lat="43.386141" lon="-6.000758">
        <ele>172.0</ele>
        <time>2012-03-01T14:57:29Z</time>
      </trkpt>
      <trkpt lat="43.385934" lon="-6.000947">
        <ele>170.0</ele>
        <time>2012-03-01T14:57:33Z</time>
      </trkpt>
      <trkpt lat="43.385756" lon="-6.001061">
        <ele>168.0</ele>
        <time>2012-03-01T14:57:37Z</time>
      </trkpt>
      <trkpt lat="43.385566" lon="-6.001088">
        <ele>169.0</ele>
        <time>2012-03-01T14:57:41Z</time>
      </trkpt>
      <trkpt lat="43.385375" lon="-6.000955">
        <ele>171.0</ele>
        <time>2012-03-01T14:57:45Z</time>
      </trkpt>
      <trkpt lat="43.385203" lon="-6.000827">
        <ele>172.0</ele>
        <time>2012-03-01T14:57:49Z</time>
      </trkpt>
      <trkpt lat="43.385042" lon="-6.000717">
        <ele>171.0</ele>
        <time>2012-03-01T14:57:53Z</time>
      </trkpt>
      <trkpt lat="43.38488" lon="-6.000629">
        <ele>170.0</ele>
        <time>2012-03-01T14:57:57Z</time>
      </trkpt>
      <trkpt lat="43.384707" lon="-6.000512">
        <ele>169.0</ele>
        <time>2012-03-01T14:58:01Z</time>
      </trkpt>
      <trkpt lat="43.384535" lon="-6.000415">
        <ele>169.0</ele>
        <time>2012-03-01T14:58:05Z</time>
      </trkpt>
      <trkpt lat="43.384378" lon="-6.000356">
        <ele>170.0</ele>
        <time>2012-03-01T14:58:09Z</time>
      </trkpt>
      <trkpt lat="43.384241" lon="-6.000226">
        <ele>171.0</ele>
        <time>2012-03-01T14:58:13Z</time>
      </trkpt>
      <trkpt lat="43.383943" lon="-5.999916">
        <ele>171.0</ele>
        <time>2012-03-01T14:58:21Z</time>
      </trkpt>
      <trkpt lat="43.383627" lon="-5.999692">
        <ele>171.0</ele>
        <time>2012-03-01T14:58:29Z</time>
      </trkpt>
      <trkpt lat="43.383483" lon="-5.999592">
        <ele>171.0</ele>
        <time>2012-03-01T14:58:33Z</time>
      </trkpt>
      <trkpt lat="43.383196" lon="-5.999288">
        <ele>172.0</ele>
        <time>2012-03-01T14:58:41Z</time>
      </trkpt>
      <trkpt lat="43.383038" lon="-5.999154">
        <ele>173.0</ele>
        <time>2012-03-01T14:58:45Z</time>
      </trkpt>
      <trkpt lat="43.382856" lon="-5.999058">
        <ele>174.0</ele>
        <time>2012-03-01T14:58:49Z</time>
      </trkpt>
      <trkpt lat="43.38267" lon="-5.998957">
        <ele>175.0</ele>
        <time>2012-03-01T14:58:53Z</time>
      </trkpt>
      <trkpt lat="43.382495" lon="-5.998831">
        <ele>175.0</ele>
        <time>2012-03-01T14:58:57Z</time>
      </trkpt>
      <trkpt lat="43.382343" lon="-5.998679">
        <ele>176.0</ele>
        <time>2012-03-01T14:59:01Z</time>
      </trkpt>
      <trkpt lat="43.382286" lon="-5.998577">
        <ele>176.0</ele>
        <time>2012-03-01T14:59:03Z</time>
      </trkpt>
      <trkpt lat="43.3821" lon="-5.998297">
        <ele>177.0</ele>
        <time>2012-03-01T14:59:09Z</time>
      </trkpt>
      <trkpt lat="43.382041" lon="-5.998192">
        <ele>178.0</ele>
        <time>2012-03-01T14:59:11Z</time>
      </trkpt>
      <trkpt lat="43.38185" lon="-5.997909">
        <ele>178.0</ele>
        <time>2012-03-01T14:59:17Z</time>
      </trkpt>
      <trkpt lat="43.381639" lon="-5.997918">
        <ele>180.0</ele>
        <time>2012-03-01T14:59:21Z</time>
      </trkpt>
      <trkpt lat="43.381443" lon="-5.997998">
        <ele>181.0</ele>
        <time>2012-03-01T14:59:25Z</time>
      </trkpt>
      <trkpt lat="43.381264" lon="-5.998072">
        <ele>181.0</ele>
        <time>2012-03-01T14:59:29Z</time>
      </trkpt>
      <trkpt lat="43.381098" lon="-5.998159">
        <ele>181.0</ele>
        <time>2012-03-01T14:59:33Z</time>
      </trkpt>
      <trkpt lat="43.38094" lon="-5.99823">
        <ele>182.0</ele>
        <time>2012-03-01T14:59:37Z</time>
      </trkpt>
      <trkpt lat="43.380862" lon="-5.998259">
        <ele>182.0</ele>
        <time>2012-03-01T14:59:39Z</time>
      </trkpt>
      <trkpt lat="43.380606" lon="-5.998277">
        <ele>183.0</ele>
        <time>2012-03-01T14:59:45Z</time>
      </trkpt>
      <trkpt lat="43.38042" lon="-5.998249">
        <ele>185.0</ele>
        <time>2012-03-01T14:59:49Z</time>
      </trkpt>
      <trkpt lat="43.380242" lon="-5.998138">
        <ele>187.0</ele>
        <time>2012-03-01T14:59:53Z</time>
      </trkpt>
      <trkpt lat="43.380155" lon="-5.998075">
        <ele>187.0</ele>
        <time>2012-03-01T14:59:55Z</time>
      </trkpt>
      <trkpt lat="43.379882" lon="-5.997896">
        <ele>187.0</ele>
        <time>2012-03-01T15:00:01Z</time>
      </trkpt>
      <trkpt lat="43.379793" lon="-5.997831">
        <ele>187.0</ele>
        <time>2012-03-01T15:00:03Z</time>
      </trkpt>
      <trkpt lat="43.379541" lon="-5.997616">
        <ele>188.0</ele>
        <time>2012-03-01T15:00:09Z</time>
      </trkpt>
      <trkpt lat="43.379459" lon="-5.997543">
        <ele>189.0</ele>
        <time>2012-03-01T15:00:11Z</time>
      </trkpt>
      <trkpt lat="43.379231" lon="-5.997324">
        <ele>190.0</ele>
        <time>2012-03-01T15:00:17Z</time>
      </trkpt>
      <trkpt lat="43.37915" lon="-5.997276">
        <ele>191.0</ele>
        <time>2012-03-01T15:00:19Z</time>
      </trkpt>
      <trkpt lat="43.378889" lon="-5.997307">
        <ele>191.0</ele>
        <time>2012-03-01T15:00:23Z</time>
      </trkpt>
      <trkpt lat="43.37862" lon="-5.997537">
        <ele>192.0</ele>
        <time>2012-03-01T15:00:29Z</time>
      </trkpt>
      <trkpt lat="43.378496" lon="-5.997734">
        <ele>192.0</ele>
        <time>2012-03-01T15:00:33Z</time>
      </trkpt>
      <trkpt lat="43.37837" lon="-5.997927">
        <ele>193.0</ele>
        <time>2012-03-01T15:00:37Z</time>
      </trkpt>
      <trkpt lat="43.378251" lon="-5.998123">
        <ele>194.0</ele>
        <time>2012-03-01T15:00:41Z</time>
      </trkpt>
      <trkpt lat="43.378132" lon="-5.998315">
        <ele>194.0</ele>
        <time>2012-03-01T15:00:45Z</time>
      </trkpt>
      <trkpt lat="43.378004" lon="-5.998469">
        <ele>195.0</ele>
        <time>2012-03-01T15:00:49Z</time>
      </trkpt>
      <trkpt lat="43.377943" lon="-5.998548">
        <ele>195.0</ele>
        <time>2012-03-01T15:00:51Z</time>
      </trkpt>
      <trkpt lat="43.377742" lon="-5.998769">
        <ele>196.0</ele>
        <time>2012-03-01T15:00:57Z</time>
      </trkpt>
      <trkpt lat="43.377583" lon="-5.998883">
        <ele>197.0</ele>
        <time>2012-03-01T15:01:01Z</time>
      </trkpt>
      <trkpt lat="43.377409" lon="-5.998931">
        <ele>198.0</ele>
        <time>2012-03-01T15:01:05Z</time>
      </trkpt>
      <trkpt lat="43.377234" lon="-5.998923">
        <ele>200.0</ele>
        <time>2012-03-01T15:01:09Z</time>
      </trkpt>
      <trkpt lat="43.377105" lon="-5.998744">
        <ele>202.0</ele>
        <time>2012-03-01T15:01:13Z</time>
      </trkpt>
      <trkpt lat="43.376979" lon="-5.998611">
        <ele>203.0</ele>
        <time>2012-03-01T15:01:17Z</time>
      </trkpt>
      <trkpt lat="43.376843" lon="-5.998477">
        <ele>205.0</ele>
        <time>2012-03-01T15:01:21Z</time>
      </trkpt>
      <trkpt lat="43.37677" lon="-5.998406">
        <ele>205.0</ele>
        <time>2012-03-01T15:01:23Z</time>
      </trkpt>
      <trkpt lat="43.376552" lon="-5.998173">
        <ele>207.0</ele>
        <time>2012-03-01T15:01:29Z</time>
      </trkpt>
      <trkpt lat="43.3764" lon="-5.998027">
        <ele>208.0</ele>
        <time>2012-03-01T15:01:33Z</time>
      </trkpt>
      <trkpt lat="43.376241" lon="-5.997885">
        <ele>209.0</ele>
        <time>2012-03-01T15:01:37Z</time>
      </trkpt>
      <trkpt lat="43.376086" lon="-5.997728">
        <ele>210.0</ele>
        <time>2012-03-01T15:01:41Z</time>
      </trkpt>
      <trkpt lat="43.375934" lon="-5.997563">
        <ele>210.0</ele>
        <time>2012-03-01T15:01:45Z</time>
      </trkpt>
      <trkpt lat="43.375812" lon="-5.997346">
        <ele>211.0</ele>
        <time>2012-03-01T15:01:49Z</time>
      </trkpt>
      <trkpt lat="43.375678" lon="-5.997146">
        <ele>212.0</ele>
        <time>2012-03-01T15:01:53Z</time>
      </trkpt>
      <trkpt lat="43.375475" lon="-5.997069">
        <ele>214.0</ele>
        <time>2012-03-01T15:01:57Z</time>
      </trkpt>
      <trkpt lat="43.375248" lon="-5.997106">
        <ele>215.0</ele>
        <time>2012-03-01T15:02:01Z</time>
      </trkpt>
      <trkpt lat="43.375084" lon="-5.997317">
        <ele>215.0</ele>
        <time>2012-03-01T15:02:05Z</time>
      </trkpt>
      <trkpt lat="43.374932" lon="-5.997507">
        <ele>216.0</ele>
        <time>2012-03-01T15:02:09Z</time>
      </trkpt>
      <trkpt lat="43.374765" lon="-5.997684">
        <ele>216.0</ele>
        <time>2012-03-01T15:02:13Z</time>
      </trkpt>
      <trkpt lat="43.37454" lon="-5.997825">
        <ele>217.0</ele>
        <time>2012-03-01T15:02:17Z</time>
      </trkpt>
      <trkpt lat="43.374353" lon="-5.997862">
        <ele>217.0</ele>
        <time>2012-03-01T15:02:20Z</time>
      </trkpt>
      <trkpt lat="43.368495" lon="-5.9969">
        <ele>228.0</ele>
        <time>2012-03-01T15:04:25Z</time>
      </trkpt>
      <trkpt lat="43.368175" lon="-5.996447">
        <ele>229.0</ele>
        <time>2012-03-01T15:04:33Z</time>
      </trkpt>
      <trkpt lat="43.368124" lon="-5.996202">
        <ele>230.0</ele>
        <time>2012-03-01T15:04:36Z</time>
      </trkpt>
      <trkpt lat="43.36816" lon="-5.995882">
        <ele>231.0</ele>
        <time>2012-03-01T15:04:40Z</time>
      </trkpt>
      <trkpt lat="43.368261" lon="-5.995587">
        <ele>231.0</ele>
        <time>2012-03-01T15:04:44Z</time>
      </trkpt>
      <trkpt lat="43.368371" lon="-5.995311">
        <ele>232.0</ele>
        <time>2012-03-01T15:04:48Z</time>
      </trkpt>
      <trkpt lat="43.368449" lon="-5.99506">
        <ele>232.0</ele>
        <time>2012-03-01T15:04:52Z</time>
      </trkpt>
      <trkpt lat="43.368534" lon="-5.994805">
        <ele>233.0</ele>
        <time>2012-03-01T15:04:56Z</time>
      </trkpt>
      <trkpt lat="43.368569" lon="-5.994667">
        <ele>233.0</ele>
        <time>2012-03-01T15:04:58Z</time>
      </trkpt>
      <trkpt lat="43.368511" lon="-5.994223">
        <ele>235.0</ele>
        <time>2012-03-01T15:05:04Z</time>
      </trkpt>
      <trkpt lat="43.368207" lon="-5.99416">
        <ele>237.0</ele>
        <time>2012-03-01T15:05:09Z</time>
      </trkpt>
      <trkpt lat="43.368036" lon="-5.994247">
        <ele>238.0</ele>
        <time>2012-03-01T15:05:12Z</time>
      </trkpt>
      <trkpt lat="43.367842" lon="-5.994427">
        <ele>239.0</ele>
        <time>2012-03-01T15:05:16Z</time>
      </trkpt>
      <trkpt lat="43.367674" lon="-5.99462">
        <ele>239.0</ele>
        <time>2012-03-01T15:05:20Z</time>
      </trkpt>
      <trkpt lat="43.367523" lon="-5.994807">
        <ele>239.0</ele>
        <time>2012-03-01T15:05:24Z</time>
      </trkpt>
      <trkpt lat="43.367347" lon="-5.994948">
        <ele>240.0</ele>
        <time>2012-03-01T15:05:28Z</time>
      </trkpt>
      <trkpt lat="43.367163" lon="-5.994982">
        <ele>241.0</ele>
        <time>2012-03-01T15:05:32Z</time>
      </trkpt>
      <trkpt lat="43.367073" lon="-5.994905">
        <ele>242.0</ele>
        <time>2012-03-01T15:05:34Z</time>
      </trkpt>
      <trkpt lat="43.367001" lon="-5.994454">
        <ele>245.0</ele>
        <time>2012-03-01T15:05:40Z</time>
      </trkpt>
      <trkpt lat="43.367088" lon="-5.994192">
        <ele>245.0</ele>
        <time>2012-03-01T15:05:44Z</time>
      </trkpt>
      <trkpt lat="43.367153" lon="-5.993935">
        <ele>245.0</ele>
        <time>2012-03-01T15:05:48Z</time>
      </trkpt>
      <trkpt lat="43.367211" lon="-5.993675">
        <ele>245.0</ele>
        <time>2012-03-01T15:05:52Z</time>
      </trkpt>
      <trkpt lat="43.367269" lon="-5.993421">
        <ele>246.0</ele>
        <time>2012-03-01T15:05:56Z</time>
      </trkpt>
      <trkpt lat="43.367297" lon="-5.993298">
        <ele>246.0</ele>
        <time>2012-03-01T15:05:58Z</time>
      </trkpt>
      <trkpt lat="43.367367" lon="-5.992914">
        <ele>245.0</ele>
        <time>2012-03-01T15:06:04Z</time>
      </trkpt>
      <trkpt lat="43.36735" lon="-5.992648">
        <ele>245.0</ele>
        <time>2012-03-01T15:06:08Z</time>
      </trkpt>
      <trkpt lat="43.367294" lon="-5.992394">
        <ele>245.0</ele>
        <time>2012-03-01T15:06:12Z</time>
      </trkpt>
      <trkpt lat="43.367209" lon="-5.99231">
        <ele>245.0</ele>
        <time>2012-03-01T15:06:14Z</time>
      </trkpt>
      <trkpt lat="43.366897" lon="-5.992166">
        <ele>246.0</ele>
        <time>2012-03-01T15:06:20Z</time>
      </trkpt>
      <trkpt lat="43.366683" lon="-5.992076">
        <ele>247.0</ele>
        <time>2012-03-01T15:06:24Z</time>
      </trkpt>
      <trkpt lat="43.366248" lon="-5.991866">
        <ele>248.0</ele>
        <time>2012-03-01T15:06:32Z</time>
      </trkpt>
      <trkpt lat="43.366059" lon="-5.991704">
        <ele>249.0</ele>
        <time>2012-03-01T15:06:36Z</time>
      </trkpt>
      <trkpt lat="43.365895" lon="-5.991479">
        <ele>250.0</ele>
        <time>2012-03-01T15:06:40Z</time>
      </trkpt>
      <trkpt lat="43.365713" lon="-5.991145">
        <ele>251.0</ele>
        <time>2012-03-01T15:06:45Z</time>
      </trkpt>
      <trkpt lat="43.365558" lon="-5.990855">
        <ele>252.0</ele>
        <time>2012-03-01T15:06:49Z</time>
      </trkpt>
      <trkpt lat="43.365403" lon="-5.99055">
        <ele>252.0</ele>
        <time>2012-03-01T15:06:53Z</time>
      </trkpt>
      <trkpt lat="43.36529" lon="-5.990202">
        <ele>253.0</ele>
        <time>2012-03-01T15:06:57Z</time>
      </trkpt>
      <trkpt lat="43.365224" lon="-5.989831">
        <ele>253.0</ele>
        <time>2012-03-01T15:07:01Z</time>
      </trkpt>
      <trkpt lat="43.365182" lon="-5.989452">
        <ele>253.0</ele>
        <time>2012-03-01T15:07:05Z</time>
      </trkpt>
      <trkpt lat="43.365142" lon="-5.989057">
        <ele>254.0</ele>
        <time>2012-03-01T15:07:09Z</time>
      </trkpt>
      <trkpt lat="43.365092" lon="-5.988649">
        <ele>254.0</ele>
        <time>2012-03-01T15:07:13Z</time>
      </trkpt>
      <trkpt lat="43.365035" lon="-5.988225">
        <ele>254.0</ele>
        <time>2012-03-01T15:07:17Z</time>
      </trkpt>
      <trkpt lat="43.364986" lon="-5.987907">
        <ele>254.0</ele>
        <time>2012-03-01T15:07:20Z</time>
      </trkpt>
      <trkpt lat="43.364946" lon="-5.987494">
        <ele>254.0</ele>
        <time>2012-03-01T15:07:24Z</time>
      </trkpt>
      <trkpt lat="43.365218" lon="-5.987139">
        <ele>254.0</ele>
        <time>2012-03-01T15:07:29Z</time>
      </trkpt>
      <trkpt lat="43.365432" lon="-5.986913">
        <ele>253.0</ele>
        <time>2012-03-01T15:07:33Z</time>
      </trkpt>
      <trkpt lat="43.36567" lon="-5.986704">
        <ele>252.0</ele>
        <time>2012-03-01T15:07:37Z</time>
      </trkpt>
      <trkpt lat="43.365917" lon="-5.986485">
        <ele>252.0</ele>
        <time>2012-03-01T15:07:41Z</time>
      </trkpt>
      <trkpt lat="43.366137" lon="-5.98621">
        <ele>252.0</ele>
        <time>2012-03-01T15:07:45Z</time>
      </trkpt>
      <trkpt lat="43.3663" lon="-5.985969">
        <ele>252.0</ele>
        <time>2012-03-01T15:07:48Z</time>
      </trkpt>
      <trkpt lat="43.366382" lon="-5.985539">
        <ele>252.0</ele>
        <time>2012-03-01T15:07:52Z</time>
      </trkpt>
      <trkpt lat="43.366378" lon="-5.984981">
        <ele>252.0</ele>
        <time>2012-03-01T15:07:57Z</time>
      </trkpt>
      <trkpt lat="43.366328" lon="-5.984547">
        <ele>252.0</ele>
        <time>2012-03-01T15:08:01Z</time>
      </trkpt>
      <trkpt lat="43.366275" lon="-5.984148">
        <ele>252.0</ele>
        <time>2012-03-01T15:08:05Z</time>
      </trkpt>
      <trkpt lat="43.366209" lon="-5.983795">
        <ele>253.0</ele>
        <time>2012-03-01T15:08:09Z</time>
      </trkpt>
      <trkpt lat="43.366054" lon="-5.983421">
        <ele>254.0</ele>
        <time>2012-03-01T15:08:13Z</time>
      </trkpt>
      <trkpt lat="43.365876" lon="-5.983034">
        <ele>255.0</ele>
        <time>2012-03-01T15:08:17Z</time>
      </trkpt>
      <trkpt lat="43.365693" lon="-5.982638">
        <ele>256.0</ele>
        <time>2012-03-01T15:08:21Z</time>
      </trkpt>
      <trkpt lat="43.365511" lon="-5.982206">
        <ele>256.0</ele>
        <time>2012-03-01T15:08:25Z</time>
      </trkpt>
      <trkpt lat="43.365398" lon="-5.981682">
        <ele>255.0</ele>
        <time>2012-03-01T15:08:29Z</time>
      </trkpt>
      <trkpt lat="43.365291" lon="-5.981129">
        <ele>255.0</ele>
        <time>2012-03-01T15:08:33Z</time>
      </trkpt>
      <trkpt lat="43.365089" lon="-5.9806">
        <ele>255.0</ele>
        <time>2012-03-01T15:08:37Z</time>
      </trkpt>
      <trkpt lat="43.364657" lon="-5.980303">
        <ele>255.0</ele>
        <time>2012-03-01T15:08:41Z</time>
      </trkpt>
      <trkpt lat="43.3641" lon="-5.980202">
        <ele>254.0</ele>
        <time>2012-03-01T15:08:45Z</time>
      </trkpt>
      <trkpt lat="43.363595" lon="-5.980066">
        <ele>253.0</ele>
        <time>2012-03-01T15:08:49Z</time>
      </trkpt>
      <trkpt lat="43.36315" lon="-5.979741">
        <ele>253.0</ele>
        <time>2012-03-01T15:08:53Z</time>
      </trkpt>
      <trkpt lat="43.362722" lon="-5.979344">
        <ele>253.0</ele>
        <time>2012-03-01T15:08:57Z</time>
      </trkpt>
      <trkpt lat="43.362319" lon="-5.978887">
        <ele>253.0</ele>
        <time>2012-03-01T15:09:01Z</time>
      </trkpt>
      <trkpt lat="43.361942" lon="-5.9784">
        <ele>252.0</ele>
        <time>2012-03-01T15:09:05Z</time>
      </trkpt>
      <trkpt lat="43.36159" lon="-5.977916">
        <ele>252.0</ele>
        <time>2012-03-01T15:09:09Z</time>
      </trkpt>
      <trkpt lat="43.361275" lon="-5.977394">
        <ele>252.0</ele>
        <time>2012-03-01T15:09:13Z</time>
      </trkpt>
      <trkpt lat="43.361034" lon="-5.976801">
        <ele>253.0</ele>
        <time>2012-03-01T15:09:17Z</time>
      </trkpt>
      <trkpt lat="43.36079" lon="-5.976256">
        <ele>254.0</ele>
        <time>2012-03-01T15:09:21Z</time>
      </trkpt>
      <trkpt lat="43.360457" lon="-5.975766">
        <ele>253.0</ele>
        <time>2012-03-01T15:09:25Z</time>
      </trkpt>
      <trkpt lat="43.360189" lon="-5.97511">
        <ele>254.0</ele>
        <time>2012-03-01T15:09:29Z</time>
      </trkpt>
      <trkpt lat="43.359879" lon="-5.974561">
        <ele>257.0</ele>
        <time>2012-03-01T15:09:33Z</time>
      </trkpt>
      <trkpt lat="43.359681" lon="-5.974114">
        <ele>259.0</ele>
        <time>2012-03-01T15:09:36Z</time>
      </trkpt>
      <trkpt lat="43.359575" lon="-5.973287">
        <ele>259.0</ele>
        <time>2012-03-01T15:09:41Z</time>
      </trkpt>
      <trkpt lat="43.359587" lon="-5.972634">
        <ele>259.0</ele>
        <time>2012-03-01T15:09:45Z</time>
      </trkpt>
      <trkpt lat="43.359541" lon="-5.972001">
        <ele>259.0</ele>
        <time>2012-03-01T15:09:49Z</time>
      </trkpt>
      <trkpt lat="43.359537" lon="-5.971388">
        <ele>258.0</ele>
        <time>2012-03-01T15:09:53Z</time>
      </trkpt>
      <trkpt lat="43.35955" lon="-5.970775">
        <ele>259.0</ele>
        <time>2012-03-01T15:09:57Z</time>
      </trkpt>
      <trkpt lat="43.359434" lon="-5.970209">
        <ele>259.0</ele>
        <time>2012-03-01T15:10:01Z</time>
      </trkpt>
      <trkpt lat="43.359253" lon="-5.969685">
        <ele>259.0</ele>
        <time>2012-03-01T15:10:05Z</time>
      </trkpt>
      <trkpt lat="43.359095" lon="-5.969206">
        <ele>259.0</ele>
        <time>2012-03-01T15:10:09Z</time>
      </trkpt>
      <trkpt lat="43.358965" lon="-5.968688">
        <ele>259.0</ele>
        <time>2012-03-01T15:10:13Z</time>
      </trkpt>
      <trkpt lat="43.358907" lon="-5.968142">
        <ele>259.0</ele>
        <time>2012-03-01T15:10:17Z</time>
      </trkpt>
      <trkpt lat="43.358974" lon="-5.967594">
        <ele>260.0</ele>
        <time>2012-03-01T15:10:21Z</time>
      </trkpt>
      <trkpt lat="43.359065" lon="-5.967059">
        <ele>259.0</ele>
        <time>2012-03-01T15:10:25Z</time>
      </trkpt>
      <trkpt lat="43.359157" lon="-5.966527">
        <ele>257.0</ele>
        <time>2012-03-01T15:10:29Z</time>
      </trkpt>
      <trkpt lat="43.359123" lon="-5.966123">
        <ele>255.0</ele>
        <time>2012-03-01T15:10:32Z</time>
      </trkpt>
      <trkpt lat="43.358899" lon="-5.96551">
        <ele>250.0</ele>
        <time>2012-03-01T15:10:37Z</time>
      </trkpt>
      <trkpt lat="43.358424" lon="-5.965419">
        <ele>249.0</ele>
        <time>2012-03-01T15:10:41Z</time>
      </trkpt>
      <trkpt lat="43.357917" lon="-5.965401">
        <ele>248.0</ele>
        <time>2012-03-01T15:10:45Z</time>
      </trkpt>
      <trkpt lat="43.357419" lon="-5.965408">
        <ele>247.0</ele>
        <time>2012-03-01T15:10:49Z</time>
      </trkpt>
      <trkpt lat="43.3569" lon="-5.965613">
        <ele>243.0</ele>
        <time>2012-03-01T15:10:53Z</time>
      </trkpt>
      <trkpt lat="43.356358" lon="-5.965761">
        <ele>238.0</ele>
        <time>2012-03-01T15:10:57Z</time>
      </trkpt>
      <trkpt lat="43.355825" lon="-5.96584">
        <ele>233.0</ele>
        <time>2012-03-01T15:11:01Z</time>
      </trkpt>
      <trkpt lat="43.355291" lon="-5.965807">
        <ele>230.0</ele>
        <time>2012-03-01T15:11:05Z</time>
      </trkpt>
      <trkpt lat="43.354765" lon="-5.965746">
        <ele>229.0</ele>
        <time>2012-03-01T15:11:09Z</time>
      </trkpt>
      <trkpt lat="43.354393" lon="-5.96574">
        <ele>229.0</ele>
        <time>2012-03-01T15:11:12Z</time>
      </trkpt>
      <trkpt lat="43.354017" lon="-5.965875">
        <ele>223.0</ele>
        <time>2012-03-01T15:11:17Z</time>
      </trkpt>
      <trkpt lat="43.353759" lon="-5.96606">
        <ele>220.0</ele>
        <time>2012-03-01T15:11:21Z</time>
      </trkpt>
      <trkpt lat="43.353489" lon="-5.96628">
        <ele>218.0</ele>
        <time>2012-03-01T15:11:25Z</time>
      </trkpt>
      <trkpt lat="43.353203" lon="-5.966464">
        <ele>217.0</ele>
        <time>2012-03-01T15:11:29Z</time>
      </trkpt>
      <trkpt lat="43.352929" lon="-5.966602">
        <ele>216.0</ele>
        <time>2012-03-01T15:11:33Z</time>
      </trkpt>
      <trkpt lat="43.352673" lon="-5.966729">
        <ele>215.0</ele>
        <time>2012-03-01T15:11:37Z</time>
      </trkpt>
      <trkpt lat="43.352466" lon="-5.966997">
        <ele>214.0</ele>
        <time>2012-03-01T15:11:41Z</time>
      </trkpt>
      <trkpt lat="43.352205" lon="-5.967284">
        <ele>213.0</ele>
        <time>2012-03-01T15:11:45Z</time>
      </trkpt>
      <trkpt lat="43.351865" lon="-5.967451">
        <ele>212.0</ele>
        <time>2012-03-01T15:11:49Z</time>
      </trkpt>
      <trkpt lat="43.351507" lon="-5.967572">
        <ele>212.0</ele>
        <time>2012-03-01T15:11:53Z</time>
      </trkpt>
      <trkpt lat="43.351102" lon="-5.967789">
        <ele>211.0</ele>
        <time>2012-03-01T15:11:57Z</time>
      </trkpt>
      <trkpt lat="43.350776" lon="-5.968195">
        <ele>210.0</ele>
        <time>2012-03-01T15:12:01Z</time>
      </trkpt>
      <trkpt lat="43.350391" lon="-5.968416">
        <ele>209.0</ele>
        <time>2012-03-01T15:12:05Z</time>
      </trkpt>
      <trkpt lat="43.350021" lon="-5.96862">
        <ele>208.0</ele>
        <time>2012-03-01T15:12:09Z</time>
      </trkpt>
      <trkpt lat="43.349677" lon="-5.968818">
        <ele>207.0</ele>
        <time>2012-03-01T15:12:13Z</time>
      </trkpt>
      <trkpt lat="43.349343" lon="-5.968991">
        <ele>206.0</ele>
        <time>2012-03-01T15:12:17Z</time>
      </trkpt>
      <trkpt lat="43.34903" lon="-5.969205">
        <ele>204.0</ele>
        <time>2012-03-01T15:12:21Z</time>
      </trkpt>
      <trkpt lat="43.348722" lon="-5.969408">
        <ele>202.0</ele>
        <time>2012-03-01T15:12:25Z</time>
      </trkpt>
      <trkpt lat="43.348422" lon="-5.969587">
        <ele>201.0</ele>
        <time>2012-03-01T15:12:29Z</time>
      </trkpt>
      <trkpt lat="43.348128" lon="-5.969759">
        <ele>200.0</ele>
        <time>2012-03-01T15:12:33Z</time>
      </trkpt>
      <trkpt lat="43.347839" lon="-5.969947">
        <ele>200.0</ele>
        <time>2012-03-01T15:12:37Z</time>
      </trkpt>
      <trkpt lat="43.347568" lon="-5.970159">
        <ele>199.0</ele>
        <time>2012-03-01T15:12:41Z</time>
      </trkpt>
      <trkpt lat="43.347292" lon="-5.970365">
        <ele>198.0</ele>
        <time>2012-03-01T15:12:45Z</time>
      </trkpt>
      <trkpt lat="43.347016" lon="-5.970578">
        <ele>197.0</ele>
        <time>2012-03-01T15:12:49Z</time>
      </trkpt>
      <trkpt lat="43.346749" lon="-5.970793">
        <ele>196.0</ele>
        <time>2012-03-01T15:12:53Z</time>
      </trkpt>
      <trkpt lat="43.346491" lon="-5.971031">
        <ele>196.0</ele>
        <time>2012-03-01T15:12:57Z</time>
      </trkpt>
      <trkpt lat="43.346312" lon="-5.971237">
        <ele>195.0</ele>
        <time>2012-03-01T15:13:00Z</time>
      </trkpt>
      <trkpt lat="43.346022" lon="-5.971583">
        <ele>193.0</ele>
        <time>2012-03-01T15:13:05Z</time>
      </trkpt>
      <trkpt lat="43.345782" lon="-5.971872">
        <ele>193.0</ele>
        <time>2012-03-01T15:13:09Z</time>
      </trkpt>
      <trkpt lat="43.345539" lon="-5.972182">
        <ele>192.0</ele>
        <time>2012-03-01T15:13:13Z</time>
      </trkpt>
      <trkpt lat="43.345266" lon="-5.97246">
        <ele>192.0</ele>
        <time>2012-03-01T15:13:17Z</time>
      </trkpt>
      <trkpt lat="43.345008" lon="-5.972763">
        <ele>191.0</ele>
        <time>2012-03-01T15:13:21Z</time>
      </trkpt>
      <trkpt lat="43.344774" lon="-5.97309">
        <ele>191.0</ele>
        <time>2012-03-01T15:13:25Z</time>
      </trkpt>
      <trkpt lat="43.344539" lon="-5.973414">
        <ele>191.0</ele>
        <time>2012-03-01T15:13:29Z</time>
      </trkpt>
      <trkpt lat="43.344315" lon="-5.973748">
        <ele>191.0</ele>
        <time>2012-03-01T15:13:33Z</time>
      </trkpt>
      <trkpt lat="43.344117" lon="-5.974107">
        <ele>191.0</ele>
        <time>2012-03-01T15:13:37Z</time>
      </trkpt>
      <trkpt lat="43.343942" lon="-5.974498">
        <ele>190.0</ele>
        <time>2012-03-01T15:13:41Z</time>
      </trkpt>
      <trkpt lat="43.343773" lon="-5.974897">
        <ele>190.0</ele>
        <time>2012-03-01T15:13:45Z</time>
      </trkpt>
      <trkpt lat="43.343603" lon="-5.975287">
        <ele>189.0</ele>
        <time>2012-03-01T15:13:49Z</time>
      </trkpt>
      <trkpt lat="43.343497" lon="-5.975598">
        <ele>188.0</ele>
        <time>2012-03-01T15:13:52Z</time>
      </trkpt>
      <trkpt lat="43.343368" lon="-5.976186">
        <ele>185.0</ele>
        <time>2012-03-01T15:13:57Z</time>
      </trkpt>
      <trkpt lat="43.343285" lon="-5.976661">
        <ele>183.0</ele>
        <time>2012-03-01T15:14:01Z</time>
      </trkpt>
      <trkpt lat="43.343208" lon="-5.977112">
        <ele>182.0</ele>
        <time>2012-03-01T15:14:05Z</time>
      </trkpt>
      <trkpt lat="43.343146" lon="-5.977535">
        <ele>181.0</ele>
        <time>2012-03-01T15:14:09Z</time>
      </trkpt>
      <trkpt lat="43.343092" lon="-5.977938">
        <ele>181.0</ele>
        <time>2012-03-01T15:14:13Z</time>
      </trkpt>
      <trkpt lat="43.343027" lon="-5.978297">
        <ele>180.0</ele>
        <time>2012-03-01T15:14:17Z</time>
      </trkpt>
      <trkpt lat="43.343035" lon="-5.978636">
        <ele>179.0</ele>
        <time>2012-03-01T15:14:21Z</time>
      </trkpt>
      <trkpt lat="43.343092" lon="-5.978945">
        <ele>178.0</ele>
        <time>2012-03-01T15:14:25Z</time>
      </trkpt>
      <trkpt lat="43.343098" lon="-5.979275">
        <ele>176.0</ele>
        <time>2012-03-01T15:14:29Z</time>
      </trkpt>
      <trkpt lat="43.343047" lon="-5.979617">
        <ele>176.0</ele>
        <time>2012-03-01T15:14:33Z</time>
      </trkpt>
      <trkpt lat="43.342975" lon="-5.980003">
        <ele>176.0</ele>
        <time>2012-03-01T15:14:37Z</time>
      </trkpt>
      <trkpt lat="43.342928" lon="-5.980289">
        <ele>175.0</ele>
        <time>2012-03-01T15:14:40Z</time>
      </trkpt>
      <trkpt lat="43.342763" lon="-5.980735">
        <ele>175.0</ele>
        <time>2012-03-01T15:14:45Z</time>
      </trkpt>
      <trkpt lat="43.342608" lon="-5.981077">
        <ele>176.0</ele>
        <time>2012-03-01T15:14:49Z</time>
      </trkpt>
      <trkpt lat="43.342445" lon="-5.981407">
        <ele>175.0</ele>
        <time>2012-03-01T15:14:53Z</time>
      </trkpt>
      <trkpt lat="43.342253" lon="-5.981724">
        <ele>175.0</ele>
        <time>2012-03-01T15:14:57Z</time>
      </trkpt>
      <trkpt lat="43.342052" lon="-5.982035">
        <ele>174.0</ele>
        <time>2012-03-01T15:15:01Z</time>
      </trkpt>
      <trkpt lat="43.341959" lon="-5.98218">
        <ele>174.0</ele>
        <time>2012-03-01T15:15:03Z</time>
      </trkpt>
      <trkpt lat="43.341648" lon="-5.982567">
        <ele>174.0</ele>
        <time>2012-03-01T15:15:09Z</time>
      </trkpt>
      <trkpt lat="43.341419" lon="-5.982808">
        <ele>174.0</ele>
        <time>2012-03-01T15:15:13Z</time>
      </trkpt>
      <trkpt lat="43.34119" lon="-5.98308">
        <ele>174.0</ele>
        <time>2012-03-01T15:15:17Z</time>
      </trkpt>
      <trkpt lat="43.340972" lon="-5.983372">
        <ele>174.0</ele>
        <time>2012-03-01T15:15:21Z</time>
      </trkpt>
      <trkpt lat="43.340757" lon="-5.983654">
        <ele>173.0</ele>
        <time>2012-03-01T15:15:25Z</time>
      </trkpt>
      <trkpt lat="43.34053" lon="-5.983922">
        <ele>172.0</ele>
        <time>2012-03-01T15:15:29Z</time>
      </trkpt>
      <trkpt lat="43.340283" lon="-5.984154">
        <ele>172.0</ele>
        <time>2012-03-01T15:15:33Z</time>
      </trkpt>
      <trkpt lat="43.340151" lon="-5.984253">
        <ele>172.0</ele>
        <time>2012-03-01T15:15:35Z</time>
      </trkpt>
      <trkpt lat="43.339739" lon="-5.984528">
        <ele>173.0</ele>
        <time>2012-03-01T15:15:41Z</time>
      </trkpt>
      <trkpt lat="43.339534" lon="-5.984665">
        <ele>173.0</ele>
        <time>2012-03-01T15:15:44Z</time>
      </trkpt>
      <trkpt lat="43.33926" lon="-5.98487">
        <ele>174.0</ele>
        <time>2012-03-01T15:15:48Z</time>
      </trkpt>
      <trkpt lat="43.338932" lon="-5.985187">
        <ele>174.0</ele>
        <time>2012-03-01T15:15:53Z</time>
      </trkpt>
      <trkpt lat="43.338655" lon="-5.985418">
        <ele>175.0</ele>
        <time>2012-03-01T15:15:57Z</time>
      </trkpt>
      <trkpt lat="43.338367" lon="-5.985599">
        <ele>175.0</ele>
        <time>2012-03-01T15:16:01Z</time>
      </trkpt>
      <trkpt lat="43.338043" lon="-5.98566">
        <ele>175.0</ele>
        <time>2012-03-01T15:16:05Z</time>
      </trkpt>
      <trkpt lat="43.337711" lon="-5.985616">
        <ele>175.0</ele>
        <time>2012-03-01T15:16:09Z</time>
      </trkpt>
      <trkpt lat="43.337373" lon="-5.985532">
        <ele>175.0</ele>
        <time>2012-03-01T15:16:13Z</time>
      </trkpt>
      <trkpt lat="43.337205" lon="-5.985533">
        <ele>175.0</ele>
        <time>2012-03-01T15:16:15Z</time>
      </trkpt>
      <trkpt lat="43.336738" lon="-5.985817">
        <ele>175.0</ele>
        <time>2012-03-01T15:16:21Z</time>
      </trkpt>
      <trkpt lat="43.336606" lon="-5.985959">
        <ele>175.0</ele>
        <time>2012-03-01T15:16:23Z</time>
      </trkpt>
      <trkpt lat="43.336202" lon="-5.986374">
        <ele>176.0</ele>
        <time>2012-03-01T15:16:29Z</time>
      </trkpt>
      <trkpt lat="43.335931" lon="-5.986591">
        <ele>176.0</ele>
        <time>2012-03-01T15:16:33Z</time>
      </trkpt>
      <trkpt lat="43.335659" lon="-5.986656">
        <ele>176.0</ele>
        <time>2012-03-01T15:16:37Z</time>
      </trkpt>
      <trkpt lat="43.335368" lon="-5.986607">
        <ele>176.0</ele>
        <time>2012-03-01T15:16:41Z</time>
      </trkpt>
      <trkpt lat="43.335081" lon="-5.986709">
        <ele>176.0</ele>
        <time>2012-03-01T15:16:45Z</time>
      </trkpt>
      <trkpt lat="43.33479" lon="-5.986854">
        <ele>176.0</ele>
        <time>2012-03-01T15:16:49Z</time>
      </trkpt>
      <trkpt lat="43.33457" lon="-5.986971">
        <ele>175.0</ele>
        <time>2012-03-01T15:16:52Z</time>
      </trkpt>
      <trkpt lat="43.334194" lon="-5.987135">
        <ele>174.0</ele>
        <time>2012-03-01T15:16:57Z</time>
      </trkpt>
      <trkpt lat="43.333894" lon="-5.987265">
        <ele>173.0</ele>
        <time>2012-03-01T15:17:01Z</time>
      </trkpt>
      <trkpt lat="43.333601" lon="-5.987393">
        <ele>173.0</ele>
        <time>2012-03-01T15:17:05Z</time>
      </trkpt>
      <trkpt lat="43.333307" lon="-5.987512">
        <ele>174.0</ele>
        <time>2012-03-01T15:17:09Z</time>
      </trkpt>
      <trkpt lat="43.333034" lon="-5.987623">
        <ele>174.0</ele>
        <time>2012-03-01T15:17:13Z</time>
      </trkpt>
      <trkpt lat="43.33278" lon="-5.987749">
        <ele>174.0</ele>
        <time>2012-03-01T15:17:17Z</time>
      </trkpt>
      <trkpt lat="43.332531" lon="-5.987874">
        <ele>175.0</ele>
        <time>2012-03-01T15:17:21Z</time>
      </trkpt>
      <trkpt lat="43.332282" lon="-5.988001">
        <ele>175.0</ele>
        <time>2012-03-01T15:17:25Z</time>
      </trkpt>
      <trkpt lat="43.332032" lon="-5.988126">
        <ele>175.0</ele>
        <time>2012-03-01T15:17:29Z</time>
      </trkpt>
      <trkpt lat="43.331842" lon="-5.988218">
        <ele>176.0</ele>
        <time>2012-03-01T15:17:32Z</time>
      </trkpt>
      <trkpt lat="43.331527" lon="-5.988373">
        <ele>177.0</ele>
        <time>2012-03-01T15:17:37Z</time>
      </trkpt>
      <trkpt lat="43.331272" lon="-5.988481">
        <ele>174.0</ele>
        <time>2012-03-01T15:17:41Z</time>
      </trkpt>
      <trkpt lat="43.330993" lon="-5.988472">
        <ele>173.0</ele>
        <time>2012-03-01T15:17:45Z</time>
      </trkpt>
      <trkpt lat="43.330675" lon="-5.988287">
        <ele>174.0</ele>
        <time>2012-03-01T15:17:49Z</time>
      </trkpt>
      <trkpt lat="43.330403" lon="-5.988116">
        <ele>174.0</ele>
        <time>2012-03-01T15:17:52Z</time>
      </trkpt>
      <trkpt lat="43.329942" lon="-5.988017">
        <ele>174.0</ele>
        <time>2012-03-01T15:17:57Z</time>
      </trkpt>
      <trkpt lat="43.329571" lon="-5.98799">
        <ele>175.0</ele>
        <time>2012-03-01T15:18:01Z</time>
      </trkpt>
      <trkpt lat="43.329229" lon="-5.987958">
        <ele>175.0</ele>
        <time>2012-03-01T15:18:05Z</time>
      </trkpt>
      <trkpt lat="43.328897" lon="-5.988">
        <ele>175.0</ele>
        <time>2012-03-01T15:18:09Z</time>
      </trkpt>
      <trkpt lat="43.328593" lon="-5.988167">
        <ele>175.0</ele>
        <time>2012-03-01T15:18:13Z</time>
      </trkpt>
      <trkpt lat="43.328338" lon="-5.988442">
        <ele>176.0</ele>
        <time>2012-03-01T15:18:17Z</time>
      </trkpt>
      <trkpt lat="43.328099" lon="-5.988732">
        <ele>176.0</ele>
        <time>2012-03-01T15:18:21Z</time>
      </trkpt>
      <trkpt lat="43.327874" lon="-5.989004">
        <ele>177.0</ele>
        <time>2012-03-01T15:18:25Z</time>
      </trkpt>
      <trkpt lat="43.327649" lon="-5.989258">
        <ele>177.0</ele>
        <time>2012-03-01T15:18:29Z</time>
      </trkpt>
      <trkpt lat="43.327538" lon="-5.989389">
        <ele>177.0</ele>
        <time>2012-03-01T15:18:31Z</time>
      </trkpt>
      <trkpt lat="43.327205" lon="-5.989777">
        <ele>178.0</ele>
        <time>2012-03-01T15:18:37Z</time>
      </trkpt>
      <trkpt lat="43.327036" lon="-5.989961">
        <ele>178.0</ele>
        <time>2012-03-01T15:18:40Z</time>
      </trkpt>
      <trkpt lat="43.326747" lon="-5.990291">
        <ele>178.0</ele>
        <time>2012-03-01T15:18:45Z</time>
      </trkpt>
      <trkpt lat="43.326487" lon="-5.990598">
        <ele>178.0</ele>
        <time>2012-03-01T15:18:49Z</time>
      </trkpt>
      <trkpt lat="43.326232" lon="-5.990909">
        <ele>179.0</ele>
        <time>2012-03-01T15:18:53Z</time>
      </trkpt>
      <trkpt lat="43.325957" lon="-5.991185">
        <ele>180.0</ele>
        <time>2012-03-01T15:18:57Z</time>
      </trkpt>
      <trkpt lat="43.325665" lon="-5.991436">
        <ele>180.0</ele>
        <time>2012-03-01T15:19:01Z</time>
      </trkpt>
      <trkpt lat="43.325371" lon="-5.991674">
        <ele>181.0</ele>
        <time>2012-03-01T15:19:05Z</time>
      </trkpt>
      <trkpt lat="43.325072" lon="-5.991902">
        <ele>181.0</ele>
        <time>2012-03-01T15:19:09Z</time>
      </trkpt>
      <trkpt lat="43.324755" lon="-5.99214">
        <ele>182.0</ele>
        <time>2012-03-01T15:19:13Z</time>
      </trkpt>
      <trkpt lat="43.324208" lon="-5.992533">
        <ele>182.0</ele>
        <time>2012-03-01T15:19:20Z</time>
      </trkpt>
      <trkpt lat="43.323905" lon="-5.992708">
        <ele>182.0</ele>
        <time>2012-03-01T15:19:24Z</time>
      </trkpt>
      <trkpt lat="43.323584" lon="-5.992777">
        <ele>181.0</ele>
        <time>2012-03-01T15:19:28Z</time>
      </trkpt>
      <trkpt lat="43.323264" lon="-5.992763">
        <ele>182.0</ele>
        <time>2012-03-01T15:19:32Z</time>
      </trkpt>
      <trkpt lat="43.322854" lon="-5.992705">
        <ele>182.0</ele>
        <time>2012-03-01T15:19:37Z</time>
      </trkpt>
      <trkpt lat="43.322608" lon="-5.992692">
        <ele>182.0</ele>
        <time>2012-03-01T15:19:40Z</time>
      </trkpt>
      <trkpt lat="43.322287" lon="-5.992715">
        <ele>182.0</ele>
        <time>2012-03-01T15:19:44Z</time>
      </trkpt>
      <trkpt lat="43.32199" lon="-5.992753">
        <ele>183.0</ele>
        <time>2012-03-01T15:19:48Z</time>
      </trkpt>
      <trkpt lat="43.321848" lon="-5.992775">
        <ele>183.0</ele>
        <time>2012-03-01T15:19:50Z</time>
      </trkpt>
      <trkpt lat="43.32135" lon="-5.992836">
        <ele>184.0</ele>
        <time>2012-03-01T15:19:57Z</time>
      </trkpt>
      <trkpt lat="43.321136" lon="-5.992864">
        <ele>184.0</ele>
        <time>2012-03-01T15:20:00Z</time>
      </trkpt>
      <trkpt lat="43.320855" lon="-5.992891">
        <ele>184.0</ele>
        <time>2012-03-01T15:20:04Z</time>
      </trkpt>
      <trkpt lat="43.320515" lon="-5.992875">
        <ele>184.0</ele>
        <time>2012-03-01T15:20:09Z</time>
      </trkpt>
      <trkpt lat="43.320244" lon="-5.992779">
        <ele>183.0</ele>
        <time>2012-03-01T15:20:13Z</time>
      </trkpt>
      <trkpt lat="43.32005" lon="-5.992676">
        <ele>184.0</ele>
        <time>2012-03-01T15:20:16Z</time>
      </trkpt>
      <trkpt lat="43.319799" lon="-5.992531">
        <ele>185.0</ele>
        <time>2012-03-01T15:20:20Z</time>
      </trkpt>
      <trkpt lat="43.319675" lon="-5.992466">
        <ele>185.0</ele>
        <time>2012-03-01T15:20:22Z</time>
      </trkpt>
      <trkpt lat="43.319232" lon="-5.992243">
        <ele>186.0</ele>
        <time>2012-03-01T15:20:29Z</time>
      </trkpt>
      <trkpt lat="43.319034" lon="-5.992178">
        <ele>186.0</ele>
        <time>2012-03-01T15:20:32Z</time>
      </trkpt>
      <trkpt lat="43.318689" lon="-5.99205">
        <ele>187.0</ele>
        <time>2012-03-01T15:20:37Z</time>
      </trkpt>
      <trkpt lat="43.318406" lon="-5.991943">
        <ele>188.0</ele>
        <time>2012-03-01T15:20:41Z</time>
      </trkpt>
      <trkpt lat="43.318194" lon="-5.991867">
        <ele>188.0</ele>
        <time>2012-03-01T15:20:44Z</time>
      </trkpt>
      <trkpt lat="43.317983" lon="-5.991801">
        <ele>189.0</ele>
        <time>2012-03-01T15:20:47Z</time>
      </trkpt>
      <trkpt lat="43.317571" lon="-5.991734">
        <ele>189.0</ele>
        <time>2012-03-01T15:20:53Z</time>
      </trkpt>
      <trkpt lat="43.317297" lon="-5.991713">
        <ele>189.0</ele>
        <time>2012-03-01T15:20:57Z</time>
      </trkpt>
      <trkpt lat="43.317159" lon="-5.991703">
        <ele>189.0</ele>
        <time>2012-03-01T15:20:59Z</time>
      </trkpt>
      <trkpt lat="43.31674" lon="-5.99167">
        <ele>189.0</ele>
        <time>2012-03-01T15:21:05Z</time>
      </trkpt>
      <trkpt lat="43.316448" lon="-5.991632">
        <ele>190.0</ele>
        <time>2012-03-01T15:21:09Z</time>
      </trkpt>
      <trkpt lat="43.31613" lon="-5.991607">
        <ele>190.0</ele>
        <time>2012-03-01T15:21:13Z</time>
      </trkpt>
      <trkpt lat="43.31581" lon="-5.991548">
        <ele>192.0</ele>
        <time>2012-03-01T15:21:17Z</time>
      </trkpt>
      <trkpt lat="43.315499" lon="-5.99145">
        <ele>193.0</ele>
        <time>2012-03-01T15:21:21Z</time>
      </trkpt>
      <trkpt lat="43.315193" lon="-5.991304">
        <ele>193.0</ele>
        <time>2012-03-01T15:21:25Z</time>
      </trkpt>
      <trkpt lat="43.314879" lon="-5.991135">
        <ele>193.0</ele>
        <time>2012-03-01T15:21:29Z</time>
      </trkpt>
      <trkpt lat="43.314653" lon="-5.99096">
        <ele>193.0</ele>
        <time>2012-03-01T15:21:32Z</time>
      </trkpt>
      <trkpt lat="43.314323" lon="-5.990542">
        <ele>193.0</ele>
        <time>2012-03-01T15:21:37Z</time>
      </trkpt>
      <trkpt lat="43.314091" lon="-5.990146">
        <ele>194.0</ele>
        <time>2012-03-01T15:21:41Z</time>
      </trkpt>
      <trkpt lat="43.313872" lon="-5.989714">
        <ele>194.0</ele>
        <time>2012-03-01T15:21:45Z</time>
      </trkpt>
      <trkpt lat="43.313681" lon="-5.989287">
        <ele>194.0</ele>
        <time>2012-03-01T15:21:49Z</time>
      </trkpt>
      <trkpt lat="43.313518" lon="-5.988984">
        <ele>193.0</ele>
        <time>2012-03-01T15:21:52Z</time>
      </trkpt>
      <trkpt lat="43.313162" lon="-5.9886">
        <ele>194.0</ele>
        <time>2012-03-01T15:21:57Z</time>
      </trkpt>
      <trkpt lat="43.312825" lon="-5.988377">
        <ele>194.0</ele>
        <time>2012-03-01T15:22:01Z</time>
      </trkpt>
      <trkpt lat="43.312493" lon="-5.988198">
        <ele>193.0</ele>
        <time>2012-03-01T15:22:05Z</time>
      </trkpt>
      <trkpt lat="43.312175" lon="-5.988073">
        <ele>194.0</ele>
        <time>2012-03-01T15:22:09Z</time>
      </trkpt>
      <trkpt lat="43.311855" lon="-5.987962">
        <ele>194.0</ele>
        <time>2012-03-01T15:22:13Z</time>
      </trkpt>
      <trkpt lat="43.311535" lon="-5.987847">
        <ele>195.0</ele>
        <time>2012-03-01T15:22:17Z</time>
      </trkpt>
      <trkpt lat="43.311215" lon="-5.987751">
        <ele>195.0</ele>
        <time>2012-03-01T15:22:21Z</time>
      </trkpt>
      <trkpt lat="43.310911" lon="-5.987663">
        <ele>195.0</ele>
        <time>2012-03-01T15:22:25Z</time>
      </trkpt>
      <trkpt lat="43.310628" lon="-5.987559">
        <ele>195.0</ele>
        <time>2012-03-01T15:22:29Z</time>
      </trkpt>
      <trkpt lat="43.310348" lon="-5.987462">
        <ele>195.0</ele>
        <time>2012-03-01T15:22:33Z</time>
      </trkpt>
      <trkpt lat="43.310069" lon="-5.987357">
        <ele>195.0</ele>
        <time>2012-03-01T15:22:37Z</time>
      </trkpt>
      <trkpt lat="43.309787" lon="-5.987235">
        <ele>194.0</ele>
        <time>2012-03-01T15:22:41Z</time>
      </trkpt>
      <trkpt lat="43.309528" lon="-5.987029">
        <ele>194.0</ele>
        <time>2012-03-01T15:22:45Z</time>
      </trkpt>
      <trkpt lat="43.309292" lon="-5.986768">
        <ele>195.0</ele>
        <time>2012-03-01T15:22:49Z</time>
      </trkpt>
      <trkpt lat="43.30905" lon="-5.986521">
        <ele>195.0</ele>
        <time>2012-03-01T15:22:53Z</time>
      </trkpt>
      <trkpt lat="43.308804" lon="-5.986328">
        <ele>196.0</ele>
        <time>2012-03-01T15:22:57Z</time>
      </trkpt>
      <trkpt lat="43.308552" lon="-5.986182">
        <ele>197.0</ele>
        <time>2012-03-01T15:23:01Z</time>
      </trkpt>
      <trkpt lat="43.308251" lon="-5.986086">
        <ele>198.0</ele>
        <time>2012-03-01T15:23:05Z</time>
      </trkpt>
      <trkpt lat="43.307922" lon="-5.98601">
        <ele>199.0</ele>
        <time>2012-03-01T15:23:09Z</time>
      </trkpt>
      <trkpt lat="43.307573" lon="-5.985971">
        <ele>199.0</ele>
        <time>2012-03-01T15:23:13Z</time>
      </trkpt>
      <trkpt lat="43.307228" lon="-5.985928">
        <ele>200.0</ele>
        <time>2012-03-01T15:23:17Z</time>
      </trkpt>
      <trkpt lat="43.306888" lon="-5.985864">
        <ele>201.0</ele>
        <time>2012-03-01T15:23:21Z</time>
      </trkpt>
      <trkpt lat="43.306556" lon="-5.985736">
        <ele>201.0</ele>
        <time>2012-03-01T15:23:25Z</time>
      </trkpt>
      <trkpt lat="43.306231" lon="-5.985574">
        <ele>201.0</ele>
        <time>2012-03-01T15:23:29Z</time>
      </trkpt>
      <trkpt lat="43.305887" lon="-5.985146">
        <ele>202.0</ele>
        <time>2012-03-01T15:23:33Z</time>
      </trkpt>
      <trkpt lat="43.305646" lon="-5.984708">
        <ele>206.0</ele>
        <time>2012-03-01T15:23:37Z</time>
      </trkpt>
      <trkpt lat="43.305556" lon="-5.984342">
        <ele>208.0</ele>
        <time>2012-03-01T15:23:41Z</time>
      </trkpt>
      <trkpt lat="43.305609" lon="-5.984088">
        <ele>209.0</ele>
        <time>2012-03-01T15:23:45Z</time>
      </trkpt>
      <trkpt lat="43.305757" lon="-5.983844">
        <ele>210.0</ele>
        <time>2012-03-01T15:23:49Z</time>
      </trkpt>
      <trkpt lat="43.305864" lon="-5.983627">
        <ele>211.0</ele>
        <time>2012-03-01T15:23:53Z</time>
      </trkpt>
      <trkpt lat="43.305905" lon="-5.983542">
        <ele>211.0</ele>
        <time>2012-03-01T15:23:55Z</time>
      </trkpt>
      <trkpt lat="43.305955" lon="-5.98344">
        <ele>212.0</ele>
        <time>2012-03-01T15:23:58Z</time>
      </trkpt>
      <trkpt lat="43.305955" lon="-5.98344">
        <time>2012-03-01T15:24:09Z</time>
      </trkpt>
    </trkseg>
    <trkseg>
      <trkpt lat="43.305955" lon="-5.98344">
        <time>2012-03-01T15:24:12Z</time>
      </trkpt>
      <trkpt lat="43.305215" lon="-5.98397">
        <ele>221.0</ele>
        <time>2012-03-01T15:24:16Z</time>
      </trkpt>
      <trkpt lat="43.304756" lon="-5.984094">
        <ele>231.0</ele>
        <time>2012-03-01T15:24:20Z</time>
      </trkpt>
      <trkpt lat="43.304397" lon="-5.984177">
        <ele>236.0</ele>
        <time>2012-03-01T15:24:24Z</time>
      </trkpt>
      <trkpt lat="43.30409" lon="-5.984249">
        <ele>238.0</ele>
        <time>2012-03-01T15:24:28Z</time>
      </trkpt>
      <trkpt lat="43.303819" lon="-5.984323">
        <ele>239.0</ele>
        <time>2012-03-01T15:24:32Z</time>
      </trkpt>
      <trkpt lat="43.303705" lon="-5.984388">
        <ele>239.0</ele>
        <time>2012-03-01T15:24:34Z</time>
      </trkpt>
      <trkpt lat="43.303451" lon="-5.984628">
        <ele>242.0</ele>
        <time>2012-03-01T15:24:39Z</time>
      </trkpt>
      <trkpt lat="43.303219" lon="-5.984916">
        <ele>244.0</ele>
        <time>2012-03-01T15:24:44Z</time>
      </trkpt>
      <trkpt lat="43.30301" lon="-5.985152">
        <ele>244.0</ele>
        <time>2012-03-01T15:24:48Z</time>
      </trkpt>
      <trkpt lat="43.302819" lon="-5.985514">
        <ele>245.0</ele>
        <time>2012-03-01T15:24:52Z</time>
      </trkpt>
      <trkpt lat="43.302642" lon="-5.985849">
        <ele>245.0</ele>
        <time>2012-03-01T15:24:56Z</time>
      </trkpt>
      <trkpt lat="43.302501" lon="-5.986191">
        <ele>246.0</ele>
        <time>2012-03-01T15:25:00Z</time>
      </trkpt>
      <trkpt lat="43.302382" lon="-5.986564">
        <ele>247.0</ele>
        <time>2012-03-01T15:25:04Z</time>
      </trkpt>
      <trkpt lat="43.302276" lon="-5.986937">
        <ele>248.0</ele>
        <time>2012-03-01T15:25:08Z</time>
      </trkpt>
      <trkpt lat="43.30212" lon="-5.987223">
        <ele>249.0</ele>
        <time>2012-03-01T15:25:12Z</time>
      </trkpt>
      <trkpt lat="43.301945" lon="-5.987478">
        <ele>248.0</ele>
        <time>2012-03-01T15:25:16Z</time>
      </trkpt>
      <trkpt lat="43.301779" lon="-5.987723">
        <ele>247.0</ele>
        <time>2012-03-01T15:25:20Z</time>
      </trkpt>
      <trkpt lat="43.301617" lon="-5.987934">
        <ele>248.0</ele>
        <time>2012-03-01T15:25:24Z</time>
      </trkpt>
      <trkpt lat="43.301444" lon="-5.988128">
        <ele>249.0</ele>
        <time>2012-03-01T15:25:28Z</time>
      </trkpt>
      <trkpt lat="43.301249" lon="-5.988292">
        <ele>249.0</ele>
        <time>2012-03-01T15:25:32Z</time>
      </trkpt>
      <trkpt lat="43.301039" lon="-5.988412">
        <ele>249.0</ele>
        <time>2012-03-01T15:25:36Z</time>
      </trkpt>
      <trkpt lat="43.300811" lon="-5.988469">
        <ele>248.0</ele>
        <time>2012-03-01T15:25:40Z</time>
      </trkpt>
      <trkpt lat="43.300572" lon="-5.988456">
        <ele>249.0</ele>
        <time>2012-03-01T15:25:44Z</time>
      </trkpt>
      <trkpt lat="43.300332" lon="-5.988434">
        <ele>249.0</ele>
        <time>2012-03-01T15:25:48Z</time>
      </trkpt>
      <trkpt lat="43.300094" lon="-5.988426">
        <ele>250.0</ele>
        <time>2012-03-01T15:25:52Z</time>
      </trkpt>
      <trkpt lat="43.299862" lon="-5.988434">
        <ele>251.0</ele>
        <time>2012-03-01T15:25:56Z</time>
      </trkpt>
      <trkpt lat="43.299638" lon="-5.98843">
        <ele>251.0</ele>
        <time>2012-03-01T15:26:00Z</time>
      </trkpt>
      <trkpt lat="43.299415" lon="-5.988425">
        <ele>251.0</ele>
        <time>2012-03-01T15:26:04Z</time>
      </trkpt>
      <trkpt lat="43.299415" lon="-5.988425">
        <time>2012-03-01T15:26:15Z</time>
      </trkpt>
    </trkseg>
    <trkseg>
      <trkpt lat="43.299415" lon="-5.988425">
        <time>2012-03-01T15:26:17Z</time>
      </trkpt>
      <trkpt lat="43.298627" lon="-5.986874">
        <ele>249.0</ele>
        <time>2012-03-01T15:26:22Z</time>
      </trkpt>
      <trkpt lat="43.298727" lon="-5.986495">
        <ele>247.0</ele>
        <time>2012-03-01T15:26:26Z</time>
      </trkpt>
      <trkpt lat="43.29881" lon="-5.98608">
        <ele>247.0</ele>
        <time>2012-03-01T15:26:30Z</time>
      </trkpt>
      <trkpt lat="43.298665" lon="-5.98558">
        <ele>246.0</ele>
        <time>2012-03-01T15:26:34Z</time>
      </trkpt>
      <trkpt lat="43.297993" lon="-5.985154">
        <ele>245.0</ele>
        <time>2012-03-01T15:26:38Z</time>
      </trkpt>
      <trkpt lat="43.297419" lon="-5.984835">
        <ele>244.0</ele>
        <time>2012-03-01T15:26:42Z</time>
      </trkpt>
      <trkpt lat="43.296898" lon="-5.984596">
        <ele>244.0</ele>
        <time>2012-03-01T15:26:46Z</time>
      </trkpt>
      <trkpt lat="43.296365" lon="-5.984408">
        <ele>244.0</ele>
        <time>2012-03-01T15:26:50Z</time>
      </trkpt>
      <trkpt lat="43.295851" lon="-5.984167">
        <ele>243.0</ele>
        <time>2012-03-01T15:26:54Z</time>
      </trkpt>
      <trkpt lat="43.295388" lon="-5.983815">
        <ele>243.0</ele>
        <time>2012-03-01T15:26:58Z</time>
      </trkpt>
      <trkpt lat="43.294957" lon="-5.98339">
        <ele>242.0</ele>
        <time>2012-03-01T15:27:02Z</time>
      </trkpt>
      <trkpt lat="43.294521" lon="-5.982986">
        <ele>243.0</ele>
        <time>2012-03-01T15:27:06Z</time>
      </trkpt>
      <trkpt lat="43.294127" lon="-5.982669">
        <ele>244.0</ele>
        <time>2012-03-01T15:27:10Z</time>
      </trkpt>
      <trkpt lat="43.293762" lon="-5.982392">
        <ele>243.0</ele>
        <time>2012-03-01T15:27:14Z</time>
      </trkpt>
      <trkpt lat="43.293426" lon="-5.982132">
        <ele>242.0</ele>
        <time>2012-03-01T15:27:18Z</time>
      </trkpt>
      <trkpt lat="43.293172" lon="-5.981895">
        <ele>243.0</ele>
        <time>2012-03-01T15:27:22Z</time>
      </trkpt>
      <trkpt lat="43.292917" lon="-5.981676">
        <ele>244.0</ele>
        <time>2012-03-01T15:27:26Z</time>
      </trkpt>
      <trkpt lat="43.292536" lon="-5.981527">
        <ele>244.0</ele>
        <time>2012-03-01T15:27:30Z</time>
      </trkpt>
      <trkpt lat="43.292175" lon="-5.981587">
        <ele>245.0</ele>
        <time>2012-03-01T15:27:34Z</time>
      </trkpt>
      <trkpt lat="43.291953" lon="-5.981815">
        <ele>245.0</ele>
        <time>2012-03-01T15:27:38Z</time>
      </trkpt>
      <trkpt lat="43.291723" lon="-5.98202">
        <ele>243.0</ele>
        <time>2012-03-01T15:27:42Z</time>
      </trkpt>
      <trkpt lat="43.291453" lon="-5.98217">
        <ele>241.0</ele>
        <time>2012-03-01T15:27:46Z</time>
      </trkpt>
      <trkpt lat="43.291235" lon="-5.98223">
        <ele>240.0</ele>
        <time>2012-03-01T15:27:49Z</time>
      </trkpt>
      <trkpt lat="43.290861" lon="-5.982274">
        <ele>238.0</ele>
        <time>2012-03-01T15:27:54Z</time>
      </trkpt>
      <trkpt lat="43.29056" lon="-5.982317">
        <ele>237.0</ele>
        <time>2012-03-01T15:27:58Z</time>
      </trkpt>
      <trkpt lat="43.29025" lon="-5.982402">
        <ele>236.0</ele>
        <time>2012-03-01T15:28:02Z</time>
      </trkpt>
      <trkpt lat="43.289938" lon="-5.982516">
        <ele>236.0</ele>
        <time>2012-03-01T15:28:06Z</time>
      </trkpt>
      <trkpt lat="43.289619" lon="-5.982648">
        <ele>236.0</ele>
        <time>2012-03-01T15:28:10Z</time>
      </trkpt>
      <trkpt lat="43.289295" lon="-5.982776">
        <ele>236.0</ele>
        <time>2012-03-01T15:28:14Z</time>
      </trkpt>
      <trkpt lat="43.288979" lon="-5.98289">
        <ele>236.0</ele>
        <time>2012-03-01T15:28:18Z</time>
      </trkpt>
      <trkpt lat="43.288662" lon="-5.983001">
        <ele>235.0</ele>
        <time>2012-03-01T15:28:22Z</time>
      </trkpt>
      <trkpt lat="43.288349" lon="-5.983115">
        <ele>235.0</ele>
        <time>2012-03-01T15:28:26Z</time>
      </trkpt>
      <trkpt lat="43.288041" lon="-5.983243">
        <ele>234.0</ele>
        <time>2012-03-01T15:28:30Z</time>
      </trkpt>
      <trkpt lat="43.28781" lon="-5.983346">
        <ele>234.0</ele>
        <time>2012-03-01T15:28:33Z</time>
      </trkpt>
      <trkpt lat="43.287425" lon="-5.983513">
        <ele>232.0</ele>
        <time>2012-03-01T15:28:38Z</time>
      </trkpt>
      <trkpt lat="43.287112" lon="-5.983615">
        <ele>232.0</ele>
        <time>2012-03-01T15:28:42Z</time>
      </trkpt>
      <trkpt lat="43.286801" lon="-5.983686">
        <ele>232.0</ele>
        <time>2012-03-01T15:28:46Z</time>
      </trkpt>
      <trkpt lat="43.286494" lon="-5.98373">
        <ele>233.0</ele>
        <time>2012-03-01T15:28:50Z</time>
      </trkpt>
      <trkpt lat="43.286186" lon="-5.983768">
        <ele>234.0</ele>
        <time>2012-03-01T15:28:54Z</time>
      </trkpt>
      <trkpt lat="43.285878" lon="-5.983837">
        <ele>234.0</ele>
        <time>2012-03-01T15:28:58Z</time>
      </trkpt>
      <trkpt lat="43.28557" lon="-5.983981">
        <ele>235.0</ele>
        <time>2012-03-01T15:29:02Z</time>
      </trkpt>
      <trkpt lat="43.285286" lon="-5.98426">
        <ele>236.0</ele>
        <time>2012-03-01T15:29:06Z</time>
      </trkpt>
      <trkpt lat="43.285034" lon="-5.984534">
        <ele>237.0</ele>
        <time>2012-03-01T15:29:10Z</time>
      </trkpt>
      <trkpt lat="43.284834" lon="-5.984827">
        <ele>237.0</ele>
        <time>2012-03-01T15:29:14Z</time>
      </trkpt>
      <trkpt lat="43.284648" lon="-5.985164">
        <ele>238.0</ele>
        <time>2012-03-01T15:29:18Z</time>
      </trkpt>
      <trkpt lat="43.284461" lon="-5.985523">
        <ele>239.0</ele>
        <time>2012-03-01T15:29:22Z</time>
      </trkpt>
      <trkpt lat="43.284269" lon="-5.985876">
        <ele>238.0</ele>
        <time>2012-03-01T15:29:26Z</time>
      </trkpt>
      <trkpt lat="43.284096" lon="-5.986249">
        <ele>239.0</ele>
        <time>2012-03-01T15:29:30Z</time>
      </trkpt>
      <trkpt lat="43.283928" lon="-5.986646">
        <ele>240.0</ele>
        <time>2012-03-01T15:29:34Z</time>
      </trkpt>
      <trkpt lat="43.283742" lon="-5.987024">
        <ele>242.0</ele>
        <time>2012-03-01T15:29:38Z</time>
      </trkpt>
      <trkpt lat="43.283529" lon="-5.987376">
        <ele>242.0</ele>
        <time>2012-03-01T15:29:42Z</time>
      </trkpt>
      <trkpt lat="43.283311" lon="-5.987727">
        <ele>242.0</ele>
        <time>2012-03-01T15:29:46Z</time>
      </trkpt>
      <trkpt lat="43.283061" lon="-5.988003">
        <ele>242.0</ele>
        <time>2012-03-01T15:29:50Z</time>
      </trkpt>
      <trkpt lat="43.282787" lon="-5.988147">
        <ele>242.0</ele>
        <time>2012-03-01T15:29:54Z</time>
      </trkpt>
      <trkpt lat="43.28253" lon="-5.988262">
        <ele>242.0</ele>
        <time>2012-03-01T15:29:58Z</time>
      </trkpt>
      <trkpt lat="43.282319" lon="-5.988394">
        <ele>242.0</ele>
        <time>2012-03-01T15:30:02Z</time>
      </trkpt>
      <trkpt lat="43.282131" lon="-5.988547">
        <ele>242.0</ele>
        <time>2012-03-01T15:30:06Z</time>
      </trkpt>
      <trkpt lat="43.281961" lon="-5.988717">
        <ele>243.0</ele>
        <time>2012-03-01T15:30:10Z</time>
      </trkpt>
      <trkpt lat="43.281804" lon="-5.988892">
        <ele>243.0</ele>
        <time>2012-03-01T15:30:14Z</time>
      </trkpt>
      <trkpt lat="43.281656" lon="-5.989055">
        <ele>244.0</ele>
        <time>2012-03-01T15:30:18Z</time>
      </trkpt>
      <trkpt lat="43.281502" lon="-5.989176">
        <ele>245.0</ele>
        <time>2012-03-01T15:30:22Z</time>
      </trkpt>
      <trkpt lat="43.281368" lon="-5.989316">
        <ele>247.0</ele>
        <time>2012-03-01T15:30:26Z</time>
      </trkpt>
      <trkpt lat="43.281245" lon="-5.989492">
        <ele>247.0</ele>
        <time>2012-03-01T15:30:30Z</time>
      </trkpt>
      <trkpt lat="43.281121" lon="-5.989658">
        <ele>248.0</ele>
        <time>2012-03-01T15:30:34Z</time>
      </trkpt>
      <trkpt lat="43.280994" lon="-5.989804">
        <ele>248.0</ele>
        <time>2012-03-01T15:30:38Z</time>
      </trkpt>
      <trkpt lat="43.280862" lon="-5.989933">
        <ele>248.0</ele>
        <time>2012-03-01T15:30:42Z</time>
      </trkpt>
      <trkpt lat="43.280734" lon="-5.99009">
        <ele>249.0</ele>
        <time>2012-03-01T15:30:46Z</time>
      </trkpt>
      <trkpt lat="43.280593" lon="-5.99025">
        <ele>249.0</ele>
        <time>2012-03-01T15:30:50Z</time>
      </trkpt>
      <trkpt lat="43.280424" lon="-5.990368">
        <ele>250.0</ele>
        <time>2012-03-01T15:30:54Z</time>
      </trkpt>
      <trkpt lat="43.280245" lon="-5.990437">
        <ele>250.0</ele>
        <time>2012-03-01T15:30:58Z</time>
      </trkpt>
      <trkpt lat="43.280063" lon="-5.990461">
        <ele>251.0</ele>
        <time>2012-03-01T15:31:02Z</time>
      </trkpt>
      <trkpt lat="43.279884" lon="-5.990426">
        <ele>251.0</ele>
        <time>2012-03-01T15:31:06Z</time>
      </trkpt>
      <trkpt lat="43.279717" lon="-5.990341">
        <ele>251.0</ele>
        <time>2012-03-01T15:31:10Z</time>
      </trkpt>
      <trkpt lat="43.279557" lon="-5.990244">
        <ele>251.0</ele>
        <time>2012-03-01T15:31:14Z</time>
      </trkpt>
      <trkpt lat="43.279384" lon="-5.990167">
        <ele>252.0</ele>
        <time>2012-03-01T15:31:18Z</time>
      </trkpt>
      <trkpt lat="43.279206" lon="-5.990122">
        <ele>252.0</ele>
        <time>2012-03-01T15:31:22Z</time>
      </trkpt>
      <trkpt lat="43.279024" lon="-5.99009">
        <ele>252.0</ele>
        <time>2012-03-01T15:31:26Z</time>
      </trkpt>
      <trkpt lat="43.278824" lon="-5.990126">
        <ele>252.0</ele>
        <time>2012-03-01T15:31:30Z</time>
      </trkpt>
      <trkpt lat="43.278556" lon="-5.990377">
        <ele>253.0</ele>
        <time>2012-03-01T15:31:34Z</time>
      </trkpt>
      <trkpt lat="43.278165" lon="-5.99078">
        <ele>252.0</ele>
        <time>2012-03-01T15:31:38Z</time>
      </trkpt>
      <trkpt lat="43.277798" lon="-5.991159">
        <ele>253.0</ele>
        <time>2012-03-01T15:31:42Z</time>
      </trkpt>
      <trkpt lat="43.27746" lon="-5.991517">
        <ele>253.0</ele>
        <time>2012-03-01T15:31:46Z</time>
      </trkpt>
      <trkpt lat="43.277121" lon="-5.99179">
        <ele>253.0</ele>
        <time>2012-03-01T15:31:50Z</time>
      </trkpt>
      <trkpt lat="43.276823" lon="-5.992039">
        <ele>254.0</ele>
        <time>2012-03-01T15:31:54Z</time>
      </trkpt>
      <trkpt lat="43.276562" lon="-5.992306">
        <ele>255.0</ele>
        <time>2012-03-01T15:31:58Z</time>
      </trkpt>
      <trkpt lat="43.276313" lon="-5.992588">
        <ele>256.0</ele>
        <time>2012-03-01T15:32:02Z</time>
      </trkpt>
      <trkpt lat="43.276068" lon="-5.992879">
        <ele>256.0</ele>
        <time>2012-03-01T15:32:06Z</time>
      </trkpt>
      <trkpt lat="43.275817" lon="-5.993201">
        <ele>256.0</ele>
        <time>2012-03-01T15:32:10Z</time>
      </trkpt>
      <trkpt lat="43.275538" lon="-5.993514">
        <ele>256.0</ele>
        <time>2012-03-01T15:32:14Z</time>
      </trkpt>
      <trkpt lat="43.275246" lon="-5.993829">
        <ele>256.0</ele>
        <time>2012-03-01T15:32:18Z</time>
      </trkpt>
      <trkpt lat="43.274952" lon="-5.994201">
        <ele>255.0</ele>
        <time>2012-03-01T15:32:22Z</time>
      </trkpt>
      <trkpt lat="43.274709" lon="-5.994642">
        <ele>254.0</ele>
        <time>2012-03-01T15:32:26Z</time>
      </trkpt>
      <trkpt lat="43.274586" lon="-5.995127">
        <ele>254.0</ele>
        <time>2012-03-01T15:32:30Z</time>
      </trkpt>
      <trkpt lat="43.274551" lon="-5.995645">
        <ele>254.0</ele>
        <time>2012-03-01T15:32:34Z</time>
      </trkpt>
      <trkpt lat="43.27455" lon="-5.995904">
        <ele>254.0</ele>
        <time>2012-03-01T15:32:36Z</time>
      </trkpt>
      <trkpt lat="43.274518" lon="-5.996692">
        <ele>255.0</ele>
        <time>2012-03-01T15:32:42Z</time>
      </trkpt>
      <trkpt lat="43.274406" lon="-5.997181">
        <ele>255.0</ele>
        <time>2012-03-01T15:32:46Z</time>
      </trkpt>
      <trkpt lat="43.27416" lon="-5.997511">
        <ele>255.0</ele>
        <time>2012-03-01T15:32:50Z</time>
      </trkpt>
      <trkpt lat="43.273892" lon="-5.997774">
        <ele>255.0</ele>
        <time>2012-03-01T15:32:54Z</time>
      </trkpt>
      <trkpt lat="43.273583" lon="-5.998029">
        <ele>255.0</ele>
        <time>2012-03-01T15:32:58Z</time>
      </trkpt>
      <trkpt lat="43.273297" lon="-5.998314">
        <ele>255.0</ele>
        <time>2012-03-01T15:33:02Z</time>
      </trkpt>
      <trkpt lat="43.27302" lon="-5.998611">
        <ele>255.0</ele>
        <time>2012-03-01T15:33:06Z</time>
      </trkpt>
      <trkpt lat="43.272797" lon="-5.998994">
        <ele>256.0</ele>
        <time>2012-03-01T15:33:10Z</time>
      </trkpt>
      <trkpt lat="43.272596" lon="-5.99941">
        <ele>256.0</ele>
        <time>2012-03-01T15:33:14Z</time>
      </trkpt>
      <trkpt lat="43.272407" lon="-5.999819">
        <ele>256.0</ele>
        <time>2012-03-01T15:33:18Z</time>
      </trkpt>
      <trkpt lat="43.272217" lon="-6.000204">
        <ele>255.0</ele>
        <time>2012-03-01T15:33:22Z</time>
      </trkpt>
      <trkpt lat="43.27202" lon="-6.000547">
        <ele>255.0</ele>
        <time>2012-03-01T15:33:26Z</time>
      </trkpt>
      <trkpt lat="43.271798" lon="-6.000836">
        <ele>256.0</ele>
        <time>2012-03-01T15:33:30Z</time>
      </trkpt>
      <trkpt lat="43.271534" lon="-6.001036">
        <ele>257.0</ele>
        <time>2012-03-01T15:33:34Z</time>
      </trkpt>
      <trkpt lat="43.271296" lon="-6.001241">
        <ele>258.0</ele>
        <time>2012-03-01T15:33:38Z</time>
      </trkpt>
      <trkpt lat="43.271023" lon="-6.001356">
        <ele>259.0</ele>
        <time>2012-03-01T15:33:42Z</time>
      </trkpt>
      <trkpt lat="43.270759" lon="-6.001504">
        <ele>258.0</ele>
        <time>2012-03-01T15:33:46Z</time>
      </trkpt>
      <trkpt lat="43.270492" lon="-6.001633">
        <ele>258.0</ele>
        <time>2012-03-01T15:33:50Z</time>
      </trkpt>
      <trkpt lat="43.270221" lon="-6.001738">
        <ele>259.0</ele>
        <time>2012-03-01T15:33:54Z</time>
      </trkpt>
      <trkpt lat="43.26995" lon="-6.001848">
        <ele>259.0</ele>
        <time>2012-03-01T15:33:58Z</time>
      </trkpt>
      <trkpt lat="43.269652" lon="-6.002045">
        <ele>260.0</ele>
        <time>2012-03-01T15:34:02Z</time>
      </trkpt>
      <trkpt lat="43.269309" lon="-6.002319">
        <ele>261.0</ele>
        <time>2012-03-01T15:34:06Z</time>
      </trkpt>
      <trkpt lat="43.268954" lon="-6.002642">
        <ele>262.0</ele>
        <time>2012-03-01T15:34:10Z</time>
      </trkpt>
      <trkpt lat="43.268611" lon="-6.002942">
        <ele>263.0</ele>
        <time>2012-03-01T15:34:14Z</time>
      </trkpt>
      <trkpt lat="43.268282" lon="-6.003205">
        <ele>263.0</ele>
        <time>2012-03-01T15:34:18Z</time>
      </trkpt>
      <trkpt lat="43.267921" lon="-6.003378">
        <ele>263.0</ele>
        <time>2012-03-01T15:34:22Z</time>
      </trkpt>
      <trkpt lat="43.267763" lon="-6.003458">
        <ele>263.0</ele>
        <time>2012-03-01T15:34:24Z</time>
      </trkpt>
      <trkpt lat="43.267308" lon="-6.00368">
        <ele>262.0</ele>
        <time>2012-03-01T15:34:30Z</time>
      </trkpt>
      <trkpt lat="43.267008" lon="-6.003818">
        <ele>262.0</ele>
        <time>2012-03-01T15:34:34Z</time>
      </trkpt>
      <trkpt lat="43.266673" lon="-6.003952">
        <ele>262.0</ele>
        <time>2012-03-01T15:34:38Z</time>
      </trkpt>
      <trkpt lat="43.266327" lon="-6.004081">
        <ele>262.0</ele>
        <time>2012-03-01T15:34:42Z</time>
      </trkpt>
      <trkpt lat="43.26598" lon="-6.004201">
        <ele>262.0</ele>
        <time>2012-03-01T15:34:46Z</time>
      </trkpt>
      <trkpt lat="43.26565" lon="-6.004279">
        <ele>262.0</ele>
        <time>2012-03-01T15:34:50Z</time>
      </trkpt>
      <trkpt lat="43.265314" lon="-6.004322">
        <ele>262.0</ele>
        <time>2012-03-01T15:34:54Z</time>
      </trkpt>
      <trkpt lat="43.264976" lon="-6.004374">
        <ele>261.0</ele>
        <time>2012-03-01T15:34:58Z</time>
      </trkpt>
      <trkpt lat="43.264626" lon="-6.004434">
        <ele>261.0</ele>
        <time>2012-03-01T15:35:02Z</time>
      </trkpt>
      <trkpt lat="43.264272" lon="-6.004504">
        <ele>260.0</ele>
        <time>2012-03-01T15:35:06Z</time>
      </trkpt>
      <trkpt lat="43.263927" lon="-6.004594">
        <ele>260.0</ele>
        <time>2012-03-01T15:35:10Z</time>
      </trkpt>
      <trkpt lat="43.263586" lon="-6.004697">
        <ele>260.0</ele>
        <time>2012-03-01T15:35:14Z</time>
      </trkpt>
      <trkpt lat="43.263244" lon="-6.004806">
        <ele>260.0</ele>
        <time>2012-03-01T15:35:18Z</time>
      </trkpt>
      <trkpt lat="43.262907" lon="-6.004938">
        <ele>259.0</ele>
        <time>2012-03-01T15:35:22Z</time>
      </trkpt>
      <trkpt lat="43.262573" lon="-6.005074">
        <ele>259.0</ele>
        <time>2012-03-01T15:35:26Z</time>
      </trkpt>
      <trkpt lat="43.262293" lon="-6.005296">
        <ele>258.0</ele>
        <time>2012-03-01T15:35:30Z</time>
      </trkpt>
      <trkpt lat="43.262145" lon="-6.005728">
        <ele>258.0</ele>
        <time>2012-03-01T15:35:34Z</time>
      </trkpt>
      <trkpt lat="43.262113" lon="-6.006185">
        <ele>258.0</ele>
        <time>2012-03-01T15:35:38Z</time>
      </trkpt>
      <trkpt lat="43.262068" lon="-6.006605">
        <ele>258.0</ele>
        <time>2012-03-01T15:35:42Z</time>
      </trkpt>
      <trkpt lat="43.261911" lon="-6.006984">
        <ele>258.0</ele>
        <time>2012-03-01T15:35:46Z</time>
      </trkpt>
      <trkpt lat="43.261618" lon="-6.007231">
        <ele>258.0</ele>
        <time>2012-03-01T15:35:50Z</time>
      </trkpt>
      <trkpt lat="43.261295" lon="-6.007378">
        <ele>258.0</ele>
        <time>2012-03-01T15:35:54Z</time>
      </trkpt>
      <trkpt lat="43.260974" lon="-6.007561">
        <ele>258.0</ele>
        <time>2012-03-01T15:35:58Z</time>
      </trkpt>
      <trkpt lat="43.260706" lon="-6.007788">
        <ele>258.0</ele>
        <time>2012-03-01T15:36:02Z</time>
      </trkpt>
      <trkpt lat="43.260484" lon="-6.008015">
        <ele>258.0</ele>
        <time>2012-03-01T15:36:06Z</time>
      </trkpt>
      <trkpt lat="43.260262" lon="-6.008244">
        <ele>259.0</ele>
        <time>2012-03-01T15:36:10Z</time>
      </trkpt>
      <trkpt lat="43.26011" lon="-6.008412">
        <ele>259.0</ele>
        <time>2012-03-01T15:36:13Z</time>
      </trkpt>
      <trkpt lat="43.260017" lon="-6.008524">
        <ele>259.0</ele>
        <time>2012-03-01T15:36:15Z</time>
      </trkpt>
      <trkpt lat="43.259733" lon="-6.008987">
        <ele>258.0</ele>
        <time>2012-03-01T15:36:22Z</time>
      </trkpt>
      <trkpt lat="43.259655" lon="-6.009126">
        <ele>259.0</ele>
        <time>2012-03-01T15:36:24Z</time>
      </trkpt>
      <trkpt lat="43.259399" lon="-6.009549">
        <ele>258.0</ele>
        <time>2012-03-01T15:36:30Z</time>
      </trkpt>
      <trkpt lat="43.259192" lon="-6.009788">
        <ele>259.0</ele>
        <time>2012-03-01T15:36:34Z</time>
      </trkpt>
      <trkpt lat="43.259085" lon="-6.009896">
        <ele>259.0</ele>
        <time>2012-03-01T15:36:36Z</time>
      </trkpt>
      <trkpt lat="43.258754" lon="-6.010222">
        <ele>259.0</ele>
        <time>2012-03-01T15:36:42Z</time>
      </trkpt>
      <trkpt lat="43.258515" lon="-6.010434">
        <ele>259.0</ele>
        <time>2012-03-01T15:36:46Z</time>
      </trkpt>
      <trkpt lat="43.258265" lon="-6.010679">
        <ele>259.0</ele>
        <time>2012-03-01T15:36:50Z</time>
      </trkpt>
      <trkpt lat="43.258071" lon="-6.010891">
        <ele>259.0</ele>
        <time>2012-03-01T15:36:53Z</time>
      </trkpt>
      <trkpt lat="43.257742" lon="-6.011265">
        <ele>259.0</ele>
        <time>2012-03-01T15:36:58Z</time>
      </trkpt>
      <trkpt lat="43.257467" lon="-6.011581">
        <ele>258.0</ele>
        <time>2012-03-01T15:37:02Z</time>
      </trkpt>
      <trkpt lat="43.257174" lon="-6.011838">
        <ele>258.0</ele>
        <time>2012-03-01T15:37:06Z</time>
      </trkpt>
      <trkpt lat="43.256888" lon="-6.012035">
        <ele>258.0</ele>
        <time>2012-03-01T15:37:10Z</time>
      </trkpt>
      <trkpt lat="43.256671" lon="-6.012158">
        <ele>258.0</ele>
        <time>2012-03-01T15:37:13Z</time>
      </trkpt>
      <trkpt lat="43.256421" lon="-6.012499">
        <ele>259.0</ele>
        <time>2012-03-01T15:37:18Z</time>
      </trkpt>
      <trkpt lat="43.256249" lon="-6.012804">
        <ele>259.0</ele>
        <time>2012-03-01T15:37:22Z</time>
      </trkpt>
      <trkpt lat="43.256082" lon="-6.013084">
        <ele>260.0</ele>
        <time>2012-03-01T15:37:26Z</time>
      </trkpt>
      <trkpt lat="43.255949" lon="-6.013268">
        <ele>260.0</ele>
        <time>2012-03-01T15:37:29Z</time>
      </trkpt>
      <trkpt lat="43.255857" lon="-6.013382">
        <ele>260.0</ele>
        <time>2012-03-01T15:37:31Z</time>
      </trkpt>
      <trkpt lat="43.25557" lon="-6.013694">
        <ele>261.0</ele>
        <time>2012-03-01T15:37:37Z</time>
      </trkpt>
      <trkpt lat="43.255303" lon="-6.01395">
        <ele>261.0</ele>
        <time>2012-03-01T15:37:42Z</time>
      </trkpt>
      <trkpt lat="43.255176" lon="-6.014035">
        <ele>262.0</ele>
        <time>2012-03-01T15:37:44Z</time>
      </trkpt>
      <trkpt lat="43.254789" lon="-6.014291">
        <ele>261.0</ele>
        <time>2012-03-01T15:37:50Z</time>
      </trkpt>
      <trkpt lat="43.2545" lon="-6.014431">
        <ele>261.0</ele>
        <time>2012-03-01T15:37:54Z</time>
      </trkpt>
      <trkpt lat="43.254199" lon="-6.014555">
        <ele>261.0</ele>
        <time>2012-03-01T15:37:58Z</time>
      </trkpt>
      <trkpt lat="43.253896" lon="-6.014719">
        <ele>261.0</ele>
        <time>2012-03-01T15:38:02Z</time>
      </trkpt>
      <trkpt lat="43.253591" lon="-6.014912">
        <ele>261.0</ele>
        <time>2012-03-01T15:38:06Z</time>
      </trkpt>
      <trkpt lat="43.253288" lon="-6.015129">
        <ele>261.0</ele>
        <time>2012-03-01T15:38:10Z</time>
      </trkpt>
      <trkpt lat="43.252988" lon="-6.015371">
        <ele>261.0</ele>
        <time>2012-03-01T15:38:14Z</time>
      </trkpt>
      <trkpt lat="43.252843" lon="-6.015506">
        <ele>261.0</ele>
        <time>2012-03-01T15:38:16Z</time>
      </trkpt>
      <trkpt lat="43.252397" lon="-6.015884">
        <ele>261.0</ele>
        <time>2012-03-01T15:38:22Z</time>
      </trkpt>
      <trkpt lat="43.252101" lon="-6.016123">
        <ele>261.0</ele>
        <time>2012-03-01T15:38:26Z</time>
      </trkpt>
      <trkpt lat="43.251823" lon="-6.016393">
        <ele>261.0</ele>
        <time>2012-03-01T15:38:30Z</time>
      </trkpt>
      <trkpt lat="43.251534" lon="-6.01664">
        <ele>262.0</ele>
        <time>2012-03-01T15:38:34Z</time>
      </trkpt>
      <trkpt lat="43.251237" lon="-6.016862">
        <ele>262.0</ele>
        <time>2012-03-01T15:38:38Z</time>
      </trkpt>
      <trkpt lat="43.250955" lon="-6.017129">
        <ele>262.0</ele>
        <time>2012-03-01T15:38:42Z</time>
      </trkpt>
      <trkpt lat="43.250698" lon="-6.017464">
        <ele>262.0</ele>
        <time>2012-03-01T15:38:46Z</time>
      </trkpt>
      <trkpt lat="43.250452" lon="-6.017797">
        <ele>262.0</ele>
        <time>2012-03-01T15:38:50Z</time>
      </trkpt>
      <trkpt lat="43.250179" lon="-6.018117">
        <ele>262.0</ele>
        <time>2012-03-01T15:38:54Z</time>
      </trkpt>
      <trkpt lat="43.2499" lon="-6.018458">
        <ele>261.0</ele>
        <time>2012-03-01T15:38:58Z</time>
      </trkpt>
      <trkpt lat="43.24979" lon="-6.018674">
        <ele>261.0</ele>
        <time>2012-03-01T15:39:00Z</time>
      </trkpt>
      <trkpt lat="43.24965" lon="-6.019434">
        <ele>261.0</ele>
        <time>2012-03-01T15:39:06Z</time>
      </trkpt>
      <trkpt lat="43.249707" lon="-6.019975">
        <ele>262.0</ele>
        <time>2012-03-01T15:39:10Z</time>
      </trkpt>
      <trkpt lat="43.249804" lon="-6.020421">
        <ele>262.0</ele>
        <time>2012-03-01T15:39:14Z</time>
      </trkpt>
      <trkpt lat="43.249924" lon="-6.020786">
        <ele>262.0</ele>
        <time>2012-03-01T15:39:18Z</time>
      </trkpt>
      <trkpt lat="43.249932" lon="-6.021089">
        <ele>262.0</ele>
        <time>2012-03-01T15:39:21Z</time>
      </trkpt>
      <trkpt lat="43.249877" lon="-6.021634">
        <ele>263.0</ele>
        <time>2012-03-01T15:39:26Z</time>
      </trkpt>
      <trkpt lat="43.249865" lon="-6.022067">
        <ele>263.0</ele>
        <time>2012-03-01T15:39:30Z</time>
      </trkpt>
      <trkpt lat="43.24996" lon="-6.022385">
        <ele>264.0</ele>
        <time>2012-03-01T15:39:33Z</time>
      </trkpt>
      <trkpt lat="43.25" lon="-6.022486">
        <ele>264.0</ele>
        <time>2012-03-01T15:39:34Z</time>
      </trkpt>
      <trkpt lat="43.25009" lon="-6.022802">
        <ele>264.0</ele>
        <time>2012-03-01T15:39:37Z</time>
      </trkpt>
      <trkpt lat="43.250166" lon="-6.023328">
        <ele>264.0</ele>
        <time>2012-03-01T15:39:42Z</time>
      </trkpt>
      <trkpt lat="43.250034" lon="-6.023667">
        <ele>265.0</ele>
        <time>2012-03-01T15:39:46Z</time>
      </trkpt>
      <trkpt lat="43.249876" lon="-6.023914">
        <ele>265.0</ele>
        <time>2012-03-01T15:39:49Z</time>
      </trkpt>
      <trkpt lat="43.249552" lon="-6.02418">
        <ele>265.0</ele>
        <time>2012-03-01T15:39:54Z</time>
      </trkpt>
      <trkpt lat="43.249266" lon="-6.024283">
        <ele>265.0</ele>
        <time>2012-03-01T15:39:58Z</time>
      </trkpt>
      <trkpt lat="43.248962" lon="-6.024356">
        <ele>266.0</ele>
        <time>2012-03-01T15:40:02Z</time>
      </trkpt>
      <trkpt lat="43.248639" lon="-6.024416">
        <ele>266.0</ele>
        <time>2012-03-01T15:40:06Z</time>
      </trkpt>
      <trkpt lat="43.248299" lon="-6.024449">
        <ele>266.0</ele>
        <time>2012-03-01T15:40:10Z</time>
      </trkpt>
      <trkpt lat="43.247962" lon="-6.024486">
        <ele>267.0</ele>
        <time>2012-03-01T15:40:14Z</time>
      </trkpt>
      <trkpt lat="43.247625" lon="-6.024526">
        <ele>267.0</ele>
        <time>2012-03-01T15:40:18Z</time>
      </trkpt>
      <trkpt lat="43.247292" lon="-6.02456">
        <ele>267.0</ele>
        <time>2012-03-01T15:40:22Z</time>
      </trkpt>
      <trkpt lat="43.246963" lon="-6.024603">
        <ele>268.0</ele>
        <time>2012-03-01T15:40:26Z</time>
      </trkpt>
      <trkpt lat="43.246634" lon="-6.024696">
        <ele>268.0</ele>
        <time>2012-03-01T15:40:30Z</time>
      </trkpt>
      <trkpt lat="43.246326" lon="-6.024831">
        <ele>268.0</ele>
        <time>2012-03-01T15:40:34Z</time>
      </trkpt>
      <trkpt lat="43.246004" lon="-6.024886">
        <ele>268.0</ele>
        <time>2012-03-01T15:40:38Z</time>
      </trkpt>
      <trkpt lat="43.24568" lon="-6.024876">
        <ele>269.0</ele>
        <time>2012-03-01T15:40:42Z</time>
      </trkpt>
      <trkpt lat="43.245357" lon="-6.024818">
        <ele>269.0</ele>
        <time>2012-03-01T15:40:46Z</time>
      </trkpt>
      <trkpt lat="43.245034" lon="-6.024774">
        <ele>269.0</ele>
        <time>2012-03-01T15:40:50Z</time>
      </trkpt>
      <trkpt lat="43.244799" lon="-6.024748">
        <ele>269.0</ele>
        <time>2012-03-01T15:40:53Z</time>
      </trkpt>
      <trkpt lat="43.24441" lon="-6.024737">
        <ele>269.0</ele>
        <time>2012-03-01T15:40:58Z</time>
      </trkpt>
      <trkpt lat="43.244084" lon="-6.02479">
        <ele>269.0</ele>
        <time>2012-03-01T15:41:02Z</time>
      </trkpt>
      <trkpt lat="43.243727" lon="-6.024922">
        <ele>270.0</ele>
        <time>2012-03-01T15:41:06Z</time>
      </trkpt>
      <trkpt lat="43.243318" lon="-6.025056">
        <ele>270.0</ele>
        <time>2012-03-01T15:41:10Z</time>
      </trkpt>
      <trkpt lat="43.242873" lon="-6.025148">
        <ele>270.0</ele>
        <time>2012-03-01T15:41:14Z</time>
      </trkpt>
      <trkpt lat="43.242523" lon="-6.025317">
        <ele>271.0</ele>
        <time>2012-03-01T15:41:18Z</time>
      </trkpt>
      <trkpt lat="43.242319" lon="-6.025607">
        <ele>273.0</ele>
        <time>2012-03-01T15:41:22Z</time>
      </trkpt>
      <trkpt lat="43.242077" lon="-6.025767">
        <ele>272.0</ele>
        <time>2012-03-01T15:41:26Z</time>
      </trkpt>
      <trkpt lat="43.241862" lon="-6.026042">
        <ele>271.0</ele>
        <time>2012-03-01T15:41:30Z</time>
      </trkpt>
      <trkpt lat="43.241638" lon="-6.026327">
        <ele>270.0</ele>
        <time>2012-03-01T15:41:34Z</time>
      </trkpt>
      <trkpt lat="43.241427" lon="-6.026613">
        <ele>270.0</ele>
        <time>2012-03-01T15:41:38Z</time>
      </trkpt>
      <trkpt lat="43.241237" lon="-6.026944">
        <ele>269.0</ele>
        <time>2012-03-01T15:41:42Z</time>
      </trkpt>
      <trkpt lat="43.241063" lon="-6.027273">
        <ele>271.0</ele>
        <time>2012-03-01T15:41:46Z</time>
      </trkpt>
      <trkpt lat="43.240928" lon="-6.027674">
        <ele>273.0</ele>
        <time>2012-03-01T15:41:50Z</time>
      </trkpt>
      <trkpt lat="43.240801" lon="-6.028071">
        <ele>273.0</ele>
        <time>2012-03-01T15:41:54Z</time>
      </trkpt>
      <trkpt lat="43.24067" lon="-6.028443">
        <ele>274.0</ele>
        <time>2012-03-01T15:41:58Z</time>
      </trkpt>
      <trkpt lat="43.240721" lon="-6.028951">
        <ele>274.0</ele>
        <time>2012-03-01T15:42:02Z</time>
      </trkpt>
      <trkpt lat="43.240702" lon="-6.029393">
        <ele>273.0</ele>
        <time>2012-03-01T15:42:06Z</time>
      </trkpt>
      <trkpt lat="43.240636" lon="-6.0298">
        <ele>274.0</ele>
        <time>2012-03-01T15:42:10Z</time>
      </trkpt>
      <trkpt lat="43.240545" lon="-6.030204">
        <ele>275.0</ele>
        <time>2012-03-01T15:42:14Z</time>
      </trkpt>
      <trkpt lat="43.240409" lon="-6.030567">
        <ele>276.0</ele>
        <time>2012-03-01T15:42:18Z</time>
      </trkpt>
      <trkpt lat="43.240237" lon="-6.030891">
        <ele>277.0</ele>
        <time>2012-03-01T15:42:22Z</time>
      </trkpt>
      <trkpt lat="43.240032" lon="-6.031117">
        <ele>279.0</ele>
        <time>2012-03-01T15:42:26Z</time>
      </trkpt>
      <trkpt lat="43.239779" lon="-6.031222">
        <ele>280.0</ele>
        <time>2012-03-01T15:42:30Z</time>
      </trkpt>
      <trkpt lat="43.239511" lon="-6.031242">
        <ele>281.0</ele>
        <time>2012-03-01T15:42:34Z</time>
      </trkpt>
      <trkpt lat="43.239319" lon="-6.031219">
        <ele>281.0</ele>
        <time>2012-03-01T15:42:37Z</time>
      </trkpt>
      <trkpt lat="43.238992" lon="-6.031115">
        <ele>282.0</ele>
        <time>2012-03-01T15:42:42Z</time>
      </trkpt>
      <trkpt lat="43.238693" lon="-6.031009">
        <ele>282.0</ele>
        <time>2012-03-01T15:42:46Z</time>
      </trkpt>
      <trkpt lat="43.238389" lon="-6.030908">
        <ele>283.0</ele>
        <time>2012-03-01T15:42:50Z</time>
      </trkpt>
      <trkpt lat="43.238068" lon="-6.030909">
        <ele>284.0</ele>
        <time>2012-03-01T15:42:54Z</time>
      </trkpt>
      <trkpt lat="43.237763" lon="-6.031046">
        <ele>285.0</ele>
        <time>2012-03-01T15:42:58Z</time>
      </trkpt>
      <trkpt lat="43.237482" lon="-6.031205">
        <ele>286.0</ele>
        <time>2012-03-01T15:43:02Z</time>
      </trkpt>
      <trkpt lat="43.237178" lon="-6.031344">
        <ele>287.0</ele>
        <time>2012-03-01T15:43:06Z</time>
      </trkpt>
      <trkpt lat="43.236861" lon="-6.031411">
        <ele>286.0</ele>
        <time>2012-03-01T15:43:10Z</time>
      </trkpt>
      <trkpt lat="43.23654" lon="-6.031482">
        <ele>287.0</ele>
        <time>2012-03-01T15:43:14Z</time>
      </trkpt>
      <trkpt lat="43.236226" lon="-6.031566">
        <ele>287.0</ele>
        <time>2012-03-01T15:43:18Z</time>
      </trkpt>
      <trkpt lat="43.235913" lon="-6.031642">
        <ele>287.0</ele>
        <time>2012-03-01T15:43:22Z</time>
      </trkpt>
      <trkpt lat="43.235603" lon="-6.031714">
        <ele>286.0</ele>
        <time>2012-03-01T15:43:26Z</time>
      </trkpt>
      <trkpt lat="43.235288" lon="-6.03178">
        <ele>286.0</ele>
        <time>2012-03-01T15:43:30Z</time>
      </trkpt>
      <trkpt lat="43.23496" lon="-6.031852">
        <ele>287.0</ele>
        <time>2012-03-01T15:43:34Z</time>
      </trkpt>
      <trkpt lat="43.234652" lon="-6.031931">
        <ele>289.0</ele>
        <time>2012-03-01T15:43:38Z</time>
      </trkpt>
      <trkpt lat="43.234381" lon="-6.032145">
        <ele>289.0</ele>
        <time>2012-03-01T15:43:42Z</time>
      </trkpt>
      <trkpt lat="43.234007" lon="-6.032237">
        <ele>288.0</ele>
        <time>2012-03-01T15:43:46Z</time>
      </trkpt>
      <trkpt lat="43.2337" lon="-6.03227">
        <ele>287.0</ele>
        <time>2012-03-01T15:43:49Z</time>
      </trkpt>
      <trkpt lat="43.233353" lon="-6.032433">
        <ele>287.0</ele>
        <time>2012-03-01T15:43:53Z</time>
      </trkpt>
      <trkpt lat="43.233006" lon="-6.032565">
        <ele>286.0</ele>
        <time>2012-03-01T15:43:57Z</time>
      </trkpt>
      <trkpt lat="43.232682" lon="-6.032697">
        <ele>285.0</ele>
        <time>2012-03-01T15:44:01Z</time>
      </trkpt>
      <trkpt lat="43.23237" lon="-6.032858">
        <ele>285.0</ele>
        <time>2012-03-01T15:44:05Z</time>
      </trkpt>
      <trkpt lat="43.232063" lon="-6.033031">
        <ele>285.0</ele>
        <time>2012-03-01T15:44:09Z</time>
      </trkpt>
      <trkpt lat="43.231834" lon="-6.033161">
        <ele>285.0</ele>
        <time>2012-03-01T15:44:12Z</time>
      </trkpt>
      <trkpt lat="43.231834" lon="-6.033161">
        <time>2012-03-01T15:44:23Z</time>
      </trkpt>
    </trkseg>
    <trkseg>
      <trkpt lat="43.231834" lon="-6.033161">
        <time>2012-03-01T15:44:24Z</time>
      </trkpt>
      <trkpt lat="43.231834" lon="-6.033161">
        <time>2012-03-01T15:44:44Z</time>
      </trkpt>
    </trkseg>
    <trkseg>
      <trkpt lat="43.231834" lon="-6.033161">
        <time>2012-03-01T15:44:47Z</time>
      </trkpt>
      <trkpt lat="43.230377" lon="-6.036851">
        <ele>331.0</ele>
        <time>2012-03-01T15:44:51Z</time>
      </trkpt>
      <trkpt lat="43.230334" lon="-6.037241">
        <ele>349.0</ele>
        <time>2012-03-01T15:44:54Z</time>
      </trkpt>
      <trkpt lat="43.230229" lon="-6.037627">
        <ele>358.0</ele>
        <time>2012-03-01T15:44:58Z</time>
      </trkpt>
      <trkpt lat="43.229914" lon="-6.03788">
        <ele>359.0</ele>
        <time>2012-03-01T15:45:03Z</time>
      </trkpt>
      <trkpt lat="43.229398" lon="-6.03775">
        <ele>352.0</ele>
        <time>2012-03-01T15:45:07Z</time>
      </trkpt>
      <trkpt lat="43.228935" lon="-6.037732">
        <ele>347.0</ele>
        <time>2012-03-01T15:45:11Z</time>
      </trkpt>
      <trkpt lat="43.228657" lon="-6.037902">
        <ele>345.0</ele>
        <time>2012-03-01T15:45:15Z</time>
      </trkpt>
      <trkpt lat="43.228425" lon="-6.038085">
        <ele>346.0</ele>
        <time>2012-03-01T15:45:19Z</time>
      </trkpt>
      <trkpt lat="43.228221" lon="-6.038249">
        <ele>347.0</ele>
        <time>2012-03-01T15:45:23Z</time>
      </trkpt>
      <trkpt lat="43.22802" lon="-6.0384">
        <ele>347.0</ele>
        <time>2012-03-01T15:45:27Z</time>
      </trkpt>
      <trkpt lat="43.227808" lon="-6.038529">
        <ele>346.0</ele>
        <time>2012-03-01T15:45:31Z</time>
      </trkpt>
      <trkpt lat="43.227597" lon="-6.038643">
        <ele>345.0</ele>
        <time>2012-03-01T15:45:35Z</time>
      </trkpt>
      <trkpt lat="43.227389" lon="-6.038753">
        <ele>344.0</ele>
        <time>2012-03-01T15:45:39Z</time>
      </trkpt>
      <trkpt lat="43.227176" lon="-6.038854">
        <ele>342.0</ele>
        <time>2012-03-01T15:45:43Z</time>
      </trkpt>
      <trkpt lat="43.226932" lon="-6.038888">
        <ele>340.0</ele>
        <time>2012-03-01T15:45:47Z</time>
      </trkpt>
      <trkpt lat="43.226659" lon="-6.038897">
        <ele>339.0</ele>
        <time>2012-03-01T15:45:51Z</time>
      </trkpt>
      <trkpt lat="43.226334" lon="-6.038883">
        <ele>339.0</ele>
        <time>2012-03-01T15:45:55Z</time>
      </trkpt>
      <trkpt lat="43.225965" lon="-6.03886">
        <ele>339.0</ele>
        <time>2012-03-01T15:45:59Z</time>
      </trkpt>
      <trkpt lat="43.225579" lon="-6.038825">
        <ele>338.0</ele>
        <time>2012-03-01T15:46:03Z</time>
      </trkpt>
      <trkpt lat="43.225209" lon="-6.038736">
        <ele>338.0</ele>
        <time>2012-03-01T15:46:07Z</time>
      </trkpt>
      <trkpt lat="43.22482" lon="-6.038491">
        <ele>339.0</ele>
        <time>2012-03-01T15:46:11Z</time>
      </trkpt>
      <trkpt lat="43.224444" lon="-6.038269">
        <ele>339.0</ele>
        <time>2012-03-01T15:46:15Z</time>
      </trkpt>
      <trkpt lat="43.224088" lon="-6.038087">
        <ele>340.0</ele>
        <time>2012-03-01T15:46:19Z</time>
      </trkpt>
      <trkpt lat="43.223747" lon="-6.037947">
        <ele>340.0</ele>
        <time>2012-03-01T15:46:23Z</time>
      </trkpt>
      <trkpt lat="43.223398" lon="-6.037863">
        <ele>340.0</ele>
        <time>2012-03-01T15:46:27Z</time>
      </trkpt>
      <trkpt lat="43.223028" lon="-6.037839">
        <ele>340.0</ele>
        <time>2012-03-01T15:46:31Z</time>
      </trkpt>
      <trkpt lat="43.222648" lon="-6.03785">
        <ele>341.0</ele>
        <time>2012-03-01T15:46:35Z</time>
      </trkpt>
      <trkpt lat="43.222295" lon="-6.037844">
        <ele>343.0</ele>
        <time>2012-03-01T15:46:39Z</time>
      </trkpt>
      <trkpt lat="43.221963" lon="-6.037831">
        <ele>344.0</ele>
        <time>2012-03-01T15:46:43Z</time>
      </trkpt>
      <trkpt lat="43.221654" lon="-6.037837">
        <ele>344.0</ele>
        <time>2012-03-01T15:46:47Z</time>
      </trkpt>
      <trkpt lat="43.221366" lon="-6.037862">
        <ele>344.0</ele>
        <time>2012-03-01T15:46:51Z</time>
      </trkpt>
      <trkpt lat="43.22106" lon="-6.037879">
        <ele>345.0</ele>
        <time>2012-03-01T15:46:55Z</time>
      </trkpt>
      <trkpt lat="43.220724" lon="-6.037929">
        <ele>345.0</ele>
        <time>2012-03-01T15:46:59Z</time>
      </trkpt>
      <trkpt lat="43.220362" lon="-6.037999">
        <ele>345.0</ele>
        <time>2012-03-01T15:47:03Z</time>
      </trkpt>
      <trkpt lat="43.219974" lon="-6.037999">
        <ele>345.0</ele>
        <time>2012-03-01T15:47:07Z</time>
      </trkpt>
      <trkpt lat="43.219553" lon="-6.037983">
        <ele>345.0</ele>
        <time>2012-03-01T15:47:11Z</time>
      </trkpt>
      <trkpt lat="43.219161" lon="-6.038108">
        <ele>346.0</ele>
        <time>2012-03-01T15:47:15Z</time>
      </trkpt>
      <trkpt lat="43.218797" lon="-6.038187">
        <ele>347.0</ele>
        <time>2012-03-01T15:47:19Z</time>
      </trkpt>
      <trkpt lat="43.218465" lon="-6.038068">
        <ele>347.0</ele>
        <time>2012-03-01T15:47:23Z</time>
      </trkpt>
      <trkpt lat="43.21815" lon="-6.037879">
        <ele>347.0</ele>
        <time>2012-03-01T15:47:27Z</time>
      </trkpt>
      <trkpt lat="43.217838" lon="-6.037702">
        <ele>347.0</ele>
        <time>2012-03-01T15:47:31Z</time>
      </trkpt>
      <trkpt lat="43.217532" lon="-6.037515">
        <ele>347.0</ele>
        <time>2012-03-01T15:47:35Z</time>
      </trkpt>
      <trkpt lat="43.217225" lon="-6.037327">
        <ele>347.0</ele>
        <time>2012-03-01T15:47:39Z</time>
      </trkpt>
      <trkpt lat="43.216934" lon="-6.037148">
        <ele>347.0</ele>
        <time>2012-03-01T15:47:43Z</time>
      </trkpt>
      <trkpt lat="43.216637" lon="-6.037064">
        <ele>348.0</ele>
        <time>2012-03-01T15:47:47Z</time>
      </trkpt>
      <trkpt lat="43.216348" lon="-6.037008">
        <ele>348.0</ele>
        <time>2012-03-01T15:47:51Z</time>
      </trkpt>
      <trkpt lat="43.216072" lon="-6.03698">
        <ele>348.0</ele>
        <time>2012-03-01T15:47:55Z</time>
      </trkpt>
      <trkpt lat="43.215812" lon="-6.036947">
        <ele>348.0</ele>
        <time>2012-03-01T15:47:59Z</time>
      </trkpt>
      <trkpt lat="43.21555" lon="-6.036896">
        <ele>349.0</ele>
        <time>2012-03-01T15:48:03Z</time>
      </trkpt>
      <trkpt lat="43.215289" lon="-6.036851">
        <ele>349.0</ele>
        <time>2012-03-01T15:48:07Z</time>
      </trkpt>
      <trkpt lat="43.215015" lon="-6.036807">
        <ele>349.0</ele>
        <time>2012-03-01T15:48:11Z</time>
      </trkpt>
      <trkpt lat="43.214731" lon="-6.036786">
        <ele>350.0</ele>
        <time>2012-03-01T15:48:15Z</time>
      </trkpt>
      <trkpt lat="43.214455" lon="-6.036799">
        <ele>350.0</ele>
        <time>2012-03-01T15:48:19Z</time>
      </trkpt>
      <trkpt lat="43.214172" lon="-6.0368">
        <ele>350.0</ele>
        <time>2012-03-01T15:48:23Z</time>
      </trkpt>
      <trkpt lat="43.213884" lon="-6.036787">
        <ele>350.0</ele>
        <time>2012-03-01T15:48:27Z</time>
      </trkpt>
      <trkpt lat="43.213598" lon="-6.036757">
        <ele>351.0</ele>
        <time>2012-03-01T15:48:31Z</time>
      </trkpt>
      <trkpt lat="43.213329" lon="-6.036676">
        <ele>352.0</ele>
        <time>2012-03-01T15:48:35Z</time>
      </trkpt>
      <trkpt lat="43.213113" lon="-6.036333">
        <ele>353.0</ele>
        <time>2012-03-01T15:48:39Z</time>
      </trkpt>
      <trkpt lat="43.21288" lon="-6.036012">
        <ele>354.0</ele>
        <time>2012-03-01T15:48:43Z</time>
      </trkpt>
      <trkpt lat="43.212656" lon="-6.035743">
        <ele>356.0</ele>
        <time>2012-03-01T15:48:47Z</time>
      </trkpt>
      <trkpt lat="43.212395" lon="-6.035562">
        <ele>356.0</ele>
        <time>2012-03-01T15:48:51Z</time>
      </trkpt>
      <trkpt lat="43.212133" lon="-6.035476">
        <ele>356.0</ele>
        <time>2012-03-01T15:48:55Z</time>
      </trkpt>
      <trkpt lat="43.211868" lon="-6.035357">
        <ele>357.0</ele>
        <time>2012-03-01T15:48:59Z</time>
      </trkpt>
      <trkpt lat="43.211613" lon="-6.035232">
        <ele>358.0</ele>
        <time>2012-03-01T15:49:03Z</time>
      </trkpt>
      <trkpt lat="43.211424" lon="-6.035156">
        <ele>359.0</ele>
        <time>2012-03-01T15:49:06Z</time>
      </trkpt>
      <trkpt lat="43.211201" lon="-6.035067">
        <ele>360.0</ele>
        <time>2012-03-01T15:49:10Z</time>
      </trkpt>
      <trkpt lat="43.210988" lon="-6.03496">
        <ele>360.0</ele>
        <time>2012-03-01T15:49:14Z</time>
      </trkpt>
      <trkpt lat="43.210776" lon="-6.034816">
        <ele>360.0</ele>
        <time>2012-03-01T15:49:18Z</time>
      </trkpt>
      <trkpt lat="43.210579" lon="-6.034663">
        <ele>361.0</ele>
        <time>2012-03-01T15:49:22Z</time>
      </trkpt>
      <trkpt lat="43.210406" lon="-6.034495">
        <ele>362.0</ele>
        <time>2012-03-01T15:49:26Z</time>
      </trkpt>
      <trkpt lat="43.210217" lon="-6.034319">
        <ele>362.0</ele>
        <time>2012-03-01T15:49:30Z</time>
      </trkpt>
      <trkpt lat="43.209932" lon="-6.034113">
        <ele>362.0</ele>
        <time>2012-03-01T15:49:35Z</time>
      </trkpt>
      <trkpt lat="43.209662" lon="-6.034005">
        <ele>362.0</ele>
        <time>2012-03-01T15:49:39Z</time>
      </trkpt>
      <trkpt lat="43.209375" lon="-6.033932">
        <ele>361.0</ele>
        <time>2012-03-01T15:49:43Z</time>
      </trkpt>
      <trkpt lat="43.209078" lon="-6.033886">
        <ele>361.0</ele>
        <time>2012-03-01T15:49:47Z</time>
      </trkpt>
      <trkpt lat="43.208777" lon="-6.033858">
        <ele>361.0</ele>
        <time>2012-03-01T15:49:51Z</time>
      </trkpt>
      <trkpt lat="43.208479" lon="-6.033834">
        <ele>362.0</ele>
        <time>2012-03-01T15:49:55Z</time>
      </trkpt>
      <trkpt lat="43.208173" lon="-6.033819">
        <ele>362.0</ele>
        <time>2012-03-01T15:49:59Z</time>
      </trkpt>
      <trkpt lat="43.20787" lon="-6.033812">
        <ele>362.0</ele>
        <time>2012-03-01T15:50:03Z</time>
      </trkpt>
      <trkpt lat="43.207573" lon="-6.033795">
        <ele>363.0</ele>
        <time>2012-03-01T15:50:07Z</time>
      </trkpt>
      <trkpt lat="43.207282" lon="-6.033794">
        <ele>363.0</ele>
        <time>2012-03-01T15:50:11Z</time>
      </trkpt>
      <trkpt lat="43.206987" lon="-6.033803">
        <ele>364.0</ele>
        <time>2012-03-01T15:50:15Z</time>
      </trkpt>
      <trkpt lat="43.206673" lon="-6.033803">
        <ele>364.0</ele>
        <time>2012-03-01T15:50:19Z</time>
      </trkpt>
      <trkpt lat="43.206376" lon="-6.03381">
        <ele>365.0</ele>
        <time>2012-03-01T15:50:23Z</time>
      </trkpt>
      <trkpt lat="43.206093" lon="-6.033812">
        <ele>366.0</ele>
        <time>2012-03-01T15:50:27Z</time>
      </trkpt>
      <trkpt lat="43.205833" lon="-6.033751">
        <ele>367.0</ele>
        <time>2012-03-01T15:50:31Z</time>
      </trkpt>
      <trkpt lat="43.205593" lon="-6.033619">
        <ele>367.0</ele>
        <time>2012-03-01T15:50:35Z</time>
      </trkpt>
      <trkpt lat="43.205375" lon="-6.033428">
        <ele>367.0</ele>
        <time>2012-03-01T15:50:39Z</time>
      </trkpt>
      <trkpt lat="43.205135" lon="-6.033198">
        <ele>368.0</ele>
        <time>2012-03-01T15:50:43Z</time>
      </trkpt>
      <trkpt lat="43.204967" lon="-6.033037">
        <ele>368.0</ele>
        <time>2012-03-01T15:50:46Z</time>
      </trkpt>
      <trkpt lat="43.204777" lon="-6.032831">
        <ele>368.0</ele>
        <time>2012-03-01T15:50:50Z</time>
      </trkpt>
      <trkpt lat="43.204593" lon="-6.032655">
        <ele>368.0</ele>
        <time>2012-03-01T15:50:54Z</time>
      </trkpt>
      <trkpt lat="43.204221" lon="-6.032314">
        <ele>369.0</ele>
        <time>2012-03-01T15:51:02Z</time>
      </trkpt>
      <trkpt lat="43.204037" lon="-6.032152">
        <ele>370.0</ele>
        <time>2012-03-01T15:51:06Z</time>
      </trkpt>
      <trkpt lat="43.203827" lon="-6.032021">
        <ele>371.0</ele>
        <time>2012-03-01T15:51:10Z</time>
      </trkpt>
      <trkpt lat="43.203542" lon="-6.031812">
        <ele>372.0</ele>
        <time>2012-03-01T15:51:15Z</time>
      </trkpt>
      <trkpt lat="43.203313" lon="-6.031637">
        <ele>373.0</ele>
        <time>2012-03-01T15:51:19Z</time>
      </trkpt>
      <trkpt lat="43.203115" lon="-6.031406">
        <ele>373.0</ele>
        <time>2012-03-01T15:51:23Z</time>
      </trkpt>
      <trkpt lat="43.202953" lon="-6.031128">
        <ele>374.0</ele>
        <time>2012-03-01T15:51:27Z</time>
      </trkpt>
      <trkpt lat="43.20284" lon="-6.030804">
        <ele>374.0</ele>
        <time>2012-03-01T15:51:31Z</time>
      </trkpt>
      <trkpt lat="43.202763" lon="-6.030465">
        <ele>374.0</ele>
        <time>2012-03-01T15:51:35Z</time>
      </trkpt>
      <trkpt lat="43.202715" lon="-6.030203">
        <ele>374.0</ele>
        <time>2012-03-01T15:51:38Z</time>
      </trkpt>
      <trkpt lat="43.202657" lon="-6.029912">
        <ele>371.0</ele>
        <time>2012-03-01T15:51:42Z</time>
      </trkpt>
      <trkpt lat="43.202607" lon="-6.029629">
        <ele>367.0</ele>
        <time>2012-03-01T15:51:46Z</time>
      </trkpt>
      <trkpt lat="43.202486" lon="-6.029237">
        <ele>363.0</ele>
        <time>2012-03-01T15:51:51Z</time>
      </trkpt>
      <trkpt lat="43.202334" lon="-6.028939">
        <ele>361.0</ele>
        <time>2012-03-01T15:51:55Z</time>
      </trkpt>
      <trkpt lat="43.202135" lon="-6.028661">
        <ele>359.0</ele>
        <time>2012-03-01T15:51:59Z</time>
      </trkpt>
      <trkpt lat="43.201936" lon="-6.028376">
        <ele>359.0</ele>
        <time>2012-03-01T15:52:03Z</time>
      </trkpt>
      <trkpt lat="43.201801" lon="-6.028143">
        <ele>358.0</ele>
        <time>2012-03-01T15:52:06Z</time>
      </trkpt>
      <trkpt lat="43.201611" lon="-6.027748">
        <ele>358.0</ele>
        <time>2012-03-01T15:52:11Z</time>
      </trkpt>
      <trkpt lat="43.201525" lon="-6.02753">
        <ele>358.0</ele>
        <time>2012-03-01T15:52:14Z</time>
      </trkpt>
      <trkpt lat="43.201497" lon="-6.027417">
        <ele>359.0</ele>
        <time>2012-03-01T15:52:16Z</time>
      </trkpt>
      <trkpt lat="43.201896" lon="-6.027285">
        <ele>363.0</ele>
        <time>2012-03-01T15:52:27Z</time>
      </trkpt>
      <trkpt lat="43.202151" lon="-6.027613">
        <ele>365.0</ele>
        <time>2012-03-01T15:52:31Z</time>
      </trkpt>
      <trkpt lat="43.202361" lon="-6.02816">
        <ele>367.0</ele>
        <time>2012-03-01T15:52:35Z</time>
      </trkpt>
      <trkpt lat="43.202563" lon="-6.028669">
        <ele>369.0</ele>
        <time>2012-03-01T15:52:39Z</time>
      </trkpt>
      <trkpt lat="43.202732" lon="-6.029125">
        <ele>368.0</ele>
        <time>2012-03-01T15:52:43Z</time>
      </trkpt>
      <trkpt lat="43.202773" lon="-6.029603">
        <ele>367.0</ele>
        <time>2012-03-01T15:52:47Z</time>
      </trkpt>
      <trkpt lat="43.202814" lon="-6.030064">
        <ele>367.0</ele>
        <time>2012-03-01T15:52:51Z</time>
      </trkpt>
      <trkpt lat="43.202874" lon="-6.030524">
        <ele>367.0</ele>
        <time>2012-03-01T15:52:55Z</time>
      </trkpt>
      <trkpt lat="43.202984" lon="-6.030987">
        <ele>369.0</ele>
        <time>2012-03-01T15:52:59Z</time>
      </trkpt>
      <trkpt lat="43.203191" lon="-6.031434">
        <ele>371.0</ele>
        <time>2012-03-01T15:53:03Z</time>
      </trkpt>
      <trkpt lat="43.203458" lon="-6.031816">
        <ele>372.0</ele>
        <time>2012-03-01T15:53:07Z</time>
      </trkpt>
      <trkpt lat="43.203771" lon="-6.032111">
        <ele>372.0</ele>
        <time>2012-03-01T15:53:11Z</time>
      </trkpt>
      <trkpt lat="43.204122" lon="-6.032366">
        <ele>372.0</ele>
        <time>2012-03-01T15:53:15Z</time>
      </trkpt>
      <trkpt lat="43.204467" lon="-6.03263">
        <ele>372.0</ele>
        <time>2012-03-01T15:53:19Z</time>
      </trkpt>
      <trkpt lat="43.20482" lon="-6.032906">
        <ele>371.0</ele>
        <time>2012-03-01T15:53:23Z</time>
      </trkpt>
      <trkpt lat="43.205156" lon="-6.033223">
        <ele>370.0</ele>
        <time>2012-03-01T15:53:27Z</time>
      </trkpt>
      <trkpt lat="43.205499" lon="-6.033531">
        <ele>370.0</ele>
        <time>2012-03-01T15:53:31Z</time>
      </trkpt>
      <trkpt lat="43.205833" lon="-6.033825">
        <ele>369.0</ele>
        <time>2012-03-01T15:53:35Z</time>
      </trkpt>
      <trkpt lat="43.206237" lon="-6.033956">
        <ele>367.0</ele>
        <time>2012-03-01T15:53:39Z</time>
      </trkpt>
      <trkpt lat="43.206656" lon="-6.03398">
        <ele>367.0</ele>
        <time>2012-03-01T15:53:43Z</time>
      </trkpt>
      <trkpt lat="43.207057" lon="-6.033979">
        <ele>367.0</ele>
        <time>2012-03-01T15:53:47Z</time>
      </trkpt>
      <trkpt lat="43.20745" lon="-6.033995">
        <ele>366.0</ele>
        <time>2012-03-01T15:53:51Z</time>
      </trkpt>
      <trkpt lat="43.207831" lon="-6.034012">
        <ele>366.0</ele>
        <time>2012-03-01T15:53:55Z</time>
      </trkpt>
      <trkpt lat="43.208196" lon="-6.034043">
        <ele>366.0</ele>
        <time>2012-03-01T15:53:59Z</time>
      </trkpt>
      <trkpt lat="43.208571" lon="-6.034021">
        <ele>366.0</ele>
        <time>2012-03-01T15:54:03Z</time>
      </trkpt>
      <trkpt lat="43.208959" lon="-6.034014">
        <ele>367.0</ele>
        <time>2012-03-01T15:54:07Z</time>
      </trkpt>
      <trkpt lat="43.209368" lon="-6.034064">
        <ele>367.0</ele>
        <time>2012-03-01T15:54:11Z</time>
      </trkpt>
      <trkpt lat="43.209744" lon="-6.034177">
        <ele>368.0</ele>
        <time>2012-03-01T15:54:15Z</time>
      </trkpt>
      <trkpt lat="43.210103" lon="-6.03431">
        <ele>367.0</ele>
        <time>2012-03-01T15:54:19Z</time>
      </trkpt>
      <trkpt lat="43.210471" lon="-6.03449">
        <ele>367.0</ele>
        <time>2012-03-01T15:54:23Z</time>
      </trkpt>
      <trkpt lat="43.210822" lon="-6.034685">
        <ele>366.0</ele>
        <time>2012-03-01T15:54:27Z</time>
      </trkpt>
      <trkpt lat="43.211141" lon="-6.034911">
        <ele>365.0</ele>
        <time>2012-03-01T15:54:31Z</time>
      </trkpt>
      <trkpt lat="43.211464" lon="-6.035119">
        <ele>363.0</ele>
        <time>2012-03-01T15:54:35Z</time>
      </trkpt>
      <trkpt lat="43.21182" lon="-6.035287">
        <ele>361.0</ele>
        <time>2012-03-01T15:54:39Z</time>
      </trkpt>
      <trkpt lat="43.212163" lon="-6.035453">
        <ele>360.0</ele>
        <time>2012-03-01T15:54:43Z</time>
      </trkpt>
      <trkpt lat="43.212503" lon="-6.035644">
        <ele>362.0</ele>
        <time>2012-03-01T15:54:47Z</time>
      </trkpt>
      <trkpt lat="43.212834" lon="-6.035849">
        <ele>362.0</ele>
        <time>2012-03-01T15:54:51Z</time>
      </trkpt>
      <trkpt lat="43.213118" lon="-6.036175">
        <ele>362.0</ele>
        <time>2012-03-01T15:54:55Z</time>
      </trkpt>
      <trkpt lat="43.213365" lon="-6.036533">
        <ele>362.0</ele>
        <time>2012-03-01T15:54:59Z</time>
      </trkpt>
      <trkpt lat="43.213624" lon="-6.036844">
        <ele>361.0</ele>
        <time>2012-03-01T15:55:03Z</time>
      </trkpt>
      <trkpt lat="43.213879" lon="-6.037114">
        <ele>359.0</ele>
        <time>2012-03-01T15:55:07Z</time>
      </trkpt>
      <trkpt lat="43.214141" lon="-6.037329">
        <ele>359.0</ele>
        <time>2012-03-01T15:55:11Z</time>
      </trkpt>
      <trkpt lat="43.214434" lon="-6.03747">
        <ele>359.0</ele>
        <time>2012-03-01T15:55:15Z</time>
      </trkpt>
      <trkpt lat="43.214757" lon="-6.037542">
        <ele>359.0</ele>
        <time>2012-03-01T15:55:19Z</time>
      </trkpt>
      <trkpt lat="43.215129" lon="-6.037493">
        <ele>359.0</ele>
        <time>2012-03-01T15:55:23Z</time>
      </trkpt>
      <trkpt lat="43.215545" lon="-6.037399">
        <ele>358.0</ele>
        <time>2012-03-01T15:55:27Z</time>
      </trkpt>
      <trkpt lat="43.215982" lon="-6.037303">
        <ele>355.0</ele>
        <time>2012-03-01T15:55:31Z</time>
      </trkpt>
      <trkpt lat="43.2164" lon="-6.03728">
        <ele>354.0</ele>
        <time>2012-03-01T15:55:35Z</time>
      </trkpt>
      <trkpt lat="43.216768" lon="-6.03732">
        <ele>353.0</ele>
        <time>2012-03-01T15:55:39Z</time>
      </trkpt>
      <trkpt lat="43.217193" lon="-6.037371">
        <ele>353.0</ele>
        <time>2012-03-01T15:55:43Z</time>
      </trkpt>
      <trkpt lat="43.217623" lon="-6.037474">
        <ele>352.0</ele>
        <time>2012-03-01T15:55:47Z</time>
      </trkpt>
      <trkpt lat="43.218007" lon="-6.037624">
        <ele>350.0</ele>
        <time>2012-03-01T15:55:51Z</time>
      </trkpt>
      <trkpt lat="43.218378" lon="-6.0378">
        <ele>347.0</ele>
        <time>2012-03-01T15:55:55Z</time>
      </trkpt>
      <trkpt lat="43.218723" lon="-6.037984">
        <ele>345.0</ele>
        <time>2012-03-01T15:55:59Z</time>
      </trkpt>
      <trkpt lat="43.219033" lon="-6.03817">
        <ele>344.0</ele>
        <time>2012-03-01T15:56:03Z</time>
      </trkpt>
      <trkpt lat="43.219345" lon="-6.038115">
        <ele>344.0</ele>
        <time>2012-03-01T15:56:07Z</time>
      </trkpt>
      <trkpt lat="43.219563" lon="-6.038083">
        <ele>344.0</ele>
        <time>2012-03-01T15:56:10Z</time>
      </trkpt>
      <trkpt lat="43.219907" lon="-6.038125">
        <ele>342.0</ele>
        <time>2012-03-01T15:56:15Z</time>
      </trkpt>
      <trkpt lat="43.220192" lon="-6.038164">
        <ele>341.0</ele>
        <time>2012-03-01T15:56:19Z</time>
      </trkpt>
      <trkpt lat="43.220464" lon="-6.038201">
        <ele>340.0</ele>
        <time>2012-03-01T15:56:23Z</time>
      </trkpt>
      <trkpt lat="43.220735" lon="-6.038176">
        <ele>340.0</ele>
        <time>2012-03-01T15:56:27Z</time>
      </trkpt>
      <trkpt lat="43.221013" lon="-6.03815">
        <ele>339.0</ele>
        <time>2012-03-01T15:56:31Z</time>
      </trkpt>
      <trkpt lat="43.221303" lon="-6.038156">
        <ele>339.0</ele>
        <time>2012-03-01T15:56:35Z</time>
      </trkpt>
      <trkpt lat="43.221592" lon="-6.038191">
        <ele>338.0</ele>
        <time>2012-03-01T15:56:39Z</time>
      </trkpt>
      <trkpt lat="43.221882" lon="-6.038222">
        <ele>338.0</ele>
        <time>2012-03-01T15:56:43Z</time>
      </trkpt>
      <trkpt lat="43.222172" lon="-6.038237">
        <ele>338.0</ele>
        <time>2012-03-01T15:56:47Z</time>
      </trkpt>
      <trkpt lat="43.222468" lon="-6.038259">
        <ele>338.0</ele>
        <time>2012-03-01T15:56:51Z</time>
      </trkpt>
      <trkpt lat="43.22276" lon="-6.038292">
        <ele>337.0</ele>
        <time>2012-03-01T15:56:55Z</time>
      </trkpt>
      <trkpt lat="43.22306" lon="-6.038322">
        <ele>338.0</ele>
        <time>2012-03-01T15:56:59Z</time>
      </trkpt>
      <trkpt lat="43.223357" lon="-6.038351">
        <ele>339.0</ele>
        <time>2012-03-01T15:57:03Z</time>
      </trkpt>
      <trkpt lat="43.223653" lon="-6.038327">
        <ele>340.0</ele>
        <time>2012-03-01T15:57:07Z</time>
      </trkpt>
      <trkpt lat="43.22396" lon="-6.038317">
        <ele>341.0</ele>
        <time>2012-03-01T15:57:11Z</time>
      </trkpt>
      <trkpt lat="43.224297" lon="-6.038364">
        <ele>342.0</ele>
        <time>2012-03-01T15:57:15Z</time>
      </trkpt>
      <trkpt lat="43.224642" lon="-6.038429">
        <ele>342.0</ele>
        <time>2012-03-01T15:57:19Z</time>
      </trkpt>
      <trkpt lat="43.225005" lon="-6.038528">
        <ele>342.0</ele>
        <time>2012-03-01T15:57:23Z</time>
      </trkpt>
      <trkpt lat="43.225375" lon="-6.038642">
        <ele>342.0</ele>
        <time>2012-03-01T15:57:27Z</time>
      </trkpt>
      <trkpt lat="43.225734" lon="-6.038731">
        <ele>342.0</ele>
        <time>2012-03-01T15:57:31Z</time>
      </trkpt>
      <trkpt lat="43.226091" lon="-6.038798">
        <ele>342.0</ele>
        <time>2012-03-01T15:57:35Z</time>
      </trkpt>
      <trkpt lat="43.226442" lon="-6.038832">
        <ele>342.0</ele>
        <time>2012-03-01T15:57:39Z</time>
      </trkpt>
      <trkpt lat="43.226787" lon="-6.038851">
        <ele>343.0</ele>
        <time>2012-03-01T15:57:43Z</time>
      </trkpt>
      <trkpt lat="43.227126" lon="-6.038852">
        <ele>343.0</ele>
        <time>2012-03-01T15:57:47Z</time>
      </trkpt>
      <trkpt lat="43.227457" lon="-6.03883">
        <ele>343.0</ele>
        <time>2012-03-01T15:57:51Z</time>
      </trkpt>
      <trkpt lat="43.227788" lon="-6.038747">
        <ele>343.0</ele>
        <time>2012-03-01T15:57:55Z</time>
      </trkpt>
      <trkpt lat="43.228139" lon="-6.03855">
        <ele>344.0</ele>
        <time>2012-03-01T15:57:59Z</time>
      </trkpt>
      <trkpt lat="43.228492" lon="-6.038391">
        <ele>344.0</ele>
        <time>2012-03-01T15:58:03Z</time>
      </trkpt>
      <trkpt lat="43.228811" lon="-6.038145">
        <ele>344.0</ele>
        <time>2012-03-01T15:58:07Z</time>
      </trkpt>
      <trkpt lat="43.229114" lon="-6.037843">
        <ele>344.0</ele>
        <time>2012-03-01T15:58:11Z</time>
      </trkpt>
      <trkpt lat="43.229461" lon="-6.037612">
        <ele>344.0</ele>
        <time>2012-03-01T15:58:15Z</time>
      </trkpt>
      <trkpt lat="43.229832" lon="-6.037454">
        <ele>344.0</ele>
        <time>2012-03-01T15:58:19Z</time>
      </trkpt>
      <trkpt lat="43.230177" lon="-6.037218">
        <ele>343.0</ele>
        <time>2012-03-01T15:58:23Z</time>
      </trkpt>
      <trkpt lat="43.230441" lon="-6.036825">
        <ele>343.0</ele>
        <time>2012-03-01T15:58:27Z</time>
      </trkpt>
      <trkpt lat="43.230669" lon="-6.036424">
        <ele>343.0</ele>
        <time>2012-03-01T15:58:31Z</time>
      </trkpt>
      <trkpt lat="43.230885" lon="-6.036112">
        <ele>342.0</ele>
        <time>2012-03-01T15:58:35Z</time>
      </trkpt>
      <trkpt lat="43.231139" lon="-6.035763">
        <ele>342.0</ele>
        <time>2012-03-01T15:58:39Z</time>
      </trkpt>
      <trkpt lat="43.231139" lon="-6.035763">
        <time>2012-03-01T15:58:50Z</time>
      </trkpt>
    </trkseg>
    <trkseg>
      <trkpt lat="43.231139" lon="-6.035763">
        <time>2012-03-01T15:58:54Z</time>
      </trkpt>
      <trkpt lat="43.233221" lon="-6.033484">
        <ele>343.0</ele>
        <time>2012-03-01T15:59:15Z</time>
      </trkpt>
      <trkpt lat="43.233529" lon="-6.033406">
        <ele>344.0</ele>
        <time>2012-03-01T15:59:19Z</time>
      </trkpt>
      <trkpt lat="43.23392" lon="-6.033121">
        <ele>343.0</ele>
        <time>2012-03-01T15:59:23Z</time>
      </trkpt>
      <trkpt lat="43.234262" lon="-6.032878">
        <ele>344.0</ele>
        <time>2012-03-01T15:59:27Z</time>
      </trkpt>
      <trkpt lat="43.234592" lon="-6.032623">
        <ele>345.0</ele>
        <time>2012-03-01T15:59:31Z</time>
      </trkpt>
      <trkpt lat="43.23487" lon="-6.032267">
        <ele>345.0</ele>
        <time>2012-03-01T15:59:35Z</time>
      </trkpt>
      <trkpt lat="43.235118" lon="-6.031866">
        <ele>345.0</ele>
        <time>2012-03-01T15:59:39Z</time>
      </trkpt>
      <trkpt lat="43.235434" lon="-6.031567">
        <ele>346.0</ele>
        <time>2012-03-01T15:59:43Z</time>
      </trkpt>
      <trkpt lat="43.235779" lon="-6.031316">
        <ele>346.0</ele>
        <time>2012-03-01T15:59:47Z</time>
      </trkpt>
      <trkpt lat="43.236037" lon="-6.03115">
        <ele>347.0</ele>
        <time>2012-03-01T15:59:50Z</time>
      </trkpt>
      <trkpt lat="43.236487" lon="-6.03097">
        <ele>347.0</ele>
        <time>2012-03-01T15:59:55Z</time>
      </trkpt>
      <trkpt lat="43.236874" lon="-6.030959">
        <ele>347.0</ele>
        <time>2012-03-01T15:59:59Z</time>
      </trkpt>
      <trkpt lat="43.237261" lon="-6.031016">
        <ele>348.0</ele>
        <time>2012-03-01T16:00:03Z</time>
      </trkpt>
      <trkpt lat="43.237625" lon="-6.031011">
        <ele>347.0</ele>
        <time>2012-03-01T16:00:07Z</time>
      </trkpt>
      <trkpt lat="43.237966" lon="-6.030919">
        <ele>348.0</ele>
        <time>2012-03-01T16:00:11Z</time>
      </trkpt>
      <trkpt lat="43.238309" lon="-6.03081">
        <ele>349.0</ele>
        <time>2012-03-01T16:00:15Z</time>
      </trkpt>
      <trkpt lat="43.23866" lon="-6.030721">
        <ele>350.0</ele>
        <time>2012-03-01T16:00:19Z</time>
      </trkpt>
      <trkpt lat="43.239036" lon="-6.030676">
        <ele>350.0</ele>
        <time>2012-03-01T16:00:23Z</time>
      </trkpt>
      <trkpt lat="43.239429" lon="-6.030714">
        <ele>350.0</ele>
        <time>2012-03-01T16:00:27Z</time>
      </trkpt>
      <trkpt lat="43.239812" lon="-6.030803">
        <ele>351.0</ele>
        <time>2012-03-01T16:00:31Z</time>
      </trkpt>
      <trkpt lat="43.240132" lon="-6.030885">
        <ele>353.0</ele>
        <time>2012-03-01T16:00:35Z</time>
      </trkpt>
      <trkpt lat="43.240428" lon="-6.030837">
        <ele>354.0</ele>
        <time>2012-03-01T16:00:39Z</time>
      </trkpt>
      <trkpt lat="43.240594" lon="-6.030644">
        <ele>354.0</ele>
        <time>2012-03-01T16:00:42Z</time>
      </trkpt>
      <trkpt lat="43.240747" lon="-6.030248">
        <ele>354.0</ele>
        <time>2012-03-01T16:00:47Z</time>
      </trkpt>
      <trkpt lat="43.240822" lon="-6.029846">
        <ele>354.0</ele>
        <time>2012-03-01T16:00:51Z</time>
      </trkpt>
      <trkpt lat="43.240909" lon="-6.029408">
        <ele>354.0</ele>
        <time>2012-03-01T16:00:55Z</time>
      </trkpt>
      <trkpt lat="43.241111" lon="-6.028861">
        <ele>355.0</ele>
        <time>2012-03-01T16:00:59Z</time>
      </trkpt>
      <trkpt lat="43.241396" lon="-6.028352">
        <ele>354.0</ele>
        <time>2012-03-01T16:01:03Z</time>
      </trkpt>
      <trkpt lat="43.241735" lon="-6.027946">
        <ele>354.0</ele>
        <time>2012-03-01T16:01:07Z</time>
      </trkpt>
      <trkpt lat="43.242077" lon="-6.027592">
        <ele>354.0</ele>
        <time>2012-03-01T16:01:11Z</time>
      </trkpt>
      <trkpt lat="43.24229" lon="-6.027369">
        <ele>354.0</ele>
        <time>2012-03-01T16:01:14Z</time>
      </trkpt>
      <trkpt lat="43.242495" lon="-6.027099">
        <ele>350.0</ele>
        <time>2012-03-01T16:01:19Z</time>
      </trkpt>
      <trkpt lat="43.242696" lon="-6.026777">
        <ele>348.0</ele>
        <time>2012-03-01T16:01:23Z</time>
      </trkpt>
      <trkpt lat="43.242931" lon="-6.026442">
        <ele>347.0</ele>
        <time>2012-03-01T16:01:27Z</time>
      </trkpt>
      <trkpt lat="43.243216" lon="-6.026155">
        <ele>345.0</ele>
        <time>2012-03-01T16:01:31Z</time>
      </trkpt>
      <trkpt lat="43.243523" lon="-6.025901">
        <ele>344.0</ele>
        <time>2012-03-01T16:01:35Z</time>
      </trkpt>
      <trkpt lat="43.243837" lon="-6.025669">
        <ele>342.0</ele>
        <time>2012-03-01T16:01:39Z</time>
      </trkpt>
      <trkpt lat="43.244159" lon="-6.025453">
        <ele>341.0</ele>
        <time>2012-03-01T16:01:43Z</time>
      </trkpt>
      <trkpt lat="43.244507" lon="-6.025287">
        <ele>339.0</ele>
        <time>2012-03-01T16:01:47Z</time>
      </trkpt>
      <trkpt lat="43.2449" lon="-6.025191">
        <ele>338.0</ele>
        <time>2012-03-01T16:01:51Z</time>
      </trkpt>
      <trkpt lat="43.245314" lon="-6.025134">
        <ele>338.0</ele>
        <time>2012-03-01T16:01:55Z</time>
      </trkpt>
      <trkpt lat="43.24571" lon="-6.025085">
        <ele>338.0</ele>
        <time>2012-03-01T16:01:59Z</time>
      </trkpt>
      <trkpt lat="43.246094" lon="-6.025068">
        <ele>338.0</ele>
        <time>2012-03-01T16:02:03Z</time>
      </trkpt>
      <trkpt lat="43.246459" lon="-6.025038">
        <ele>339.0</ele>
        <time>2012-03-01T16:02:07Z</time>
      </trkpt>
      <trkpt lat="43.246786" lon="-6.024978">
        <ele>341.0</ele>
        <time>2012-03-01T16:02:11Z</time>
      </trkpt>
      <trkpt lat="43.247096" lon="-6.024887">
        <ele>342.0</ele>
        <time>2012-03-01T16:02:15Z</time>
      </trkpt>
      <trkpt lat="43.247425" lon="-6.024795">
        <ele>343.0</ele>
        <time>2012-03-01T16:02:19Z</time>
      </trkpt>
      <trkpt lat="43.247772" lon="-6.024719">
        <ele>343.0</ele>
        <time>2012-03-01T16:02:23Z</time>
      </trkpt>
      <trkpt lat="43.248128" lon="-6.024672">
        <ele>344.0</ele>
        <time>2012-03-01T16:02:27Z</time>
      </trkpt>
      <trkpt lat="43.248513" lon="-6.024585">
        <ele>345.0</ele>
        <time>2012-03-01T16:02:31Z</time>
      </trkpt>
      <trkpt lat="43.248933" lon="-6.024421">
        <ele>345.0</ele>
        <time>2012-03-01T16:02:35Z</time>
      </trkpt>
      <trkpt lat="43.249341" lon="-6.024253">
        <ele>345.0</ele>
        <time>2012-03-01T16:02:39Z</time>
      </trkpt>
      <trkpt lat="43.249733" lon="-6.024098">
        <ele>345.0</ele>
        <time>2012-03-01T16:02:43Z</time>
      </trkpt>
      <trkpt lat="43.250054" lon="-6.02374">
        <ele>346.0</ele>
        <time>2012-03-01T16:02:47Z</time>
      </trkpt>
      <trkpt lat="43.250306" lon="-6.023294">
        <ele>346.0</ele>
        <time>2012-03-01T16:02:51Z</time>
      </trkpt>
      <trkpt lat="43.250337" lon="-6.022946">
        <ele>346.0</ele>
        <time>2012-03-01T16:02:54Z</time>
      </trkpt>
      <trkpt lat="43.250159" lon="-6.02236">
        <ele>346.0</ele>
        <time>2012-03-01T16:02:59Z</time>
      </trkpt>
      <trkpt lat="43.25006" lon="-6.02188">
        <ele>346.0</ele>
        <time>2012-03-01T16:03:03Z</time>
      </trkpt>
      <trkpt lat="43.250041" lon="-6.021411">
        <ele>345.0</ele>
        <time>2012-03-01T16:03:07Z</time>
      </trkpt>
      <trkpt lat="43.250008" lon="-6.020933">
        <ele>344.0</ele>
        <time>2012-03-01T16:03:11Z</time>
      </trkpt>
      <trkpt lat="43.249947" lon="-6.02045">
        <ele>344.0</ele>
        <time>2012-03-01T16:03:15Z</time>
      </trkpt>
      <trkpt lat="43.249846" lon="-6.02">
        <ele>342.0</ele>
        <time>2012-03-01T16:03:19Z</time>
      </trkpt>
      <trkpt lat="43.249757" lon="-6.019626">
        <ele>326.0</ele>
        <time>2012-03-01T16:03:23Z</time>
      </trkpt>
      <trkpt lat="43.249683" lon="-6.019198">
        <ele>312.0</ele>
        <time>2012-03-01T16:03:27Z</time>
      </trkpt>
      <trkpt lat="43.249702" lon="-6.018769">
        <ele>304.0</ele>
        <time>2012-03-01T16:03:31Z</time>
      </trkpt>
      <trkpt lat="43.249796" lon="-6.018387">
        <ele>298.0</ele>
        <time>2012-03-01T16:03:35Z</time>
      </trkpt>
      <trkpt lat="43.249907" lon="-6.018061">
        <ele>294.0</ele>
        <time>2012-03-01T16:03:39Z</time>
      </trkpt>
      <trkpt lat="43.250093" lon="-6.017803">
        <ele>292.0</ele>
        <time>2012-03-01T16:03:43Z</time>
      </trkpt>
      <trkpt lat="43.25029" lon="-6.017535">
        <ele>290.0</ele>
        <time>2012-03-01T16:03:47Z</time>
      </trkpt>
      <trkpt lat="43.250502" lon="-6.017263">
        <ele>290.0</ele>
        <time>2012-03-01T16:03:51Z</time>
      </trkpt>
      <trkpt lat="43.250738" lon="-6.016981">
        <ele>289.0</ele>
        <time>2012-03-01T16:03:55Z</time>
      </trkpt>
      <trkpt lat="43.25102" lon="-6.016772">
        <ele>288.0</ele>
        <time>2012-03-01T16:03:59Z</time>
      </trkpt>
      <trkpt lat="43.251307" lon="-6.016604">
        <ele>288.0</ele>
        <time>2012-03-01T16:04:03Z</time>
      </trkpt>
      <trkpt lat="43.251585" lon="-6.016413">
        <ele>288.0</ele>
        <time>2012-03-01T16:04:07Z</time>
      </trkpt>
      <trkpt lat="43.251858" lon="-6.016195">
        <ele>288.0</ele>
        <time>2012-03-01T16:04:11Z</time>
      </trkpt>
      <trkpt lat="43.252135" lon="-6.015975">
        <ele>289.0</ele>
        <time>2012-03-01T16:04:15Z</time>
      </trkpt>
      <trkpt lat="43.252408" lon="-6.015767">
        <ele>290.0</ele>
        <time>2012-03-01T16:04:19Z</time>
      </trkpt>
      <trkpt lat="43.252678" lon="-6.015549">
        <ele>290.0</ele>
        <time>2012-03-01T16:04:23Z</time>
      </trkpt>
      <trkpt lat="43.252952" lon="-6.015339">
        <ele>290.0</ele>
        <time>2012-03-01T16:04:27Z</time>
      </trkpt>
      <trkpt lat="43.25322" lon="-6.015133">
        <ele>290.0</ele>
        <time>2012-03-01T16:04:31Z</time>
      </trkpt>
      <trkpt lat="43.253482" lon="-6.014931">
        <ele>290.0</ele>
        <time>2012-03-01T16:04:35Z</time>
      </trkpt>
      <trkpt lat="43.253745" lon="-6.014741">
        <ele>290.0</ele>
        <time>2012-03-01T16:04:39Z</time>
      </trkpt>
      <trkpt lat="43.254026" lon="-6.014582">
        <ele>290.0</ele>
        <time>2012-03-01T16:04:43Z</time>
      </trkpt>
      <trkpt lat="43.254325" lon="-6.014465">
        <ele>289.0</ele>
        <time>2012-03-01T16:04:47Z</time>
      </trkpt>
      <trkpt lat="43.254625" lon="-6.014346">
        <ele>289.0</ele>
        <time>2012-03-01T16:04:51Z</time>
      </trkpt>
      <trkpt lat="43.254927" lon="-6.014218">
        <ele>290.0</ele>
        <time>2012-03-01T16:04:55Z</time>
      </trkpt>
      <trkpt lat="43.255226" lon="-6.014083">
        <ele>290.0</ele>
        <time>2012-03-01T16:04:59Z</time>
      </trkpt>
      <trkpt lat="43.255491" lon="-6.013864">
        <ele>290.0</ele>
        <time>2012-03-01T16:05:03Z</time>
      </trkpt>
      <trkpt lat="43.255754" lon="-6.013595">
        <ele>290.0</ele>
        <time>2012-03-01T16:05:07Z</time>
      </trkpt>
      <trkpt lat="43.256024" lon="-6.01323">
        <ele>290.0</ele>
        <time>2012-03-01T16:05:11Z</time>
      </trkpt>
      <trkpt lat="43.256272" lon="-6.012753">
        <ele>290.0</ele>
        <time>2012-03-01T16:05:15Z</time>
      </trkpt>
      <trkpt lat="43.256561" lon="-6.012331">
        <ele>290.0</ele>
        <time>2012-03-01T16:05:19Z</time>
      </trkpt>
      <trkpt lat="43.256941" lon="-6.012071">
        <ele>290.0</ele>
        <time>2012-03-01T16:05:23Z</time>
      </trkpt>
      <trkpt lat="43.257131" lon="-6.011965">
        <ele>290.0</ele>
        <time>2012-03-01T16:05:25Z</time>
      </trkpt>
      <trkpt lat="43.257612" lon="-6.011567">
        <ele>289.0</ele>
        <time>2012-03-01T16:05:31Z</time>
      </trkpt>
      <trkpt lat="43.25787" lon="-6.011245">
        <ele>289.0</ele>
        <time>2012-03-01T16:05:35Z</time>
      </trkpt>
      <trkpt lat="43.25811" lon="-6.010937">
        <ele>289.0</ele>
        <time>2012-03-01T16:05:39Z</time>
      </trkpt>
      <trkpt lat="43.258362" lon="-6.010683">
        <ele>288.0</ele>
        <time>2012-03-01T16:05:43Z</time>
      </trkpt>
      <trkpt lat="43.258626" lon="-6.010446">
        <ele>287.0</ele>
        <time>2012-03-01T16:05:47Z</time>
      </trkpt>
      <trkpt lat="43.258898" lon="-6.010219">
        <ele>287.0</ele>
        <time>2012-03-01T16:05:51Z</time>
      </trkpt>
      <trkpt lat="43.259178" lon="-6.009981">
        <ele>287.0</ele>
        <time>2012-03-01T16:05:55Z</time>
      </trkpt>
      <trkpt lat="43.259447" lon="-6.009703">
        <ele>286.0</ele>
        <time>2012-03-01T16:05:59Z</time>
      </trkpt>
      <trkpt lat="43.259673" lon="-6.009362">
        <ele>285.0</ele>
        <time>2012-03-01T16:06:03Z</time>
      </trkpt>
      <trkpt lat="43.259888" lon="-6.009007">
        <ele>285.0</ele>
        <time>2012-03-01T16:06:07Z</time>
      </trkpt>
      <trkpt lat="43.260065" lon="-6.008734">
        <ele>285.0</ele>
        <time>2012-03-01T16:06:10Z</time>
      </trkpt>
      <trkpt lat="43.260421" lon="-6.008275">
        <ele>284.0</ele>
        <time>2012-03-01T16:06:15Z</time>
      </trkpt>
      <trkpt lat="43.260745" lon="-6.007927">
        <ele>284.0</ele>
        <time>2012-03-01T16:06:19Z</time>
      </trkpt>
      <trkpt lat="43.261099" lon="-6.00766">
        <ele>284.0</ele>
        <time>2012-03-01T16:06:23Z</time>
      </trkpt>
      <trkpt lat="43.261464" lon="-6.007451">
        <ele>283.0</ele>
        <time>2012-03-01T16:06:27Z</time>
      </trkpt>
      <trkpt lat="43.261812" lon="-6.007254">
        <ele>283.0</ele>
        <time>2012-03-01T16:06:31Z</time>
      </trkpt>
      <trkpt lat="43.261993" lon="-6.006815">
        <ele>281.0</ele>
        <time>2012-03-01T16:06:35Z</time>
      </trkpt>
      <trkpt lat="43.262064" lon="-6.006318">
        <ele>280.0</ele>
        <time>2012-03-01T16:06:39Z</time>
      </trkpt>
      <trkpt lat="43.262134" lon="-6.005822">
        <ele>278.0</ele>
        <time>2012-03-01T16:06:43Z</time>
      </trkpt>
      <trkpt lat="43.262325" lon="-6.005402">
        <ele>277.0</ele>
        <time>2012-03-01T16:06:47Z</time>
      </trkpt>
      <trkpt lat="43.262621" lon="-6.005154">
        <ele>277.0</ele>
        <time>2012-03-01T16:06:51Z</time>
      </trkpt>
      <trkpt lat="43.262956" lon="-6.00501">
        <ele>276.0</ele>
        <time>2012-03-01T16:06:55Z</time>
      </trkpt>
      <trkpt lat="43.263308" lon="-6.004919">
        <ele>275.0</ele>
        <time>2012-03-01T16:06:59Z</time>
      </trkpt>
      <trkpt lat="43.263625" lon="-6.004822">
        <ele>275.0</ele>
        <time>2012-03-01T16:07:03Z</time>
      </trkpt>
      <trkpt lat="43.263933" lon="-6.004729">
        <ele>275.0</ele>
        <time>2012-03-01T16:07:07Z</time>
      </trkpt>
      <trkpt lat="43.264239" lon="-6.004648">
        <ele>275.0</ele>
        <time>2012-03-01T16:07:11Z</time>
      </trkpt>
      <trkpt lat="43.264547" lon="-6.004556">
        <ele>275.0</ele>
        <time>2012-03-01T16:07:15Z</time>
      </trkpt>
      <trkpt lat="43.264845" lon="-6.004495">
        <ele>275.0</ele>
        <time>2012-03-01T16:07:19Z</time>
      </trkpt>
      <trkpt lat="43.265148" lon="-6.004469">
        <ele>275.0</ele>
        <time>2012-03-01T16:07:23Z</time>
      </trkpt>
      <trkpt lat="43.265456" lon="-6.004437">
        <ele>274.0</ele>
        <time>2012-03-01T16:07:27Z</time>
      </trkpt>
      <trkpt lat="43.265775" lon="-6.004404">
        <ele>274.0</ele>
        <time>2012-03-01T16:07:31Z</time>
      </trkpt>
      <trkpt lat="43.266096" lon="-6.004321">
        <ele>274.0</ele>
        <time>2012-03-01T16:07:35Z</time>
      </trkpt>
      <trkpt lat="43.266417" lon="-6.004156">
        <ele>274.0</ele>
        <time>2012-03-01T16:07:39Z</time>
      </trkpt>
      <trkpt lat="43.266747" lon="-6.004044">
        <ele>273.0</ele>
        <time>2012-03-01T16:07:43Z</time>
      </trkpt>
      <trkpt lat="43.266994" lon="-6.003973">
        <ele>273.0</ele>
        <time>2012-03-01T16:07:46Z</time>
      </trkpt>
      <trkpt lat="43.267399" lon="-6.003848">
        <ele>273.0</ele>
        <time>2012-03-01T16:07:51Z</time>
      </trkpt>
      <trkpt lat="43.267718" lon="-6.00374">
        <ele>273.0</ele>
        <time>2012-03-01T16:07:55Z</time>
      </trkpt>
      <trkpt lat="43.268025" lon="-6.003551">
        <ele>273.0</ele>
        <time>2012-03-01T16:07:59Z</time>
      </trkpt>
      <trkpt lat="43.268288" lon="-6.003259">
        <ele>272.0</ele>
        <time>2012-03-01T16:08:03Z</time>
      </trkpt>
      <trkpt lat="43.268528" lon="-6.002937">
        <ele>272.0</ele>
        <time>2012-03-01T16:08:07Z</time>
      </trkpt>
      <trkpt lat="43.268797" lon="-6.002621">
        <ele>271.0</ele>
        <time>2012-03-01T16:08:11Z</time>
      </trkpt>
      <trkpt lat="43.269067" lon="-6.00231">
        <ele>271.0</ele>
        <time>2012-03-01T16:08:15Z</time>
      </trkpt>
      <trkpt lat="43.269278" lon="-6.00209">
        <ele>271.0</ele>
        <time>2012-03-01T16:08:18Z</time>
      </trkpt>
      <trkpt lat="43.269661" lon="-6.001801">
        <ele>271.0</ele>
        <time>2012-03-01T16:08:23Z</time>
      </trkpt>
      <trkpt lat="43.269824" lon="-6.001715">
        <ele>272.0</ele>
        <time>2012-03-01T16:08:25Z</time>
      </trkpt>
      <trkpt lat="43.27028" lon="-6.001486">
        <ele>274.0</ele>
        <time>2012-03-01T16:08:31Z</time>
      </trkpt>
      <trkpt lat="43.270427" lon="-6.001439">
        <ele>274.0</ele>
        <time>2012-03-01T16:08:33Z</time>
      </trkpt>
      <trkpt lat="43.270865" lon="-6.001312">
        <ele>274.0</ele>
        <time>2012-03-01T16:08:39Z</time>
      </trkpt>
      <trkpt lat="43.271145" lon="-6.001202">
        <ele>274.0</ele>
        <time>2012-03-01T16:08:43Z</time>
      </trkpt>
      <trkpt lat="43.271279" lon="-6.001142">
        <ele>274.0</ele>
        <time>2012-03-01T16:08:45Z</time>
      </trkpt>
      <trkpt lat="43.27159" lon="-6.000972">
        <ele>275.0</ele>
        <time>2012-03-01T16:08:50Z</time>
      </trkpt>
      <trkpt lat="43.271812" lon="-6.00079">
        <ele>275.0</ele>
        <time>2012-03-01T16:08:54Z</time>
      </trkpt>
      <trkpt lat="43.272053" lon="-6.000462">
        <ele>276.0</ele>
        <time>2012-03-01T16:08:59Z</time>
      </trkpt>
      <trkpt lat="43.272213" lon="-6.00012">
        <ele>275.0</ele>
        <time>2012-03-01T16:09:03Z</time>
      </trkpt>
      <trkpt lat="43.272373" lon="-5.999762">
        <ele>273.0</ele>
        <time>2012-03-01T16:09:07Z</time>
      </trkpt>
      <trkpt lat="43.272546" lon="-5.999402">
        <ele>272.0</ele>
        <time>2012-03-01T16:09:11Z</time>
      </trkpt>
      <trkpt lat="43.272745" lon="-5.999071">
        <ele>272.0</ele>
        <time>2012-03-01T16:09:15Z</time>
      </trkpt>
      <trkpt lat="43.272961" lon="-5.998774">
        <ele>271.0</ele>
        <time>2012-03-01T16:09:19Z</time>
      </trkpt>
      <trkpt lat="43.273209" lon="-5.998539">
        <ele>271.0</ele>
        <time>2012-03-01T16:09:23Z</time>
      </trkpt>
      <trkpt lat="43.273461" lon="-5.998317">
        <ele>271.0</ele>
        <time>2012-03-01T16:09:27Z</time>
      </trkpt>
      <trkpt lat="43.273719" lon="-5.998099">
        <ele>271.0</ele>
        <time>2012-03-01T16:09:31Z</time>
      </trkpt>
      <trkpt lat="43.273964" lon="-5.997873">
        <ele>271.0</ele>
        <time>2012-03-01T16:09:35Z</time>
      </trkpt>
      <trkpt lat="43.27418" lon="-5.997617">
        <ele>271.0</ele>
        <time>2012-03-01T16:09:39Z</time>
      </trkpt>
      <trkpt lat="43.274354" lon="-5.997299">
        <ele>272.0</ele>
        <time>2012-03-01T16:09:43Z</time>
      </trkpt>
      <trkpt lat="43.274467" lon="-5.996936">
        <ele>272.0</ele>
        <time>2012-03-01T16:09:47Z</time>
      </trkpt>
      <trkpt lat="43.274531" lon="-5.996526">
        <ele>272.0</ele>
        <time>2012-03-01T16:09:51Z</time>
      </trkpt>
      <trkpt lat="43.274547" lon="-5.996078">
        <ele>270.0</ele>
        <time>2012-03-01T16:09:55Z</time>
      </trkpt>
      <trkpt lat="43.274573" lon="-5.995588">
        <ele>265.0</ele>
        <time>2012-03-01T16:09:59Z</time>
      </trkpt>
      <trkpt lat="43.274645" lon="-5.995088">
        <ele>261.0</ele>
        <time>2012-03-01T16:10:03Z</time>
      </trkpt>
      <trkpt lat="43.274713" lon="-5.994725">
        <ele>258.0</ele>
        <time>2012-03-01T16:10:06Z</time>
      </trkpt>
      <trkpt lat="43.274908" lon="-5.994174">
        <ele>256.0</ele>
        <time>2012-03-01T16:10:11Z</time>
      </trkpt>
      <trkpt lat="43.275137" lon="-5.993844">
        <ele>255.0</ele>
        <time>2012-03-01T16:10:15Z</time>
      </trkpt>
      <trkpt lat="43.275376" lon="-5.993555">
        <ele>255.0</ele>
        <time>2012-03-01T16:10:19Z</time>
      </trkpt>
      <trkpt lat="43.275622" lon="-5.993283">
        <ele>255.0</ele>
        <time>2012-03-01T16:10:23Z</time>
      </trkpt>
      <trkpt lat="43.275878" lon="-5.993036">
        <ele>255.0</ele>
        <time>2012-03-01T16:10:27Z</time>
      </trkpt>
      <trkpt lat="43.276121" lon="-5.992783">
        <ele>256.0</ele>
        <time>2012-03-01T16:10:31Z</time>
      </trkpt>
      <trkpt lat="43.276351" lon="-5.992519">
        <ele>256.0</ele>
        <time>2012-03-01T16:10:35Z</time>
      </trkpt>
      <trkpt lat="43.276569" lon="-5.992252">
        <ele>257.0</ele>
        <time>2012-03-01T16:10:39Z</time>
      </trkpt>
      <trkpt lat="43.27679" lon="-5.991992">
        <ele>257.0</ele>
        <time>2012-03-01T16:10:43Z</time>
      </trkpt>
      <trkpt lat="43.277024" lon="-5.991739">
        <ele>258.0</ele>
        <time>2012-03-01T16:10:47Z</time>
      </trkpt>
      <trkpt lat="43.277261" lon="-5.99146">
        <ele>259.0</ele>
        <time>2012-03-01T16:10:51Z</time>
      </trkpt>
      <trkpt lat="43.27751" lon="-5.99116">
        <ele>259.0</ele>
        <time>2012-03-01T16:10:55Z</time>
      </trkpt>
      <trkpt lat="43.277755" lon="-5.990853">
        <ele>259.0</ele>
        <time>2012-03-01T16:10:59Z</time>
      </trkpt>
      <trkpt lat="43.277999" lon="-5.990497">
        <ele>260.0</ele>
        <time>2012-03-01T16:11:03Z</time>
      </trkpt>
      <trkpt lat="43.278272" lon="-5.990185">
        <ele>260.0</ele>
        <time>2012-03-01T16:11:07Z</time>
      </trkpt>
      <trkpt lat="43.278439" lon="-5.99011">
        <ele>260.0</ele>
        <time>2012-03-01T16:11:09Z</time>
      </trkpt>
      <trkpt lat="43.279008" lon="-5.990173">
        <ele>259.0</ele>
        <time>2012-03-01T16:11:15Z</time>
      </trkpt>
      <trkpt lat="43.279369" lon="-5.990178">
        <ele>257.0</ele>
        <time>2012-03-01T16:11:19Z</time>
      </trkpt>
      <trkpt lat="43.279713" lon="-5.990284">
        <ele>257.0</ele>
        <time>2012-03-01T16:11:23Z</time>
      </trkpt>
      <trkpt lat="43.280058" lon="-5.99039">
        <ele>257.0</ele>
        <time>2012-03-01T16:11:27Z</time>
      </trkpt>
      <trkpt lat="43.280417" lon="-5.990354">
        <ele>259.0</ele>
        <time>2012-03-01T16:11:31Z</time>
      </trkpt>
      <trkpt lat="43.280732" lon="-5.990027">
        <ele>263.0</ele>
        <time>2012-03-01T16:11:35Z</time>
      </trkpt>
      <trkpt lat="43.281039" lon="-5.989707">
        <ele>266.0</ele>
        <time>2012-03-01T16:11:39Z</time>
      </trkpt>
      <trkpt lat="43.28138" lon="-5.989355">
        <ele>267.0</ele>
        <time>2012-03-01T16:11:43Z</time>
      </trkpt>
      <trkpt lat="43.281725" lon="-5.988895">
        <ele>267.0</ele>
        <time>2012-03-01T16:11:47Z</time>
      </trkpt>
      <trkpt lat="43.282073" lon="-5.988386">
        <ele>267.0</ele>
        <time>2012-03-01T16:11:51Z</time>
      </trkpt>
      <trkpt lat="43.282529" lon="-5.988084">
        <ele>267.0</ele>
        <time>2012-03-01T16:11:55Z</time>
      </trkpt>
      <trkpt lat="43.282988" lon="-5.987857">
        <ele>268.0</ele>
        <time>2012-03-01T16:11:59Z</time>
      </trkpt>
      <trkpt lat="43.2833" lon="-5.987434">
        <ele>268.0</ele>
        <time>2012-03-01T16:12:03Z</time>
      </trkpt>
      <trkpt lat="43.283546" lon="-5.986954">
        <ele>267.0</ele>
        <time>2012-03-01T16:12:07Z</time>
      </trkpt>
      <trkpt lat="43.28377" lon="-5.986476">
        <ele>267.0</ele>
        <time>2012-03-01T16:12:11Z</time>
      </trkpt>
      <trkpt lat="43.283996" lon="-5.986016">
        <ele>268.0</ele>
        <time>2012-03-01T16:12:15Z</time>
      </trkpt>
      <trkpt lat="43.284209" lon="-5.985574">
        <ele>267.0</ele>
        <time>2012-03-01T16:12:19Z</time>
      </trkpt>
      <trkpt lat="43.284424" lon="-5.985172">
        <ele>267.0</ele>
        <time>2012-03-01T16:12:23Z</time>
      </trkpt>
      <trkpt lat="43.284659" lon="-5.9848">
        <ele>266.0</ele>
        <time>2012-03-01T16:12:27Z</time>
      </trkpt>
      <trkpt lat="43.284922" lon="-5.984485">
        <ele>266.0</ele>
        <time>2012-03-01T16:12:31Z</time>
      </trkpt>
      <trkpt lat="43.28526" lon="-5.984308">
        <ele>266.0</ele>
        <time>2012-03-01T16:12:35Z</time>
      </trkpt>
      <trkpt lat="43.285576" lon="-5.984127">
        <ele>265.0</ele>
        <time>2012-03-01T16:12:39Z</time>
      </trkpt>
      <trkpt lat="43.28573" lon="-5.984026">
        <ele>264.0</ele>
        <time>2012-03-01T16:12:41Z</time>
      </trkpt>
      <trkpt lat="43.286219" lon="-5.983817">
        <ele>264.0</ele>
        <time>2012-03-01T16:12:47Z</time>
      </trkpt>
      <trkpt lat="43.286391" lon="-5.983821">
        <ele>264.0</ele>
        <time>2012-03-01T16:12:49Z</time>
      </trkpt>
      <trkpt lat="43.286809" lon="-5.983807">
        <ele>265.0</ele>
        <time>2012-03-01T16:12:54Z</time>
      </trkpt>
      <trkpt lat="43.287334" lon="-5.983808">
        <ele>266.0</ele>
        <time>2012-03-01T16:13:00Z</time>
      </trkpt>
      <trkpt lat="43.287583" lon="-5.983759">
        <ele>267.0</ele>
        <time>2012-03-01T16:13:03Z</time>
      </trkpt>
      <trkpt lat="43.287894" lon="-5.983686">
        <ele>268.0</ele>
        <time>2012-03-01T16:13:07Z</time>
      </trkpt>
      <trkpt lat="43.288202" lon="-5.983589">
        <ele>268.0</ele>
        <time>2012-03-01T16:13:11Z</time>
      </trkpt>
      <trkpt lat="43.288502" lon="-5.983473">
        <ele>268.0</ele>
        <time>2012-03-01T16:13:15Z</time>
      </trkpt>
      <trkpt lat="43.288808" lon="-5.98337">
        <ele>266.0</ele>
        <time>2012-03-01T16:13:19Z</time>
      </trkpt>
      <trkpt lat="43.289127" lon="-5.983278">
        <ele>265.0</ele>
        <time>2012-03-01T16:13:23Z</time>
      </trkpt>
      <trkpt lat="43.289447" lon="-5.98318">
        <ele>264.0</ele>
        <time>2012-03-01T16:13:27Z</time>
      </trkpt>
      <trkpt lat="43.289769" lon="-5.983078">
        <ele>263.0</ele>
        <time>2012-03-01T16:13:31Z</time>
      </trkpt>
      <trkpt lat="43.290089" lon="-5.982957">
        <ele>262.0</ele>
        <time>2012-03-01T16:13:35Z</time>
      </trkpt>
      <trkpt lat="43.2905" lon="-5.982825">
        <ele>260.0</ele>
        <time>2012-03-01T16:13:40Z</time>
      </trkpt>
      <trkpt lat="43.290834" lon="-5.982759">
        <ele>259.0</ele>
        <time>2012-03-01T16:13:44Z</time>
      </trkpt>
      <trkpt lat="43.291086" lon="-5.982717">
        <ele>259.0</ele>
        <time>2012-03-01T16:13:47Z</time>
      </trkpt>
      <trkpt lat="43.291519" lon="-5.982661">
        <ele>258.0</ele>
        <time>2012-03-01T16:13:52Z</time>
      </trkpt>
      <trkpt lat="43.29178" lon="-5.982574">
        <ele>257.0</ele>
        <time>2012-03-01T16:13:55Z</time>
      </trkpt>
      <trkpt lat="43.292113" lon="-5.982391">
        <ele>257.0</ele>
        <time>2012-03-01T16:13:59Z</time>
      </trkpt>
      <trkpt lat="43.292531" lon="-5.982145">
        <ele>256.0</ele>
        <time>2012-03-01T16:14:04Z</time>
      </trkpt>
      <trkpt lat="43.292807" lon="-5.982112">
        <ele>256.0</ele>
        <time>2012-03-01T16:14:07Z</time>
      </trkpt>
      <trkpt lat="43.293108" lon="-5.982103">
        <ele>256.0</ele>
        <time>2012-03-01T16:14:10Z</time>
      </trkpt>
      <trkpt lat="43.293534" lon="-5.98244">
        <ele>256.0</ele>
        <time>2012-03-01T16:14:15Z</time>
      </trkpt>
      <trkpt lat="43.293924" lon="-5.982846">
        <ele>255.0</ele>
        <time>2012-03-01T16:14:20Z</time>
      </trkpt>
      <trkpt lat="43.294235" lon="-5.983068">
        <ele>253.0</ele>
        <time>2012-03-01T16:14:24Z</time>
      </trkpt>
      <trkpt lat="43.294536" lon="-5.983266">
        <ele>251.0</ele>
        <time>2012-03-01T16:14:28Z</time>
      </trkpt>
      <trkpt lat="43.294795" lon="-5.983413">
        <ele>247.0</ele>
        <time>2012-03-01T16:14:32Z</time>
      </trkpt>
      <trkpt lat="43.295031" lon="-5.983639">
        <ele>244.0</ele>
        <time>2012-03-01T16:14:36Z</time>
      </trkpt>
      <trkpt lat="43.295267" lon="-5.983896">
        <ele>244.0</ele>
        <time>2012-03-01T16:14:40Z</time>
      </trkpt>
      <trkpt lat="43.295528" lon="-5.984112">
        <ele>244.0</ele>
        <time>2012-03-01T16:14:44Z</time>
      </trkpt>
      <trkpt lat="43.295812" lon="-5.98432">
        <ele>243.0</ele>
        <time>2012-03-01T16:14:48Z</time>
      </trkpt>
      <trkpt lat="43.29608" lon="-5.984534">
        <ele>242.0</ele>
        <time>2012-03-01T16:14:52Z</time>
      </trkpt>
      <trkpt lat="43.296336" lon="-5.984702">
        <ele>242.0</ele>
        <time>2012-03-01T16:14:56Z</time>
      </trkpt>
      <trkpt lat="43.296597" lon="-5.9848">
        <ele>241.0</ele>
        <time>2012-03-01T16:15:00Z</time>
      </trkpt>
      <trkpt lat="43.296796" lon="-5.98487">
        <ele>239.0</ele>
        <time>2012-03-01T16:15:03Z</time>
      </trkpt>
      <trkpt lat="43.297125" lon="-5.985014">
        <ele>238.0</ele>
        <time>2012-03-01T16:15:08Z</time>
      </trkpt>
      <trkpt lat="43.297344" lon="-5.985214">
        <ele>238.0</ele>
        <time>2012-03-01T16:15:12Z</time>
      </trkpt>
      <trkpt lat="43.297485" lon="-5.985538">
        <ele>236.0</ele>
        <time>2012-03-01T16:15:16Z</time>
      </trkpt>
      <trkpt lat="43.297615" lon="-5.985852">
        <ele>236.0</ele>
        <time>2012-03-01T16:15:20Z</time>
      </trkpt>
      <trkpt lat="43.29772" lon="-5.986071">
        <ele>236.0</ele>
        <time>2012-03-01T16:15:23Z</time>
      </trkpt>
      <trkpt lat="43.297882" lon="-5.986439">
        <ele>236.0</ele>
        <time>2012-03-01T16:15:28Z</time>
      </trkpt>
      <trkpt lat="43.298002" lon="-5.986747">
        <ele>236.0</ele>
        <time>2012-03-01T16:15:32Z</time>
      </trkpt>
      <trkpt lat="43.298103" lon="-5.987062">
        <ele>236.0</ele>
        <time>2012-03-01T16:15:36Z</time>
      </trkpt>
      <trkpt lat="43.298187" lon="-5.987399">
        <ele>235.0</ele>
        <time>2012-03-01T16:15:40Z</time>
      </trkpt>
      <trkpt lat="43.298284" lon="-5.987719">
        <ele>235.0</ele>
        <time>2012-03-01T16:15:44Z</time>
      </trkpt>
      <trkpt lat="43.298333" lon="-5.987879">
        <ele>235.0</ele>
        <time>2012-03-01T16:15:46Z</time>
      </trkpt>
      <trkpt lat="43.298333" lon="-5.987879">
        <time>2012-03-01T16:15:57Z</time>
      </trkpt>
    </trkseg>
    <trkseg>
      <trkpt lat="43.298333" lon="-5.987879">
        <time>2012-03-01T16:15:59Z</time>
      </trkpt>
      <trkpt lat="43.299675" lon="-5.988988">
        <ele>249.0</ele>
        <time>2012-03-01T16:16:02Z</time>
      </trkpt>
      <trkpt lat="43.300035" lon="-5.988994">
        <ele>254.0</ele>
        <time>2012-03-01T16:16:06Z</time>
      </trkpt>
      <trkpt lat="43.300382" lon="-5.988949">
        <ele>256.0</ele>
        <time>2012-03-01T16:16:10Z</time>
      </trkpt>
      <trkpt lat="43.300715" lon="-5.988775">
        <ele>254.0</ele>
        <time>2012-03-01T16:16:14Z</time>
      </trkpt>
      <trkpt lat="43.301027" lon="-5.988578">
        <ele>253.0</ele>
        <time>2012-03-01T16:16:18Z</time>
      </trkpt>
      <trkpt lat="43.301326" lon="-5.988333">
        <ele>253.0</ele>
        <time>2012-03-01T16:16:22Z</time>
      </trkpt>
      <trkpt lat="43.301609" lon="-5.988044">
        <ele>252.0</ele>
        <time>2012-03-01T16:16:26Z</time>
      </trkpt>
      <trkpt lat="43.30189" lon="-5.987702">
        <ele>251.0</ele>
        <time>2012-03-01T16:16:30Z</time>
      </trkpt>
      <trkpt lat="43.302136" lon="-5.987273">
        <ele>251.0</ele>
        <time>2012-03-01T16:16:34Z</time>
      </trkpt>
      <trkpt lat="43.302243" lon="-5.987037">
        <ele>251.0</ele>
        <time>2012-03-01T16:16:36Z</time>
      </trkpt>
      <trkpt lat="43.302528" lon="-5.986319">
        <ele>251.0</ele>
        <time>2012-03-01T16:16:42Z</time>
      </trkpt>
      <trkpt lat="43.302735" lon="-5.98587">
        <ele>250.0</ele>
        <time>2012-03-01T16:16:46Z</time>
      </trkpt>
      <trkpt lat="43.302966" lon="-5.985458">
        <ele>250.0</ele>
        <time>2012-03-01T16:16:50Z</time>
      </trkpt>
      <trkpt lat="43.303216" lon="-5.985051">
        <ele>251.0</ele>
        <time>2012-03-01T16:16:54Z</time>
      </trkpt>
      <trkpt lat="43.303524" lon="-5.98466">
        <ele>252.0</ele>
        <time>2012-03-01T16:16:58Z</time>
      </trkpt>
      <trkpt lat="43.303872" lon="-5.984283">
        <ele>252.0</ele>
        <time>2012-03-01T16:17:02Z</time>
      </trkpt>
      <trkpt lat="43.304244" lon="-5.983954">
        <ele>252.0</ele>
        <time>2012-03-01T16:17:06Z</time>
      </trkpt>
      <trkpt lat="43.30464" lon="-5.983853">
        <ele>254.0</ele>
        <time>2012-03-01T16:17:10Z</time>
      </trkpt>
      <trkpt lat="43.305084" lon="-5.983831">
        <ele>253.0</ele>
        <time>2012-03-01T16:17:14Z</time>
      </trkpt>
      <trkpt lat="43.30555" lon="-5.983954">
        <ele>253.0</ele>
        <time>2012-03-01T16:17:18Z</time>
      </trkpt>
      <trkpt lat="43.305999" lon="-5.984161">
        <ele>253.0</ele>
        <time>2012-03-01T16:17:22Z</time>
      </trkpt>
      <trkpt lat="43.306411" lon="-5.984455">
        <ele>254.0</ele>
        <time>2012-03-01T16:17:26Z</time>
      </trkpt>
      <trkpt lat="43.306525" lon="-5.985232">
        <ele>255.0</ele>
        <time>2012-03-01T16:17:30Z</time>
      </trkpt>
      <trkpt lat="43.306681" lon="-5.985597">
        <ele>257.0</ele>
        <time>2012-03-01T16:17:33Z</time>
      </trkpt>
      <trkpt lat="43.307051" lon="-5.986065">
        <ele>255.0</ele>
        <time>2012-03-01T16:17:38Z</time>
      </trkpt>
      <trkpt lat="43.307382" lon="-5.986298">
        <ele>253.0</ele>
        <time>2012-03-01T16:17:42Z</time>
      </trkpt>
      <trkpt lat="43.307721" lon="-5.986489">
        <ele>251.0</ele>
        <time>2012-03-01T16:17:46Z</time>
      </trkpt>
      <trkpt lat="43.308086" lon="-5.986584">
        <ele>251.0</ele>
        <time>2012-03-01T16:17:50Z</time>
      </trkpt>
      <trkpt lat="43.308437" lon="-5.986672">
        <ele>249.0</ele>
        <time>2012-03-01T16:17:54Z</time>
      </trkpt>
      <trkpt lat="43.308774" lon="-5.986796">
        <ele>249.0</ele>
        <time>2012-03-01T16:17:58Z</time>
      </trkpt>
      <trkpt lat="43.309096" lon="-5.986931">
        <ele>248.0</ele>
        <time>2012-03-01T16:18:02Z</time>
      </trkpt>
      <trkpt lat="43.309319" lon="-5.987084">
        <ele>247.0</ele>
        <time>2012-03-01T16:18:05Z</time>
      </trkpt>
      <trkpt lat="43.309638" lon="-5.987347">
        <ele>244.0</ele>
        <time>2012-03-01T16:18:10Z</time>
      </trkpt>
      <trkpt lat="43.309869" lon="-5.987466">
        <ele>239.0</ele>
        <time>2012-03-01T16:18:14Z</time>
      </trkpt>
      <trkpt lat="43.310125" lon="-5.987464">
        <ele>233.0</ele>
        <time>2012-03-01T16:18:18Z</time>
      </trkpt>
      <trkpt lat="43.310419" lon="-5.987498">
        <ele>229.0</ele>
        <time>2012-03-01T16:18:22Z</time>
      </trkpt>
      <trkpt lat="43.310724" lon="-5.98759">
        <ele>227.0</ele>
        <time>2012-03-01T16:18:26Z</time>
      </trkpt>
      <trkpt lat="43.311034" lon="-5.987772">
        <ele>224.0</ele>
        <time>2012-03-01T16:18:30Z</time>
      </trkpt>
      <trkpt lat="43.311373" lon="-5.987917">
        <ele>221.0</ele>
        <time>2012-03-01T16:18:34Z</time>
      </trkpt>
      <trkpt lat="43.311716" lon="-5.988075">
        <ele>220.0</ele>
        <time>2012-03-01T16:18:38Z</time>
      </trkpt>
      <trkpt lat="43.312057" lon="-5.988217">
        <ele>218.0</ele>
        <time>2012-03-01T16:18:42Z</time>
      </trkpt>
      <trkpt lat="43.312395" lon="-5.98831">
        <ele>214.0</ele>
        <time>2012-03-01T16:18:46Z</time>
      </trkpt>
      <trkpt lat="43.31273" lon="-5.988423">
        <ele>211.0</ele>
        <time>2012-03-01T16:18:50Z</time>
      </trkpt>
      <trkpt lat="43.313064" lon="-5.98852">
        <ele>207.0</ele>
        <time>2012-03-01T16:18:54Z</time>
      </trkpt>
      <trkpt lat="43.313384" lon="-5.988685">
        <ele>205.0</ele>
        <time>2012-03-01T16:18:58Z</time>
      </trkpt>
      <trkpt lat="43.313636" lon="-5.988993">
        <ele>203.0</ele>
        <time>2012-03-01T16:19:02Z</time>
      </trkpt>
      <trkpt lat="43.313827" lon="-5.989361">
        <ele>201.0</ele>
        <time>2012-03-01T16:19:06Z</time>
      </trkpt>
      <trkpt lat="43.31399" lon="-5.98974">
        <ele>200.0</ele>
        <time>2012-03-01T16:19:10Z</time>
      </trkpt>
      <trkpt lat="43.314145" lon="-5.990103">
        <ele>200.0</ele>
        <time>2012-03-01T16:19:14Z</time>
      </trkpt>
      <trkpt lat="43.31422" lon="-5.990276">
        <ele>199.0</ele>
        <time>2012-03-01T16:19:16Z</time>
      </trkpt>
      <trkpt lat="43.314473" lon="-5.990755">
        <ele>198.0</ele>
        <time>2012-03-01T16:19:22Z</time>
      </trkpt>
      <trkpt lat="43.314684" lon="-5.991029">
        <ele>198.0</ele>
        <time>2012-03-01T16:19:26Z</time>
      </trkpt>
      <trkpt lat="43.314788" lon="-5.991158">
        <ele>198.0</ele>
        <time>2012-03-01T16:19:28Z</time>
      </trkpt>
      <trkpt lat="43.315148" lon="-5.991497">
        <ele>199.0</ele>
        <time>2012-03-01T16:19:34Z</time>
      </trkpt>
      <trkpt lat="43.315414" lon="-5.991687">
        <ele>199.0</ele>
        <time>2012-03-01T16:19:38Z</time>
      </trkpt>
      <trkpt lat="43.31562" lon="-5.9918">
        <ele>199.0</ele>
        <time>2012-03-01T16:19:41Z</time>
      </trkpt>
      <trkpt lat="43.315956" lon="-5.991921">
        <ele>200.0</ele>
        <time>2012-03-01T16:19:46Z</time>
      </trkpt>
      <trkpt lat="43.316239" lon="-5.99196">
        <ele>201.0</ele>
        <time>2012-03-01T16:19:50Z</time>
      </trkpt>
      <trkpt lat="43.316534" lon="-5.991968">
        <ele>201.0</ele>
        <time>2012-03-01T16:19:54Z</time>
      </trkpt>
      <trkpt lat="43.316829" lon="-5.991983">
        <ele>200.0</ele>
        <time>2012-03-01T16:19:58Z</time>
      </trkpt>
      <trkpt lat="43.317127" lon="-5.992">
        <ele>199.0</ele>
        <time>2012-03-01T16:20:02Z</time>
      </trkpt>
      <trkpt lat="43.317454" lon="-5.992005">
        <ele>198.0</ele>
        <time>2012-03-01T16:20:06Z</time>
      </trkpt>
      <trkpt lat="43.31784" lon="-5.991983">
        <ele>198.0</ele>
        <time>2012-03-01T16:20:10Z</time>
      </trkpt>
      <trkpt lat="43.31826" lon="-5.991963">
        <ele>198.0</ele>
        <time>2012-03-01T16:20:14Z</time>
      </trkpt>
      <trkpt lat="43.318672" lon="-5.992">
        <ele>196.0</ele>
        <time>2012-03-01T16:20:18Z</time>
      </trkpt>
      <trkpt lat="43.319068" lon="-5.992092">
        <ele>195.0</ele>
        <time>2012-03-01T16:20:22Z</time>
      </trkpt>
      <trkpt lat="43.319459" lon="-5.992197">
        <ele>195.0</ele>
        <time>2012-03-01T16:20:26Z</time>
      </trkpt>
      <trkpt lat="43.319845" lon="-5.992314">
        <ele>195.0</ele>
        <time>2012-03-01T16:20:30Z</time>
      </trkpt>
      <trkpt lat="43.320194" lon="-5.992552">
        <ele>195.0</ele>
        <time>2012-03-01T16:20:34Z</time>
      </trkpt>
      <trkpt lat="43.32056" lon="-5.99272">
        <ele>195.0</ele>
        <time>2012-03-01T16:20:38Z</time>
      </trkpt>
      <trkpt lat="43.320931" lon="-5.992797">
        <ele>194.0</ele>
        <time>2012-03-01T16:20:42Z</time>
      </trkpt>
      <trkpt lat="43.321323" lon="-5.992773">
        <ele>194.0</ele>
        <time>2012-03-01T16:20:46Z</time>
      </trkpt>
      <trkpt lat="43.321719" lon="-5.992742">
        <ele>193.0</ele>
        <time>2012-03-01T16:20:50Z</time>
      </trkpt>
      <trkpt lat="43.32211" lon="-5.992691">
        <ele>192.0</ele>
        <time>2012-03-01T16:20:54Z</time>
      </trkpt>
      <trkpt lat="43.322501" lon="-5.992648">
        <ele>190.0</ele>
        <time>2012-03-01T16:20:58Z</time>
      </trkpt>
      <trkpt lat="43.322884" lon="-5.992647">
        <ele>189.0</ele>
        <time>2012-03-01T16:21:02Z</time>
      </trkpt>
      <trkpt lat="43.323268" lon="-5.992685">
        <ele>189.0</ele>
        <time>2012-03-01T16:21:06Z</time>
      </trkpt>
      <trkpt lat="43.323647" lon="-5.992723">
        <ele>189.0</ele>
        <time>2012-03-01T16:21:10Z</time>
      </trkpt>
      <trkpt lat="43.324015" lon="-5.992737">
        <ele>190.0</ele>
        <time>2012-03-01T16:21:14Z</time>
      </trkpt>
      <trkpt lat="43.324382" lon="-5.992504">
        <ele>190.0</ele>
        <time>2012-03-01T16:21:18Z</time>
      </trkpt>
      <trkpt lat="43.324714" lon="-5.992295">
        <ele>191.0</ele>
        <time>2012-03-01T16:21:22Z</time>
      </trkpt>
      <trkpt lat="43.325036" lon="-5.992126">
        <ele>191.0</ele>
        <time>2012-03-01T16:21:26Z</time>
      </trkpt>
      <trkpt lat="43.325354" lon="-5.991972">
        <ele>191.0</ele>
        <time>2012-03-01T16:21:30Z</time>
      </trkpt>
      <trkpt lat="43.325665" lon="-5.991829">
        <ele>192.0</ele>
        <time>2012-03-01T16:21:34Z</time>
      </trkpt>
      <trkpt lat="43.325964" lon="-5.991628">
        <ele>192.0</ele>
        <time>2012-03-01T16:21:38Z</time>
      </trkpt>
      <trkpt lat="43.32626" lon="-5.991423">
        <ele>192.0</ele>
        <time>2012-03-01T16:21:42Z</time>
      </trkpt>
      <trkpt lat="43.326533" lon="-5.991166">
        <ele>192.0</ele>
        <time>2012-03-01T16:21:46Z</time>
      </trkpt>
      <trkpt lat="43.326785" lon="-5.99088">
        <ele>192.0</ele>
        <time>2012-03-01T16:21:50Z</time>
      </trkpt>
      <trkpt lat="43.327032" lon="-5.99059">
        <ele>192.0</ele>
        <time>2012-03-01T16:21:54Z</time>
      </trkpt>
      <trkpt lat="43.327271" lon="-5.990291">
        <ele>192.0</ele>
        <time>2012-03-01T16:21:58Z</time>
      </trkpt>
      <trkpt lat="43.327513" lon="-5.990026">
        <ele>192.0</ele>
        <time>2012-03-01T16:22:02Z</time>
      </trkpt>
      <trkpt lat="43.327758" lon="-5.989773">
        <ele>192.0</ele>
        <time>2012-03-01T16:22:06Z</time>
      </trkpt>
      <trkpt lat="43.327986" lon="-5.989466">
        <ele>192.0</ele>
        <time>2012-03-01T16:22:10Z</time>
      </trkpt>
      <trkpt lat="43.328208" lon="-5.989133">
        <ele>194.0</ele>
        <time>2012-03-01T16:22:14Z</time>
      </trkpt>
      <trkpt lat="43.328461" lon="-5.988855">
        <ele>194.0</ele>
        <time>2012-03-01T16:22:18Z</time>
      </trkpt>
      <trkpt lat="43.328719" lon="-5.988575">
        <ele>194.0</ele>
        <time>2012-03-01T16:22:22Z</time>
      </trkpt>
      <trkpt lat="43.329007" lon="-5.988359">
        <ele>194.0</ele>
        <time>2012-03-01T16:22:26Z</time>
      </trkpt>
      <trkpt lat="43.329313" lon="-5.988205">
        <ele>192.0</ele>
        <time>2012-03-01T16:22:30Z</time>
      </trkpt>
      <trkpt lat="43.32963" lon="-5.988133">
        <ele>189.0</ele>
        <time>2012-03-01T16:22:34Z</time>
      </trkpt>
      <trkpt lat="43.329939" lon="-5.988108">
        <ele>188.0</ele>
        <time>2012-03-01T16:22:38Z</time>
      </trkpt>
      <trkpt lat="43.330249" lon="-5.988061">
        <ele>187.0</ele>
        <time>2012-03-01T16:22:42Z</time>
      </trkpt>
      <trkpt lat="43.330562" lon="-5.988045">
        <ele>185.0</ele>
        <time>2012-03-01T16:22:46Z</time>
      </trkpt>
      <trkpt lat="43.330876" lon="-5.988033">
        <ele>185.0</ele>
        <time>2012-03-01T16:22:50Z</time>
      </trkpt>
      <trkpt lat="43.331188" lon="-5.988039">
        <ele>186.0</ele>
        <time>2012-03-01T16:22:54Z</time>
      </trkpt>
      <trkpt lat="43.331489" lon="-5.988043">
        <ele>187.0</ele>
        <time>2012-03-01T16:22:58Z</time>
      </trkpt>
      <trkpt lat="43.331791" lon="-5.988054">
        <ele>187.0</ele>
        <time>2012-03-01T16:23:02Z</time>
      </trkpt>
      <trkpt lat="43.332093" lon="-5.988084">
        <ele>187.0</ele>
        <time>2012-03-01T16:23:06Z</time>
      </trkpt>
      <trkpt lat="43.332392" lon="-5.988115">
        <ele>187.0</ele>
        <time>2012-03-01T16:23:10Z</time>
      </trkpt>
      <trkpt lat="43.332694" lon="-5.988128">
        <ele>187.0</ele>
        <time>2012-03-01T16:23:14Z</time>
      </trkpt>
      <trkpt lat="43.332998" lon="-5.988147">
        <ele>186.0</ele>
        <time>2012-03-01T16:23:18Z</time>
      </trkpt>
      <trkpt lat="43.333314" lon="-5.988126">
        <ele>186.0</ele>
        <time>2012-03-01T16:23:22Z</time>
      </trkpt>
      <trkpt lat="43.333646" lon="-5.988045">
        <ele>186.0</ele>
        <time>2012-03-01T16:23:26Z</time>
      </trkpt>
      <trkpt lat="43.334015" lon="-5.98783">
        <ele>187.0</ele>
        <time>2012-03-01T16:23:30Z</time>
      </trkpt>
      <trkpt lat="43.334442" lon="-5.9873">
        <ele>188.0</ele>
        <time>2012-03-01T16:23:34Z</time>
      </trkpt>
      <trkpt lat="43.334833" lon="-5.987008">
        <ele>188.0</ele>
        <time>2012-03-01T16:23:38Z</time>
      </trkpt>
      <trkpt lat="43.335186" lon="-5.986801">
        <ele>189.0</ele>
        <time>2012-03-01T16:23:42Z</time>
      </trkpt>
      <trkpt lat="43.335517" lon="-5.986588">
        <ele>189.0</ele>
        <time>2012-03-01T16:23:46Z</time>
      </trkpt>
      <trkpt lat="43.335849" lon="-5.986478">
        <ele>189.0</ele>
        <time>2012-03-01T16:23:50Z</time>
      </trkpt>
      <trkpt lat="43.336164" lon="-5.986326">
        <ele>189.0</ele>
        <time>2012-03-01T16:23:54Z</time>
      </trkpt>
      <trkpt lat="43.336453" lon="-5.986057">
        <ele>190.0</ele>
        <time>2012-03-01T16:23:58Z</time>
      </trkpt>
      <trkpt lat="43.33676" lon="-5.985765">
        <ele>190.0</ele>
        <time>2012-03-01T16:24:02Z</time>
      </trkpt>
      <trkpt lat="43.3371" lon="-5.985557">
        <ele>190.0</ele>
        <time>2012-03-01T16:24:06Z</time>
      </trkpt>
      <trkpt lat="43.337455" lon="-5.985418">
        <ele>189.0</ele>
        <time>2012-03-01T16:24:10Z</time>
      </trkpt>
      <trkpt lat="43.337807" lon="-5.985481">
        <ele>189.0</ele>
        <time>2012-03-01T16:24:14Z</time>
      </trkpt>
      <trkpt lat="43.338116" lon="-5.985592">
        <ele>187.0</ele>
        <time>2012-03-01T16:24:18Z</time>
      </trkpt>
      <trkpt lat="43.338416" lon="-5.985623">
        <ele>187.0</ele>
        <time>2012-03-01T16:24:22Z</time>
      </trkpt>
      <trkpt lat="43.338633" lon="-5.985582">
        <ele>187.0</ele>
        <time>2012-03-01T16:24:25Z</time>
      </trkpt>
      <trkpt lat="43.338965" lon="-5.985341">
        <ele>187.0</ele>
        <time>2012-03-01T16:24:30Z</time>
      </trkpt>
      <trkpt lat="43.339223" lon="-5.985104">
        <ele>187.0</ele>
        <time>2012-03-01T16:24:34Z</time>
      </trkpt>
      <trkpt lat="43.339486" lon="-5.984861">
        <ele>187.0</ele>
        <time>2012-03-01T16:24:38Z</time>
      </trkpt>
      <trkpt lat="43.339757" lon="-5.984628">
        <ele>187.0</ele>
        <time>2012-03-01T16:24:42Z</time>
      </trkpt>
      <trkpt lat="43.340028" lon="-5.984397">
        <ele>187.0</ele>
        <time>2012-03-01T16:24:46Z</time>
      </trkpt>
      <trkpt lat="43.340302" lon="-5.984166">
        <ele>188.0</ele>
        <time>2012-03-01T16:24:50Z</time>
      </trkpt>
      <trkpt lat="43.340585" lon="-5.983934">
        <ele>187.0</ele>
        <time>2012-03-01T16:24:54Z</time>
      </trkpt>
      <trkpt lat="43.340858" lon="-5.983658">
        <ele>187.0</ele>
        <time>2012-03-01T16:24:58Z</time>
      </trkpt>
      <trkpt lat="43.341087" lon="-5.983316">
        <ele>186.0</ele>
        <time>2012-03-01T16:25:02Z</time>
      </trkpt>
      <trkpt lat="43.341206" lon="-5.983151">
        <ele>186.0</ele>
        <time>2012-03-01T16:25:04Z</time>
      </trkpt>
      <trkpt lat="43.341619" lon="-5.982723">
        <ele>186.0</ele>
        <time>2012-03-01T16:25:10Z</time>
      </trkpt>
      <trkpt lat="43.341899" lon="-5.982447">
        <ele>186.0</ele>
        <time>2012-03-01T16:25:14Z</time>
      </trkpt>
      <trkpt lat="43.342149" lon="-5.982124">
        <ele>186.0</ele>
        <time>2012-03-01T16:25:18Z</time>
      </trkpt>
      <trkpt lat="43.342336" lon="-5.981867">
        <ele>187.0</ele>
        <time>2012-03-01T16:25:21Z</time>
      </trkpt>
      <trkpt lat="43.342643" lon="-5.981428">
        <ele>186.0</ele>
        <time>2012-03-01T16:25:26Z</time>
      </trkpt>
      <trkpt lat="43.342851" lon="-5.981039">
        <ele>186.0</ele>
        <time>2012-03-01T16:25:30Z</time>
      </trkpt>
      <trkpt lat="43.342952" lon="-5.98058">
        <ele>186.0</ele>
        <time>2012-03-01T16:25:34Z</time>
      </trkpt>
      <trkpt lat="43.343013" lon="-5.980116">
        <ele>185.0</ele>
        <time>2012-03-01T16:25:38Z</time>
      </trkpt>
      <trkpt lat="43.343093" lon="-5.979663">
        <ele>185.0</ele>
        <time>2012-03-01T16:25:42Z</time>
      </trkpt>
      <trkpt lat="43.343111" lon="-5.979208">
        <ele>185.0</ele>
        <time>2012-03-01T16:25:46Z</time>
      </trkpt>
      <trkpt lat="43.343061" lon="-5.978687">
        <ele>186.0</ele>
        <time>2012-03-01T16:25:50Z</time>
      </trkpt>
      <trkpt lat="43.34304" lon="-5.978114">
        <ele>186.0</ele>
        <time>2012-03-01T16:25:54Z</time>
      </trkpt>
      <trkpt lat="43.343095" lon="-5.977562">
        <ele>186.0</ele>
        <time>2012-03-01T16:25:58Z</time>
      </trkpt>
      <trkpt lat="43.343233" lon="-5.977073">
        <ele>186.0</ele>
        <time>2012-03-01T16:26:02Z</time>
      </trkpt>
      <trkpt lat="43.343475" lon="-5.976715">
        <ele>185.0</ele>
        <time>2012-03-01T16:26:06Z</time>
      </trkpt>
      <trkpt lat="43.343689" lon="-5.97638">
        <ele>184.0</ele>
        <time>2012-03-01T16:26:10Z</time>
      </trkpt>
      <trkpt lat="43.343862" lon="-5.976024">
        <ele>183.0</ele>
        <time>2012-03-01T16:26:14Z</time>
      </trkpt>
      <trkpt lat="43.343995" lon="-5.975604">
        <ele>181.0</ele>
        <time>2012-03-01T16:26:18Z</time>
      </trkpt>
      <trkpt lat="43.344127" lon="-5.975227">
        <ele>180.0</ele>
        <time>2012-03-01T16:26:22Z</time>
      </trkpt>
      <trkpt lat="43.344205" lon="-5.974937">
        <ele>181.0</ele>
        <time>2012-03-01T16:26:25Z</time>
      </trkpt>
      <trkpt lat="43.34433" lon="-5.974453">
        <ele>182.0</ele>
        <time>2012-03-01T16:26:30Z</time>
      </trkpt>
      <trkpt lat="43.344469" lon="-5.974117">
        <ele>182.0</ele>
        <time>2012-03-01T16:26:34Z</time>
      </trkpt>
      <trkpt lat="43.344633" lon="-5.973798">
        <ele>184.0</ele>
        <time>2012-03-01T16:26:38Z</time>
      </trkpt>
      <trkpt lat="43.344827" lon="-5.973496">
        <ele>184.0</ele>
        <time>2012-03-01T16:26:42Z</time>
      </trkpt>
      <trkpt lat="43.345042" lon="-5.973175">
        <ele>185.0</ele>
        <time>2012-03-01T16:26:46Z</time>
      </trkpt>
      <trkpt lat="43.345264" lon="-5.972844">
        <ele>186.0</ele>
        <time>2012-03-01T16:26:50Z</time>
      </trkpt>
      <trkpt lat="43.345498" lon="-5.972518">
        <ele>185.0</ele>
        <time>2012-03-01T16:26:54Z</time>
      </trkpt>
      <trkpt lat="43.345745" lon="-5.972238">
        <ele>185.0</ele>
        <time>2012-03-01T16:26:58Z</time>
      </trkpt>
      <trkpt lat="43.346014" lon="-5.971992">
        <ele>185.0</ele>
        <time>2012-03-01T16:27:02Z</time>
      </trkpt>
      <trkpt lat="43.346281" lon="-5.971761">
        <ele>185.0</ele>
        <time>2012-03-01T16:27:06Z</time>
      </trkpt>
      <trkpt lat="43.34656" lon="-5.971558">
        <ele>185.0</ele>
        <time>2012-03-01T16:27:10Z</time>
      </trkpt>
      <trkpt lat="43.346874" lon="-5.971368">
        <ele>186.0</ele>
        <time>2012-03-01T16:27:14Z</time>
      </trkpt>
      <trkpt lat="43.347155" lon="-5.971152">
        <ele>188.0</ele>
        <time>2012-03-01T16:27:18Z</time>
      </trkpt>
      <trkpt lat="43.347431" lon="-5.97095">
        <ele>190.0</ele>
        <time>2012-03-01T16:27:22Z</time>
      </trkpt>
      <trkpt lat="43.347694" lon="-5.970744">
        <ele>190.0</ele>
        <time>2012-03-01T16:27:26Z</time>
      </trkpt>
      <trkpt lat="43.347955" lon="-5.970543">
        <ele>190.0</ele>
        <time>2012-03-01T16:27:30Z</time>
      </trkpt>
      <trkpt lat="43.348224" lon="-5.970345">
        <ele>189.0</ele>
        <time>2012-03-01T16:27:34Z</time>
      </trkpt>
      <trkpt lat="43.348493" lon="-5.970165">
        <ele>189.0</ele>
        <time>2012-03-01T16:27:38Z</time>
      </trkpt>
      <trkpt lat="43.348768" lon="-5.969991">
        <ele>189.0</ele>
        <time>2012-03-01T16:27:42Z</time>
      </trkpt>
      <trkpt lat="43.349053" lon="-5.96983">
        <ele>189.0</ele>
        <time>2012-03-01T16:27:46Z</time>
      </trkpt>
      <trkpt lat="43.349273" lon="-5.969713">
        <ele>190.0</ele>
        <time>2012-03-01T16:27:49Z</time>
      </trkpt>
      <trkpt lat="43.34965" lon="-5.969517">
        <ele>190.0</ele>
        <time>2012-03-01T16:27:54Z</time>
      </trkpt>
      <trkpt lat="43.34997" lon="-5.969368">
        <ele>190.0</ele>
        <time>2012-03-01T16:27:58Z</time>
      </trkpt>
      <trkpt lat="43.350301" lon="-5.969226">
        <ele>189.0</ele>
        <time>2012-03-01T16:28:02Z</time>
      </trkpt>
      <trkpt lat="43.350611" lon="-5.969042">
        <ele>189.0</ele>
        <time>2012-03-01T16:28:06Z</time>
      </trkpt>
      <trkpt lat="43.350876" lon="-5.968756">
        <ele>189.0</ele>
        <time>2012-03-01T16:28:10Z</time>
      </trkpt>
      <trkpt lat="43.351163" lon="-5.968594">
        <ele>189.0</ele>
        <time>2012-03-01T16:28:14Z</time>
      </trkpt>
      <trkpt lat="43.351435" lon="-5.968519">
        <ele>189.0</ele>
        <time>2012-03-01T16:28:18Z</time>
      </trkpt>
      <trkpt lat="43.351688" lon="-5.96842">
        <ele>188.0</ele>
        <time>2012-03-01T16:28:22Z</time>
      </trkpt>
      <trkpt lat="43.351853" lon="-5.968345">
        <ele>187.0</ele>
        <time>2012-03-01T16:28:25Z</time>
      </trkpt>
      <trkpt lat="43.352042" lon="-5.968266">
        <ele>187.0</ele>
        <time>2012-03-01T16:28:29Z</time>
      </trkpt>
      <trkpt lat="43.352226" lon="-5.968176">
        <ele>185.0</ele>
        <time>2012-03-01T16:28:33Z</time>
      </trkpt>
      <trkpt lat="43.352403" lon="-5.968035">
        <ele>184.0</ele>
        <time>2012-03-01T16:28:37Z</time>
      </trkpt>
      <trkpt lat="43.352577" lon="-5.96786">
        <ele>184.0</ele>
        <time>2012-03-01T16:28:41Z</time>
      </trkpt>
      <trkpt lat="43.352756" lon="-5.967657">
        <ele>183.0</ele>
        <time>2012-03-01T16:28:45Z</time>
      </trkpt>
      <trkpt lat="43.353052" lon="-5.967423">
        <ele>184.0</ele>
        <time>2012-03-01T16:28:50Z</time>
      </trkpt>
      <trkpt lat="43.353402" lon="-5.967254">
        <ele>184.0</ele>
        <time>2012-03-01T16:28:54Z</time>
      </trkpt>
      <trkpt lat="43.353771" lon="-5.967087">
        <ele>184.0</ele>
        <time>2012-03-01T16:28:58Z</time>
      </trkpt>
      <trkpt lat="43.354012" lon="-5.966925">
        <ele>184.0</ele>
        <time>2012-03-01T16:29:01Z</time>
      </trkpt>
      <trkpt lat="43.354335" lon="-5.966581">
        <ele>183.0</ele>
        <time>2012-03-01T16:29:06Z</time>
      </trkpt>
      <trkpt lat="43.354506" lon="-5.966162">
        <ele>183.0</ele>
        <time>2012-03-01T16:29:10Z</time>
      </trkpt>
      <trkpt lat="43.354583" lon="-5.965659">
        <ele>183.0</ele>
        <time>2012-03-01T16:29:14Z</time>
      </trkpt>
      <trkpt lat="43.354249" lon="-5.965119">
        <ele>180.0</ele>
        <time>2012-03-01T16:29:18Z</time>
      </trkpt>
      <trkpt lat="43.353847" lon="-5.964688">
        <ele>177.0</ele>
        <time>2012-03-01T16:29:22Z</time>
      </trkpt>
      <trkpt lat="43.353526" lon="-5.964288">
        <ele>174.0</ele>
        <time>2012-03-01T16:29:26Z</time>
      </trkpt>
      <trkpt lat="43.353392" lon="-5.963853">
        <ele>173.0</ele>
        <time>2012-03-01T16:29:30Z</time>
      </trkpt>
      <trkpt lat="43.353288" lon="-5.963422">
        <ele>172.0</ele>
        <time>2012-03-01T16:29:34Z</time>
      </trkpt>
      <trkpt lat="43.353354" lon="-5.963084">
        <ele>172.0</ele>
        <time>2012-03-01T16:29:37Z</time>
      </trkpt>
      <trkpt lat="43.353498" lon="-5.962747">
        <ele>172.0</ele>
        <time>2012-03-01T16:29:40Z</time>
      </trkpt>
      <trkpt lat="43.353773" lon="-5.962124">
        <ele>172.0</ele>
        <time>2012-03-01T16:29:46Z</time>
      </trkpt>
      <trkpt lat="43.353998" lon="-5.961848">
        <ele>173.0</ele>
        <time>2012-03-01T16:29:50Z</time>
      </trkpt>
      <trkpt lat="43.354296" lon="-5.96164">
        <ele>173.0</ele>
        <time>2012-03-01T16:29:54Z</time>
      </trkpt>
      <trkpt lat="43.354572" lon="-5.961443">
        <ele>172.0</ele>
        <time>2012-03-01T16:29:58Z</time>
      </trkpt>
      <trkpt lat="43.354477" lon="-5.961365">
        <ele>176.0</ele>
        <time>2012-03-01T16:30:02Z</time>
      </trkpt>
      <trkpt lat="43.353556" lon="-5.961988">
        <ele>176.0</ele>
        <time>2012-03-01T16:30:06Z</time>
      </trkpt>
      <trkpt lat="43.353094" lon="-5.962888">
        <ele>174.0</ele>
        <time>2012-03-01T16:30:10Z</time>
      </trkpt>
      <trkpt lat="43.352973" lon="-5.963502">
        <ele>172.0</ele>
        <time>2012-03-01T16:30:14Z</time>
      </trkpt>
      <trkpt lat="43.352948" lon="-5.963826">
        <ele>172.0</ele>
        <time>2012-03-01T16:30:17Z</time>
      </trkpt>
      <trkpt lat="43.353049" lon="-5.96428">
        <ele>172.0</ele>
        <time>2012-03-01T16:30:22Z</time>
      </trkpt>
      <trkpt lat="43.353184" lon="-5.96463">
        <ele>171.0</ele>
        <time>2012-03-01T16:30:26Z</time>
      </trkpt>
      <trkpt lat="43.353341" lon="-5.965006">
        <ele>171.0</ele>
        <time>2012-03-01T16:30:30Z</time>
      </trkpt>
      <trkpt lat="43.353485" lon="-5.965373">
        <ele>170.0</ele>
        <time>2012-03-01T16:30:34Z</time>
      </trkpt>
      <trkpt lat="43.353643" lon="-5.96571">
        <ele>171.0</ele>
        <time>2012-03-01T16:30:38Z</time>
      </trkpt>
      <trkpt lat="43.353797" lon="-5.96605">
        <ele>172.0</ele>
        <time>2012-03-01T16:30:42Z</time>
      </trkpt>
      <trkpt lat="43.353992" lon="-5.96633">
        <ele>173.0</ele>
        <time>2012-03-01T16:30:46Z</time>
      </trkpt>
      <trkpt lat="43.354085" lon="-5.966455">
        <ele>173.0</ele>
        <time>2012-03-01T16:30:48Z</time>
      </trkpt>
      <trkpt lat="43.354432" lon="-5.966516">
        <ele>175.0</ele>
        <time>2012-03-01T16:30:54Z</time>
      </trkpt>
      <trkpt lat="43.354645" lon="-5.966524">
        <ele>176.0</ele>
        <time>2012-03-01T16:30:58Z</time>
      </trkpt>
      <trkpt lat="43.354859" lon="-5.966512">
        <ele>177.0</ele>
        <time>2012-03-01T16:31:02Z</time>
      </trkpt>
      <trkpt lat="43.35508" lon="-5.966456">
        <ele>177.0</ele>
        <time>2012-03-01T16:31:06Z</time>
      </trkpt>
      <trkpt lat="43.355316" lon="-5.966384">
        <ele>176.0</ele>
        <time>2012-03-01T16:31:10Z</time>
      </trkpt>
      <trkpt lat="43.355534" lon="-5.966332">
        <ele>176.0</ele>
        <time>2012-03-01T16:31:14Z</time>
      </trkpt>
      <trkpt lat="43.355739" lon="-5.966298">
        <ele>176.0</ele>
        <time>2012-03-01T16:31:18Z</time>
      </trkpt>
      <trkpt lat="43.355944" lon="-5.966274">
        <ele>176.0</ele>
        <time>2012-03-01T16:31:22Z</time>
      </trkpt>
      <trkpt lat="43.356045" lon="-5.966261">
        <ele>176.0</ele>
        <time>2012-03-01T16:31:24Z</time>
      </trkpt>
      <trkpt lat="43.356347" lon="-5.966173">
        <ele>176.0</ele>
        <time>2012-03-01T16:31:30Z</time>
      </trkpt>
      <trkpt lat="43.356545" lon="-5.96609">
        <ele>177.0</ele>
        <time>2012-03-01T16:31:34Z</time>
      </trkpt>
      <trkpt lat="43.356739" lon="-5.965999">
        <ele>177.0</ele>
        <time>2012-03-01T16:31:38Z</time>
      </trkpt>
      <trkpt lat="43.356834" lon="-5.965955">
        <ele>177.0</ele>
        <time>2012-03-01T16:31:40Z</time>
      </trkpt>
      <trkpt lat="43.357103" lon="-5.965831">
        <ele>178.0</ele>
        <time>2012-03-01T16:31:46Z</time>
      </trkpt>
      <trkpt lat="43.35719" lon="-5.96579">
        <ele>178.0</ele>
        <time>2012-03-01T16:31:48Z</time>
      </trkpt>
      <trkpt lat="43.357459" lon="-5.965687">
        <ele>179.0</ele>
        <time>2012-03-01T16:31:54Z</time>
      </trkpt>
      <trkpt lat="43.357652" lon="-5.965654">
        <ele>179.0</ele>
        <time>2012-03-01T16:31:58Z</time>
      </trkpt>
      <trkpt lat="43.358033" lon="-5.965635">
        <ele>180.0</ele>
        <time>2012-03-01T16:32:06Z</time>
      </trkpt>
      <trkpt lat="43.358124" lon="-5.965636">
        <ele>180.0</ele>
        <time>2012-03-01T16:32:08Z</time>
      </trkpt>
      <trkpt lat="43.358386" lon="-5.965647">
        <ele>181.0</ele>
        <time>2012-03-01T16:32:14Z</time>
      </trkpt>
      <trkpt lat="43.358757" lon="-5.965656">
        <ele>181.0</ele>
        <time>2012-03-01T16:32:22Z</time>
      </trkpt>
      <trkpt lat="43.358932" lon="-5.965743">
        <ele>182.0</ele>
        <time>2012-03-01T16:32:26Z</time>
      </trkpt>
      <trkpt lat="43.359222" lon="-5.966068">
        <ele>183.0</ele>
        <time>2012-03-01T16:32:34Z</time>
      </trkpt>
      <trkpt lat="43.359311" lon="-5.966565">
        <ele>185.0</ele>
        <time>2012-03-01T16:32:42Z</time>
      </trkpt>
      <trkpt lat="43.359342" lon="-5.966838">
        <ele>186.0</ele>
        <time>2012-03-01T16:32:46Z</time>
      </trkpt>
      <trkpt lat="43.359372" lon="-5.96714">
        <ele>187.0</ele>
        <time>2012-03-01T16:32:50Z</time>
      </trkpt>
      <trkpt lat="43.35939" lon="-5.967289">
        <ele>188.0</ele>
        <time>2012-03-01T16:32:52Z</time>
      </trkpt>
      <trkpt lat="43.359301" lon="-5.967697">
        <ele>188.0</ele>
        <time>2012-03-01T16:32:58Z</time>
      </trkpt>
      <trkpt lat="43.359233" lon="-5.967924">
        <ele>188.0</ele>
        <time>2012-03-01T16:33:02Z</time>
      </trkpt>
      <trkpt lat="43.359161" lon="-5.968158">
        <ele>189.0</ele>
        <time>2012-03-01T16:33:06Z</time>
      </trkpt>
      <trkpt lat="43.359091" lon="-5.968382">
        <ele>189.0</ele>
        <time>2012-03-01T16:33:10Z</time>
      </trkpt>
      <trkpt lat="43.35906" lon="-5.968499">
        <ele>189.0</ele>
        <time>2012-03-01T16:33:12Z</time>
      </trkpt>
      <trkpt lat="43.359007" lon="-5.968759">
        <ele>189.0</ele>
        <time>2012-03-01T16:33:16Z</time>
      </trkpt>
      <trkpt lat="43.359007" lon="-5.969222">
        <ele>190.0</ele>
        <time>2012-03-01T16:33:22Z</time>
      </trkpt>
      <trkpt lat="43.359076" lon="-5.969532">
        <ele>191.0</ele>
        <time>2012-03-01T16:33:26Z</time>
      </trkpt>
      <trkpt lat="43.359148" lon="-5.969833">
        <ele>191.0</ele>
        <time>2012-03-01T16:33:30Z</time>
      </trkpt>
      <trkpt lat="43.359211" lon="-5.970132">
        <ele>191.0</ele>
        <time>2012-03-01T16:33:34Z</time>
      </trkpt>
      <trkpt lat="43.359277" lon="-5.970425">
        <ele>191.0</ele>
        <time>2012-03-01T16:33:38Z</time>
      </trkpt>
      <trkpt lat="43.359346" lon="-5.970734">
        <ele>191.0</ele>
        <time>2012-03-01T16:33:42Z</time>
      </trkpt>
      <trkpt lat="43.359387" lon="-5.970903">
        <ele>191.0</ele>
        <time>2012-03-01T16:33:44Z</time>
      </trkpt>
      <trkpt lat="43.359485" lon="-5.971413">
        <ele>194.0</ele>
        <time>2012-03-01T16:33:50Z</time>
      </trkpt>
      <trkpt lat="43.359559" lon="-5.972075">
        <ele>196.0</ele>
        <time>2012-03-01T16:33:58Z</time>
      </trkpt>
      <trkpt lat="43.359576" lon="-5.972393">
        <ele>197.0</ele>
        <time>2012-03-01T16:34:02Z</time>
      </trkpt>
      <trkpt lat="43.359588" lon="-5.972558">
        <ele>197.0</ele>
        <time>2012-03-01T16:34:04Z</time>
      </trkpt>
      <trkpt lat="43.359631" lon="-5.973065">
        <ele>196.0</ele>
        <time>2012-03-01T16:34:10Z</time>
      </trkpt>
      <trkpt lat="43.359654" lon="-5.973324">
        <ele>196.0</ele>
        <time>2012-03-01T16:34:13Z</time>
      </trkpt>
      <trkpt lat="43.359676" lon="-5.973755">
        <ele>198.0</ele>
        <time>2012-03-01T16:34:18Z</time>
      </trkpt>
      <trkpt lat="43.359656" lon="-5.9741">
        <ele>200.0</ele>
        <time>2012-03-01T16:34:22Z</time>
      </trkpt>
      <trkpt lat="43.359655" lon="-5.974425">
        <ele>203.0</ele>
        <time>2012-03-01T16:34:26Z</time>
      </trkpt>
      <trkpt lat="43.359717" lon="-5.97472">
        <ele>204.0</ele>
        <time>2012-03-01T16:34:30Z</time>
      </trkpt>
      <trkpt lat="43.359855" lon="-5.974999">
        <ele>204.0</ele>
        <time>2012-03-01T16:34:34Z</time>
      </trkpt>
      <trkpt lat="43.359998" lon="-5.97526">
        <ele>205.0</ele>
        <time>2012-03-01T16:34:38Z</time>
      </trkpt>
      <trkpt lat="43.360109" lon="-5.975529">
        <ele>204.0</ele>
        <time>2012-03-01T16:34:42Z</time>
      </trkpt>
      <trkpt lat="43.360176" lon="-5.975803">
        <ele>204.0</ele>
        <time>2012-03-01T16:34:46Z</time>
      </trkpt>
      <trkpt lat="43.360237" lon="-5.976071">
        <ele>204.0</ele>
        <time>2012-03-01T16:34:50Z</time>
      </trkpt>
      <trkpt lat="43.360312" lon="-5.976354">
        <ele>206.0</ele>
        <time>2012-03-01T16:34:54Z</time>
      </trkpt>
      <trkpt lat="43.36035" lon="-5.976497">
        <ele>206.0</ele>
        <time>2012-03-01T16:34:56Z</time>
      </trkpt>
      <trkpt lat="43.360506" lon="-5.976925">
        <ele>207.0</ele>
        <time>2012-03-01T16:35:02Z</time>
      </trkpt>
      <trkpt lat="43.360578" lon="-5.977067">
        <ele>208.0</ele>
        <time>2012-03-01T16:35:04Z</time>
      </trkpt>
      <trkpt lat="43.360784" lon="-5.977504">
        <ele>210.0</ele>
        <time>2012-03-01T16:35:10Z</time>
      </trkpt>
      <trkpt lat="43.36098" lon="-5.977764">
        <ele>210.0</ele>
        <time>2012-03-01T16:35:14Z</time>
      </trkpt>
      <trkpt lat="43.361155" lon="-5.978012">
        <ele>211.0</ele>
        <time>2012-03-01T16:35:18Z</time>
      </trkpt>
      <trkpt lat="43.361332" lon="-5.978238">
        <ele>212.0</ele>
        <time>2012-03-01T16:35:22Z</time>
      </trkpt>
      <trkpt lat="43.361518" lon="-5.978451">
        <ele>214.0</ele>
        <time>2012-03-01T16:35:26Z</time>
      </trkpt>
      <trkpt lat="43.361707" lon="-5.978651">
        <ele>215.0</ele>
        <time>2012-03-01T16:35:30Z</time>
      </trkpt>
      <trkpt lat="43.361882" lon="-5.978876">
        <ele>216.0</ele>
        <time>2012-03-01T16:35:34Z</time>
      </trkpt>
      <trkpt lat="43.362057" lon="-5.979105">
        <ele>216.0</ele>
        <time>2012-03-01T16:35:38Z</time>
      </trkpt>
      <trkpt lat="43.362233" lon="-5.979327">
        <ele>216.0</ele>
        <time>2012-03-01T16:35:42Z</time>
      </trkpt>
      <trkpt lat="43.362425" lon="-5.979523">
        <ele>217.0</ele>
        <time>2012-03-01T16:35:46Z</time>
      </trkpt>
      <trkpt lat="43.362629" lon="-5.979696">
        <ele>217.0</ele>
        <time>2012-03-01T16:35:50Z</time>
      </trkpt>
      <trkpt lat="43.362723" lon="-5.979787">
        <ele>217.0</ele>
        <time>2012-03-01T16:35:52Z</time>
      </trkpt>
      <trkpt lat="43.362963" lon="-5.980054">
        <ele>218.0</ele>
        <time>2012-03-01T16:35:58Z</time>
      </trkpt>
      <trkpt lat="43.36312" lon="-5.980192">
        <ele>220.0</ele>
        <time>2012-03-01T16:36:02Z</time>
      </trkpt>
      <trkpt lat="43.363263" lon="-5.980309">
        <ele>220.0</ele>
        <time>2012-03-01T16:36:06Z</time>
      </trkpt>
      <trkpt lat="43.363435" lon="-5.980385">
        <ele>222.0</ele>
        <time>2012-03-01T16:36:10Z</time>
      </trkpt>
      <trkpt lat="43.363633" lon="-5.980407">
        <ele>223.0</ele>
        <time>2012-03-01T16:36:14Z</time>
      </trkpt>
      <trkpt lat="43.364047" lon="-5.980434">
        <ele>224.0</ele>
        <time>2012-03-01T16:36:22Z</time>
      </trkpt>
      <trkpt lat="43.364461" lon="-5.980501">
        <ele>224.0</ele>
        <time>2012-03-01T16:36:30Z</time>
      </trkpt>
      <trkpt lat="43.364656" lon="-5.980537">
        <ele>224.0</ele>
        <time>2012-03-01T16:36:34Z</time>
      </trkpt>
      <trkpt lat="43.36484" lon="-5.98057">
        <ele>224.0</ele>
        <time>2012-03-01T16:36:38Z</time>
      </trkpt>
      <trkpt lat="43.365015" lon="-5.98064">
        <ele>224.0</ele>
        <time>2012-03-01T16:36:42Z</time>
      </trkpt>
      <trkpt lat="43.365134" lon="-5.980821">
        <ele>225.0</ele>
        <time>2012-03-01T16:36:46Z</time>
      </trkpt>
      <trkpt lat="43.365159" lon="-5.980958">
        <ele>226.0</ele>
        <time>2012-03-01T16:36:48Z</time>
      </trkpt>
      <trkpt lat="43.365244" lon="-5.981352">
        <ele>228.0</ele>
        <time>2012-03-01T16:36:54Z</time>
      </trkpt>
      <trkpt lat="43.365285" lon="-5.981629">
        <ele>229.0</ele>
        <time>2012-03-01T16:36:58Z</time>
      </trkpt>
      <trkpt lat="43.365335" lon="-5.981972">
        <ele>231.0</ele>
        <time>2012-03-01T16:37:02Z</time>
      </trkpt>
      <trkpt lat="43.365413" lon="-5.982333">
        <ele>232.0</ele>
        <time>2012-03-01T16:37:06Z</time>
      </trkpt>
      <trkpt lat="43.365505" lon="-5.982584">
        <ele>233.0</ele>
        <time>2012-03-01T16:37:09Z</time>
      </trkpt>
      <trkpt lat="43.365705" lon="-5.982989">
        <ele>234.0</ele>
        <time>2012-03-01T16:37:14Z</time>
      </trkpt>
      <trkpt lat="43.365858" lon="-5.983317">
        <ele>235.0</ele>
        <time>2012-03-01T16:37:18Z</time>
      </trkpt>
      <trkpt lat="43.365987" lon="-5.983657">
        <ele>235.0</ele>
        <time>2012-03-01T16:37:22Z</time>
      </trkpt>
      <trkpt lat="43.366081" lon="-5.984007">
        <ele>236.0</ele>
        <time>2012-03-01T16:37:26Z</time>
      </trkpt>
      <trkpt lat="43.366142" lon="-5.98436">
        <ele>236.0</ele>
        <time>2012-03-01T16:37:30Z</time>
      </trkpt>
      <trkpt lat="43.366187" lon="-5.984726">
        <ele>236.0</ele>
        <time>2012-03-01T16:37:34Z</time>
      </trkpt>
      <trkpt lat="43.366217" lon="-5.985094">
        <ele>236.0</ele>
        <time>2012-03-01T16:37:38Z</time>
      </trkpt>
      <trkpt lat="43.366242" lon="-5.985458">
        <ele>237.0</ele>
        <time>2012-03-01T16:37:42Z</time>
      </trkpt>
      <trkpt lat="43.366201" lon="-5.985834">
        <ele>238.0</ele>
        <time>2012-03-01T16:37:46Z</time>
      </trkpt>
      <trkpt lat="43.366094" lon="-5.986205">
        <ele>239.0</ele>
        <time>2012-03-01T16:37:50Z</time>
      </trkpt>
      <trkpt lat="43.365929" lon="-5.986539">
        <ele>239.0</ele>
        <time>2012-03-01T16:37:54Z</time>
      </trkpt>
      <trkpt lat="43.365661" lon="-5.986773">
        <ele>241.0</ele>
        <time>2012-03-01T16:37:58Z</time>
      </trkpt>
      <trkpt lat="43.365397" lon="-5.987017">
        <ele>243.0</ele>
        <time>2012-03-01T16:38:02Z</time>
      </trkpt>
      <trkpt lat="43.365136" lon="-5.987256">
        <ele>244.0</ele>
        <time>2012-03-01T16:38:06Z</time>
      </trkpt>
      <trkpt lat="43.364914" lon="-5.987562">
        <ele>245.0</ele>
        <time>2012-03-01T16:38:10Z</time>
      </trkpt>
      <trkpt lat="43.36488" lon="-5.987995">
        <ele>245.0</ele>
        <time>2012-03-01T16:38:14Z</time>
      </trkpt>
      <trkpt lat="43.36492" lon="-5.988428">
        <ele>245.0</ele>
        <time>2012-03-01T16:38:18Z</time>
      </trkpt>
      <trkpt lat="43.364967" lon="-5.988856">
        <ele>245.0</ele>
        <time>2012-03-01T16:38:22Z</time>
      </trkpt>
      <trkpt lat="43.365029" lon="-5.989281">
        <ele>246.0</ele>
        <time>2012-03-01T16:38:26Z</time>
      </trkpt>
      <trkpt lat="43.365079" lon="-5.989603">
        <ele>246.0</ele>
        <time>2012-03-01T16:38:29Z</time>
      </trkpt>
      <trkpt lat="43.365145" lon="-5.990129">
        <ele>247.0</ele>
        <time>2012-03-01T16:38:34Z</time>
      </trkpt>
      <trkpt lat="43.365181" lon="-5.990336">
        <ele>247.0</ele>
        <time>2012-03-01T16:38:36Z</time>
      </trkpt>
      <trkpt lat="43.365406" lon="-5.990891">
        <ele>247.0</ele>
        <time>2012-03-01T16:38:42Z</time>
      </trkpt>
      <trkpt lat="43.365582" lon="-5.991244">
        <ele>247.0</ele>
        <time>2012-03-01T16:38:46Z</time>
      </trkpt>
      <trkpt lat="43.365748" lon="-5.991603">
        <ele>247.0</ele>
        <time>2012-03-01T16:38:50Z</time>
      </trkpt>
      <trkpt lat="43.365943" lon="-5.991926">
        <ele>247.0</ele>
        <time>2012-03-01T16:38:54Z</time>
      </trkpt>
      <trkpt lat="43.366215" lon="-5.992139">
        <ele>248.0</ele>
        <time>2012-03-01T16:38:58Z</time>
      </trkpt>
      <trkpt lat="43.366537" lon="-5.992286">
        <ele>248.0</ele>
        <time>2012-03-01T16:39:02Z</time>
      </trkpt>
      <trkpt lat="43.366888" lon="-5.992409">
        <ele>249.0</ele>
        <time>2012-03-01T16:39:06Z</time>
      </trkpt>
      <trkpt lat="43.367053" lon="-5.992498">
        <ele>249.0</ele>
        <time>2012-03-01T16:39:08Z</time>
      </trkpt>
      <trkpt lat="43.367332" lon="-5.993187">
        <ele>250.0</ele>
        <time>2012-03-01T16:39:14Z</time>
      </trkpt>
      <trkpt lat="43.367276" lon="-5.993715">
        <ele>252.0</ele>
        <time>2012-03-01T16:39:18Z</time>
      </trkpt>
      <trkpt lat="43.367207" lon="-5.994082">
        <ele>254.0</ele>
        <time>2012-03-01T16:39:21Z</time>
      </trkpt>
      <trkpt lat="43.367066" lon="-5.994744">
        <ele>258.0</ele>
        <time>2012-03-01T16:39:26Z</time>
      </trkpt>
      <trkpt lat="43.367269" lon="-5.995223">
        <ele>258.0</ele>
        <time>2012-03-01T16:39:30Z</time>
      </trkpt>
      <trkpt lat="43.367655" lon="-5.995445">
        <ele>257.0</ele>
        <time>2012-03-01T16:39:34Z</time>
      </trkpt>
      <trkpt lat="43.368156" lon="-5.995041">
        <ele>255.0</ele>
        <time>2012-03-01T16:39:38Z</time>
      </trkpt>
      <trkpt lat="43.368458" lon="-5.994645">
        <ele>254.0</ele>
        <time>2012-03-01T16:39:42Z</time>
      </trkpt>
      <trkpt lat="43.368819" lon="-5.99461">
        <ele>254.0</ele>
        <time>2012-03-01T16:39:46Z</time>
      </trkpt>
      <trkpt lat="43.368927" lon="-5.995288">
        <ele>256.0</ele>
        <time>2012-03-01T16:39:50Z</time>
      </trkpt>
      <trkpt lat="43.368794" lon="-5.995889">
        <ele>260.0</ele>
        <time>2012-03-01T16:39:54Z</time>
      </trkpt>
      <trkpt lat="43.368535" lon="-5.99638">
        <ele>263.0</ele>
        <time>2012-03-01T16:39:58Z</time>
      </trkpt>
      <trkpt lat="43.368435" lon="-5.99676">
        <ele>263.0</ele>
        <time>2012-03-01T16:40:01Z</time>
      </trkpt>
      <trkpt lat="43.368761" lon="-5.997444">
        <ele>264.0</ele>
        <time>2012-03-01T16:40:06Z</time>
      </trkpt>
      <trkpt lat="43.369215" lon="-5.997672">
        <ele>266.0</ele>
        <time>2012-03-01T16:40:10Z</time>
      </trkpt>
      <trkpt lat="43.369576" lon="-5.997851">
        <ele>266.0</ele>
        <time>2012-03-01T16:40:14Z</time>
      </trkpt>
      <trkpt lat="43.369919" lon="-5.998042">
        <ele>266.0</ele>
        <time>2012-03-01T16:40:18Z</time>
      </trkpt>
      <trkpt lat="43.370289" lon="-5.998093">
        <ele>266.0</ele>
        <time>2012-03-01T16:40:22Z</time>
      </trkpt>
      <trkpt lat="43.370657" lon="-5.998096">
        <ele>266.0</ele>
        <time>2012-03-01T16:40:26Z</time>
      </trkpt>
      <trkpt lat="43.371026" lon="-5.998066">
        <ele>266.0</ele>
        <time>2012-03-01T16:40:30Z</time>
      </trkpt>
      <trkpt lat="43.371396" lon="-5.997956">
        <ele>267.0</ele>
        <time>2012-03-01T16:40:34Z</time>
      </trkpt>
      <trkpt lat="43.371758" lon="-5.997732">
        <ele>267.0</ele>
        <time>2012-03-01T16:40:38Z</time>
      </trkpt>
      <trkpt lat="43.372042" lon="-5.997339">
        <ele>267.0</ele>
        <time>2012-03-01T16:40:42Z</time>
      </trkpt>
      <trkpt lat="43.372201" lon="-5.996826">
        <ele>266.0</ele>
        <time>2012-03-01T16:40:46Z</time>
      </trkpt>
      <trkpt lat="43.372519" lon="-5.996579">
        <ele>265.0</ele>
        <time>2012-03-01T16:40:50Z</time>
      </trkpt>
      <trkpt lat="43.372912" lon="-5.996591">
        <ele>264.0</ele>
        <time>2012-03-01T16:40:54Z</time>
      </trkpt>
      <trkpt lat="43.373284" lon="-5.996806">
        <ele>264.0</ele>
        <time>2012-03-01T16:40:58Z</time>
      </trkpt>
      <trkpt lat="43.373517" lon="-5.997251">
        <ele>265.0</ele>
        <time>2012-03-01T16:41:02Z</time>
      </trkpt>
      <trkpt lat="43.373731" lon="-5.997724">
        <ele>265.0</ele>
        <time>2012-03-01T16:41:06Z</time>
      </trkpt>
      <trkpt lat="43.374032" lon="-5.998119">
        <ele>266.0</ele>
        <time>2012-03-01T16:41:10Z</time>
      </trkpt>
      <trkpt lat="43.374447" lon="-5.998212">
        <ele>265.0</ele>
        <time>2012-03-01T16:41:14Z</time>
      </trkpt>
      <trkpt lat="43.374834" lon="-5.99799">
        <ele>263.0</ele>
        <time>2012-03-01T16:41:18Z</time>
      </trkpt>
      <trkpt lat="43.375085" lon="-5.997581">
        <ele>261.0</ele>
        <time>2012-03-01T16:41:22Z</time>
      </trkpt>
      <trkpt lat="43.375492" lon="-5.997452">
        <ele>260.0</ele>
        <time>2012-03-01T16:41:26Z</time>
      </trkpt>
      <trkpt lat="43.375827" lon="-5.997725">
        <ele>259.0</ele>
        <time>2012-03-01T16:41:30Z</time>
      </trkpt>
      <trkpt lat="43.376062" lon="-5.998068">
        <ele>260.0</ele>
        <time>2012-03-01T16:41:34Z</time>
      </trkpt>
      <trkpt lat="43.376309" lon="-5.998403">
        <ele>261.0</ele>
        <time>2012-03-01T16:41:38Z</time>
      </trkpt>
      <trkpt lat="43.376606" lon="-5.998737">
        <ele>260.0</ele>
        <time>2012-03-01T16:41:42Z</time>
      </trkpt>
      <trkpt lat="43.376951" lon="-5.999066">
        <ele>261.0</ele>
        <time>2012-03-01T16:41:46Z</time>
      </trkpt>
      <trkpt lat="43.377301" lon="-5.999361">
        <ele>262.0</ele>
        <time>2012-03-01T16:41:50Z</time>
      </trkpt>
      <trkpt lat="43.377741" lon="-5.999411">
        <ele>262.0</ele>
        <time>2012-03-01T16:41:54Z</time>
      </trkpt>
      <trkpt lat="43.378191" lon="-5.999197">
        <ele>262.0</ele>
        <time>2012-03-01T16:41:58Z</time>
      </trkpt>
      <trkpt lat="43.378355" lon="-5.998777">
        <ele>262.0</ele>
        <time>2012-03-01T16:42:01Z</time>
      </trkpt>
      <trkpt lat="43.378617" lon="-5.998199">
        <ele>259.0</ele>
        <time>2012-03-01T16:42:06Z</time>
      </trkpt>
      <trkpt lat="43.378792" lon="-5.99772">
        <ele>258.0</ele>
        <time>2012-03-01T16:42:10Z</time>
      </trkpt>
      <trkpt lat="43.378839" lon="-5.997219">
        <ele>255.0</ele>
        <time>2012-03-01T16:42:14Z</time>
      </trkpt>
      <trkpt lat="43.379052" lon="-5.996994">
        <ele>254.0</ele>
        <time>2012-03-01T16:42:18Z</time>
      </trkpt>
      <trkpt lat="43.379316" lon="-5.996882">
        <ele>255.0</ele>
        <time>2012-03-01T16:42:21Z</time>
      </trkpt>
      <trkpt lat="43.379586" lon="-5.997885">
        <ele>257.0</ele>
        <time>2012-03-01T16:42:26Z</time>
      </trkpt>
      <trkpt lat="43.379831" lon="-5.998416">
        <ele>258.0</ele>
        <time>2012-03-01T16:42:30Z</time>
      </trkpt>
      <trkpt lat="43.380197" lon="-5.998778">
        <ele>258.0</ele>
        <time>2012-03-01T16:42:34Z</time>
      </trkpt>
      <trkpt lat="43.380627" lon="-5.998936">
        <ele>258.0</ele>
        <time>2012-03-01T16:42:38Z</time>
      </trkpt>
      <trkpt lat="43.381076" lon="-5.998819">
        <ele>257.0</ele>
        <time>2012-03-01T16:42:42Z</time>
      </trkpt>
      <trkpt lat="43.381505" lon="-5.9986">
        <ele>256.0</ele>
        <time>2012-03-01T16:42:46Z</time>
      </trkpt>
      <trkpt lat="43.381948" lon="-5.998668">
        <ele>256.0</ele>
        <time>2012-03-01T16:42:50Z</time>
      </trkpt>
      <trkpt lat="43.382318" lon="-5.998891">
        <ele>257.0</ele>
        <time>2012-03-01T16:42:54Z</time>
      </trkpt>
      <trkpt lat="43.382622" lon="-5.999286">
        <ele>258.0</ele>
        <time>2012-03-01T16:42:58Z</time>
      </trkpt>
      <trkpt lat="43.382984" lon="-5.999576">
        <ele>259.0</ele>
        <time>2012-03-01T16:43:02Z</time>
      </trkpt>
      <trkpt lat="43.383343" lon="-5.999887">
        <ele>259.0</ele>
        <time>2012-03-01T16:43:06Z</time>
      </trkpt>
      <trkpt lat="43.383609" lon="-6.000152">
        <ele>260.0</ele>
        <time>2012-03-01T16:43:09Z</time>
      </trkpt>
      <trkpt lat="43.384069" lon="-6.000563">
        <ele>259.0</ele>
        <time>2012-03-01T16:43:14Z</time>
      </trkpt>
      <trkpt lat="43.384417" lon="-6.000921">
        <ele>259.0</ele>
        <time>2012-03-01T16:43:18Z</time>
      </trkpt>
      <trkpt lat="43.384777" lon="-6.001269">
        <ele>258.0</ele>
        <time>2012-03-01T16:43:22Z</time>
      </trkpt>
      <trkpt lat="43.385145" lon="-6.001594">
        <ele>257.0</ele>
        <time>2012-03-01T16:43:26Z</time>
      </trkpt>
      <trkpt lat="43.385569" lon="-6.001652">
        <ele>255.0</ele>
        <time>2012-03-01T16:43:30Z</time>
      </trkpt>
      <trkpt lat="43.385945" lon="-6.001418">
        <ele>253.0</ele>
        <time>2012-03-01T16:43:34Z</time>
      </trkpt>
      <trkpt lat="43.386304" lon="-6.001102">
        <ele>251.0</ele>
        <time>2012-03-01T16:43:38Z</time>
      </trkpt>
      <trkpt lat="43.386687" lon="-6.000845">
        <ele>251.0</ele>
        <time>2012-03-01T16:43:42Z</time>
      </trkpt>
      <trkpt lat="43.387077" lon="-6.001004">
        <ele>250.0</ele>
        <time>2012-03-01T16:43:46Z</time>
      </trkpt>
      <trkpt lat="43.38738" lon="-6.00129">
        <ele>250.0</ele>
        <time>2012-03-01T16:43:50Z</time>
      </trkpt>
      <trkpt lat="43.387587" lon="-6.001523">
        <ele>251.0</ele>
        <time>2012-03-01T16:43:53Z</time>
      </trkpt>
      <trkpt lat="43.387812" lon="-6.001868">
        <ele>250.0</ele>
        <time>2012-03-01T16:43:57Z</time>
      </trkpt>
      <trkpt lat="43.387949" lon="-6.002236">
        <ele>245.0</ele>
        <time>2012-03-01T16:44:01Z</time>
      </trkpt>
      <trkpt lat="43.387976" lon="-6.002776">
        <ele>243.0</ele>
        <time>2012-03-01T16:44:06Z</time>
      </trkpt>
      <trkpt lat="43.387985" lon="-6.003089">
        <ele>242.0</ele>
        <time>2012-03-01T16:44:09Z</time>
      </trkpt>
      <trkpt lat="43.388066" lon="-6.003363">
        <ele>241.0</ele>
        <time>2012-03-01T16:44:13Z</time>
      </trkpt>
      <trkpt lat="43.388114" lon="-6.003499">
        <ele>241.0</ele>
        <time>2012-03-01T16:44:15Z</time>
      </trkpt>
      <trkpt lat="43.388255" lon="-6.003895">
        <ele>239.0</ele>
        <time>2012-03-01T16:44:21Z</time>
      </trkpt>
      <trkpt lat="43.388327" lon="-6.004129">
        <ele>238.0</ele>
        <time>2012-03-01T16:44:25Z</time>
      </trkpt>
      <trkpt lat="43.388359" lon="-6.004242">
        <ele>236.0</ele>
        <time>2012-03-01T16:44:28Z</time>
      </trkpt>
      <trkpt lat="43.388344" lon="-6.00438">
        <ele>234.0</ele>
        <time>2012-03-01T16:44:33Z</time>
      </trkpt>
      <trkpt lat="43.388346" lon="-6.004583">
        <ele>231.0</ele>
        <time>2012-03-01T16:44:37Z</time>
      </trkpt>
      <trkpt lat="43.388329" lon="-6.004786">
        <ele>227.0</ele>
        <time>2012-03-01T16:44:41Z</time>
      </trkpt>
      <trkpt lat="43.388285" lon="-6.004974">
        <ele>225.0</ele>
        <time>2012-03-01T16:44:45Z</time>
      </trkpt>
      <trkpt lat="43.3882" lon="-6.005183">
        <ele>222.0</ele>
        <time>2012-03-01T16:44:49Z</time>
      </trkpt>
      <trkpt lat="43.388094" lon="-6.005585">
        <ele>222.0</ele>
        <time>2012-03-01T16:44:54Z</time>
      </trkpt>
      <trkpt lat="43.388161" lon="-6.006006">
        <ele>222.0</ele>
        <time>2012-03-01T16:44:58Z</time>
      </trkpt>
      <trkpt lat="43.388285" lon="-6.006445">
        <ele>221.0</ele>
        <time>2012-03-01T16:45:02Z</time>
      </trkpt>
      <trkpt lat="43.388405" lon="-6.006908">
        <ele>219.0</ele>
        <time>2012-03-01T16:45:06Z</time>
      </trkpt>
      <trkpt lat="43.388533" lon="-6.007407">
        <ele>217.0</ele>
        <time>2012-03-01T16:45:10Z</time>
      </trkpt>
      <trkpt lat="43.388701" lon="-6.007913">
        <ele>216.0</ele>
        <time>2012-03-01T16:45:14Z</time>
      </trkpt>
      <trkpt lat="43.388936" lon="-6.008434">
        <ele>215.0</ele>
        <time>2012-03-01T16:45:18Z</time>
      </trkpt>
      <trkpt lat="43.389174" lon="-6.008969">
        <ele>215.0</ele>
        <time>2012-03-01T16:45:22Z</time>
      </trkpt>
      <trkpt lat="43.389424" lon="-6.009513">
        <ele>215.0</ele>
        <time>2012-03-01T16:45:26Z</time>
      </trkpt>
      <trkpt lat="43.389676" lon="-6.010027">
        <ele>215.0</ele>
        <time>2012-03-01T16:45:30Z</time>
      </trkpt>
      <trkpt lat="43.389868" lon="-6.010405">
        <ele>215.0</ele>
        <time>2012-03-01T16:45:33Z</time>
      </trkpt>
      <trkpt lat="43.39017" lon="-6.011042">
        <ele>215.0</ele>
        <time>2012-03-01T16:45:38Z</time>
      </trkpt>
      <trkpt lat="43.390403" lon="-6.011545">
        <ele>214.0</ele>
        <time>2012-03-01T16:45:42Z</time>
      </trkpt>
      <trkpt lat="43.390635" lon="-6.01203">
        <ele>214.0</ele>
        <time>2012-03-01T16:45:46Z</time>
      </trkpt>
      <trkpt lat="43.390943" lon="-6.012419">
        <ele>215.0</ele>
        <time>2012-03-01T16:45:50Z</time>
      </trkpt>
      <trkpt lat="43.391301" lon="-6.012696">
        <ele>215.0</ele>
        <time>2012-03-01T16:45:54Z</time>
      </trkpt>
      <trkpt lat="43.391646" lon="-6.012958">
        <ele>214.0</ele>
        <time>2012-03-01T16:45:58Z</time>
      </trkpt>
      <trkpt lat="43.391936" lon="-6.0133">
        <ele>215.0</ele>
        <time>2012-03-01T16:46:02Z</time>
      </trkpt>
      <trkpt lat="43.392195" lon="-6.013695">
        <ele>215.0</ele>
        <time>2012-03-01T16:46:06Z</time>
      </trkpt>
      <trkpt lat="43.392464" lon="-6.014038">
        <ele>217.0</ele>
        <time>2012-03-01T16:46:10Z</time>
      </trkpt>
      <trkpt lat="43.392631" lon="-6.014339">
        <ele>218.0</ele>
        <time>2012-03-01T16:46:13Z</time>
      </trkpt>
      <trkpt lat="43.39266" lon="-6.015022">
        <ele>218.0</ele>
        <time>2012-03-01T16:46:18Z</time>
      </trkpt>
      <trkpt lat="43.392649" lon="-6.015591">
        <ele>218.0</ele>
        <time>2012-03-01T16:46:22Z</time>
      </trkpt>
      <trkpt lat="43.392659" lon="-6.016143">
        <ele>221.0</ele>
        <time>2012-03-01T16:46:26Z</time>
      </trkpt>
      <trkpt lat="43.392654" lon="-6.016719">
        <ele>222.0</ele>
        <time>2012-03-01T16:46:30Z</time>
      </trkpt>
      <trkpt lat="43.392637" lon="-6.01729">
        <ele>223.0</ele>
        <time>2012-03-01T16:46:34Z</time>
      </trkpt>
      <trkpt lat="43.39262" lon="-6.017867">
        <ele>222.0</ele>
        <time>2012-03-01T16:46:38Z</time>
      </trkpt>
      <trkpt lat="43.392629" lon="-6.018448">
        <ele>222.0</ele>
        <time>2012-03-01T16:46:42Z</time>
      </trkpt>
      <trkpt lat="43.392866" lon="-6.018922">
        <ele>221.0</ele>
        <time>2012-03-01T16:46:46Z</time>
      </trkpt>
      <trkpt lat="43.393223" lon="-6.019283">
        <ele>220.0</ele>
        <time>2012-03-01T16:46:50Z</time>
      </trkpt>
      <trkpt lat="43.393506" lon="-6.01967">
        <ele>219.0</ele>
        <time>2012-03-01T16:46:54Z</time>
      </trkpt>
      <trkpt lat="43.393657" lon="-6.020172">
        <ele>219.0</ele>
        <time>2012-03-01T16:46:58Z</time>
      </trkpt>
      <trkpt lat="43.393686" lon="-6.020704">
        <ele>220.0</ele>
        <time>2012-03-01T16:47:02Z</time>
      </trkpt>
      <trkpt lat="43.393553" lon="-6.021114">
        <ele>223.0</ele>
        <time>2012-03-01T16:47:06Z</time>
      </trkpt>
      <trkpt lat="43.39327" lon="-6.021433">
        <ele>224.0</ele>
        <time>2012-03-01T16:47:10Z</time>
      </trkpt>
      <trkpt lat="43.392939" lon="-6.021605">
        <ele>216.0</ele>
        <time>2012-03-01T16:47:14Z</time>
      </trkpt>
      <trkpt lat="43.39268" lon="-6.021818">
        <ele>211.0</ele>
        <time>2012-03-01T16:47:18Z</time>
      </trkpt>
      <trkpt lat="43.392738" lon="-6.022309">
        <ele>208.0</ele>
        <time>2012-03-01T16:47:22Z</time>
      </trkpt>
      <trkpt lat="43.392911" lon="-6.022779">
        <ele>207.0</ele>
        <time>2012-03-01T16:47:26Z</time>
      </trkpt>
      <trkpt lat="43.393082" lon="-6.023195">
        <ele>206.0</ele>
        <time>2012-03-01T16:47:30Z</time>
      </trkpt>
      <trkpt lat="43.393222" lon="-6.023614">
        <ele>206.0</ele>
        <time>2012-03-01T16:47:34Z</time>
      </trkpt>
      <trkpt lat="43.393323" lon="-6.023931">
        <ele>206.0</ele>
        <time>2012-03-01T16:47:37Z</time>
      </trkpt>
      <trkpt lat="43.39347" lon="-6.024347">
        <ele>206.0</ele>
        <time>2012-03-01T16:47:41Z</time>
      </trkpt>
      <trkpt lat="43.393727" lon="-6.024832">
        <ele>206.0</ele>
        <time>2012-03-01T16:47:46Z</time>
      </trkpt>
      <trkpt lat="43.393917" lon="-6.025183">
        <ele>208.0</ele>
        <time>2012-03-01T16:47:50Z</time>
      </trkpt>
      <trkpt lat="43.394144" lon="-6.025507">
        <ele>209.0</ele>
        <time>2012-03-01T16:47:54Z</time>
      </trkpt>
      <trkpt lat="43.394416" lon="-6.025802">
        <ele>209.0</ele>
        <time>2012-03-01T16:47:58Z</time>
      </trkpt>
      <trkpt lat="43.394762" lon="-6.025971">
        <ele>210.0</ele>
        <time>2012-03-01T16:48:02Z</time>
      </trkpt>
      <trkpt lat="43.395117" lon="-6.025997">
        <ele>208.0</ele>
        <time>2012-03-01T16:48:06Z</time>
      </trkpt>
      <trkpt lat="43.395462" lon="-6.025988">
        <ele>208.0</ele>
        <time>2012-03-01T16:48:10Z</time>
      </trkpt>
      <trkpt lat="43.395784" lon="-6.026025">
        <ele>208.0</ele>
        <time>2012-03-01T16:48:14Z</time>
      </trkpt>
      <trkpt lat="43.396009" lon="-6.026271">
        <ele>209.0</ele>
        <time>2012-03-01T16:48:18Z</time>
      </trkpt>
      <trkpt lat="43.396064" lon="-6.026453">
        <ele>210.0</ele>
        <time>2012-03-01T16:48:20Z</time>
      </trkpt>
      <trkpt lat="43.396151" lon="-6.026995">
        <ele>210.0</ele>
        <time>2012-03-01T16:48:26Z</time>
      </trkpt>
      <trkpt lat="43.396215" lon="-6.027397">
        <ele>209.0</ele>
        <time>2012-03-01T16:48:30Z</time>
      </trkpt>
      <trkpt lat="43.396291" lon="-6.02782">
        <ele>209.0</ele>
        <time>2012-03-01T16:48:34Z</time>
      </trkpt>
      <trkpt lat="43.396346" lon="-6.028163">
        <ele>209.0</ele>
        <time>2012-03-01T16:48:37Z</time>
      </trkpt>
      <trkpt lat="43.396446" lon="-6.028621">
        <ele>209.0</ele>
        <time>2012-03-01T16:48:41Z</time>
      </trkpt>
      <trkpt lat="43.396659" lon="-6.029205">
        <ele>209.0</ele>
        <time>2012-03-01T16:48:46Z</time>
      </trkpt>
      <trkpt lat="43.396882" lon="-6.029649">
        <ele>209.0</ele>
        <time>2012-03-01T16:48:50Z</time>
      </trkpt>
      <trkpt lat="43.397177" lon="-6.03001">
        <ele>209.0</ele>
        <time>2012-03-01T16:48:54Z</time>
      </trkpt>
      <trkpt lat="43.397418" lon="-6.030229">
        <ele>208.0</ele>
        <time>2012-03-01T16:48:57Z</time>
      </trkpt>
      <trkpt lat="43.397811" lon="-6.030532">
        <ele>208.0</ele>
        <time>2012-03-01T16:49:02Z</time>
      </trkpt>
      <trkpt lat="43.39812" lon="-6.030759">
        <ele>206.0</ele>
        <time>2012-03-01T16:49:06Z</time>
      </trkpt>
      <trkpt lat="43.398408" lon="-6.031031">
        <ele>206.0</ele>
        <time>2012-03-01T16:49:10Z</time>
      </trkpt>
      <trkpt lat="43.398686" lon="-6.031312">
        <ele>204.0</ele>
        <time>2012-03-01T16:49:14Z</time>
      </trkpt>
      <trkpt lat="43.398938" lon="-6.031628">
        <ele>203.0</ele>
        <time>2012-03-01T16:49:18Z</time>
      </trkpt>
      <trkpt lat="43.399176" lon="-6.031976">
        <ele>202.0</ele>
        <time>2012-03-01T16:49:22Z</time>
      </trkpt>
      <trkpt lat="43.399427" lon="-6.032325">
        <ele>202.0</ele>
        <time>2012-03-01T16:49:26Z</time>
      </trkpt>
      <trkpt lat="43.399627" lon="-6.03262">
        <ele>202.0</ele>
        <time>2012-03-01T16:49:29Z</time>
      </trkpt>
      <trkpt lat="43.399952" lon="-6.033078">
        <ele>203.0</ele>
        <time>2012-03-01T16:49:34Z</time>
      </trkpt>
      <trkpt lat="43.400221" lon="-6.033466">
        <ele>203.0</ele>
        <time>2012-03-01T16:49:38Z</time>
      </trkpt>
      <trkpt lat="43.400497" lon="-6.033857">
        <ele>203.0</ele>
        <time>2012-03-01T16:49:42Z</time>
      </trkpt>
      <trkpt lat="43.400769" lon="-6.034223">
        <ele>204.0</ele>
        <time>2012-03-01T16:49:46Z</time>
      </trkpt>
      <trkpt lat="43.400966" lon="-6.034508">
        <ele>204.0</ele>
        <time>2012-03-01T16:49:49Z</time>
      </trkpt>
      <trkpt lat="43.401254" lon="-6.035056">
        <ele>205.0</ele>
        <time>2012-03-01T16:49:54Z</time>
      </trkpt>
      <trkpt lat="43.401407" lon="-6.035532">
        <ele>205.0</ele>
        <time>2012-03-01T16:49:58Z</time>
      </trkpt>
      <trkpt lat="43.401503" lon="-6.036001">
        <ele>204.0</ele>
        <time>2012-03-01T16:50:02Z</time>
      </trkpt>
      <trkpt lat="43.401615" lon="-6.03647">
        <ele>202.0</ele>
        <time>2012-03-01T16:50:06Z</time>
      </trkpt>
      <trkpt lat="43.401754" lon="-6.036972">
        <ele>201.0</ele>
        <time>2012-03-01T16:50:10Z</time>
      </trkpt>
      <trkpt lat="43.401917" lon="-6.03747">
        <ele>201.0</ele>
        <time>2012-03-01T16:50:14Z</time>
      </trkpt>
      <trkpt lat="43.40209" lon="-6.037977">
        <ele>202.0</ele>
        <time>2012-03-01T16:50:18Z</time>
      </trkpt>
      <trkpt lat="43.40225" lon="-6.038449">
        <ele>203.0</ele>
        <time>2012-03-01T16:50:22Z</time>
      </trkpt>
      <trkpt lat="43.402403" lon="-6.038868">
        <ele>205.0</ele>
        <time>2012-03-01T16:50:26Z</time>
      </trkpt>
      <trkpt lat="43.402557" lon="-6.039267">
        <ele>206.0</ele>
        <time>2012-03-01T16:50:30Z</time>
      </trkpt>
      <trkpt lat="43.402705" lon="-6.039673">
        <ele>206.0</ele>
        <time>2012-03-01T16:50:34Z</time>
      </trkpt>
      <trkpt lat="43.402814" lon="-6.040088">
        <ele>206.0</ele>
        <time>2012-03-01T16:50:38Z</time>
      </trkpt>
      <trkpt lat="43.402867" lon="-6.04041">
        <ele>206.0</ele>
        <time>2012-03-01T16:50:41Z</time>
      </trkpt>
      <trkpt lat="43.402941" lon="-6.040945">
        <ele>206.0</ele>
        <time>2012-03-01T16:50:46Z</time>
      </trkpt>
      <trkpt lat="43.402964" lon="-6.041367">
        <ele>206.0</ele>
        <time>2012-03-01T16:50:50Z</time>
      </trkpt>
      <trkpt lat="43.403" lon="-6.041816">
        <ele>206.0</ele>
        <time>2012-03-01T16:50:54Z</time>
      </trkpt>
      <trkpt lat="43.403062" lon="-6.042319">
        <ele>207.0</ele>
        <time>2012-03-01T16:50:58Z</time>
      </trkpt>
      <trkpt lat="43.403117" lon="-6.04282">
        <ele>207.0</ele>
        <time>2012-03-01T16:51:02Z</time>
      </trkpt>
      <trkpt lat="43.403176" lon="-6.043298">
        <ele>207.0</ele>
        <time>2012-03-01T16:51:06Z</time>
      </trkpt>
      <trkpt lat="43.403104" lon="-6.043737">
        <ele>207.0</ele>
        <time>2012-03-01T16:51:10Z</time>
      </trkpt>
      <trkpt lat="43.402938" lon="-6.04407">
        <ele>207.0</ele>
        <time>2012-03-01T16:51:13Z</time>
      </trkpt>
      <trkpt lat="43.402618" lon="-6.044501">
        <ele>206.0</ele>
        <time>2012-03-01T16:51:18Z</time>
      </trkpt>
      <trkpt lat="43.402364" lon="-6.044818">
        <ele>205.0</ele>
        <time>2012-03-01T16:51:22Z</time>
      </trkpt>
      <trkpt lat="43.402149" lon="-6.045156">
        <ele>204.0</ele>
        <time>2012-03-01T16:51:26Z</time>
      </trkpt>
      <trkpt lat="43.402003" lon="-6.045424">
        <ele>202.0</ele>
        <time>2012-03-01T16:51:30Z</time>
      </trkpt>
      <trkpt lat="43.401811" lon="-6.04567">
        <ele>198.0</ele>
        <time>2012-03-01T16:51:34Z</time>
      </trkpt>
      <trkpt lat="43.401586" lon="-6.045897">
        <ele>192.0</ele>
        <time>2012-03-01T16:51:38Z</time>
      </trkpt>
      <trkpt lat="43.401348" lon="-6.046146">
        <ele>183.0</ele>
        <time>2012-03-01T16:51:42Z</time>
      </trkpt>
      <trkpt lat="43.401231" lon="-6.046281">
        <ele>178.0</ele>
        <time>2012-03-01T16:51:44Z</time>
      </trkpt>
      <trkpt lat="43.400869" lon="-6.04667">
        <ele>173.0</ele>
        <time>2012-03-01T16:51:50Z</time>
      </trkpt>
      <trkpt lat="43.400597" lon="-6.046893">
        <ele>173.0</ele>
        <time>2012-03-01T16:51:54Z</time>
      </trkpt>
      <trkpt lat="43.400307" lon="-6.047093">
        <ele>174.0</ele>
        <time>2012-03-01T16:51:58Z</time>
      </trkpt>
      <trkpt lat="43.400063" lon="-6.047397">
        <ele>174.0</ele>
        <time>2012-03-01T16:52:02Z</time>
      </trkpt>
      <trkpt lat="43.399837" lon="-6.047719">
        <ele>174.0</ele>
        <time>2012-03-01T16:52:06Z</time>
      </trkpt>
      <trkpt lat="43.399628" lon="-6.048065">
        <ele>173.0</ele>
        <time>2012-03-01T16:52:10Z</time>
      </trkpt>
      <trkpt lat="43.399425" lon="-6.0484">
        <ele>173.0</ele>
        <time>2012-03-01T16:52:14Z</time>
      </trkpt>
      <trkpt lat="43.399233" lon="-6.04875">
        <ele>172.0</ele>
        <time>2012-03-01T16:52:18Z</time>
      </trkpt>
      <trkpt lat="43.39901" lon="-6.049122">
        <ele>166.0</ele>
        <time>2012-03-01T16:52:22Z</time>
      </trkpt>
      <trkpt lat="43.398814" lon="-6.049509">
        <ele>162.0</ele>
        <time>2012-03-01T16:52:26Z</time>
      </trkpt>
      <trkpt lat="43.39861" lon="-6.049893">
        <ele>159.0</ele>
        <time>2012-03-01T16:52:30Z</time>
      </trkpt>
      <trkpt lat="43.398404" lon="-6.05027">
        <ele>155.0</ele>
        <time>2012-03-01T16:52:34Z</time>
      </trkpt>
      <trkpt lat="43.39826" lon="-6.050703">
        <ele>151.0</ele>
        <time>2012-03-01T16:52:38Z</time>
      </trkpt>
      <trkpt lat="43.398088" lon="-6.050975">
        <ele>147.0</ele>
        <time>2012-03-01T16:52:41Z</time>
      </trkpt>
      <trkpt lat="43.39786" lon="-6.051489">
        <ele>141.0</ele>
        <time>2012-03-01T16:52:46Z</time>
      </trkpt>
      <trkpt lat="43.397674" lon="-6.051906">
        <ele>138.0</ele>
        <time>2012-03-01T16:52:50Z</time>
      </trkpt>
      <trkpt lat="43.397483" lon="-6.052301">
        <ele>138.0</ele>
        <time>2012-03-01T16:52:54Z</time>
      </trkpt>
      <trkpt lat="43.3973" lon="-6.052696">
        <ele>138.0</ele>
        <time>2012-03-01T16:52:58Z</time>
      </trkpt>
      <trkpt lat="43.397084" lon="-6.053043">
        <ele>138.0</ele>
        <time>2012-03-01T16:53:02Z</time>
      </trkpt>
      <trkpt lat="43.396906" lon="-6.053426">
        <ele>138.0</ele>
        <time>2012-03-01T16:53:06Z</time>
      </trkpt>
      <trkpt lat="43.396736" lon="-6.053824">
        <ele>137.0</ele>
        <time>2012-03-01T16:53:10Z</time>
      </trkpt>
      <trkpt lat="43.39656" lon="-6.054223">
        <ele>136.0</ele>
        <time>2012-03-01T16:53:14Z</time>
      </trkpt>
      <trkpt lat="43.396357" lon="-6.054616">
        <ele>136.0</ele>
        <time>2012-03-01T16:53:18Z</time>
      </trkpt>
      <trkpt lat="43.396143" lon="-6.055021">
        <ele>135.0</ele>
        <time>2012-03-01T16:53:22Z</time>
      </trkpt>
      <trkpt lat="43.395945" lon="-6.055422">
        <ele>135.0</ele>
        <time>2012-03-01T16:53:26Z</time>
      </trkpt>
      <trkpt lat="43.395738" lon="-6.05581">
        <ele>133.0</ele>
        <time>2012-03-01T16:53:30Z</time>
      </trkpt>
      <trkpt lat="43.395547" lon="-6.056214">
        <ele>132.0</ele>
        <time>2012-03-01T16:53:34Z</time>
      </trkpt>
      <trkpt lat="43.395346" lon="-6.056612">
        <ele>131.0</ele>
        <time>2012-03-01T16:53:38Z</time>
      </trkpt>
      <trkpt lat="43.395142" lon="-6.05701">
        <ele>131.0</ele>
        <time>2012-03-01T16:53:42Z</time>
      </trkpt>
      <trkpt lat="43.394945" lon="-6.057417">
        <ele>130.0</ele>
        <time>2012-03-01T16:53:46Z</time>
      </trkpt>
      <trkpt lat="43.394778" lon="-6.057832">
        <ele>129.0</ele>
        <time>2012-03-01T16:53:50Z</time>
      </trkpt>
      <trkpt lat="43.394656" lon="-6.058277">
        <ele>128.0</ele>
        <time>2012-03-01T16:53:54Z</time>
      </trkpt>
      <trkpt lat="43.394467" lon="-6.058648">
        <ele>127.0</ele>
        <time>2012-03-01T16:53:58Z</time>
      </trkpt>
      <trkpt lat="43.394351" lon="-6.058793">
        <ele>127.0</ele>
        <time>2012-03-01T16:54:00Z</time>
      </trkpt>
      <trkpt lat="43.39402" lon="-6.059315">
        <ele>128.0</ele>
        <time>2012-03-01T16:54:06Z</time>
      </trkpt>
      <trkpt lat="43.393835" lon="-6.059709">
        <ele>128.0</ele>
        <time>2012-03-01T16:54:10Z</time>
      </trkpt>
      <trkpt lat="43.393649" lon="-6.060111">
        <ele>127.0</ele>
        <time>2012-03-01T16:54:14Z</time>
      </trkpt>
      <trkpt lat="43.393481" lon="-6.060527">
        <ele>127.0</ele>
        <time>2012-03-01T16:54:18Z</time>
      </trkpt>
      <trkpt lat="43.393352" lon="-6.060962">
        <ele>127.0</ele>
        <time>2012-03-01T16:54:22Z</time>
      </trkpt>
      <trkpt lat="43.393272" lon="-6.061404">
        <ele>127.0</ele>
        <time>2012-03-01T16:54:26Z</time>
      </trkpt>
      <trkpt lat="43.393242" lon="-6.061852">
        <ele>127.0</ele>
        <time>2012-03-01T16:54:30Z</time>
      </trkpt>
      <trkpt lat="43.393241" lon="-6.062297">
        <ele>127.0</ele>
        <time>2012-03-01T16:54:34Z</time>
      </trkpt>
      <trkpt lat="43.393246" lon="-6.062734">
        <ele>127.0</ele>
        <time>2012-03-01T16:54:38Z</time>
      </trkpt>
      <trkpt lat="43.393244" lon="-6.063163">
        <ele>127.0</ele>
        <time>2012-03-01T16:54:42Z</time>
      </trkpt>
      <trkpt lat="43.393237" lon="-6.063595">
        <ele>127.0</ele>
        <time>2012-03-01T16:54:46Z</time>
      </trkpt>
      <trkpt lat="43.393238" lon="-6.064015">
        <ele>126.0</ele>
        <time>2012-03-01T16:54:50Z</time>
      </trkpt>
      <trkpt lat="43.393255" lon="-6.064414">
        <ele>126.0</ele>
        <time>2012-03-01T16:54:54Z</time>
      </trkpt>
      <trkpt lat="43.393275" lon="-6.064798">
        <ele>126.0</ele>
        <time>2012-03-01T16:54:58Z</time>
      </trkpt>
      <trkpt lat="43.393277" lon="-6.06517">
        <ele>127.0</ele>
        <time>2012-03-01T16:55:02Z</time>
      </trkpt>
      <trkpt lat="43.393285" lon="-6.06553">
        <ele>127.0</ele>
        <time>2012-03-01T16:55:06Z</time>
      </trkpt>
      <trkpt lat="43.393299" lon="-6.06588">
        <ele>127.0</ele>
        <time>2012-03-01T16:55:10Z</time>
      </trkpt>
      <trkpt lat="43.393315" lon="-6.066235">
        <ele>127.0</ele>
        <time>2012-03-01T16:55:14Z</time>
      </trkpt>
      <trkpt lat="43.393298" lon="-6.066608">
        <ele>128.0</ele>
        <time>2012-03-01T16:55:18Z</time>
      </trkpt>
      <trkpt lat="43.393187" lon="-6.066829">
        <ele>128.0</ele>
        <time>2012-03-01T16:55:21Z</time>
      </trkpt>
      <trkpt lat="43.39297" lon="-6.067119">
        <ele>128.0</ele>
        <time>2012-03-01T16:55:26Z</time>
      </trkpt>
      <trkpt lat="43.392826" lon="-6.067335">
        <ele>128.0</ele>
        <time>2012-03-01T16:55:30Z</time>
      </trkpt>
      <trkpt lat="43.392591" lon="-6.067354">
        <ele>127.0</ele>
        <time>2012-03-01T16:55:34Z</time>
      </trkpt>
      <trkpt lat="43.39235" lon="-6.067345">
        <ele>127.0</ele>
        <time>2012-03-01T16:55:38Z</time>
      </trkpt>
      <trkpt lat="43.39188" lon="-6.067463">
        <ele>127.0</ele>
        <time>2012-03-01T16:55:46Z</time>
      </trkpt>
      <trkpt lat="43.391641" lon="-6.067605">
        <ele>126.0</ele>
        <time>2012-03-01T16:55:50Z</time>
      </trkpt>
      <trkpt lat="43.391405" lon="-6.067759">
        <ele>127.0</ele>
        <time>2012-03-01T16:55:54Z</time>
      </trkpt>
      <trkpt lat="43.391169" lon="-6.067915">
        <ele>128.0</ele>
        <time>2012-03-01T16:55:58Z</time>
      </trkpt>
      <trkpt lat="43.390978" lon="-6.068132">
        <ele>129.0</ele>
        <time>2012-03-01T16:56:02Z</time>
      </trkpt>
      <trkpt lat="43.39085" lon="-6.068316">
        <ele>129.0</ele>
        <time>2012-03-01T16:56:05Z</time>
      </trkpt>
      <trkpt lat="43.390674" lon="-6.06853">
        <ele>129.0</ele>
        <time>2012-03-01T16:56:09Z</time>
      </trkpt>
      <trkpt lat="43.390526" lon="-6.068763">
        <ele>129.0</ele>
        <time>2012-03-01T16:56:13Z</time>
      </trkpt>
      <trkpt lat="43.390392" lon="-6.069006">
        <ele>130.0</ele>
        <time>2012-03-01T16:56:17Z</time>
      </trkpt>
      <trkpt lat="43.390257" lon="-6.069249">
        <ele>131.0</ele>
        <time>2012-03-01T16:56:21Z</time>
      </trkpt>
      <trkpt lat="43.390114" lon="-6.069484">
        <ele>133.0</ele>
        <time>2012-03-01T16:56:25Z</time>
      </trkpt>
      <trkpt lat="43.389959" lon="-6.069705">
        <ele>134.0</ele>
        <time>2012-03-01T16:56:29Z</time>
      </trkpt>
      <trkpt lat="43.389727" lon="-6.070059">
        <ele>135.0</ele>
        <time>2012-03-01T16:56:35Z</time>
      </trkpt>
      <trkpt lat="43.38949" lon="-6.070408">
        <ele>135.0</ele>
        <time>2012-03-01T16:56:41Z</time>
      </trkpt>
      <trkpt lat="43.389186" lon="-6.070844">
        <ele>136.0</ele>
        <time>2012-03-01T16:56:49Z</time>
      </trkpt>
      <trkpt lat="43.389016" lon="-6.071038">
        <ele>136.0</ele>
        <time>2012-03-01T16:56:53Z</time>
      </trkpt>
      <trkpt lat="43.388871" lon="-6.071254">
        <ele>137.0</ele>
        <time>2012-03-01T16:56:57Z</time>
      </trkpt>
      <trkpt lat="43.388757" lon="-6.071516">
        <ele>137.0</ele>
        <time>2012-03-01T16:57:01Z</time>
      </trkpt>
      <trkpt lat="43.388727" lon="-6.071844">
        <ele>136.0</ele>
        <time>2012-03-01T16:57:05Z</time>
      </trkpt>
      <trkpt lat="43.388651" lon="-6.072148">
        <ele>135.0</ele>
        <time>2012-03-01T16:57:09Z</time>
      </trkpt>
      <trkpt lat="43.38861" lon="-6.0723">
        <ele>135.0</ele>
        <time>2012-03-01T16:57:11Z</time>
      </trkpt>
      <trkpt lat="43.388424" lon="-6.072823">
        <ele>135.0</ele>
        <time>2012-03-01T16:57:18Z</time>
      </trkpt>
      <trkpt lat="43.388355" lon="-6.072976">
        <ele>136.0</ele>
        <time>2012-03-01T16:57:20Z</time>
      </trkpt>
      <trkpt lat="43.388075" lon="-6.073409">
        <ele>137.0</ele>
        <time>2012-03-01T16:57:26Z</time>
      </trkpt>
      <trkpt lat="43.387784" lon="-6.073692">
        <ele>138.0</ele>
        <time>2012-03-01T16:57:30Z</time>
      </trkpt>
      <trkpt lat="43.387574" lon="-6.073899">
        <ele>138.0</ele>
        <time>2012-03-01T16:57:33Z</time>
      </trkpt>
      <trkpt lat="43.387296" lon="-6.074197">
        <ele>139.0</ele>
        <time>2012-03-01T16:57:37Z</time>
      </trkpt>
      <trkpt lat="43.387023" lon="-6.074501">
        <ele>139.0</ele>
        <time>2012-03-01T16:57:41Z</time>
      </trkpt>
      <trkpt lat="43.386741" lon="-6.074783">
        <ele>140.0</ele>
        <time>2012-03-01T16:57:45Z</time>
      </trkpt>
      <trkpt lat="43.386469" lon="-6.075074">
        <ele>141.0</ele>
        <time>2012-03-01T16:57:49Z</time>
      </trkpt>
      <trkpt lat="43.386213" lon="-6.075392">
        <ele>141.0</ele>
        <time>2012-03-01T16:57:53Z</time>
      </trkpt>
      <trkpt lat="43.385972" lon="-6.075716">
        <ele>141.0</ele>
        <time>2012-03-01T16:57:57Z</time>
      </trkpt>
      <trkpt lat="43.385744" lon="-6.076014">
        <ele>142.0</ele>
        <time>2012-03-01T16:58:01Z</time>
      </trkpt>
      <trkpt lat="43.385527" lon="-6.076291">
        <ele>143.0</ele>
        <time>2012-03-01T16:58:05Z</time>
      </trkpt>
      <trkpt lat="43.385364" lon="-6.076689">
        <ele>143.0</ele>
        <time>2012-03-01T16:58:10Z</time>
      </trkpt>
      <trkpt lat="43.385323" lon="-6.076953">
        <ele>143.0</ele>
        <time>2012-03-01T16:58:13Z</time>
      </trkpt>
      <trkpt lat="43.385307" lon="-6.077357">
        <ele>142.0</ele>
        <time>2012-03-01T16:58:18Z</time>
      </trkpt>
      <trkpt lat="43.385296" lon="-6.077498">
        <ele>142.0</ele>
        <time>2012-03-01T16:58:20Z</time>
      </trkpt>
      <trkpt lat="43.385077" lon="-6.077669">
        <ele>143.0</ele>
        <time>2012-03-01T16:58:26Z</time>
      </trkpt>
      <trkpt lat="43.384806" lon="-6.077595">
        <ele>145.0</ele>
        <time>2012-03-01T16:58:30Z</time>
      </trkpt>
      <trkpt lat="43.384506" lon="-6.077471">
        <ele>146.0</ele>
        <time>2012-03-01T16:58:34Z</time>
      </trkpt>
      <trkpt lat="43.384238" lon="-6.077066">
        <ele>147.0</ele>
        <time>2012-03-01T16:58:38Z</time>
      </trkpt>
      <trkpt lat="43.384104" lon="-6.076611">
        <ele>148.0</ele>
        <time>2012-03-01T16:58:42Z</time>
      </trkpt>
      <trkpt lat="43.383944" lon="-6.076222">
        <ele>148.0</ele>
        <time>2012-03-01T16:58:46Z</time>
      </trkpt>
      <trkpt lat="43.383706" lon="-6.075907">
        <ele>148.0</ele>
        <time>2012-03-01T16:58:50Z</time>
      </trkpt>
      <trkpt lat="43.383468" lon="-6.075586">
        <ele>149.0</ele>
        <time>2012-03-01T16:58:54Z</time>
      </trkpt>
      <trkpt lat="43.383239" lon="-6.075249">
        <ele>150.0</ele>
        <time>2012-03-01T16:58:58Z</time>
      </trkpt>
      <trkpt lat="43.383023" lon="-6.074903">
        <ele>151.0</ele>
        <time>2012-03-01T16:59:02Z</time>
      </trkpt>
      <trkpt lat="43.382821" lon="-6.074574">
        <ele>151.0</ele>
        <time>2012-03-01T16:59:06Z</time>
      </trkpt>
      <trkpt lat="43.382645" lon="-6.074218">
        <ele>150.0</ele>
        <time>2012-03-01T16:59:10Z</time>
      </trkpt>
      <trkpt lat="43.382495" lon="-6.073792">
        <ele>148.0</ele>
        <time>2012-03-01T16:59:14Z</time>
      </trkpt>
      <trkpt lat="43.382345" lon="-6.073368">
        <ele>147.0</ele>
        <time>2012-03-01T16:59:18Z</time>
      </trkpt>
      <trkpt lat="43.382259" lon="-6.072891">
        <ele>147.0</ele>
        <time>2012-03-01T16:59:22Z</time>
      </trkpt>
      <trkpt lat="43.382203" lon="-6.072382">
        <ele>146.0</ele>
        <time>2012-03-01T16:59:26Z</time>
      </trkpt>
      <trkpt lat="43.38219" lon="-6.072017">
        <ele>146.0</ele>
        <time>2012-03-01T16:59:29Z</time>
      </trkpt>
      <trkpt lat="43.381934" lon="-6.071751">
        <ele>146.0</ele>
        <time>2012-03-01T16:59:34Z</time>
      </trkpt>
      <trkpt lat="43.381512" lon="-6.071782">
        <ele>146.0</ele>
        <time>2012-03-01T16:59:38Z</time>
      </trkpt>
      <trkpt lat="43.381138" lon="-6.071739">
        <ele>146.0</ele>
        <time>2012-03-01T16:59:42Z</time>
      </trkpt>
      <trkpt lat="43.380766" lon="-6.071675">
        <ele>146.0</ele>
        <time>2012-03-01T16:59:46Z</time>
      </trkpt>
      <trkpt lat="43.380405" lon="-6.07161">
        <ele>146.0</ele>
        <time>2012-03-01T16:59:50Z</time>
      </trkpt>
      <trkpt lat="43.380064" lon="-6.071555">
        <ele>146.0</ele>
        <time>2012-03-01T16:59:54Z</time>
      </trkpt>
      <trkpt lat="43.379735" lon="-6.071537">
        <ele>146.0</ele>
        <time>2012-03-01T16:59:58Z</time>
      </trkpt>
      <trkpt lat="43.379432" lon="-6.071619">
        <ele>148.0</ele>
        <time>2012-03-01T17:00:02Z</time>
      </trkpt>
      <trkpt lat="43.379154" lon="-6.071706">
        <ele>148.0</ele>
        <time>2012-03-01T17:00:06Z</time>
      </trkpt>
      <trkpt lat="43.378904" lon="-6.071799">
        <ele>149.0</ele>
        <time>2012-03-01T17:00:10Z</time>
      </trkpt>
      <trkpt lat="43.378653" lon="-6.071859">
        <ele>149.0</ele>
        <time>2012-03-01T17:00:14Z</time>
      </trkpt>
      <trkpt lat="43.378397" lon="-6.071912">
        <ele>149.0</ele>
        <time>2012-03-01T17:00:18Z</time>
      </trkpt>
      <trkpt lat="43.378124" lon="-6.071953">
        <ele>149.0</ele>
        <time>2012-03-01T17:00:22Z</time>
      </trkpt>
      <trkpt lat="43.377806" lon="-6.072023">
        <ele>150.0</ele>
        <time>2012-03-01T17:00:26Z</time>
      </trkpt>
      <trkpt lat="43.37749" lon="-6.072111">
        <ele>151.0</ele>
        <time>2012-03-01T17:00:30Z</time>
      </trkpt>
      <trkpt lat="43.377174" lon="-6.072297">
        <ele>151.0</ele>
        <time>2012-03-01T17:00:34Z</time>
      </trkpt>
      <trkpt lat="43.376949" lon="-6.072456">
        <ele>151.0</ele>
        <time>2012-03-01T17:00:37Z</time>
      </trkpt>
      <trkpt lat="43.376633" lon="-6.072648">
        <ele>151.0</ele>
        <time>2012-03-01T17:00:41Z</time>
      </trkpt>
      <trkpt lat="43.376201" lon="-6.0728">
        <ele>150.0</ele>
        <time>2012-03-01T17:00:46Z</time>
      </trkpt>
      <trkpt lat="43.37586" lon="-6.072897">
        <ele>150.0</ele>
        <time>2012-03-01T17:00:50Z</time>
      </trkpt>
      <trkpt lat="43.375536" lon="-6.073082">
        <ele>149.0</ele>
        <time>2012-03-01T17:00:54Z</time>
      </trkpt>
      <trkpt lat="43.375187" lon="-6.07326">
        <ele>150.0</ele>
        <time>2012-03-01T17:00:58Z</time>
      </trkpt>
      <trkpt lat="43.374753" lon="-6.073294">
        <ele>151.0</ele>
        <time>2012-03-01T17:01:02Z</time>
      </trkpt>
      <trkpt lat="43.374321" lon="-6.073212">
        <ele>151.0</ele>
        <time>2012-03-01T17:01:06Z</time>
      </trkpt>
      <trkpt lat="43.373935" lon="-6.073055">
        <ele>149.0</ele>
        <time>2012-03-01T17:01:10Z</time>
      </trkpt>
      <trkpt lat="43.373587" lon="-6.072884">
        <ele>148.0</ele>
        <time>2012-03-01T17:01:14Z</time>
      </trkpt>
      <trkpt lat="43.373226" lon="-6.072741">
        <ele>148.0</ele>
        <time>2012-03-01T17:01:18Z</time>
      </trkpt>
      <trkpt lat="43.372963" lon="-6.072631">
        <ele>149.0</ele>
        <time>2012-03-01T17:01:21Z</time>
      </trkpt>
      <trkpt lat="43.372558" lon="-6.072363">
        <ele>150.0</ele>
        <time>2012-03-01T17:01:26Z</time>
      </trkpt>
      <trkpt lat="43.372246" lon="-6.072093">
        <ele>150.0</ele>
        <time>2012-03-01T17:01:30Z</time>
      </trkpt>
      <trkpt lat="43.371957" lon="-6.071819">
        <ele>151.0</ele>
        <time>2012-03-01T17:01:34Z</time>
      </trkpt>
      <trkpt lat="43.371676" lon="-6.07157">
        <ele>150.0</ele>
        <time>2012-03-01T17:01:38Z</time>
      </trkpt>
      <trkpt lat="43.371393" lon="-6.071379">
        <ele>150.0</ele>
        <time>2012-03-01T17:01:42Z</time>
      </trkpt>
      <trkpt lat="43.371075" lon="-6.071272">
        <ele>149.0</ele>
        <time>2012-03-01T17:01:46Z</time>
      </trkpt>
      <trkpt lat="43.370751" lon="-6.071219">
        <ele>149.0</ele>
        <time>2012-03-01T17:01:50Z</time>
      </trkpt>
      <trkpt lat="43.370508" lon="-6.071173">
        <ele>149.0</ele>
        <time>2012-03-01T17:01:53Z</time>
      </trkpt>
      <trkpt lat="43.370095" lon="-6.071089">
        <ele>150.0</ele>
        <time>2012-03-01T17:01:58Z</time>
      </trkpt>
      <trkpt lat="43.369767" lon="-6.070975">
        <ele>151.0</ele>
        <time>2012-03-01T17:02:02Z</time>
      </trkpt>
      <trkpt lat="43.369459" lon="-6.070825">
        <ele>151.0</ele>
        <time>2012-03-01T17:02:06Z</time>
      </trkpt>
      <trkpt lat="43.369162" lon="-6.070691">
        <ele>151.0</ele>
        <time>2012-03-01T17:02:10Z</time>
      </trkpt>
      <trkpt lat="43.368881" lon="-6.070577">
        <ele>152.0</ele>
        <time>2012-03-01T17:02:14Z</time>
      </trkpt>
      <trkpt lat="43.368602" lon="-6.070429">
        <ele>153.0</ele>
        <time>2012-03-01T17:02:18Z</time>
      </trkpt>
      <trkpt lat="43.368322" lon="-6.07027">
        <ele>154.0</ele>
        <time>2012-03-01T17:02:22Z</time>
      </trkpt>
      <trkpt lat="43.368053" lon="-6.070093">
        <ele>154.0</ele>
        <time>2012-03-01T17:02:26Z</time>
      </trkpt>
      <trkpt lat="43.367867" lon="-6.069956">
        <ele>154.0</ele>
        <time>2012-03-01T17:02:29Z</time>
      </trkpt>
      <trkpt lat="43.367793" lon="-6.069619">
        <ele>152.0</ele>
        <time>2012-03-01T17:02:34Z</time>
      </trkpt>
      <trkpt lat="43.367813" lon="-6.069281">
        <ele>152.0</ele>
        <time>2012-03-01T17:02:38Z</time>
      </trkpt>
      <trkpt lat="43.367837" lon="-6.068928">
        <ele>152.0</ele>
        <time>2012-03-01T17:02:42Z</time>
      </trkpt>
      <trkpt lat="43.367614" lon="-6.068748">
        <ele>151.0</ele>
        <time>2012-03-01T17:02:46Z</time>
      </trkpt>
      <trkpt lat="43.367328" lon="-6.068659">
        <ele>152.0</ele>
        <time>2012-03-01T17:02:50Z</time>
      </trkpt>
      <trkpt lat="43.367045" lon="-6.068567">
        <ele>152.0</ele>
        <time>2012-03-01T17:02:54Z</time>
      </trkpt>
      <trkpt lat="43.366742" lon="-6.068483">
        <ele>152.0</ele>
        <time>2012-03-01T17:02:58Z</time>
      </trkpt>
      <trkpt lat="43.366417" lon="-6.0684">
        <ele>154.0</ele>
        <time>2012-03-01T17:03:02Z</time>
      </trkpt>
      <trkpt lat="43.366062" lon="-6.068435">
        <ele>155.0</ele>
        <time>2012-03-01T17:03:06Z</time>
      </trkpt>
      <trkpt lat="43.365727" lon="-6.068534">
        <ele>156.0</ele>
        <time>2012-03-01T17:03:10Z</time>
      </trkpt>
      <trkpt lat="43.365419" lon="-6.06864">
        <ele>156.0</ele>
        <time>2012-03-01T17:03:14Z</time>
      </trkpt>
      <trkpt lat="43.365122" lon="-6.068752">
        <ele>156.0</ele>
        <time>2012-03-01T17:03:18Z</time>
      </trkpt>
      <trkpt lat="43.364842" lon="-6.068913">
        <ele>155.0</ele>
        <time>2012-03-01T17:03:22Z</time>
      </trkpt>
      <trkpt lat="43.364579" lon="-6.069121">
        <ele>155.0</ele>
        <time>2012-03-01T17:03:26Z</time>
      </trkpt>
      <trkpt lat="43.364305" lon="-6.069313">
        <ele>156.0</ele>
        <time>2012-03-01T17:03:30Z</time>
      </trkpt>
      <trkpt lat="43.364008" lon="-6.069462">
        <ele>155.0</ele>
        <time>2012-03-01T17:03:34Z</time>
      </trkpt>
      <trkpt lat="43.363702" lon="-6.06958">
        <ele>156.0</ele>
        <time>2012-03-01T17:03:38Z</time>
      </trkpt>
      <trkpt lat="43.363389" lon="-6.069677">
        <ele>156.0</ele>
        <time>2012-03-01T17:03:42Z</time>
      </trkpt>
      <trkpt lat="43.36315" lon="-6.069757">
        <ele>156.0</ele>
        <time>2012-03-01T17:03:45Z</time>
      </trkpt>
      <trkpt lat="43.362757" lon="-6.069904">
        <ele>156.0</ele>
        <time>2012-03-01T17:03:50Z</time>
      </trkpt>
      <trkpt lat="43.362444" lon="-6.07001">
        <ele>157.0</ele>
        <time>2012-03-01T17:03:54Z</time>
      </trkpt>
      <trkpt lat="43.362132" lon="-6.070127">
        <ele>158.0</ele>
        <time>2012-03-01T17:03:58Z</time>
      </trkpt>
      <trkpt lat="43.361835" lon="-6.070293">
        <ele>158.0</ele>
        <time>2012-03-01T17:04:02Z</time>
      </trkpt>
      <trkpt lat="43.361562" lon="-6.070508">
        <ele>159.0</ele>
        <time>2012-03-01T17:04:06Z</time>
      </trkpt>
      <trkpt lat="43.361369" lon="-6.070676">
        <ele>159.0</ele>
        <time>2012-03-01T17:04:09Z</time>
      </trkpt>
      <trkpt lat="43.361099" lon="-6.071033">
        <ele>159.0</ele>
        <time>2012-03-01T17:04:14Z</time>
      </trkpt>
      <trkpt lat="43.360987" lon="-6.071165">
        <ele>159.0</ele>
        <time>2012-03-01T17:04:16Z</time>
      </trkpt>
      <trkpt lat="43.360637" lon="-6.071576">
        <ele>159.0</ele>
        <time>2012-03-01T17:04:22Z</time>
      </trkpt>
      <trkpt lat="43.360418" lon="-6.071852">
        <ele>159.0</ele>
        <time>2012-03-01T17:04:26Z</time>
      </trkpt>
      <trkpt lat="43.360226" lon="-6.072138">
        <ele>159.0</ele>
        <time>2012-03-01T17:04:30Z</time>
      </trkpt>
      <trkpt lat="43.360042" lon="-6.072401">
        <ele>160.0</ele>
        <time>2012-03-01T17:04:34Z</time>
      </trkpt>
      <trkpt lat="43.359863" lon="-6.072651">
        <ele>161.0</ele>
        <time>2012-03-01T17:04:38Z</time>
      </trkpt>
      <trkpt lat="43.359734" lon="-6.072844">
        <ele>161.0</ele>
        <time>2012-03-01T17:04:41Z</time>
      </trkpt>
      <trkpt lat="43.359557" lon="-6.073084">
        <ele>161.0</ele>
        <time>2012-03-01T17:04:45Z</time>
      </trkpt>
      <trkpt lat="43.359382" lon="-6.073322">
        <ele>161.0</ele>
        <time>2012-03-01T17:04:49Z</time>
      </trkpt>
      <trkpt lat="43.359297" lon="-6.07344">
        <ele>161.0</ele>
        <time>2012-03-01T17:04:51Z</time>
      </trkpt>
      <trkpt lat="43.359038" lon="-6.073767">
        <ele>161.0</ele>
        <time>2012-03-01T17:04:57Z</time>
      </trkpt>
      <trkpt lat="43.358862" lon="-6.073988">
        <ele>161.0</ele>
        <time>2012-03-01T17:05:01Z</time>
      </trkpt>
      <trkpt lat="43.358498" lon="-6.07387">
        <ele>157.0</ele>
        <time>2012-03-01T17:05:06Z</time>
      </trkpt>
      <trkpt lat="43.358213" lon="-6.073756">
        <ele>158.0</ele>
        <time>2012-03-01T17:05:10Z</time>
      </trkpt>
      <trkpt lat="43.35815" lon="-6.073729">
        <ele>158.0</ele>
        <time>2012-03-01T17:05:11Z</time>
      </trkpt>
      <trkpt lat="43.357778" lon="-6.073723">
        <ele>160.0</ele>
        <time>2012-03-01T17:05:17Z</time>
      </trkpt>
      <trkpt lat="43.357547" lon="-6.073766">
        <ele>161.0</ele>
        <time>2012-03-01T17:05:21Z</time>
      </trkpt>
      <trkpt lat="43.357446" lon="-6.073786">
        <ele>161.0</ele>
        <time>2012-03-01T17:05:23Z</time>
      </trkpt>
      <trkpt lat="43.357173" lon="-6.073845">
        <ele>161.0</ele>
        <time>2012-03-01T17:05:29Z</time>
      </trkpt>
      <trkpt lat="43.356979" lon="-6.073903">
        <ele>162.0</ele>
        <time>2012-03-01T17:05:33Z</time>
      </trkpt>
      <trkpt lat="43.356685" lon="-6.073987">
        <ele>164.0</ele>
        <time>2012-03-01T17:05:38Z</time>
      </trkpt>
      <trkpt lat="43.356373" lon="-6.07417">
        <ele>165.0</ele>
        <time>2012-03-01T17:05:42Z</time>
      </trkpt>
      <trkpt lat="43.356021" lon="-6.074612">
        <ele>166.0</ele>
        <time>2012-03-01T17:05:46Z</time>
      </trkpt>
      <trkpt lat="43.355695" lon="-6.075026">
        <ele>167.0</ele>
        <time>2012-03-01T17:05:50Z</time>
      </trkpt>
      <trkpt lat="43.355445" lon="-6.075379">
        <ele>168.0</ele>
        <time>2012-03-01T17:05:54Z</time>
      </trkpt>
      <trkpt lat="43.355228" lon="-6.075688">
        <ele>168.0</ele>
        <time>2012-03-01T17:05:58Z</time>
      </trkpt>
      <trkpt lat="43.355024" lon="-6.075961">
        <ele>168.0</ele>
        <time>2012-03-01T17:06:02Z</time>
      </trkpt>
      <trkpt lat="43.354922" lon="-6.076097">
        <ele>168.0</ele>
        <time>2012-03-01T17:06:04Z</time>
      </trkpt>
      <trkpt lat="43.354606" lon="-6.076674">
        <ele>170.0</ele>
        <time>2012-03-01T17:06:10Z</time>
      </trkpt>
      <trkpt lat="43.354387" lon="-6.077124">
        <ele>172.0</ele>
        <time>2012-03-01T17:06:14Z</time>
      </trkpt>
      <trkpt lat="43.354286" lon="-6.077627">
        <ele>172.0</ele>
        <time>2012-03-01T17:06:18Z</time>
      </trkpt>
      <trkpt lat="43.354116" lon="-6.077955">
        <ele>172.0</ele>
        <time>2012-03-01T17:06:22Z</time>
      </trkpt>
      <trkpt lat="43.353938" lon="-6.078269">
        <ele>171.0</ele>
        <time>2012-03-01T17:06:26Z</time>
      </trkpt>
      <trkpt lat="43.35367" lon="-6.078536">
        <ele>165.0</ele>
        <time>2012-03-01T17:06:30Z</time>
      </trkpt>
      <trkpt lat="43.353375" lon="-6.078696">
        <ele>164.0</ele>
        <time>2012-03-01T17:06:34Z</time>
      </trkpt>
      <trkpt lat="43.353076" lon="-6.078736">
        <ele>164.0</ele>
        <time>2012-03-01T17:06:38Z</time>
      </trkpt>
      <trkpt lat="43.352792" lon="-6.078782">
        <ele>166.0</ele>
        <time>2012-03-01T17:06:42Z</time>
      </trkpt>
      <trkpt lat="43.352525" lon="-6.078818">
        <ele>167.0</ele>
        <time>2012-03-01T17:06:46Z</time>
      </trkpt>
      <trkpt lat="43.352259" lon="-6.07881">
        <ele>169.0</ele>
        <time>2012-03-01T17:06:50Z</time>
      </trkpt>
      <trkpt lat="43.352004" lon="-6.078678">
        <ele>172.0</ele>
        <time>2012-03-01T17:06:54Z</time>
      </trkpt>
      <trkpt lat="43.351769" lon="-6.078372">
        <ele>174.0</ele>
        <time>2012-03-01T17:06:58Z</time>
      </trkpt>
      <trkpt lat="43.351666" lon="-6.077958">
        <ele>175.0</ele>
        <time>2012-03-01T17:07:02Z</time>
      </trkpt>
      <trkpt lat="43.351583" lon="-6.077614">
        <ele>175.0</ele>
        <time>2012-03-01T17:07:06Z</time>
      </trkpt>
      <trkpt lat="43.351552" lon="-6.077537">
        <ele>175.0</ele>
        <time>2012-03-01T17:07:07Z</time>
      </trkpt>
      <trkpt lat="43.351192" lon="-6.077539">
        <ele>178.0</ele>
        <time>2012-03-01T17:07:14Z</time>
      </trkpt>
      <trkpt lat="43.350917" lon="-6.077654">
        <ele>179.0</ele>
        <time>2012-03-01T17:07:18Z</time>
      </trkpt>
      <trkpt lat="43.350658" lon="-6.0779">
        <ele>180.0</ele>
        <time>2012-03-01T17:07:22Z</time>
      </trkpt>
      <trkpt lat="43.350399" lon="-6.078218">
        <ele>180.0</ele>
        <time>2012-03-01T17:07:26Z</time>
      </trkpt>
      <trkpt lat="43.350155" lon="-6.078568">
        <ele>180.0</ele>
        <time>2012-03-01T17:07:30Z</time>
      </trkpt>
      <trkpt lat="43.349828" lon="-6.078901">
        <ele>181.0</ele>
        <time>2012-03-01T17:07:34Z</time>
      </trkpt>
      <trkpt lat="43.349532" lon="-6.079234">
        <ele>181.0</ele>
        <time>2012-03-01T17:07:38Z</time>
      </trkpt>
      <trkpt lat="43.349248" lon="-6.079517">
        <ele>181.0</ele>
        <time>2012-03-01T17:07:42Z</time>
      </trkpt>
      <trkpt lat="43.34898" lon="-6.07976">
        <ele>181.0</ele>
        <time>2012-03-01T17:07:46Z</time>
      </trkpt>
      <trkpt lat="43.348725" lon="-6.079996">
        <ele>181.0</ele>
        <time>2012-03-01T17:07:50Z</time>
      </trkpt>
      <trkpt lat="43.348468" lon="-6.080228">
        <ele>181.0</ele>
        <time>2012-03-01T17:07:54Z</time>
      </trkpt>
      <trkpt lat="43.34821" lon="-6.080463">
        <ele>182.0</ele>
        <time>2012-03-01T17:07:58Z</time>
      </trkpt>
      <trkpt lat="43.347947" lon="-6.080697">
        <ele>183.0</ele>
        <time>2012-03-01T17:08:02Z</time>
      </trkpt>
      <trkpt lat="43.34775" lon="-6.080863">
        <ele>183.0</ele>
        <time>2012-03-01T17:08:05Z</time>
      </trkpt>
      <trkpt lat="43.347431" lon="-6.081144">
        <ele>183.0</ele>
        <time>2012-03-01T17:08:10Z</time>
      </trkpt>
      <trkpt lat="43.347236" lon="-6.081436">
        <ele>183.0</ele>
        <time>2012-03-01T17:08:14Z</time>
      </trkpt>
      <trkpt lat="43.347151" lon="-6.081827">
        <ele>183.0</ele>
        <time>2012-03-01T17:08:18Z</time>
      </trkpt>
      <trkpt lat="43.347053" lon="-6.082184">
        <ele>185.0</ele>
        <time>2012-03-01T17:08:22Z</time>
      </trkpt>
      <trkpt lat="43.346949" lon="-6.08253">
        <ele>186.0</ele>
        <time>2012-03-01T17:08:26Z</time>
      </trkpt>
      <trkpt lat="43.346834" lon="-6.082866">
        <ele>187.0</ele>
        <time>2012-03-01T17:08:30Z</time>
      </trkpt>
      <trkpt lat="43.346699" lon="-6.083201">
        <ele>189.0</ele>
        <time>2012-03-01T17:08:34Z</time>
      </trkpt>
      <trkpt lat="43.346561" lon="-6.083543">
        <ele>190.0</ele>
        <time>2012-03-01T17:08:38Z</time>
      </trkpt>
      <trkpt lat="43.346472" lon="-6.083813">
        <ele>191.0</ele>
        <time>2012-03-01T17:08:41Z</time>
      </trkpt>
      <trkpt lat="43.34635" lon="-6.084185">
        <ele>191.0</ele>
        <time>2012-03-01T17:08:45Z</time>
      </trkpt>
      <trkpt lat="43.346199" lon="-6.084643">
        <ele>191.0</ele>
        <time>2012-03-01T17:08:50Z</time>
      </trkpt>
      <trkpt lat="43.346104" lon="-6.085031">
        <ele>191.0</ele>
        <time>2012-03-01T17:08:54Z</time>
      </trkpt>
      <trkpt lat="43.346034" lon="-6.085419">
        <ele>192.0</ele>
        <time>2012-03-01T17:08:58Z</time>
      </trkpt>
      <trkpt lat="43.345993" lon="-6.085723">
        <ele>191.0</ele>
        <time>2012-03-01T17:09:01Z</time>
      </trkpt>
      <trkpt lat="43.345907" lon="-6.086299">
        <ele>191.0</ele>
        <time>2012-03-01T17:09:06Z</time>
      </trkpt>
      <trkpt lat="43.345761" lon="-6.086754">
        <ele>190.0</ele>
        <time>2012-03-01T17:09:10Z</time>
      </trkpt>
      <trkpt lat="43.345638" lon="-6.087201">
        <ele>190.0</ele>
        <time>2012-03-01T17:09:14Z</time>
      </trkpt>
      <trkpt lat="43.345557" lon="-6.087647">
        <ele>190.0</ele>
        <time>2012-03-01T17:09:18Z</time>
      </trkpt>
      <trkpt lat="43.345472" lon="-6.088063">
        <ele>191.0</ele>
        <time>2012-03-01T17:09:22Z</time>
      </trkpt>
      <trkpt lat="43.345427" lon="-6.088266">
        <ele>191.0</ele>
        <time>2012-03-01T17:09:24Z</time>
      </trkpt>
      <trkpt lat="43.345283" lon="-6.088892">
        <ele>192.0</ele>
        <time>2012-03-01T17:09:30Z</time>
      </trkpt>
      <trkpt lat="43.345184" lon="-6.08928">
        <ele>192.0</ele>
        <time>2012-03-01T17:09:34Z</time>
      </trkpt>
      <trkpt lat="43.345087" lon="-6.089633">
        <ele>193.0</ele>
        <time>2012-03-01T17:09:38Z</time>
      </trkpt>
      <trkpt lat="43.345099" lon="-6.090016">
        <ele>194.0</ele>
        <time>2012-03-01T17:09:42Z</time>
      </trkpt>
      <trkpt lat="43.345082" lon="-6.090374">
        <ele>194.0</ele>
        <time>2012-03-01T17:09:46Z</time>
      </trkpt>
      <trkpt lat="43.345068" lon="-6.090737">
        <ele>194.0</ele>
        <time>2012-03-01T17:09:50Z</time>
      </trkpt>
      <trkpt lat="43.345077" lon="-6.091107">
        <ele>196.0</ele>
        <time>2012-03-01T17:09:54Z</time>
      </trkpt>
      <trkpt lat="43.345105" lon="-6.091476">
        <ele>197.0</ele>
        <time>2012-03-01T17:09:58Z</time>
      </trkpt>
      <trkpt lat="43.345137" lon="-6.091737">
        <ele>198.0</ele>
        <time>2012-03-01T17:10:01Z</time>
      </trkpt>
      <trkpt lat="43.345181" lon="-6.092177">
        <ele>200.0</ele>
        <time>2012-03-01T17:10:06Z</time>
      </trkpt>
      <trkpt lat="43.345216" lon="-6.092517">
        <ele>201.0</ele>
        <time>2012-03-01T17:10:10Z</time>
      </trkpt>
      <trkpt lat="43.345211" lon="-6.092835">
        <ele>202.0</ele>
        <time>2012-03-01T17:10:14Z</time>
      </trkpt>
      <trkpt lat="43.345179" lon="-6.093134">
        <ele>203.0</ele>
        <time>2012-03-01T17:10:18Z</time>
      </trkpt>
      <trkpt lat="43.345133" lon="-6.093411">
        <ele>203.0</ele>
        <time>2012-03-01T17:10:22Z</time>
      </trkpt>
      <trkpt lat="43.345101" lon="-6.093692">
        <ele>203.0</ele>
        <time>2012-03-01T17:10:26Z</time>
      </trkpt>
      <trkpt lat="43.3451" lon="-6.093987">
        <ele>204.0</ele>
        <time>2012-03-01T17:10:30Z</time>
      </trkpt>
      <trkpt lat="43.345108" lon="-6.094283">
        <ele>204.0</ele>
        <time>2012-03-01T17:10:34Z</time>
      </trkpt>
      <trkpt lat="43.345138" lon="-6.094596">
        <ele>205.0</ele>
        <time>2012-03-01T17:10:38Z</time>
      </trkpt>
      <trkpt lat="43.345183" lon="-6.094928">
        <ele>206.0</ele>
        <time>2012-03-01T17:10:42Z</time>
      </trkpt>
      <trkpt lat="43.34522" lon="-6.095261">
        <ele>207.0</ele>
        <time>2012-03-01T17:10:46Z</time>
      </trkpt>
      <trkpt lat="43.345191" lon="-6.095615">
        <ele>207.0</ele>
        <time>2012-03-01T17:10:50Z</time>
      </trkpt>
      <trkpt lat="43.345078" lon="-6.095969">
        <ele>209.0</ele>
        <time>2012-03-01T17:10:54Z</time>
      </trkpt>
      <trkpt lat="43.344924" lon="-6.096283">
        <ele>210.0</ele>
        <time>2012-03-01T17:10:58Z</time>
      </trkpt>
      <trkpt lat="43.344787" lon="-6.096594">
        <ele>212.0</ele>
        <time>2012-03-01T17:11:02Z</time>
      </trkpt>
      <trkpt lat="43.3447" lon="-6.09682">
        <ele>213.0</ele>
        <time>2012-03-01T17:11:05Z</time>
      </trkpt>
      <trkpt lat="43.344558" lon="-6.097206">
        <ele>213.0</ele>
        <time>2012-03-01T17:11:10Z</time>
      </trkpt>
      <trkpt lat="43.344444" lon="-6.097537">
        <ele>213.0</ele>
        <time>2012-03-01T17:11:14Z</time>
      </trkpt>
      <trkpt lat="43.344306" lon="-6.097883">
        <ele>213.0</ele>
        <time>2012-03-01T17:11:18Z</time>
      </trkpt>
      <trkpt lat="43.344136" lon="-6.098246">
        <ele>212.0</ele>
        <time>2012-03-01T17:11:22Z</time>
      </trkpt>
      <trkpt lat="43.34396" lon="-6.09859">
        <ele>213.0</ele>
        <time>2012-03-01T17:11:26Z</time>
      </trkpt>
      <trkpt lat="43.343786" lon="-6.098931">
        <ele>213.0</ele>
        <time>2012-03-01T17:11:30Z</time>
      </trkpt>
      <trkpt lat="43.343602" lon="-6.099257">
        <ele>214.0</ele>
        <time>2012-03-01T17:11:34Z</time>
      </trkpt>
      <trkpt lat="43.343414" lon="-6.099557">
        <ele>216.0</ele>
        <time>2012-03-01T17:11:38Z</time>
      </trkpt>
      <trkpt lat="43.343219" lon="-6.099852">
        <ele>217.0</ele>
        <time>2012-03-01T17:11:42Z</time>
      </trkpt>
      <trkpt lat="43.343036" lon="-6.100144">
        <ele>217.0</ele>
        <time>2012-03-01T17:11:46Z</time>
      </trkpt>
      <trkpt lat="43.342911" lon="-6.100368">
        <ele>218.0</ele>
        <time>2012-03-01T17:11:49Z</time>
      </trkpt>
      <trkpt lat="43.342762" lon="-6.100621">
        <ele>218.0</ele>
        <time>2012-03-01T17:11:53Z</time>
      </trkpt>
      <trkpt lat="43.342628" lon="-6.10088">
        <ele>219.0</ele>
        <time>2012-03-01T17:11:57Z</time>
      </trkpt>
      <trkpt lat="43.342483" lon="-6.10115">
        <ele>221.0</ele>
        <time>2012-03-01T17:12:01Z</time>
      </trkpt>
      <trkpt lat="43.342354" lon="-6.101559">
        <ele>226.0</ele>
        <time>2012-03-01T17:12:06Z</time>
      </trkpt>
      <trkpt lat="43.342354" lon="-6.102035">
        <ele>227.0</ele>
        <time>2012-03-01T17:12:10Z</time>
      </trkpt>
      <trkpt lat="43.342391" lon="-6.102674">
        <ele>227.0</ele>
        <time>2012-03-01T17:12:14Z</time>
      </trkpt>
      <trkpt lat="43.342414" lon="-6.103183">
        <ele>228.0</ele>
        <time>2012-03-01T17:12:18Z</time>
      </trkpt>
      <trkpt lat="43.342396" lon="-6.103582">
        <ele>227.0</ele>
        <time>2012-03-01T17:12:22Z</time>
      </trkpt>
      <trkpt lat="43.34238" lon="-6.10384">
        <ele>225.0</ele>
        <time>2012-03-01T17:12:25Z</time>
      </trkpt>
      <trkpt lat="43.342341" lon="-6.104163">
        <ele>224.0</ele>
        <time>2012-03-01T17:12:29Z</time>
      </trkpt>
      <trkpt lat="43.342256" lon="-6.104469">
        <ele>223.0</ele>
        <time>2012-03-01T17:12:33Z</time>
      </trkpt>
      <trkpt lat="43.34217" lon="-6.104758">
        <ele>224.0</ele>
        <time>2012-03-01T17:12:37Z</time>
      </trkpt>
      <trkpt lat="43.342099" lon="-6.105054">
        <ele>225.0</ele>
        <time>2012-03-01T17:12:41Z</time>
      </trkpt>
      <trkpt lat="43.341983" lon="-6.105454">
        <ele>227.0</ele>
        <time>2012-03-01T17:12:46Z</time>
      </trkpt>
      <trkpt lat="43.341854" lon="-6.105834">
        <ele>227.0</ele>
        <time>2012-03-01T17:12:50Z</time>
      </trkpt>
      <trkpt lat="43.341707" lon="-6.106237">
        <ele>227.0</ele>
        <time>2012-03-01T17:12:54Z</time>
      </trkpt>
      <trkpt lat="43.341544" lon="-6.106637">
        <ele>227.0</ele>
        <time>2012-03-01T17:12:58Z</time>
      </trkpt>
      <trkpt lat="43.341346" lon="-6.106992">
        <ele>228.0</ele>
        <time>2012-03-01T17:13:02Z</time>
      </trkpt>
      <trkpt lat="43.341124" lon="-6.107296">
        <ele>228.0</ele>
        <time>2012-03-01T17:13:06Z</time>
      </trkpt>
      <trkpt lat="43.340962" lon="-6.107522">
        <ele>228.0</ele>
        <time>2012-03-01T17:13:09Z</time>
      </trkpt>
      <trkpt lat="43.340618" lon="-6.107805">
        <ele>226.0</ele>
        <time>2012-03-01T17:13:14Z</time>
      </trkpt>
      <trkpt lat="43.34036" lon="-6.107981">
        <ele>226.0</ele>
        <time>2012-03-01T17:13:18Z</time>
      </trkpt>
      <trkpt lat="43.340191" lon="-6.108086">
        <ele>227.0</ele>
        <time>2012-03-01T17:13:21Z</time>
      </trkpt>
      <trkpt lat="43.340085" lon="-6.108133">
        <ele>227.0</ele>
        <time>2012-03-01T17:13:23Z</time>
      </trkpt>
      <trkpt lat="43.33993" lon="-6.108151">
        <ele>227.0</ele>
        <time>2012-03-01T17:13:27Z</time>
      </trkpt>
      <trkpt lat="43.339818" lon="-6.108188">
        <ele>228.0</ele>
        <time>2012-03-01T17:13:34Z</time>
      </trkpt>
      <trkpt lat="43.339705" lon="-6.108358">
        <ele>229.0</ele>
        <time>2012-03-01T17:13:37Z</time>
      </trkpt>
      <trkpt lat="43.339264" lon="-6.108975">
        <ele>235.0</ele>
        <time>2012-03-01T17:13:42Z</time>
      </trkpt>
      <trkpt lat="43.338921" lon="-6.109401">
        <ele>236.0</ele>
        <time>2012-03-01T17:13:46Z</time>
      </trkpt>
      <trkpt lat="43.338613" lon="-6.109771">
        <ele>234.0</ele>
        <time>2012-03-01T17:13:50Z</time>
      </trkpt>
      <trkpt lat="43.338411" lon="-6.110166">
        <ele>232.0</ele>
        <time>2012-03-01T17:13:54Z</time>
      </trkpt>
      <trkpt lat="43.338173" lon="-6.110565">
        <ele>227.0</ele>
        <time>2012-03-01T17:13:58Z</time>
      </trkpt>
      <trkpt lat="43.33793" lon="-6.110983">
        <ele>223.0</ele>
        <time>2012-03-01T17:14:02Z</time>
      </trkpt>
      <trkpt lat="43.337824" lon="-6.111422">
        <ele>219.0</ele>
        <time>2012-03-01T17:14:06Z</time>
      </trkpt>
      <trkpt lat="43.337708" lon="-6.111834">
        <ele>217.0</ele>
        <time>2012-03-01T17:14:10Z</time>
      </trkpt>
      <trkpt lat="43.337561" lon="-6.112217">
        <ele>216.0</ele>
        <time>2012-03-01T17:14:14Z</time>
      </trkpt>
      <trkpt lat="43.337337" lon="-6.112551">
        <ele>215.0</ele>
        <time>2012-03-01T17:14:18Z</time>
      </trkpt>
      <trkpt lat="43.33705" lon="-6.112889">
        <ele>213.0</ele>
        <time>2012-03-01T17:14:22Z</time>
      </trkpt>
      <trkpt lat="43.33687" lon="-6.113285">
        <ele>211.0</ele>
        <time>2012-03-01T17:14:26Z</time>
      </trkpt>
      <trkpt lat="43.336763" lon="-6.113684">
        <ele>210.0</ele>
        <time>2012-03-01T17:14:30Z</time>
      </trkpt>
      <trkpt lat="43.336614" lon="-6.114051">
        <ele>209.0</ele>
        <time>2012-03-01T17:14:34Z</time>
      </trkpt>
      <trkpt lat="43.3364" lon="-6.114208">
        <ele>210.0</ele>
        <time>2012-03-01T17:14:38Z</time>
      </trkpt>
      <trkpt lat="43.336181" lon="-6.114074">
        <ele>210.0</ele>
        <time>2012-03-01T17:14:42Z</time>
      </trkpt>
      <trkpt lat="43.335783" lon="-6.113802">
        <ele>212.0</ele>
        <time>2012-03-01T17:14:50Z</time>
      </trkpt>
      <trkpt lat="43.335597" lon="-6.113687">
        <ele>213.0</ele>
        <time>2012-03-01T17:14:54Z</time>
      </trkpt>
      <trkpt lat="43.335433" lon="-6.113533">
        <ele>214.0</ele>
        <time>2012-03-01T17:14:58Z</time>
      </trkpt>
      <trkpt lat="43.335245" lon="-6.113422">
        <ele>215.0</ele>
        <time>2012-03-01T17:15:02Z</time>
      </trkpt>
      <trkpt lat="43.33504" lon="-6.113337">
        <ele>217.0</ele>
        <time>2012-03-01T17:15:06Z</time>
      </trkpt>
      <trkpt lat="43.33483" lon="-6.113245">
        <ele>220.0</ele>
        <time>2012-03-01T17:15:10Z</time>
      </trkpt>
      <trkpt lat="43.334651" lon="-6.113106">
        <ele>222.0</ele>
        <time>2012-03-01T17:15:14Z</time>
      </trkpt>
      <trkpt lat="43.334487" lon="-6.112822">
        <ele>225.0</ele>
        <time>2012-03-01T17:15:18Z</time>
      </trkpt>
      <trkpt lat="43.334322" lon="-6.112544">
        <ele>226.0</ele>
        <time>2012-03-01T17:15:22Z</time>
      </trkpt>
      <trkpt lat="43.334144" lon="-6.112399">
        <ele>228.0</ele>
        <time>2012-03-01T17:15:25Z</time>
      </trkpt>
      <trkpt lat="43.333955" lon="-6.112444">
        <ele>230.0</ele>
        <time>2012-03-01T17:15:29Z</time>
      </trkpt>
      <trkpt lat="43.333853" lon="-6.112672">
        <ele>231.0</ele>
        <time>2012-03-01T17:15:33Z</time>
      </trkpt>
      <trkpt lat="43.333755" lon="-6.112973">
        <ele>230.0</ele>
        <time>2012-03-01T17:15:37Z</time>
      </trkpt>
      <trkpt lat="43.333636" lon="-6.113262">
        <ele>229.0</ele>
        <time>2012-03-01T17:15:41Z</time>
      </trkpt>
      <trkpt lat="43.333517" lon="-6.113544">
        <ele>228.0</ele>
        <time>2012-03-01T17:15:45Z</time>
      </trkpt>
      <trkpt lat="43.333411" lon="-6.113838">
        <ele>228.0</ele>
        <time>2012-03-01T17:15:49Z</time>
      </trkpt>
      <trkpt lat="43.3333" lon="-6.114109">
        <ele>228.0</ele>
        <time>2012-03-01T17:15:53Z</time>
      </trkpt>
      <trkpt lat="43.333139" lon="-6.114274">
        <ele>229.0</ele>
        <time>2012-03-01T17:15:57Z</time>
      </trkpt>
      <trkpt lat="43.332914" lon="-6.114413">
        <ele>232.0</ele>
        <time>2012-03-01T17:16:01Z</time>
      </trkpt>
      <trkpt lat="43.332681" lon="-6.114472">
        <ele>233.0</ele>
        <time>2012-03-01T17:16:05Z</time>
      </trkpt>
      <trkpt lat="43.332432" lon="-6.11449">
        <ele>234.0</ele>
        <time>2012-03-01T17:16:09Z</time>
      </trkpt>
      <trkpt lat="43.332186" lon="-6.114498">
        <ele>236.0</ele>
        <time>2012-03-01T17:16:13Z</time>
      </trkpt>
      <trkpt lat="43.331933" lon="-6.114466">
        <ele>237.0</ele>
        <time>2012-03-01T17:16:17Z</time>
      </trkpt>
      <trkpt lat="43.331633" lon="-6.114369">
        <ele>239.0</ele>
        <time>2012-03-01T17:16:22Z</time>
      </trkpt>
      <trkpt lat="43.331386" lon="-6.114285">
        <ele>240.0</ele>
        <time>2012-03-01T17:16:26Z</time>
      </trkpt>
      <trkpt lat="43.331135" lon="-6.114185">
        <ele>241.0</ele>
        <time>2012-03-01T17:16:30Z</time>
      </trkpt>
      <trkpt lat="43.330948" lon="-6.114123">
        <ele>242.0</ele>
        <time>2012-03-01T17:16:33Z</time>
      </trkpt>
      <trkpt lat="43.330627" lon="-6.114121">
        <ele>242.0</ele>
        <time>2012-03-01T17:16:38Z</time>
      </trkpt>
      <trkpt lat="43.330438" lon="-6.114119">
        <ele>243.0</ele>
        <time>2012-03-01T17:16:41Z</time>
      </trkpt>
      <trkpt lat="43.330123" lon="-6.114067">
        <ele>243.0</ele>
        <time>2012-03-01T17:16:46Z</time>
      </trkpt>
      <trkpt lat="43.336092" lon="-6.114086">
        <ele>231.0</ele>
        <time>2012-03-01T17:18:50Z</time>
      </trkpt>
      <trkpt lat="43.336523" lon="-6.114227">
        <ele>232.0</ele>
        <time>2012-03-01T17:18:54Z</time>
      </trkpt>
      <trkpt lat="43.336779" lon="-6.113832">
        <ele>233.0</ele>
        <time>2012-03-01T17:18:58Z</time>
      </trkpt>
      <trkpt lat="43.336878" lon="-6.113473">
        <ele>233.0</ele>
        <time>2012-03-01T17:19:01Z</time>
      </trkpt>
      <trkpt lat="43.337153" lon="-6.113001">
        <ele>232.0</ele>
        <time>2012-03-01T17:19:06Z</time>
      </trkpt>
      <trkpt lat="43.337423" lon="-6.112683">
        <ele>232.0</ele>
        <time>2012-03-01T17:19:10Z</time>
      </trkpt>
      <trkpt lat="43.337669" lon="-6.112383">
        <ele>230.0</ele>
        <time>2012-03-01T17:19:14Z</time>
      </trkpt>
      <trkpt lat="43.337857" lon="-6.112037">
        <ele>230.0</ele>
        <time>2012-03-01T17:19:18Z</time>
      </trkpt>
      <trkpt lat="43.337953" lon="-6.111593">
        <ele>231.0</ele>
        <time>2012-03-01T17:19:22Z</time>
      </trkpt>
      <trkpt lat="43.338026" lon="-6.111153">
        <ele>232.0</ele>
        <time>2012-03-01T17:19:26Z</time>
      </trkpt>
      <trkpt lat="43.338053" lon="-6.110728">
        <ele>233.0</ele>
        <time>2012-03-01T17:19:30Z</time>
      </trkpt>
      <trkpt lat="43.338095" lon="-6.110319">
        <ele>234.0</ele>
        <time>2012-03-01T17:19:34Z</time>
      </trkpt>
      <trkpt lat="43.338234" lon="-6.109952">
        <ele>233.0</ele>
        <time>2012-03-01T17:19:38Z</time>
      </trkpt>
      <trkpt lat="43.338428" lon="-6.109621">
        <ele>232.0</ele>
        <time>2012-03-01T17:19:42Z</time>
      </trkpt>
      <trkpt lat="43.338598" lon="-6.109278">
        <ele>231.0</ele>
        <time>2012-03-01T17:19:46Z</time>
      </trkpt>
      <trkpt lat="43.338766" lon="-6.108946">
        <ele>230.0</ele>
        <time>2012-03-01T17:19:50Z</time>
      </trkpt>
      <trkpt lat="43.338978" lon="-6.108666">
        <ele>230.0</ele>
        <time>2012-03-01T17:19:54Z</time>
      </trkpt>
      <trkpt lat="43.339217" lon="-6.108401">
        <ele>230.0</ele>
        <time>2012-03-01T17:19:58Z</time>
      </trkpt>
      <trkpt lat="43.339506" lon="-6.108153">
        <ele>230.0</ele>
        <time>2012-03-01T17:20:02Z</time>
      </trkpt>
      <trkpt lat="43.339851" lon="-6.108013">
        <ele>230.0</ele>
        <time>2012-03-01T17:20:06Z</time>
      </trkpt>
      <trkpt lat="43.340212" lon="-6.107945">
        <ele>230.0</ele>
        <time>2012-03-01T17:20:10Z</time>
      </trkpt>
      <trkpt lat="43.340456" lon="-6.107647">
        <ele>232.0</ele>
        <time>2012-03-01T17:20:14Z</time>
      </trkpt>
      <trkpt lat="43.340668" lon="-6.10737">
        <ele>234.0</ele>
        <time>2012-03-01T17:20:18Z</time>
      </trkpt>
      <trkpt lat="43.340851" lon="-6.107182">
        <ele>234.0</ele>
        <time>2012-03-01T17:20:21Z</time>
      </trkpt>
      <trkpt lat="43.341144" lon="-6.106885">
        <ele>234.0</ele>
        <time>2012-03-01T17:20:26Z</time>
      </trkpt>
      <trkpt lat="43.341287" lon="-6.106694">
        <ele>234.0</ele>
        <time>2012-03-01T17:20:29Z</time>
      </trkpt>
      <trkpt lat="43.341486" lon="-6.106323">
        <ele>236.0</ele>
        <time>2012-03-01T17:20:34Z</time>
      </trkpt>
      <trkpt lat="43.341618" lon="-6.105959">
        <ele>236.0</ele>
        <time>2012-03-01T17:20:38Z</time>
      </trkpt>
      <trkpt lat="43.341681" lon="-6.105481">
        <ele>235.0</ele>
        <time>2012-03-01T17:20:42Z</time>
      </trkpt>
      <trkpt lat="43.341737" lon="-6.10495">
        <ele>236.0</ele>
        <time>2012-03-01T17:20:46Z</time>
      </trkpt>
      <trkpt lat="43.341826" lon="-6.104435">
        <ele>236.0</ele>
        <time>2012-03-01T17:20:50Z</time>
      </trkpt>
      <trkpt lat="43.341942" lon="-6.103967">
        <ele>236.0</ele>
        <time>2012-03-01T17:20:54Z</time>
      </trkpt>
      <trkpt lat="43.342052" lon="-6.103509">
        <ele>236.0</ele>
        <time>2012-03-01T17:20:58Z</time>
      </trkpt>
      <trkpt lat="43.342139" lon="-6.102999">
        <ele>236.0</ele>
        <time>2012-03-01T17:21:02Z</time>
      </trkpt>
      <trkpt lat="43.342202" lon="-6.10245">
        <ele>236.0</ele>
        <time>2012-03-01T17:21:06Z</time>
      </trkpt>
      <trkpt lat="43.342295" lon="-6.10195">
        <ele>236.0</ele>
        <time>2012-03-01T17:21:10Z</time>
      </trkpt>
      <trkpt lat="43.342409" lon="-6.101453">
        <ele>236.0</ele>
        <time>2012-03-01T17:21:14Z</time>
      </trkpt>
      <trkpt lat="43.342525" lon="-6.100995">
        <ele>237.0</ele>
        <time>2012-03-01T17:21:18Z</time>
      </trkpt>
      <trkpt lat="43.342671" lon="-6.100575">
        <ele>238.0</ele>
        <time>2012-03-01T17:21:22Z</time>
      </trkpt>
      <trkpt lat="43.342852" lon="-6.10016">
        <ele>238.0</ele>
        <time>2012-03-01T17:21:26Z</time>
      </trkpt>
      <trkpt lat="43.343063" lon="-6.099778">
        <ele>236.0</ele>
        <time>2012-03-01T17:21:30Z</time>
      </trkpt>
      <trkpt lat="43.343297" lon="-6.099428">
        <ele>235.0</ele>
        <time>2012-03-01T17:21:34Z</time>
      </trkpt>
      <trkpt lat="43.343541" lon="-6.099086">
        <ele>234.0</ele>
        <time>2012-03-01T17:21:38Z</time>
      </trkpt>
      <trkpt lat="43.343767" lon="-6.098727">
        <ele>233.0</ele>
        <time>2012-03-01T17:21:42Z</time>
      </trkpt>
      <trkpt lat="43.343932" lon="-6.098466">
        <ele>231.0</ele>
        <time>2012-03-01T17:21:45Z</time>
      </trkpt>
      <trkpt lat="43.34532" lon="-6.090809">
        <ele>218.0</ele>
        <time>2012-03-01T17:22:50Z</time>
      </trkpt>
      <trkpt lat="43.345227" lon="-6.090306">
        <ele>217.0</ele>
        <time>2012-03-01T17:22:54Z</time>
      </trkpt>
      <trkpt lat="43.345235" lon="-6.089786">
        <ele>216.0</ele>
        <time>2012-03-01T17:22:58Z</time>
      </trkpt>
      <trkpt lat="43.345398" lon="-6.089293">
        <ele>216.0</ele>
        <time>2012-03-01T17:23:02Z</time>
      </trkpt>
      <trkpt lat="43.345535" lon="-6.088875">
        <ele>216.0</ele>
        <time>2012-03-01T17:23:06Z</time>
      </trkpt>
      <trkpt lat="43.345635" lon="-6.088428">
        <ele>216.0</ele>
        <time>2012-03-01T17:23:10Z</time>
      </trkpt>
      <trkpt lat="43.345726" lon="-6.087958">
        <ele>215.0</ele>
        <time>2012-03-01T17:23:14Z</time>
      </trkpt>
      <trkpt lat="43.345821" lon="-6.08749">
        <ele>214.0</ele>
        <time>2012-03-01T17:23:18Z</time>
      </trkpt>
      <trkpt lat="43.345911" lon="-6.087028">
        <ele>213.0</ele>
        <time>2012-03-01T17:23:22Z</time>
      </trkpt>
      <trkpt lat="43.346004" lon="-6.086564">
        <ele>213.0</ele>
        <time>2012-03-01T17:23:26Z</time>
      </trkpt>
      <trkpt lat="43.346093" lon="-6.086099">
        <ele>212.0</ele>
        <time>2012-03-01T17:23:30Z</time>
      </trkpt>
      <trkpt lat="43.346169" lon="-6.085632">
        <ele>211.0</ele>
        <time>2012-03-01T17:23:34Z</time>
      </trkpt>
      <trkpt lat="43.346262" lon="-6.085184">
        <ele>208.0</ele>
        <time>2012-03-01T17:23:38Z</time>
      </trkpt>
      <trkpt lat="43.346363" lon="-6.084756">
        <ele>206.0</ele>
        <time>2012-03-01T17:23:42Z</time>
      </trkpt>
      <trkpt lat="43.346476" lon="-6.084344">
        <ele>206.0</ele>
        <time>2012-03-01T17:23:46Z</time>
      </trkpt>
      <trkpt lat="43.346593" lon="-6.083936">
        <ele>206.0</ele>
        <time>2012-03-01T17:23:50Z</time>
      </trkpt>
      <trkpt lat="43.346707" lon="-6.083519">
        <ele>205.0</ele>
        <time>2012-03-01T17:23:54Z</time>
      </trkpt>
      <trkpt lat="43.346874" lon="-6.083112">
        <ele>204.0</ele>
        <time>2012-03-01T17:23:58Z</time>
      </trkpt>
      <trkpt lat="43.347011" lon="-6.082681">
        <ele>204.0</ele>
        <time>2012-03-01T17:24:02Z</time>
      </trkpt>
      <trkpt lat="43.347128" lon="-6.082209">
        <ele>204.0</ele>
        <time>2012-03-01T17:24:06Z</time>
      </trkpt>
      <trkpt lat="43.347244" lon="-6.081718">
        <ele>205.0</ele>
        <time>2012-03-01T17:24:10Z</time>
      </trkpt>
      <trkpt lat="43.34743" lon="-6.081295">
        <ele>205.0</ele>
        <time>2012-03-01T17:24:14Z</time>
      </trkpt>
      <trkpt lat="43.347704" lon="-6.080998">
        <ele>205.0</ele>
        <time>2012-03-01T17:24:18Z</time>
      </trkpt>
      <trkpt lat="43.34798" lon="-6.080723">
        <ele>205.0</ele>
        <time>2012-03-01T17:24:22Z</time>
      </trkpt>
      <trkpt lat="43.348275" lon="-6.080464">
        <ele>205.0</ele>
        <time>2012-03-01T17:24:26Z</time>
      </trkpt>
      <trkpt lat="43.348592" lon="-6.080256">
        <ele>205.0</ele>
        <time>2012-03-01T17:24:30Z</time>
      </trkpt>
      <trkpt lat="43.348904" lon="-6.080045">
        <ele>206.0</ele>
        <time>2012-03-01T17:24:34Z</time>
      </trkpt>
      <trkpt lat="43.349186" lon="-6.079804">
        <ele>206.0</ele>
        <time>2012-03-01T17:24:38Z</time>
      </trkpt>
      <trkpt lat="43.349456" lon="-6.079546">
        <ele>206.0</ele>
        <time>2012-03-01T17:24:42Z</time>
      </trkpt>
      <trkpt lat="43.349697" lon="-6.079237">
        <ele>206.0</ele>
        <time>2012-03-01T17:24:46Z</time>
      </trkpt>
      <trkpt lat="43.349919" lon="-6.07892">
        <ele>204.0</ele>
        <time>2012-03-01T17:24:50Z</time>
      </trkpt>
      <trkpt lat="43.350161" lon="-6.078637">
        <ele>203.0</ele>
        <time>2012-03-01T17:24:54Z</time>
      </trkpt>
      <trkpt lat="43.35043" lon="-6.078381">
        <ele>201.0</ele>
        <time>2012-03-01T17:24:58Z</time>
      </trkpt>
      <trkpt lat="43.350721" lon="-6.07818">
        <ele>198.0</ele>
        <time>2012-03-01T17:25:02Z</time>
      </trkpt>
      <trkpt lat="43.351038" lon="-6.078033">
        <ele>199.0</ele>
        <time>2012-03-01T17:25:06Z</time>
      </trkpt>
      <trkpt lat="43.351346" lon="-6.07799">
        <ele>201.0</ele>
        <time>2012-03-01T17:25:10Z</time>
      </trkpt>
      <trkpt lat="43.351639" lon="-6.078062">
        <ele>202.0</ele>
        <time>2012-03-01T17:25:14Z</time>
      </trkpt>
      <trkpt lat="43.351886" lon="-6.078253">
        <ele>202.0</ele>
        <time>2012-03-01T17:25:18Z</time>
      </trkpt>
      <trkpt lat="43.351977" lon="-6.07854">
        <ele>202.0</ele>
        <time>2012-03-01T17:25:21Z</time>
      </trkpt>
      <trkpt lat="43.352185" lon="-6.079013">
        <ele>202.0</ele>
        <time>2012-03-01T17:25:26Z</time>
      </trkpt>
      <trkpt lat="43.352397" lon="-6.079169">
        <ele>203.0</ele>
        <time>2012-03-01T17:25:29Z</time>
      </trkpt>
      <trkpt lat="43.352811" lon="-6.079167">
        <ele>203.0</ele>
        <time>2012-03-01T17:25:34Z</time>
      </trkpt>
      <trkpt lat="43.353146" lon="-6.079082">
        <ele>203.0</ele>
        <time>2012-03-01T17:25:38Z</time>
      </trkpt>
      <trkpt lat="43.353485" lon="-6.078947">
        <ele>203.0</ele>
        <time>2012-03-01T17:25:42Z</time>
      </trkpt>
      <trkpt lat="43.353817" lon="-6.078749">
        <ele>201.0</ele>
        <time>2012-03-01T17:25:46Z</time>
      </trkpt>
      <trkpt lat="43.354164" lon="-6.078521">
        <ele>201.0</ele>
        <time>2012-03-01T17:25:50Z</time>
      </trkpt>
      <trkpt lat="43.354492" lon="-6.078217">
        <ele>200.0</ele>
        <time>2012-03-01T17:25:54Z</time>
      </trkpt>
      <trkpt lat="43.35471" lon="-6.0778">
        <ele>199.0</ele>
        <time>2012-03-01T17:25:58Z</time>
      </trkpt>
      <trkpt lat="43.354815" lon="-6.077359">
        <ele>198.0</ele>
        <time>2012-03-01T17:26:02Z</time>
      </trkpt>
      <trkpt lat="43.354956" lon="-6.07698">
        <ele>194.0</ele>
        <time>2012-03-01T17:26:06Z</time>
      </trkpt>
      <trkpt lat="43.355133" lon="-6.076627">
        <ele>191.0</ele>
        <time>2012-03-01T17:26:10Z</time>
      </trkpt>
      <trkpt lat="43.355307" lon="-6.076255">
        <ele>190.0</ele>
        <time>2012-03-01T17:26:14Z</time>
      </trkpt>
      <trkpt lat="43.355419" lon="-6.075835">
        <ele>188.0</ele>
        <time>2012-03-01T17:26:18Z</time>
      </trkpt>
      <trkpt lat="43.355548" lon="-6.075405">
        <ele>187.0</ele>
        <time>2012-03-01T17:26:22Z</time>
      </trkpt>
      <trkpt lat="43.355731" lon="-6.075021">
        <ele>187.0</ele>
        <time>2012-03-01T17:26:26Z</time>
      </trkpt>
      <trkpt lat="43.355919" lon="-6.074808">
        <ele>187.0</ele>
        <time>2012-03-01T17:26:29Z</time>
      </trkpt>
      <trkpt lat="43.356313" lon="-6.074675">
        <ele>187.0</ele>
        <time>2012-03-01T17:26:34Z</time>
      </trkpt>
      <trkpt lat="43.356566" lon="-6.074656">
        <ele>187.0</ele>
        <time>2012-03-01T17:26:37Z</time>
      </trkpt>
      <trkpt lat="43.356969" lon="-6.074539">
        <ele>186.0</ele>
        <time>2012-03-01T17:26:42Z</time>
      </trkpt>
      <trkpt lat="43.357297" lon="-6.074436">
        <ele>186.0</ele>
        <time>2012-03-01T17:26:46Z</time>
      </trkpt>
      <trkpt lat="43.357618" lon="-6.074316">
        <ele>186.0</ele>
        <time>2012-03-01T17:26:50Z</time>
      </trkpt>
      <trkpt lat="43.357951" lon="-6.074214">
        <ele>187.0</ele>
        <time>2012-03-01T17:26:54Z</time>
      </trkpt>
      <trkpt lat="43.358302" lon="-6.074155">
        <ele>188.0</ele>
        <time>2012-03-01T17:26:58Z</time>
      </trkpt>
      <trkpt lat="43.358642" lon="-6.0741">
        <ele>188.0</ele>
        <time>2012-03-01T17:27:02Z</time>
      </trkpt>
      <trkpt lat="43.358979" lon="-6.073945">
        <ele>189.0</ele>
        <time>2012-03-01T17:27:06Z</time>
      </trkpt>
      <trkpt lat="43.359139" lon="-6.073805">
        <ele>189.0</ele>
        <time>2012-03-01T17:27:08Z</time>
      </trkpt>
      <trkpt lat="43.359579" lon="-6.073305">
        <ele>188.0</ele>
        <time>2012-03-01T17:27:14Z</time>
      </trkpt>
      <trkpt lat="43.359848" lon="-6.072907">
        <ele>188.0</ele>
        <time>2012-03-01T17:27:18Z</time>
      </trkpt>
      <trkpt lat="43.36015" lon="-6.072502">
        <ele>188.0</ele>
        <time>2012-03-01T17:27:22Z</time>
      </trkpt>
      <trkpt lat="43.360478" lon="-6.07211">
        <ele>188.0</ele>
        <time>2012-03-01T17:27:26Z</time>
      </trkpt>
      <trkpt lat="43.360793" lon="-6.071721">
        <ele>188.0</ele>
        <time>2012-03-01T17:27:30Z</time>
      </trkpt>
      <trkpt lat="43.361109" lon="-6.071365">
        <ele>187.0</ele>
        <time>2012-03-01T17:27:34Z</time>
      </trkpt>
      <trkpt lat="43.361413" lon="-6.07104">
        <ele>187.0</ele>
        <time>2012-03-01T17:27:38Z</time>
      </trkpt>
      <trkpt lat="43.361681" lon="-6.0707">
        <ele>188.0</ele>
        <time>2012-03-01T17:27:42Z</time>
      </trkpt>
      <trkpt lat="43.361978" lon="-6.070416">
        <ele>189.0</ele>
        <time>2012-03-01T17:27:46Z</time>
      </trkpt>
      <trkpt lat="43.362297" lon="-6.070215">
        <ele>190.0</ele>
        <time>2012-03-01T17:27:50Z</time>
      </trkpt>
      <trkpt lat="43.362604" lon="-6.070064">
        <ele>190.0</ele>
        <time>2012-03-01T17:27:54Z</time>
      </trkpt>
      <trkpt lat="43.362922" lon="-6.069963">
        <ele>189.0</ele>
        <time>2012-03-01T17:27:58Z</time>
      </trkpt>
      <trkpt lat="43.363246" lon="-6.069872">
        <ele>187.0</ele>
        <time>2012-03-01T17:28:02Z</time>
      </trkpt>
      <trkpt lat="43.363579" lon="-6.069749">
        <ele>185.0</ele>
        <time>2012-03-01T17:28:06Z</time>
      </trkpt>
      <trkpt lat="43.36391" lon="-6.06961">
        <ele>185.0</ele>
        <time>2012-03-01T17:28:10Z</time>
      </trkpt>
      <trkpt lat="43.364242" lon="-6.069488">
        <ele>185.0</ele>
        <time>2012-03-01T17:28:14Z</time>
      </trkpt>
      <trkpt lat="43.36455" lon="-6.069326">
        <ele>185.0</ele>
        <time>2012-03-01T17:28:18Z</time>
      </trkpt>
      <trkpt lat="43.364831" lon="-6.069104">
        <ele>184.0</ele>
        <time>2012-03-01T17:28:22Z</time>
      </trkpt>
      <trkpt lat="43.365135" lon="-6.068931">
        <ele>183.0</ele>
        <time>2012-03-01T17:28:26Z</time>
      </trkpt>
      <trkpt lat="43.365458" lon="-6.068833">
        <ele>181.0</ele>
        <time>2012-03-01T17:28:30Z</time>
      </trkpt>
      <trkpt lat="43.365778" lon="-6.06876">
        <ele>181.0</ele>
        <time>2012-03-01T17:28:34Z</time>
      </trkpt>
      <trkpt lat="43.366104" lon="-6.068705">
        <ele>180.0</ele>
        <time>2012-03-01T17:28:38Z</time>
      </trkpt>
      <trkpt lat="43.366449" lon="-6.068763">
        <ele>179.0</ele>
        <time>2012-03-01T17:28:42Z</time>
      </trkpt>
      <trkpt lat="43.366789" lon="-6.068912">
        <ele>178.0</ele>
        <time>2012-03-01T17:28:46Z</time>
      </trkpt>
      <trkpt lat="43.367146" lon="-6.069002">
        <ele>178.0</ele>
        <time>2012-03-01T17:28:50Z</time>
      </trkpt>
      <trkpt lat="43.367485" lon="-6.069187">
        <ele>178.0</ele>
        <time>2012-03-01T17:28:54Z</time>
      </trkpt>
      <trkpt lat="43.367749" lon="-6.069543">
        <ele>177.0</ele>
        <time>2012-03-01T17:28:58Z</time>
      </trkpt>
      <trkpt lat="43.367945" lon="-6.069995">
        <ele>177.0</ele>
        <time>2012-03-01T17:29:02Z</time>
      </trkpt>
      <trkpt lat="43.368029" lon="-6.070368">
        <ele>177.0</ele>
        <time>2012-03-01T17:29:05Z</time>
      </trkpt>
      <trkpt lat="43.368105" lon="-6.070669">
        <ele>181.0</ele>
        <time>2012-03-01T17:29:09Z</time>
      </trkpt>
      <trkpt lat="43.368416" lon="-6.070827">
        <ele>183.0</ele>
        <time>2012-03-01T17:29:14Z</time>
      </trkpt>
      <trkpt lat="43.368688" lon="-6.070972">
        <ele>183.0</ele>
        <time>2012-03-01T17:29:18Z</time>
      </trkpt>
      <trkpt lat="43.368985" lon="-6.071079">
        <ele>182.0</ele>
        <time>2012-03-01T17:29:22Z</time>
      </trkpt>
      <trkpt lat="43.369322" lon="-6.071138">
        <ele>182.0</ele>
        <time>2012-03-01T17:29:26Z</time>
      </trkpt>
      <trkpt lat="43.369506" lon="-6.071183">
        <ele>181.0</ele>
        <time>2012-03-01T17:29:28Z</time>
      </trkpt>
      <trkpt lat="43.370083" lon="-6.071409">
        <ele>179.0</ele>
        <time>2012-03-01T17:29:34Z</time>
      </trkpt>
      <trkpt lat="43.370436" lon="-6.071504">
        <ele>179.0</ele>
        <time>2012-03-01T17:29:38Z</time>
      </trkpt>
      <trkpt lat="43.370795" lon="-6.071537">
        <ele>178.0</ele>
        <time>2012-03-01T17:29:42Z</time>
      </trkpt>
      <trkpt lat="43.371147" lon="-6.071562">
        <ele>177.0</ele>
        <time>2012-03-01T17:29:46Z</time>
      </trkpt>
      <trkpt lat="43.371491" lon="-6.071664">
        <ele>176.0</ele>
        <time>2012-03-01T17:29:50Z</time>
      </trkpt>
      <trkpt lat="43.371813" lon="-6.071869">
        <ele>176.0</ele>
        <time>2012-03-01T17:29:54Z</time>
      </trkpt>
      <trkpt lat="43.372106" lon="-6.072126">
        <ele>176.0</ele>
        <time>2012-03-01T17:29:58Z</time>
      </trkpt>
      <trkpt lat="43.372377" lon="-6.072398">
        <ele>176.0</ele>
        <time>2012-03-01T17:30:02Z</time>
      </trkpt>
      <trkpt lat="43.372639" lon="-6.072669">
        <ele>176.0</ele>
        <time>2012-03-01T17:30:06Z</time>
      </trkpt>
      <trkpt lat="43.372929" lon="-6.072884">
        <ele>176.0</ele>
        <time>2012-03-01T17:30:10Z</time>
      </trkpt>
      <trkpt lat="43.373256" lon="-6.073019">
        <ele>176.0</ele>
        <time>2012-03-01T17:30:14Z</time>
      </trkpt>
      <trkpt lat="43.373601" lon="-6.073117">
        <ele>176.0</ele>
        <time>2012-03-01T17:30:18Z</time>
      </trkpt>
      <trkpt lat="43.373937" lon="-6.073222">
        <ele>175.0</ele>
        <time>2012-03-01T17:30:22Z</time>
      </trkpt>
      <trkpt lat="43.374256" lon="-6.073351">
        <ele>175.0</ele>
        <time>2012-03-01T17:30:26Z</time>
      </trkpt>
      <trkpt lat="43.374572" lon="-6.073438">
        <ele>174.0</ele>
        <time>2012-03-01T17:30:30Z</time>
      </trkpt>
      <trkpt lat="43.374889" lon="-6.073454">
        <ele>173.0</ele>
        <time>2012-03-01T17:30:34Z</time>
      </trkpt>
      <trkpt lat="43.375045" lon="-6.073464">
        <ele>172.0</ele>
        <time>2012-03-01T17:30:36Z</time>
      </trkpt>
      <trkpt lat="43.375484" lon="-6.07337">
        <ele>173.0</ele>
        <time>2012-03-01T17:30:42Z</time>
      </trkpt>
      <trkpt lat="43.375716" lon="-6.073114">
        <ele>174.0</ele>
        <time>2012-03-01T17:30:46Z</time>
      </trkpt>
      <trkpt lat="43.375981" lon="-6.07295">
        <ele>174.0</ele>
        <time>2012-03-01T17:30:50Z</time>
      </trkpt>
      <trkpt lat="43.376252" lon="-6.072887">
        <ele>175.0</ele>
        <time>2012-03-01T17:30:54Z</time>
      </trkpt>
      <trkpt lat="43.37644" lon="-6.072809">
        <ele>175.0</ele>
        <time>2012-03-01T17:30:57Z</time>
      </trkpt>
      <trkpt lat="43.37684" lon="-6.072642">
        <ele>176.0</ele>
        <time>2012-03-01T17:31:05Z</time>
      </trkpt>
      <trkpt lat="43.377107" lon="-6.072447">
        <ele>178.0</ele>
        <time>2012-03-01T17:31:10Z</time>
      </trkpt>
      <trkpt lat="43.377349" lon="-6.072304">
        <ele>179.0</ele>
        <time>2012-03-01T17:31:14Z</time>
      </trkpt>
      <trkpt lat="43.377623" lon="-6.072207">
        <ele>178.0</ele>
        <time>2012-03-01T17:31:18Z</time>
      </trkpt>
      <trkpt lat="43.37792" lon="-6.072141">
        <ele>178.0</ele>
        <time>2012-03-01T17:31:22Z</time>
      </trkpt>
      <trkpt lat="43.378218" lon="-6.07209">
        <ele>177.0</ele>
        <time>2012-03-01T17:31:26Z</time>
      </trkpt>
      <trkpt lat="43.378516" lon="-6.072028">
        <ele>176.0</ele>
        <time>2012-03-01T17:31:30Z</time>
      </trkpt>
      <trkpt lat="43.37881" lon="-6.071966">
        <ele>175.0</ele>
        <time>2012-03-01T17:31:34Z</time>
      </trkpt>
      <trkpt lat="43.37903" lon="-6.071918">
        <ele>175.0</ele>
        <time>2012-03-01T17:31:37Z</time>
      </trkpt>
      <trkpt lat="43.379399" lon="-6.071827">
        <ele>172.0</ele>
        <time>2012-03-01T17:31:42Z</time>
      </trkpt>
      <trkpt lat="43.379709" lon="-6.071763">
        <ele>170.0</ele>
        <time>2012-03-01T17:31:46Z</time>
      </trkpt>
      <trkpt lat="43.380024" lon="-6.071713">
        <ele>169.0</ele>
        <time>2012-03-01T17:31:50Z</time>
      </trkpt>
      <trkpt lat="43.380371" lon="-6.071758">
        <ele>169.0</ele>
        <time>2012-03-01T17:31:54Z</time>
      </trkpt>
      <trkpt lat="43.380781" lon="-6.07184">
        <ele>167.0</ele>
        <time>2012-03-01T17:31:58Z</time>
      </trkpt>
      <trkpt lat="43.381079" lon="-6.071898">
        <ele>166.0</ele>
        <time>2012-03-01T17:32:01Z</time>
      </trkpt>
      <trkpt lat="43.381519" lon="-6.071989">
        <ele>166.0</ele>
        <time>2012-03-01T17:32:06Z</time>
      </trkpt>
      <trkpt lat="43.381843" lon="-6.072003">
        <ele>166.0</ele>
        <time>2012-03-01T17:32:10Z</time>
      </trkpt>
      <trkpt lat="43.382133" lon="-6.072107">
        <ele>166.0</ele>
        <time>2012-03-01T17:32:14Z</time>
      </trkpt>
      <trkpt lat="43.382173" lon="-6.072287">
        <ele>167.0</ele>
        <time>2012-03-01T17:32:17Z</time>
      </trkpt>
      <trkpt lat="43.382125" lon="-6.072684">
        <ele>167.0</ele>
        <time>2012-03-01T17:32:22Z</time>
      </trkpt>
      <trkpt lat="43.38218" lon="-6.073077">
        <ele>168.0</ele>
        <time>2012-03-01T17:32:26Z</time>
      </trkpt>
      <trkpt lat="43.382286" lon="-6.073523">
        <ele>169.0</ele>
        <time>2012-03-01T17:32:30Z</time>
      </trkpt>
      <trkpt lat="43.382458" lon="-6.073909">
        <ele>169.0</ele>
        <time>2012-03-01T17:32:34Z</time>
      </trkpt>
      <trkpt lat="43.382586" lon="-6.074289">
        <ele>169.0</ele>
        <time>2012-03-01T17:32:38Z</time>
      </trkpt>
      <trkpt lat="43.382726" lon="-6.074619">
        <ele>169.0</ele>
        <time>2012-03-01T17:32:42Z</time>
      </trkpt>
      <trkpt lat="43.382995" lon="-6.075026">
        <ele>171.0</ele>
        <time>2012-03-01T17:32:49Z</time>
      </trkpt>
      <trkpt lat="43.383072" lon="-6.075131">
        <ele>171.0</ele>
        <time>2012-03-01T17:32:51Z</time>
      </trkpt>
      <trkpt lat="43.383323" lon="-6.075449">
        <ele>171.0</ele>
        <time>2012-03-01T17:32:57Z</time>
      </trkpt>
      <trkpt lat="43.383499" lon="-6.075663">
        <ele>171.0</ele>
        <time>2012-03-01T17:33:01Z</time>
      </trkpt>
      <trkpt lat="43.383737" lon="-6.07596">
        <ele>170.0</ele>
        <time>2012-03-01T17:33:06Z</time>
      </trkpt>
      <trkpt lat="43.383929" lon="-6.076211">
        <ele>170.0</ele>
        <time>2012-03-01T17:33:10Z</time>
      </trkpt>
      <trkpt lat="43.384021" lon="-6.07633">
        <ele>170.0</ele>
        <time>2012-03-01T17:33:12Z</time>
      </trkpt>
      <trkpt lat="43.384242" lon="-6.076746">
        <ele>170.0</ele>
        <time>2012-03-01T17:33:18Z</time>
      </trkpt>
      <trkpt lat="43.384319" lon="-6.076982">
        <ele>170.0</ele>
        <time>2012-03-01T17:33:21Z</time>
      </trkpt>
      <trkpt lat="43.384419" lon="-6.077301">
        <ele>170.0</ele>
        <time>2012-03-01T17:33:25Z</time>
      </trkpt>
      <trkpt lat="43.384858" lon="-6.077291">
        <ele>170.0</ele>
        <time>2012-03-01T17:33:34Z</time>
      </trkpt>
      <trkpt lat="43.384966" lon="-6.077185">
        <ele>170.0</ele>
        <time>2012-03-01T17:33:36Z</time>
      </trkpt>
      <trkpt lat="43.385291" lon="-6.076845">
        <ele>170.0</ele>
        <time>2012-03-01T17:33:42Z</time>
      </trkpt>
      <trkpt lat="43.385387" lon="-6.076446">
        <ele>170.0</ele>
        <time>2012-03-01T17:33:46Z</time>
      </trkpt>
      <trkpt lat="43.38563" lon="-6.076098">
        <ele>170.0</ele>
        <time>2012-03-01T17:33:50Z</time>
      </trkpt>
      <trkpt lat="43.385904" lon="-6.075781">
        <ele>169.0</ele>
        <time>2012-03-01T17:33:54Z</time>
      </trkpt>
      <trkpt lat="43.386179" lon="-6.075478">
        <ele>167.0</ele>
        <time>2012-03-01T17:33:58Z</time>
      </trkpt>
      <trkpt lat="43.386447" lon="-6.075175">
        <ele>165.0</ele>
        <time>2012-03-01T17:34:02Z</time>
      </trkpt>
      <trkpt lat="43.386705" lon="-6.074893">
        <ele>163.0</ele>
        <time>2012-03-01T17:34:06Z</time>
      </trkpt>
      <trkpt lat="43.386885" lon="-6.074693">
        <ele>163.0</ele>
        <time>2012-03-01T17:34:09Z</time>
      </trkpt>
      <trkpt lat="43.386936" lon="-6.074358">
        <ele>162.0</ele>
        <time>2012-03-01T17:34:13Z</time>
      </trkpt>
      <trkpt lat="43.387352" lon="-6.073989">
        <ele>161.0</ele>
        <time>2012-03-01T17:34:22Z</time>
      </trkpt>
      <trkpt lat="43.387557" lon="-6.07375">
        <ele>161.0</ele>
        <time>2012-03-01T17:34:26Z</time>
      </trkpt>
      <trkpt lat="43.387774" lon="-6.073509">
        <ele>162.0</ele>
        <time>2012-03-01T17:34:30Z</time>
      </trkpt>
      <trkpt lat="43.388018" lon="-6.073266">
        <ele>162.0</ele>
        <time>2012-03-01T17:34:34Z</time>
      </trkpt>
      <trkpt lat="43.388138" lon="-6.073139">
        <ele>163.0</ele>
        <time>2012-03-01T17:34:36Z</time>
      </trkpt>
      <trkpt lat="43.388402" lon="-6.072648">
        <ele>163.0</ele>
        <time>2012-03-01T17:34:42Z</time>
      </trkpt>
      <trkpt lat="43.388522" lon="-6.072258">
        <ele>163.0</ele>
        <time>2012-03-01T17:34:46Z</time>
      </trkpt>
      <trkpt lat="43.388586" lon="-6.071828">
        <ele>163.0</ele>
        <time>2012-03-01T17:34:50Z</time>
      </trkpt>
      <trkpt lat="43.388671" lon="-6.071402">
        <ele>163.0</ele>
        <time>2012-03-01T17:34:54Z</time>
      </trkpt>
      <trkpt lat="43.388833" lon="-6.070995">
        <ele>161.0</ele>
        <time>2012-03-01T17:34:58Z</time>
      </trkpt>
      <trkpt lat="43.388897" lon="-6.070913">
        <ele>160.0</ele>
        <time>2012-03-01T17:34:59Z</time>
      </trkpt>
      <trkpt lat="43.389352" lon="-6.070295">
        <ele>160.0</ele>
        <time>2012-03-01T17:35:06Z</time>
      </trkpt>
      <trkpt lat="43.389646" lon="-6.069929">
        <ele>161.0</ele>
        <time>2012-03-01T17:35:10Z</time>
      </trkpt>
      <trkpt lat="43.38995" lon="-6.069577">
        <ele>161.0</ele>
        <time>2012-03-01T17:35:14Z</time>
      </trkpt>
      <trkpt lat="43.39025" lon="-6.069234">
        <ele>162.0</ele>
        <time>2012-03-01T17:35:18Z</time>
      </trkpt>
      <trkpt lat="43.390521" lon="-6.068951">
        <ele>161.0</ele>
        <time>2012-03-01T17:35:22Z</time>
      </trkpt>
      <trkpt lat="43.39063" lon="-6.068847">
        <ele>161.0</ele>
        <time>2012-03-01T17:35:24Z</time>
      </trkpt>
      <trkpt lat="43.390911" lon="-6.068478">
        <ele>161.0</ele>
        <time>2012-03-01T17:35:30Z</time>
      </trkpt>
      <trkpt lat="43.391048" lon="-6.068122">
        <ele>162.0</ele>
        <time>2012-03-01T17:35:34Z</time>
      </trkpt>
      <trkpt lat="43.391331" lon="-6.067888">
        <ele>161.0</ele>
        <time>2012-03-01T17:35:38Z</time>
      </trkpt>
      <trkpt lat="43.391634" lon="-6.067652">
        <ele>159.0</ele>
        <time>2012-03-01T17:35:42Z</time>
      </trkpt>
      <trkpt lat="43.391936" lon="-6.067442">
        <ele>159.0</ele>
        <time>2012-03-01T17:35:46Z</time>
      </trkpt>
      <trkpt lat="43.392245" lon="-6.067236">
        <ele>160.0</ele>
        <time>2012-03-01T17:35:50Z</time>
      </trkpt>
      <trkpt lat="43.392578" lon="-6.067037">
        <ele>161.0</ele>
        <time>2012-03-01T17:35:54Z</time>
      </trkpt>
      <trkpt lat="43.392846" lon="-6.066913">
        <ele>162.0</ele>
        <time>2012-03-01T17:35:57Z</time>
      </trkpt>
      <trkpt lat="43.393228" lon="-6.066588">
        <ele>163.0</ele>
        <time>2012-03-01T17:36:02Z</time>
      </trkpt>
      <trkpt lat="43.393363" lon="-6.066147">
        <ele>162.0</ele>
        <time>2012-03-01T17:36:06Z</time>
      </trkpt>
      <trkpt lat="43.393373" lon="-6.065656">
        <ele>159.0</ele>
        <time>2012-03-01T17:36:10Z</time>
      </trkpt>
      <trkpt lat="43.393375" lon="-6.065192">
        <ele>156.0</ele>
        <time>2012-03-01T17:36:14Z</time>
      </trkpt>
      <trkpt lat="43.393342" lon="-6.064732">
        <ele>152.0</ele>
        <time>2012-03-01T17:36:18Z</time>
      </trkpt>
      <trkpt lat="43.393312" lon="-6.064237">
        <ele>148.0</ele>
        <time>2012-03-01T17:36:22Z</time>
      </trkpt>
      <trkpt lat="43.393311" lon="-6.063696">
        <ele>141.0</ele>
        <time>2012-03-01T17:36:26Z</time>
      </trkpt>
      <trkpt lat="43.393319" lon="-6.063296">
        <ele>136.0</ele>
        <time>2012-03-01T17:36:29Z</time>
      </trkpt>
      <trkpt lat="43.393339" lon="-6.062646">
        <ele>132.0</ele>
        <time>2012-03-01T17:36:34Z</time>
      </trkpt>
      <trkpt lat="43.393352" lon="-6.062152">
        <ele>131.0</ele>
        <time>2012-03-01T17:36:38Z</time>
      </trkpt>
      <trkpt lat="43.393374" lon="-6.06167">
        <ele>131.0</ele>
        <time>2012-03-01T17:36:42Z</time>
      </trkpt>
      <trkpt lat="43.39341" lon="-6.061201">
        <ele>131.0</ele>
        <time>2012-03-01T17:36:46Z</time>
      </trkpt>
      <trkpt lat="43.393465" lon="-6.060745">
        <ele>132.0</ele>
        <time>2012-03-01T17:36:50Z</time>
      </trkpt>
      <trkpt lat="43.39359" lon="-6.060332">
        <ele>132.0</ele>
        <time>2012-03-01T17:36:54Z</time>
      </trkpt>
      <trkpt lat="43.393654" lon="-6.060132">
        <ele>132.0</ele>
        <time>2012-03-01T17:36:56Z</time>
      </trkpt>
      <trkpt lat="43.393908" lon="-6.059589">
        <ele>132.0</ele>
        <time>2012-03-01T17:37:02Z</time>
      </trkpt>
      <trkpt lat="43.39409" lon="-6.05924">
        <ele>132.0</ele>
        <time>2012-03-01T17:37:06Z</time>
      </trkpt>
      <trkpt lat="43.394278" lon="-6.058901">
        <ele>132.0</ele>
        <time>2012-03-01T17:37:10Z</time>
      </trkpt>
      <trkpt lat="43.394482" lon="-6.058585">
        <ele>132.0</ele>
        <time>2012-03-01T17:37:14Z</time>
      </trkpt>
      <trkpt lat="43.39459" lon="-6.058209">
        <ele>132.0</ele>
        <time>2012-03-01T17:37:18Z</time>
      </trkpt>
      <trkpt lat="43.394777" lon="-6.05791">
        <ele>131.0</ele>
        <time>2012-03-01T17:37:22Z</time>
      </trkpt>
      <trkpt lat="43.394982" lon="-6.057601">
        <ele>131.0</ele>
        <time>2012-03-01T17:37:26Z</time>
      </trkpt>
      <trkpt lat="43.39516" lon="-6.057249">
        <ele>131.0</ele>
        <time>2012-03-01T17:37:30Z</time>
      </trkpt>
      <trkpt lat="43.395321" lon="-6.05689">
        <ele>131.0</ele>
        <time>2012-03-01T17:37:34Z</time>
      </trkpt>
      <trkpt lat="43.395398" lon="-6.056713">
        <ele>131.0</ele>
        <time>2012-03-01T17:37:36Z</time>
      </trkpt>
      <trkpt lat="43.395619" lon="-6.056212">
        <ele>132.0</ele>
        <time>2012-03-01T17:37:42Z</time>
      </trkpt>
      <trkpt lat="43.395778" lon="-6.055877">
        <ele>132.0</ele>
        <time>2012-03-01T17:37:46Z</time>
      </trkpt>
      <trkpt lat="43.395938" lon="-6.055545">
        <ele>133.0</ele>
        <time>2012-03-01T17:37:50Z</time>
      </trkpt>
      <trkpt lat="43.396096" lon="-6.055213">
        <ele>132.0</ele>
        <time>2012-03-01T17:37:54Z</time>
      </trkpt>
      <trkpt lat="43.396261" lon="-6.054868">
        <ele>132.0</ele>
        <time>2012-03-01T17:37:58Z</time>
      </trkpt>
      <trkpt lat="43.396421" lon="-6.054503">
        <ele>132.0</ele>
        <time>2012-03-01T17:38:02Z</time>
      </trkpt>
      <trkpt lat="43.396603" lon="-6.054141">
        <ele>132.0</ele>
        <time>2012-03-01T17:38:06Z</time>
      </trkpt>
      <trkpt lat="43.396782" lon="-6.053783">
        <ele>132.0</ele>
        <time>2012-03-01T17:38:10Z</time>
      </trkpt>
      <trkpt lat="43.396953" lon="-6.053421">
        <ele>132.0</ele>
        <time>2012-03-01T17:38:14Z</time>
      </trkpt>
      <trkpt lat="43.397127" lon="-6.053068">
        <ele>132.0</ele>
        <time>2012-03-01T17:38:18Z</time>
      </trkpt>
      <trkpt lat="43.3973" lon="-6.052718">
        <ele>132.0</ele>
        <time>2012-03-01T17:38:22Z</time>
      </trkpt>
      <trkpt lat="43.397475" lon="-6.052374">
        <ele>132.0</ele>
        <time>2012-03-01T17:38:26Z</time>
      </trkpt>
      <trkpt lat="43.397655" lon="-6.052024">
        <ele>132.0</ele>
        <time>2012-03-01T17:38:30Z</time>
      </trkpt>
      <trkpt lat="43.39784" lon="-6.051685">
        <ele>132.0</ele>
        <time>2012-03-01T17:38:34Z</time>
      </trkpt>
      <trkpt lat="43.397918" lon="-6.051505">
        <ele>132.0</ele>
        <time>2012-03-01T17:38:36Z</time>
      </trkpt>
      <trkpt lat="43.397859" lon="-6.050949">
        <ele>131.0</ele>
        <time>2012-03-01T17:38:42Z</time>
      </trkpt>
      <trkpt lat="43.39792" lon="-6.050595">
        <ele>131.0</ele>
        <time>2012-03-01T17:38:46Z</time>
      </trkpt>
      <trkpt lat="43.39824" lon="-6.050471">
        <ele>130.0</ele>
        <time>2012-03-01T17:38:50Z</time>
      </trkpt>
      <trkpt lat="43.398524" lon="-6.05022">
        <ele>129.0</ele>
        <time>2012-03-01T17:38:54Z</time>
      </trkpt>
      <trkpt lat="43.398739" lon="-6.049888">
        <ele>127.0</ele>
        <time>2012-03-01T17:38:58Z</time>
      </trkpt>
      <trkpt lat="43.398931" lon="-6.049547">
        <ele>127.0</ele>
        <time>2012-03-01T17:39:02Z</time>
      </trkpt>
      <trkpt lat="43.399121" lon="-6.049206">
        <ele>126.0</ele>
        <time>2012-03-01T17:39:06Z</time>
      </trkpt>
      <trkpt lat="43.399291" lon="-6.048869">
        <ele>125.0</ele>
        <time>2012-03-01T17:39:10Z</time>
      </trkpt>
      <trkpt lat="43.399463" lon="-6.048538">
        <ele>124.0</ele>
        <time>2012-03-01T17:39:14Z</time>
      </trkpt>
      <trkpt lat="43.3996" lon="-6.048293">
        <ele>123.0</ele>
        <time>2012-03-01T17:39:17Z</time>
      </trkpt>
      <trkpt lat="43.399851" lon="-6.047897">
        <ele>122.0</ele>
        <time>2012-03-01T17:39:22Z</time>
      </trkpt>
      <trkpt lat="43.400086" lon="-6.047602">
        <ele>121.0</ele>
        <time>2012-03-01T17:39:26Z</time>
      </trkpt>
      <trkpt lat="43.400341" lon="-6.047326">
        <ele>121.0</ele>
        <time>2012-03-01T17:39:30Z</time>
      </trkpt>
      <trkpt lat="43.400619" lon="-6.047079">
        <ele>121.0</ele>
        <time>2012-03-01T17:39:34Z</time>
      </trkpt>
      <trkpt lat="43.400898" lon="-6.046817">
        <ele>120.0</ele>
        <time>2012-03-01T17:39:38Z</time>
      </trkpt>
      <trkpt lat="43.401176" lon="-6.046555">
        <ele>120.0</ele>
        <time>2012-03-01T17:39:42Z</time>
      </trkpt>
      <trkpt lat="43.401463" lon="-6.046293">
        <ele>121.0</ele>
        <time>2012-03-01T17:39:46Z</time>
      </trkpt>
      <trkpt lat="43.401605" lon="-6.046157">
        <ele>121.0</ele>
        <time>2012-03-01T17:39:48Z</time>
      </trkpt>
      <trkpt lat="43.402022" lon="-6.045744">
        <ele>122.0</ele>
        <time>2012-03-01T17:39:54Z</time>
      </trkpt>
      <trkpt lat="43.402246" lon="-6.045399">
        <ele>122.0</ele>
        <time>2012-03-01T17:39:58Z</time>
      </trkpt>
      <trkpt lat="43.402419" lon="-6.045009">
        <ele>121.0</ele>
        <time>2012-03-01T17:40:02Z</time>
      </trkpt>
      <trkpt lat="43.4026" lon="-6.044603">
        <ele>121.0</ele>
        <time>2012-03-01T17:40:06Z</time>
      </trkpt>
      <trkpt lat="43.402834" lon="-6.044246">
        <ele>121.0</ele>
        <time>2012-03-01T17:40:10Z</time>
      </trkpt>
      <trkpt lat="43.403024" lon="-6.043825">
        <ele>121.0</ele>
        <time>2012-03-01T17:40:14Z</time>
      </trkpt>
      <trkpt lat="43.403076" lon="-6.043592">
        <ele>120.0</ele>
        <time>2012-03-01T17:40:16Z</time>
      </trkpt>
      <trkpt lat="43.403156" lon="-6.042978">
        <ele>120.0</ele>
        <time>2012-03-01T17:40:22Z</time>
      </trkpt>
      <trkpt lat="43.403165" lon="-6.042608">
        <ele>119.0</ele>
        <time>2012-03-01T17:40:26Z</time>
      </trkpt>
      <trkpt lat="43.403156" lon="-6.042251">
        <ele>119.0</ele>
        <time>2012-03-01T17:40:30Z</time>
      </trkpt>
      <trkpt lat="43.403145" lon="-6.042083">
        <ele>118.0</ele>
        <time>2012-03-01T17:40:32Z</time>
      </trkpt>
      <trkpt lat="43.403117" lon="-6.041775">
        <ele>118.0</ele>
        <time>2012-03-01T17:40:36Z</time>
      </trkpt>
      <trkpt lat="43.403095" lon="-6.041483">
        <ele>118.0</ele>
        <time>2012-03-01T17:40:40Z</time>
      </trkpt>
      <trkpt lat="43.403043" lon="-6.041217">
        <ele>118.0</ele>
        <time>2012-03-01T17:40:44Z</time>
      </trkpt>
      <trkpt lat="43.403017" lon="-6.040945">
        <ele>118.0</ele>
        <time>2012-03-01T17:40:48Z</time>
      </trkpt>
      <trkpt lat="43.403007" lon="-6.040665">
        <ele>119.0</ele>
        <time>2012-03-01T17:40:52Z</time>
      </trkpt>
      <trkpt lat="43.402986" lon="-6.040273">
        <ele>119.0</ele>
        <time>2012-03-01T17:40:57Z</time>
      </trkpt>
      <trkpt lat="43.402961" lon="-6.040015">
        <ele>118.0</ele>
        <time>2012-03-01T17:41:00Z</time>
      </trkpt>
      <trkpt lat="43.402904" lon="-6.039682">
        <ele>118.0</ele>
        <time>2012-03-01T17:41:04Z</time>
      </trkpt>
      <trkpt lat="43.4028" lon="-6.039253">
        <ele>118.0</ele>
        <time>2012-03-01T17:41:09Z</time>
      </trkpt>
      <trkpt lat="43.402705" lon="-6.038819">
        <ele>118.0</ele>
        <time>2012-03-01T17:41:14Z</time>
      </trkpt>
      <trkpt lat="43.402652" lon="-6.038562">
        <ele>118.0</ele>
        <time>2012-03-01T17:41:17Z</time>
      </trkpt>
      <trkpt lat="43.402397" lon="-6.038099">
        <ele>109.0</ele>
        <time>2012-03-01T17:41:22Z</time>
      </trkpt>
      <trkpt lat="43.402283" lon="-6.037892">
        <ele>109.0</ele>
        <time>2012-03-01T17:41:25Z</time>
      </trkpt>
      <trkpt lat="43.402118" lon="-6.037548">
        <ele>114.0</ele>
        <time>2012-03-01T17:41:30Z</time>
      </trkpt>
      <trkpt lat="43.40198" lon="-6.037233">
        <ele>116.0</ele>
        <time>2012-03-01T17:41:34Z</time>
      </trkpt>
      <trkpt lat="43.401852" lon="-6.036919">
        <ele>117.0</ele>
        <time>2012-03-01T17:41:38Z</time>
      </trkpt>
      <trkpt lat="43.401747" lon="-6.036698">
        <ele>118.0</ele>
        <time>2012-03-01T17:41:41Z</time>
      </trkpt>
      <trkpt lat="43.401588" lon="-6.03628">
        <ele>119.0</ele>
        <time>2012-03-01T17:41:46Z</time>
      </trkpt>
      <trkpt lat="43.401484" lon="-6.035934">
        <ele>119.0</ele>
        <time>2012-03-01T17:41:50Z</time>
      </trkpt>
      <trkpt lat="43.401405" lon="-6.03557">
        <ele>119.0</ele>
        <time>2012-03-01T17:41:54Z</time>
      </trkpt>
      <trkpt lat="43.401339" lon="-6.035196">
        <ele>119.0</ele>
        <time>2012-03-01T17:41:58Z</time>
      </trkpt>
      <trkpt lat="43.401256" lon="-6.034826">
        <ele>119.0</ele>
        <time>2012-03-01T17:42:02Z</time>
      </trkpt>
      <trkpt lat="43.401173" lon="-6.034559">
        <ele>120.0</ele>
        <time>2012-03-01T17:42:05Z</time>
      </trkpt>
      <trkpt lat="43.400978" lon="-6.034164">
        <ele>121.0</ele>
        <time>2012-03-01T17:42:10Z</time>
      </trkpt>
      <trkpt lat="43.4008" lon="-6.033893">
        <ele>121.0</ele>
        <time>2012-03-01T17:42:14Z</time>
      </trkpt>
      <trkpt lat="43.400613" lon="-6.033639">
        <ele>121.0</ele>
        <time>2012-03-01T17:42:18Z</time>
      </trkpt>
      <trkpt lat="43.400415" lon="-6.033391">
        <ele>120.0</ele>
        <time>2012-03-01T17:42:22Z</time>
      </trkpt>
      <trkpt lat="43.400219" lon="-6.033153">
        <ele>120.0</ele>
        <time>2012-03-01T17:42:26Z</time>
      </trkpt>
      <trkpt lat="43.400028" lon="-6.03291">
        <ele>119.0</ele>
        <time>2012-03-01T17:42:30Z</time>
      </trkpt>
      <trkpt lat="43.399852" lon="-6.032657">
        <ele>119.0</ele>
        <time>2012-03-01T17:42:34Z</time>
      </trkpt>
      <trkpt lat="43.393694" lon="-6.024822">
        <ele>129.0</ele>
        <time>2012-03-01T17:44:38Z</time>
      </trkpt>
      <trkpt lat="43.393585" lon="-6.024674">
        <ele>130.0</ele>
        <time>2012-03-01T17:44:40Z</time>
      </trkpt>
      <trkpt lat="43.393232" lon="-6.024235">
        <ele>130.0</ele>
        <time>2012-03-01T17:44:46Z</time>
      </trkpt>
      <trkpt lat="43.393199" lon="-6.023699">
        <ele>129.0</ele>
        <time>2012-03-01T17:44:50Z</time>
      </trkpt>
      <trkpt lat="43.393165" lon="-6.023206">
        <ele>127.0</ele>
        <time>2012-03-01T17:44:54Z</time>
      </trkpt>
      <trkpt lat="43.39313" lon="-6.022761">
        <ele>126.0</ele>
        <time>2012-03-01T17:44:58Z</time>
      </trkpt>
      <trkpt lat="43.393121" lon="-6.022653">
        <ele>126.0</ele>
        <time>2012-03-01T17:44:59Z</time>
      </trkpt>
      <trkpt lat="43.39299" lon="-6.021964">
        <ele>125.0</ele>
        <time>2012-03-01T17:45:06Z</time>
      </trkpt>
      <trkpt lat="43.392921" lon="-6.021601">
        <ele>123.0</ele>
        <time>2012-03-01T17:45:10Z</time>
      </trkpt>
      <trkpt lat="43.393042" lon="-6.021283">
        <ele>123.0</ele>
        <time>2012-03-01T17:45:14Z</time>
      </trkpt>
      <trkpt lat="43.393275" lon="-6.021056">
        <ele>123.0</ele>
        <time>2012-03-01T17:45:18Z</time>
      </trkpt>
      <trkpt lat="43.393517" lon="-6.020815">
        <ele>123.0</ele>
        <time>2012-03-01T17:45:22Z</time>
      </trkpt>
      <trkpt lat="43.393649" lon="-6.020448">
        <ele>123.0</ele>
        <time>2012-03-01T17:45:26Z</time>
      </trkpt>
      <trkpt lat="43.39363" lon="-6.020023">
        <ele>124.0</ele>
        <time>2012-03-01T17:45:30Z</time>
      </trkpt>
      <trkpt lat="43.39354" lon="-6.019608">
        <ele>124.0</ele>
        <time>2012-03-01T17:45:34Z</time>
      </trkpt>
      <trkpt lat="43.393381" lon="-6.019237">
        <ele>124.0</ele>
        <time>2012-03-01T17:45:38Z</time>
      </trkpt>
      <trkpt lat="43.393132" lon="-6.018993">
        <ele>124.0</ele>
        <time>2012-03-01T17:45:42Z</time>
      </trkpt>
      <trkpt lat="43.392859" lon="-6.018828">
        <ele>125.0</ele>
        <time>2012-03-01T17:45:46Z</time>
      </trkpt>
      <trkpt lat="43.392663" lon="-6.018563">
        <ele>125.0</ele>
        <time>2012-03-01T17:45:50Z</time>
      </trkpt>
      <trkpt lat="43.392571" lon="-6.018207">
        <ele>126.0</ele>
        <time>2012-03-01T17:45:54Z</time>
      </trkpt>
      <trkpt lat="43.392538" lon="-6.017843">
        <ele>126.0</ele>
        <time>2012-03-01T17:45:58Z</time>
      </trkpt>
      <trkpt lat="43.392523" lon="-6.017491">
        <ele>126.0</ele>
        <time>2012-03-01T17:46:02Z</time>
      </trkpt>
      <trkpt lat="43.39251" lon="-6.017158">
        <ele>126.0</ele>
        <time>2012-03-01T17:46:06Z</time>
      </trkpt>
      <trkpt lat="43.392494" lon="-6.016832">
        <ele>126.0</ele>
        <time>2012-03-01T17:46:10Z</time>
      </trkpt>
      <trkpt lat="43.392485" lon="-6.016495">
        <ele>126.0</ele>
        <time>2012-03-01T17:46:14Z</time>
      </trkpt>
      <trkpt lat="43.392467" lon="-6.016157">
        <ele>126.0</ele>
        <time>2012-03-01T17:46:18Z</time>
      </trkpt>
      <trkpt lat="43.392457" lon="-6.015816">
        <ele>126.0</ele>
        <time>2012-03-01T17:46:22Z</time>
      </trkpt>
      <trkpt lat="43.392436" lon="-6.015482">
        <ele>127.0</ele>
        <time>2012-03-01T17:46:26Z</time>
      </trkpt>
      <trkpt lat="43.39241" lon="-6.015161">
        <ele>127.0</ele>
        <time>2012-03-01T17:46:30Z</time>
      </trkpt>
      <trkpt lat="43.392389" lon="-6.014857">
        <ele>128.0</ele>
        <time>2012-03-01T17:46:34Z</time>
      </trkpt>
      <trkpt lat="43.392381" lon="-6.014555">
        <ele>129.0</ele>
        <time>2012-03-01T17:46:38Z</time>
      </trkpt>
      <trkpt lat="43.392364" lon="-6.014263">
        <ele>129.0</ele>
        <time>2012-03-01T17:46:42Z</time>
      </trkpt>
      <trkpt lat="43.39232" lon="-6.01399">
        <ele>130.0</ele>
        <time>2012-03-01T17:46:46Z</time>
      </trkpt>
      <trkpt lat="43.392245" lon="-6.013727">
        <ele>130.0</ele>
        <time>2012-03-01T17:46:50Z</time>
      </trkpt>
      <trkpt lat="43.392196" lon="-6.0136">
        <ele>131.0</ele>
        <time>2012-03-01T17:46:52Z</time>
      </trkpt>
      <trkpt lat="43.392017" lon="-6.013244">
        <ele>131.0</ele>
        <time>2012-03-01T17:46:58Z</time>
      </trkpt>
      <trkpt lat="43.391863" lon="-6.013016">
        <ele>131.0</ele>
        <time>2012-03-01T17:47:02Z</time>
      </trkpt>
      <trkpt lat="43.391696" lon="-6.012804">
        <ele>131.0</ele>
        <time>2012-03-01T17:47:06Z</time>
      </trkpt>
      <trkpt lat="43.391526" lon="-6.012603">
        <ele>131.0</ele>
        <time>2012-03-01T17:47:10Z</time>
      </trkpt>
      <trkpt lat="43.391329" lon="-6.012457">
        <ele>131.0</ele>
        <time>2012-03-01T17:47:14Z</time>
      </trkpt>
      <trkpt lat="43.391115" lon="-6.012319">
        <ele>132.0</ele>
        <time>2012-03-01T17:47:18Z</time>
      </trkpt>
      <trkpt lat="43.390893" lon="-6.012162">
        <ele>133.0</ele>
        <time>2012-03-01T17:47:22Z</time>
      </trkpt>
      <trkpt lat="43.390697" lon="-6.01194">
        <ele>133.0</ele>
        <time>2012-03-01T17:47:26Z</time>
      </trkpt>
      <trkpt lat="43.390579" lon="-6.011735">
        <ele>133.0</ele>
        <time>2012-03-01T17:47:29Z</time>
      </trkpt>
      <trkpt lat="43.390436" lon="-6.011455">
        <ele>134.0</ele>
        <time>2012-03-01T17:47:33Z</time>
      </trkpt>
      <trkpt lat="43.390305" lon="-6.011164">
        <ele>134.0</ele>
        <time>2012-03-01T17:47:37Z</time>
      </trkpt>
      <trkpt lat="43.390174" lon="-6.010874">
        <ele>134.0</ele>
        <time>2012-03-01T17:47:41Z</time>
      </trkpt>
      <trkpt lat="43.389988" lon="-6.010514">
        <ele>135.0</ele>
        <time>2012-03-01T17:47:46Z</time>
      </trkpt>
      <trkpt lat="43.389837" lon="-6.01021">
        <ele>135.0</ele>
        <time>2012-03-01T17:47:50Z</time>
      </trkpt>
      <trkpt lat="43.389691" lon="-6.009905">
        <ele>135.0</ele>
        <time>2012-03-01T17:47:54Z</time>
      </trkpt>
      <trkpt lat="43.389543" lon="-6.009605">
        <ele>135.0</ele>
        <time>2012-03-01T17:47:58Z</time>
      </trkpt>
      <trkpt lat="43.389402" lon="-6.00932">
        <ele>135.0</ele>
        <time>2012-03-01T17:48:02Z</time>
      </trkpt>
      <trkpt lat="43.389268" lon="-6.009055">
        <ele>136.0</ele>
        <time>2012-03-01T17:48:06Z</time>
      </trkpt>
      <trkpt lat="43.389131" lon="-6.008803">
        <ele>136.0</ele>
        <time>2012-03-01T17:48:10Z</time>
      </trkpt>
      <trkpt lat="43.389007" lon="-6.008551">
        <ele>137.0</ele>
        <time>2012-03-01T17:48:14Z</time>
      </trkpt>
      <trkpt lat="43.38889" lon="-6.008302">
        <ele>138.0</ele>
        <time>2012-03-01T17:48:18Z</time>
      </trkpt>
      <trkpt lat="43.38878" lon="-6.008049">
        <ele>139.0</ele>
        <time>2012-03-01T17:48:22Z</time>
      </trkpt>
      <trkpt lat="43.388675" lon="-6.007782">
        <ele>140.0</ele>
        <time>2012-03-01T17:48:26Z</time>
      </trkpt>
      <trkpt lat="43.388578" lon="-6.007505">
        <ele>140.0</ele>
        <time>2012-03-01T17:48:30Z</time>
      </trkpt>
      <trkpt lat="43.388487" lon="-6.007225">
        <ele>141.0</ele>
        <time>2012-03-01T17:48:34Z</time>
      </trkpt>
      <trkpt lat="43.388444" lon="-6.007084">
        <ele>141.0</ele>
        <time>2012-03-01T17:48:36Z</time>
      </trkpt>
      <trkpt lat="43.388317" lon="-6.006652">
        <ele>142.0</ele>
        <time>2012-03-01T17:48:42Z</time>
      </trkpt>
      <trkpt lat="43.388277" lon="-6.006506">
        <ele>143.0</ele>
        <time>2012-03-01T17:48:44Z</time>
      </trkpt>
      <trkpt lat="43.388179" lon="-6.006069">
        <ele>144.0</ele>
        <time>2012-03-01T17:48:50Z</time>
      </trkpt>
      <trkpt lat="43.388144" lon="-6.005769">
        <ele>145.0</ele>
        <time>2012-03-01T17:48:54Z</time>
      </trkpt>
      <trkpt lat="43.388152" lon="-6.005649">
        <ele>145.0</ele>
        <time>2012-03-01T17:48:56Z</time>
      </trkpt>
      <trkpt lat="43.388217" lon="-6.005773">
        <ele>146.0</ele>
        <time>2012-03-01T17:49:01Z</time>
      </trkpt>
      <trkpt lat="43.388239" lon="-6.006076">
        <ele>147.0</ele>
        <time>2012-03-01T17:49:05Z</time>
      </trkpt>
      <trkpt lat="43.388338" lon="-6.00652">
        <ele>149.0</ele>
        <time>2012-03-01T17:49:10Z</time>
      </trkpt>
      <trkpt lat="43.388439" lon="-6.006932">
        <ele>149.0</ele>
        <time>2012-03-01T17:49:14Z</time>
      </trkpt>
      <trkpt lat="43.38856" lon="-6.00738">
        <ele>150.0</ele>
        <time>2012-03-01T17:49:18Z</time>
      </trkpt>
      <trkpt lat="43.388715" lon="-6.007835">
        <ele>151.0</ele>
        <time>2012-03-01T17:49:22Z</time>
      </trkpt>
      <trkpt lat="43.388919" lon="-6.008281">
        <ele>151.0</ele>
        <time>2012-03-01T17:49:26Z</time>
      </trkpt>
      <trkpt lat="43.389137" lon="-6.008713">
        <ele>150.0</ele>
        <time>2012-03-01T17:49:30Z</time>
      </trkpt>
      <trkpt lat="43.389239" lon="-6.008924">
        <ele>149.0</ele>
        <time>2012-03-01T17:49:32Z</time>
      </trkpt>
      <trkpt lat="43.389492" lon="-6.009445">
        <ele>150.0</ele>
        <time>2012-03-01T17:49:37Z</time>
      </trkpt>
      <trkpt lat="43.389755" lon="-6.010018">
        <ele>149.0</ele>
        <time>2012-03-01T17:49:42Z</time>
      </trkpt>
      <trkpt lat="43.389977" lon="-6.010486">
        <ele>149.0</ele>
        <time>2012-03-01T17:49:46Z</time>
      </trkpt>
      <trkpt lat="43.390193" lon="-6.010954">
        <ele>148.0</ele>
        <time>2012-03-01T17:49:50Z</time>
      </trkpt>
      <trkpt lat="43.39041" lon="-6.011404">
        <ele>148.0</ele>
        <time>2012-03-01T17:49:54Z</time>
      </trkpt>
      <trkpt lat="43.390641" lon="-6.011854">
        <ele>146.0</ele>
        <time>2012-03-01T17:49:58Z</time>
      </trkpt>
      <trkpt lat="43.390956" lon="-6.012223">
        <ele>144.0</ele>
        <time>2012-03-01T17:50:02Z</time>
      </trkpt>
      <trkpt lat="43.391347" lon="-6.012464">
        <ele>143.0</ele>
        <time>2012-03-01T17:50:06Z</time>
      </trkpt>
      <trkpt lat="43.391717" lon="-6.012783">
        <ele>142.0</ele>
        <time>2012-03-01T17:50:10Z</time>
      </trkpt>
      <trkpt lat="43.392038" lon="-6.013202">
        <ele>142.0</ele>
        <time>2012-03-01T17:50:14Z</time>
      </trkpt>
      <trkpt lat="43.392263" lon="-6.01371">
        <ele>142.0</ele>
        <time>2012-03-01T17:50:18Z</time>
      </trkpt>
      <trkpt lat="43.39241" lon="-6.014271">
        <ele>142.0</ele>
        <time>2012-03-01T17:50:22Z</time>
      </trkpt>
      <trkpt lat="43.392454" lon="-6.014718">
        <ele>141.0</ele>
        <time>2012-03-01T17:50:25Z</time>
      </trkpt>
      <trkpt lat="43.392492" lon="-6.015465">
        <ele>141.0</ele>
        <time>2012-03-01T17:50:30Z</time>
      </trkpt>
      <trkpt lat="43.392514" lon="-6.016053">
        <ele>141.0</ele>
        <time>2012-03-01T17:50:34Z</time>
      </trkpt>
      <trkpt lat="43.392541" lon="-6.016641">
        <ele>140.0</ele>
        <time>2012-03-01T17:50:38Z</time>
      </trkpt>
      <trkpt lat="43.392568" lon="-6.017224">
        <ele>140.0</ele>
        <time>2012-03-01T17:50:42Z</time>
      </trkpt>
      <trkpt lat="43.392601" lon="-6.017807">
        <ele>139.0</ele>
        <time>2012-03-01T17:50:46Z</time>
      </trkpt>
      <trkpt lat="43.392655" lon="-6.018376">
        <ele>139.0</ele>
        <time>2012-03-01T17:50:50Z</time>
      </trkpt>
      <trkpt lat="43.392811" lon="-6.018733">
        <ele>139.0</ele>
        <time>2012-03-01T17:50:53Z</time>
      </trkpt>
      <trkpt lat="43.393224" lon="-6.019065">
        <ele>138.0</ele>
        <time>2012-03-01T17:50:58Z</time>
      </trkpt>
      <trkpt lat="43.393463" lon="-6.019414">
        <ele>136.0</ele>
        <time>2012-03-01T17:51:02Z</time>
      </trkpt>
      <trkpt lat="43.393602" lon="-6.019858">
        <ele>134.0</ele>
        <time>2012-03-01T17:51:06Z</time>
      </trkpt>
      <trkpt lat="43.393661" lon="-6.020334">
        <ele>132.0</ele>
        <time>2012-03-01T17:51:10Z</time>
      </trkpt>
      <trkpt lat="43.393576" lon="-6.020787">
        <ele>131.0</ele>
        <time>2012-03-01T17:51:14Z</time>
      </trkpt>
      <trkpt lat="43.393367" lon="-6.021128">
        <ele>130.0</ele>
        <time>2012-03-01T17:51:18Z</time>
      </trkpt>
      <trkpt lat="43.393103" lon="-6.021386">
        <ele>130.0</ele>
        <time>2012-03-01T17:51:22Z</time>
      </trkpt>
      <trkpt lat="43.392898" lon="-6.021715">
        <ele>129.0</ele>
        <time>2012-03-01T17:51:26Z</time>
      </trkpt>
      <trkpt lat="43.392904" lon="-6.022153">
        <ele>129.0</ele>
        <time>2012-03-01T17:51:30Z</time>
      </trkpt>
      <trkpt lat="43.393041" lon="-6.022539">
        <ele>130.0</ele>
        <time>2012-03-01T17:51:34Z</time>
      </trkpt>
      <trkpt lat="43.393174" lon="-6.022911">
        <ele>130.0</ele>
        <time>2012-03-01T17:51:38Z</time>
      </trkpt>
      <trkpt lat="43.393261" lon="-6.023317">
        <ele>130.0</ele>
        <time>2012-03-01T17:51:42Z</time>
      </trkpt>
      <trkpt lat="43.393311" lon="-6.023752">
        <ele>131.0</ele>
        <time>2012-03-01T17:51:46Z</time>
      </trkpt>
      <trkpt lat="43.393382" lon="-6.024213">
        <ele>132.0</ele>
        <time>2012-03-01T17:51:50Z</time>
      </trkpt>
      <trkpt lat="43.393579" lon="-6.02465">
        <ele>133.0</ele>
        <time>2012-03-01T17:51:54Z</time>
      </trkpt>
      <trkpt lat="43.39388" lon="-6.025026">
        <ele>134.0</ele>
        <time>2012-03-01T17:51:58Z</time>
      </trkpt>
      <trkpt lat="43.394204" lon="-6.025347">
        <ele>134.0</ele>
        <time>2012-03-01T17:52:02Z</time>
      </trkpt>
      <trkpt lat="43.394527" lon="-6.025591">
        <ele>134.0</ele>
        <time>2012-03-01T17:52:06Z</time>
      </trkpt>
      <trkpt lat="43.394866" lon="-6.02572">
        <ele>134.0</ele>
        <time>2012-03-01T17:52:10Z</time>
      </trkpt>
      <trkpt lat="43.395208" lon="-6.025733">
        <ele>134.0</ele>
        <time>2012-03-01T17:52:14Z</time>
      </trkpt>
      <trkpt lat="43.395523" lon="-6.025691">
        <ele>133.0</ele>
        <time>2012-03-01T17:52:18Z</time>
      </trkpt>
      <trkpt lat="43.395821" lon="-6.025756">
        <ele>133.0</ele>
        <time>2012-03-01T17:52:22Z</time>
      </trkpt>
      <trkpt lat="43.396038" lon="-6.026028">
        <ele>132.0</ele>
        <time>2012-03-01T17:52:26Z</time>
      </trkpt>
      <trkpt lat="43.396144" lon="-6.026403">
        <ele>132.0</ele>
        <time>2012-03-01T17:52:30Z</time>
      </trkpt>
      <trkpt lat="43.396208" lon="-6.026818">
        <ele>131.0</ele>
        <time>2012-03-01T17:52:34Z</time>
      </trkpt>
      <trkpt lat="43.396286" lon="-6.027261">
        <ele>131.0</ele>
        <time>2012-03-01T17:52:38Z</time>
      </trkpt>
      <trkpt lat="43.39637" lon="-6.02772">
        <ele>130.0</ele>
        <time>2012-03-01T17:52:42Z</time>
      </trkpt>
      <trkpt lat="43.396454" lon="-6.028177">
        <ele>130.0</ele>
        <time>2012-03-01T17:52:46Z</time>
      </trkpt>
      <trkpt lat="43.396549" lon="-6.028601">
        <ele>130.0</ele>
        <time>2012-03-01T17:52:50Z</time>
      </trkpt>
      <trkpt lat="43.396685" lon="-6.028998">
        <ele>130.0</ele>
        <time>2012-03-01T17:52:54Z</time>
      </trkpt>
      <trkpt lat="43.396871" lon="-6.029356">
        <ele>129.0</ele>
        <time>2012-03-01T17:52:58Z</time>
      </trkpt>
      <trkpt lat="43.397083" lon="-6.029691">
        <ele>129.0</ele>
        <time>2012-03-01T17:53:02Z</time>
      </trkpt>
      <trkpt lat="43.397342" lon="-6.029961">
        <ele>128.0</ele>
        <time>2012-03-01T17:53:06Z</time>
      </trkpt>
      <trkpt lat="43.39764" lon="-6.030174">
        <ele>128.0</ele>
        <time>2012-03-01T17:53:10Z</time>
      </trkpt>
      <trkpt lat="43.397968" lon="-6.030397">
        <ele>128.0</ele>
        <time>2012-03-01T17:53:14Z</time>
      </trkpt>
      <trkpt lat="43.398305" lon="-6.030643">
        <ele>128.0</ele>
        <time>2012-03-01T17:53:18Z</time>
      </trkpt>
      <trkpt lat="43.398644" lon="-6.030938">
        <ele>128.0</ele>
        <time>2012-03-01T17:53:22Z</time>
      </trkpt>
      <trkpt lat="43.398947" lon="-6.031333">
        <ele>128.0</ele>
        <time>2012-03-01T17:53:26Z</time>
      </trkpt>
      <trkpt lat="43.399241" lon="-6.03177">
        <ele>128.0</ele>
        <time>2012-03-01T17:53:30Z</time>
      </trkpt>
      <trkpt lat="43.399538" lon="-6.03221">
        <ele>128.0</ele>
        <time>2012-03-01T17:53:34Z</time>
      </trkpt>
      <trkpt lat="43.39981" lon="-6.032607">
        <ele>128.0</ele>
        <time>2012-03-01T17:53:38Z</time>
      </trkpt>
      <trkpt lat="43.400066" lon="-6.032981">
        <ele>128.0</ele>
        <time>2012-03-01T17:53:42Z</time>
      </trkpt>
      <trkpt lat="43.400325" lon="-6.033336">
        <ele>128.0</ele>
        <time>2012-03-01T17:53:46Z</time>
      </trkpt>
      <trkpt lat="43.400586" lon="-6.03368">
        <ele>128.0</ele>
        <time>2012-03-01T17:53:50Z</time>
      </trkpt>
      <trkpt lat="43.400846" lon="-6.03402">
        <ele>127.0</ele>
        <time>2012-03-01T17:53:54Z</time>
      </trkpt>
      <trkpt lat="43.401084" lon="-6.034378">
        <ele>126.0</ele>
        <time>2012-03-01T17:53:58Z</time>
      </trkpt>
      <trkpt lat="43.401282" lon="-6.034776">
        <ele>125.0</ele>
        <time>2012-03-01T17:54:02Z</time>
      </trkpt>
      <trkpt lat="43.401415" lon="-6.035228">
        <ele>125.0</ele>
        <time>2012-03-01T17:54:06Z</time>
      </trkpt>
      <trkpt lat="43.401484" lon="-6.035584">
        <ele>125.0</ele>
        <time>2012-03-01T17:54:09Z</time>
      </trkpt>
      <trkpt lat="43.401622" lon="-6.036166">
        <ele>125.0</ele>
        <time>2012-03-01T17:54:14Z</time>
      </trkpt>
      <trkpt lat="43.401754" lon="-6.036639">
        <ele>124.0</ele>
        <time>2012-03-01T17:54:18Z</time>
      </trkpt>
      <trkpt lat="43.401925" lon="-6.037112">
        <ele>124.0</ele>
        <time>2012-03-01T17:54:22Z</time>
      </trkpt>
      <trkpt lat="43.402096" lon="-6.037597">
        <ele>125.0</ele>
        <time>2012-03-01T17:54:26Z</time>
      </trkpt>
      <trkpt lat="43.402282" lon="-6.038098">
        <ele>125.0</ele>
        <time>2012-03-01T17:54:30Z</time>
      </trkpt>
      <trkpt lat="43.402469" lon="-6.038601">
        <ele>125.0</ele>
        <time>2012-03-01T17:54:34Z</time>
      </trkpt>
      <trkpt lat="43.402606" lon="-6.038974">
        <ele>125.0</ele>
        <time>2012-03-01T17:54:37Z</time>
      </trkpt>
      <trkpt lat="43.402818" lon="-6.039587">
        <ele>124.0</ele>
        <time>2012-03-01T17:54:42Z</time>
      </trkpt>
      <trkpt lat="43.402949" lon="-6.040101">
        <ele>123.0</ele>
        <time>2012-03-01T17:54:46Z</time>
      </trkpt>
      <trkpt lat="43.403021" lon="-6.04063">
        <ele>122.0</ele>
        <time>2012-03-01T17:54:50Z</time>
      </trkpt>
      <trkpt lat="43.403059" lon="-6.041181">
        <ele>122.0</ele>
        <time>2012-03-01T17:54:54Z</time>
      </trkpt>
      <trkpt lat="43.403113" lon="-6.041745">
        <ele>121.0</ele>
        <time>2012-03-01T17:54:58Z</time>
      </trkpt>
      <trkpt lat="43.403179" lon="-6.04231">
        <ele>120.0</ele>
        <time>2012-03-01T17:55:02Z</time>
      </trkpt>
      <trkpt lat="43.403223" lon="-6.042888">
        <ele>121.0</ele>
        <time>2012-03-01T17:55:06Z</time>
      </trkpt>
      <trkpt lat="43.403223" lon="-6.042888">
        <time>2012-03-01T17:55:07Z</time>
      </trkpt>
    </trkseg>
  </trk>
</gpx>